<?xml version="1.0" encoding="UTF-8"?>
<gpx version="1.1" creator="2bulu-scraper" xmlns="http://www.topografix.com/GPX/1/1">
  <metadata><name>报国寺徒步峨眉山金顶</name><desc>source: 2bulu.com trackId=79187011; exported 2026-09-01T16:11:44.290Z</desc>
    <bounds minlat="29.5223543" minlon="103.3268509" maxlat="29.574209" maxlon="103.4414823"/>
    <link href="https://www.2bulu.com/track/t-GoojsDdZYsTp%252FR2KBg5Tzw%253D%253D.htm"><text>2bulu 源页面</text></link>
  </metadata>
  <wpt lat="29.5705532" lon="103.4414823"><ele>497</ele><name>从报国寺左侧走
        </name></wpt>
  <wpt lat="29.5690221" lon="103.4409231"><ele>491</ele><name>来凤亭
        </name></wpt>
  <wpt lat="29.5656386" lon="103.4343595"><ele>541</ele><name>徒步界碑
        </name></wpt>
  <wpt lat="29.5649134" lon="103.4267156"><ele>611</ele><name>
        </name></wpt>
  <wpt lat="29.565129" lon="103.4258293"><ele>658</ele><name>参天大树
        </name></wpt>
  <wpt lat="29.5651249" lon="103.425876"><ele>657</ele><name>雷音寺
        </name></wpt>
  <wpt lat="29.5645443" lon="103.4231527"><ele>694</ele><name>听泉亭
        </name></wpt>
  <wpt lat="29.5644088" lon="103.4213089"><ele>754</ele><name>休息点
        </name></wpt>
  <wpt lat="29.5653625" lon="103.4212373"><ele>786</ele><name>红牛墙
        </name></wpt>
  <wpt lat="29.5702845" lon="103.4170403"><ele>876</ele><name>
        </name></wpt>
  <wpt lat="29.5693343" lon="103.4124697"><ele>875</ele><name>望泉亭
        </name></wpt>
  <wpt lat="29.5666546" lon="103.4079424"><ele>775</ele><name>圣水阁
        </name></wpt>
  <wpt lat="29.5717585" lon="103.4018745"><ele>728</ele><name>
        </name></wpt>
  <wpt lat="29.5728043" lon="103.3943708"><ele>689</ele><name>
        </name></wpt>
  <wpt lat="29.5741341" lon="103.3924386"><ele>654</ele><name>清音阁双桥
        </name></wpt>
  <wpt lat="29.5740438" lon="103.3920399"><ele>657</ele><name>
        </name></wpt>
  <wpt lat="29.5734416" lon="103.391751"><ele>659</ele><name>摩崖石刻
        </name></wpt>
  <wpt lat="29.5694481" lon="103.390907"><ele>664</ele><name>拱桥
        </name></wpt>
  <wpt lat="29.567666" lon="103.3907711"><ele>686</ele><name>溯溪而上
        </name></wpt>
  <wpt lat="29.5660397" lon="103.3896667"><ele>699</ele><name>进去猴区请准备好驱魔杖
        </name></wpt>
  <wpt lat="29.5583404" lon="103.387515"><ele>768</ele><name>
        </name></wpt>
  <wpt lat="29.5568329" lon="103.3860176"><ele>789</ele><name>万渡桥
        </name></wpt>
  <wpt lat="29.550959" lon="103.3737754"><ele>1224</ele><name>
        </name></wpt>
  <wpt lat="29.5502885" lon="103.3705711"><ele>1188</ele><name>准备进去九十九道拐
        </name></wpt>
  <wpt lat="29.5494079" lon="103.3663895"><ele>1448</ele><name>九十九道拐终点
        </name></wpt>
  <wpt lat="29.5499905" lon="103.3597597"><ele>1626</ele><name>休息点
        </name></wpt>
  <wpt lat="29.5503852" lon="103.3570008"><ele>1698</ele><name>灯火辉煌的仙峰寺
        </name></wpt>
  <wpt lat="29.5519848" lon="103.3526386"><ele>1616</ele><name>继续往走有瀑布
        </name></wpt>
  <wpt lat="29.5618814" lon="103.3522258"><ele>1723</ele><name>补给点
        </name></wpt>
  <wpt lat="29.5627808" lon="103.3508055"><ele>1790</ele><name>九岭岗补给点
        </name></wpt>
  <wpt lat="29.5593538" lon="103.3435946"><ele>1961</ele><name>补给点
        </name></wpt>
  <wpt lat="29.5588595" lon="103.3443026"><ele>2018</ele><name>洗象池
        </name></wpt>
  <wpt lat="29.5560927" lon="103.3444946"><ele>2109</ele><name>清泉小吃店
        </name></wpt>
  <wpt lat="29.5552016" lon="103.3450282"><ele>2163</ele><name>
        </name></wpt>
  <wpt lat="29.5493461" lon="103.3421302"><ele>2237</ele><name>
        </name></wpt>
  <wpt lat="29.5493192" lon="103.3420181"><ele>2239</ele><name>
        </name></wpt>
  <wpt lat="29.5481581" lon="103.3412073"><ele>2281</ele><name>
        </name></wpt>
  <wpt lat="29.5467515" lon="103.339283"><ele>2365</ele><name>
        </name></wpt>
  <wpt lat="29.5466076" lon="103.3371021"><ele>2424</ele><name>
        </name></wpt>
  <wpt lat="29.546202" lon="103.3347568"><ele>2399</ele><name>
        </name></wpt>
  <wpt lat="29.5424309" lon="103.3322156"><ele>2386</ele><name>灵觉寺
        </name></wpt>
  <wpt lat="29.5412982" lon="103.3317715"><ele>2384</ele><name>雷洞坪
        </name></wpt>
  <wpt lat="29.5401709" lon="103.3320981"><ele>2393</ele><name>候车大厅
        </name></wpt>
  <wpt lat="29.5372295" lon="103.3339111"><ele>2430</ele><name>
        </name></wpt>
  <wpt lat="29.5347942" lon="103.3329191"><ele>2489</ele><name>
        </name></wpt>
  <wpt lat="29.5327526" lon="103.3321199"><ele>2583</ele><name>补给点
        </name></wpt>
  <wpt lat="29.5321395" lon="103.3306924"><ele>2640</ele><name>
        </name></wpt>
  <wpt lat="29.5321228" lon="103.3303003"><ele>2658</ele><name>梳妆台
        </name></wpt>
  <wpt lat="29.5282925" lon="103.3303099"><ele>2860</ele><name>
        </name></wpt>
  <wpt lat="29.5267082" lon="103.3335311"><ele>2939</ele><name>
        </name></wpt>
  <wpt lat="29.5226918" lon="103.3348526"><ele>3003</ele><name>
        </name></wpt>
  <wpt lat="29.5224505" lon="103.3370166"><ele>3026</ele><name>
        </name></wpt>
  <trk><name>报国寺徒步峨眉山金顶</name>
      <trkseg>
        <trkpt lat="29.5706502" lon="103.4411486"><ele>495.6</ele><time>2026-02-13T22:59:12.000Z</time></trkpt>
        <trkpt lat="29.57065" lon="103.4412648"><ele>495.6</ele><time>2026-02-13T22:59:22.000Z</time></trkpt>
        <trkpt lat="29.5706299" lon="103.4413949"><ele>496.41</ele><time>2026-02-13T22:59:32.000Z</time></trkpt>
        <trkpt lat="29.5705532" lon="103.4414823"><ele>496.74</ele><time>2026-02-13T22:59:40.000Z</time></trkpt>
        <trkpt lat="29.5704736" lon="103.4414415"><ele>496.79</ele><time>2026-02-13T22:59:54.000Z</time></trkpt>
        <trkpt lat="29.5703726" lon="103.4413845"><ele>496.25</ele><time>2026-02-13T23:00:04.000Z</time></trkpt>
        <trkpt lat="29.5702739" lon="103.4413253"><ele>496.27</ele><time>2026-02-13T23:00:12.000Z</time></trkpt>
        <trkpt lat="29.5701815" lon="103.4412594"><ele>497.35</ele><time>2026-02-13T23:00:20.000Z</time></trkpt>
        <trkpt lat="29.5700871" lon="103.4411897"><ele>498.37</ele><time>2026-02-13T23:00:28.000Z</time></trkpt>
        <trkpt lat="29.5699894" lon="103.4411237"><ele>498.7</ele><time>2026-02-13T23:00:36.000Z</time></trkpt>
        <trkpt lat="29.5698879" lon="103.4410648"><ele>499</ele><time>2026-02-13T23:00:44.000Z</time></trkpt>
        <trkpt lat="29.5697845" lon="103.4410259"><ele>499.02</ele><time>2026-02-13T23:00:52.000Z</time></trkpt>
        <trkpt lat="29.5696847" lon="103.440992"><ele>499.32</ele><time>2026-02-13T23:01:00.000Z</time></trkpt>
        <trkpt lat="29.5695841" lon="103.4409712"><ele>498.98</ele><time>2026-02-13T23:01:08.000Z</time></trkpt>
        <trkpt lat="29.5694814" lon="103.440959"><ele>498.2</ele><time>2026-02-13T23:01:16.000Z</time></trkpt>
        <trkpt lat="29.5693843" lon="103.4409582"><ele>497.15</ele><time>2026-02-13T23:01:24.000Z</time></trkpt>
        <trkpt lat="29.5692915" lon="103.4409737"><ele>495.99</ele><time>2026-02-13T23:01:32.000Z</time></trkpt>
        <trkpt lat="29.5691919" lon="103.4409907"><ele>494.32</ele><time>2026-02-13T23:01:40.000Z</time></trkpt>
        <trkpt lat="29.569107" lon="103.44096"><ele>493.23</ele><time>2026-02-13T23:01:54.000Z</time></trkpt>
        <trkpt lat="29.5690221" lon="103.4409231"><ele>492.46</ele><time>2026-02-13T23:02:02.000Z</time></trkpt>
        <trkpt lat="29.5690105" lon="103.440832"><ele>491.82</ele><time>2026-02-13T23:02:12.000Z</time></trkpt>
        <trkpt lat="29.5690041" lon="103.4407191"><ele>491.51</ele><time>2026-02-13T23:02:20.000Z</time></trkpt>
        <trkpt lat="29.5689958" lon="103.440607"><ele>491.58</ele><time>2026-02-13T23:02:28.000Z</time></trkpt>
        <trkpt lat="29.5690073" lon="103.4404827"><ele>491.8</ele><time>2026-02-13T23:02:38.000Z</time></trkpt>
        <trkpt lat="29.5690072" lon="103.440366"><ele>492.02</ele><time>2026-02-13T23:02:46.000Z</time></trkpt>
        <trkpt lat="29.5689718" lon="103.4402502"><ele>492.3</ele><time>2026-02-13T23:02:56.000Z</time></trkpt>
        <trkpt lat="29.5689174" lon="103.4401436"><ele>491.66</ele><time>2026-02-13T23:03:04.000Z</time></trkpt>
        <trkpt lat="29.5688501" lon="103.4400596"><ele>491.51</ele><time>2026-02-13T23:03:12.000Z</time></trkpt>
        <trkpt lat="29.5687902" lon="103.4399771"><ele>492.47</ele><time>2026-02-13T23:03:20.000Z</time></trkpt>
        <trkpt lat="29.5687268" lon="103.4398898"><ele>493.39</ele><time>2026-02-13T23:03:28.000Z</time></trkpt>
        <trkpt lat="29.5686638" lon="103.4398061"><ele>494.91</ele><time>2026-02-13T23:03:36.000Z</time></trkpt>
        <trkpt lat="29.5686337" lon="103.439736"><ele>496.24</ele><time>2026-02-13T23:03:44.000Z</time></trkpt>
        <trkpt lat="29.5686337" lon="103.439736"><ele>496.24</ele><time>2026-02-13T23:03:57.000Z</time></trkpt>
        <trkpt lat="29.5685786" lon="103.4396559"><ele>496.06</ele><time>2026-02-13T23:04:35.000Z</time></trkpt>
        <trkpt lat="29.5685786" lon="103.4396559"><ele>496.06</ele><time>2026-02-13T23:04:42.000Z</time></trkpt>
        <trkpt lat="29.5685259" lon="103.439561"><ele>500.07</ele><time>2026-02-13T23:04:52.000Z</time></trkpt>
        <trkpt lat="29.5684523" lon="103.4394666"><ele>501.96</ele><time>2026-02-13T23:05:00.000Z</time></trkpt>
        <trkpt lat="29.5683765" lon="103.4393687"><ele>504.38</ele><time>2026-02-13T23:05:10.000Z</time></trkpt>
        <trkpt lat="29.568298" lon="103.4392852"><ele>502.67</ele><time>2026-02-13T23:05:18.000Z</time></trkpt>
        <trkpt lat="29.5682157" lon="103.4392219"><ele>501.76</ele><time>2026-02-13T23:05:24.000Z</time></trkpt>
        <trkpt lat="29.5681141" lon="103.4391679"><ele>501.64</ele><time>2026-02-13T23:05:33.000Z</time></trkpt>
        <trkpt lat="29.5680467" lon="103.4391458"><ele>501.73</ele><time>2026-02-13T23:05:41.000Z</time></trkpt>
        <trkpt lat="29.5680098" lon="103.4390675"><ele>502.88</ele><time>2026-02-13T23:05:49.000Z</time></trkpt>
        <trkpt lat="29.567985" lon="103.4389676"><ele>502.64</ele><time>2026-02-13T23:05:55.000Z</time></trkpt>
        <trkpt lat="29.5679166" lon="103.4388858"><ele>503.24</ele><time>2026-02-13T23:06:03.000Z</time></trkpt>
        <trkpt lat="29.5678379" lon="103.4388117"><ele>504.28</ele><time>2026-02-13T23:06:09.000Z</time></trkpt>
        <trkpt lat="29.5677582" lon="103.438721"><ele>505.31</ele><time>2026-02-13T23:06:17.000Z</time></trkpt>
        <trkpt lat="29.5676849" lon="103.4386163"><ele>505.99</ele><time>2026-02-13T23:06:27.000Z</time></trkpt>
        <trkpt lat="29.5676235" lon="103.4385084"><ele>506.58</ele><time>2026-02-13T23:06:35.000Z</time></trkpt>
        <trkpt lat="29.5675619" lon="103.4384203"><ele>506.39</ele><time>2026-02-13T23:06:43.000Z</time></trkpt>
        <trkpt lat="29.5674986" lon="103.4383445"><ele>504.13</ele><time>2026-02-13T23:06:51.000Z</time></trkpt>
        <trkpt lat="29.5674376" lon="103.4382656"><ele>503.56</ele><time>2026-02-13T23:06:59.000Z</time></trkpt>
        <trkpt lat="29.567387" lon="103.4381769"><ele>505.47</ele><time>2026-02-13T23:07:07.000Z</time></trkpt>
        <trkpt lat="29.5673427" lon="103.4380671"><ele>506.5</ele><time>2026-02-13T23:07:15.000Z</time></trkpt>
        <trkpt lat="29.5672871" lon="103.4379789"><ele>507.94</ele><time>2026-02-13T23:07:23.000Z</time></trkpt>
        <trkpt lat="29.5672286" lon="103.4378811"><ele>510.92</ele><time>2026-02-13T23:07:33.000Z</time></trkpt>
        <trkpt lat="29.5671951" lon="103.4377955"><ele>511.76</ele><time>2026-02-13T23:07:43.000Z</time></trkpt>
        <trkpt lat="29.567128" lon="103.4377054"><ele>511.78</ele><time>2026-02-13T23:07:57.000Z</time></trkpt>
        <trkpt lat="29.5670521" lon="103.437607"><ele>511.95</ele><time>2026-02-13T23:08:05.000Z</time></trkpt>
        <trkpt lat="29.5669812" lon="103.437505"><ele>512.18</ele><time>2026-02-13T23:08:13.000Z</time></trkpt>
        <trkpt lat="29.5669212" lon="103.4373909"><ele>513.01</ele><time>2026-02-13T23:08:23.000Z</time></trkpt>
        <trkpt lat="29.5668601" lon="103.4372783"><ele>513.76</ele><time>2026-02-13T23:08:33.000Z</time></trkpt>
        <trkpt lat="29.5668034" lon="103.4371749"><ele>514.32</ele><time>2026-02-13T23:08:41.000Z</time></trkpt>
        <trkpt lat="29.5667572" lon="103.4370788"><ele>516.74</ele><time>2026-02-13T23:08:49.000Z</time></trkpt>
        <trkpt lat="29.5666983" lon="103.4369756"><ele>518.29</ele><time>2026-02-13T23:08:59.000Z</time></trkpt>
        <trkpt lat="29.5666384" lon="103.4368748"><ele>520.09</ele><time>2026-02-13T23:09:07.000Z</time></trkpt>
        <trkpt lat="29.5665749" lon="103.4367859"><ele>522.79</ele><time>2026-02-13T23:09:15.000Z</time></trkpt>
        <trkpt lat="29.5665255" lon="103.4366787"><ele>524.09</ele><time>2026-02-13T23:09:25.000Z</time></trkpt>
        <trkpt lat="29.5664777" lon="103.4365775"><ele>523.34</ele><time>2026-02-13T23:09:33.000Z</time></trkpt>
        <trkpt lat="29.5664752" lon="103.4365122"><ele>522.31</ele><time>2026-02-13T23:09:41.000Z</time></trkpt>
        <trkpt lat="29.5664752" lon="103.4365122"><ele>522.31</ele><time>2026-02-13T23:09:49.000Z</time></trkpt>
        <trkpt lat="29.5664037" lon="103.4364999"><ele>520.81</ele><time>2026-02-13T23:09:51.000Z</time></trkpt>
        <trkpt lat="29.5664037" lon="103.4364999"><ele>520.81</ele><time>2026-02-13T23:10:51.000Z</time></trkpt>
        <trkpt lat="29.5664037" lon="103.4364999"><ele>520.81</ele><time>2026-02-13T23:10:55.000Z</time></trkpt>
        <trkpt lat="29.5663487" lon="103.4363974"><ele>520.62</ele><time>2026-02-13T23:11:09.000Z</time></trkpt>
        <trkpt lat="29.5663487" lon="103.4363974"><ele>520.62</ele><time>2026-02-13T23:11:15.000Z</time></trkpt>
        <trkpt lat="29.5663273" lon="103.4362851"><ele>520.42</ele><time>2026-02-13T23:11:23.000Z</time></trkpt>
        <trkpt lat="29.5662997" lon="103.4361619"><ele>520.64</ele><time>2026-02-13T23:11:31.000Z</time></trkpt>
        <trkpt lat="29.5662602" lon="103.4360448"><ele>522.57</ele><time>2026-02-13T23:11:39.000Z</time></trkpt>
        <trkpt lat="29.566207" lon="103.4359332"><ele>523.78</ele><time>2026-02-13T23:11:47.000Z</time></trkpt>
        <trkpt lat="29.5661579" lon="103.4358224"><ele>524.97</ele><time>2026-02-13T23:11:55.000Z</time></trkpt>
        <trkpt lat="29.5661091" lon="103.4357031"><ele>526.96</ele><time>2026-02-13T23:12:03.000Z</time></trkpt>
        <trkpt lat="29.5660761" lon="103.4355952"><ele>528.19</ele><time>2026-02-13T23:12:11.000Z</time></trkpt>
        <trkpt lat="29.5660564" lon="103.4356035"><ele>528.2</ele><time>2026-02-13T23:12:15.000Z</time></trkpt>
        <trkpt lat="29.5660498" lon="103.4355247"><ele>526.54</ele><time>2026-02-13T23:12:37.000Z</time></trkpt>
        <trkpt lat="29.5660505" lon="103.4354105"><ele>525.41</ele><time>2026-02-13T23:12:45.000Z</time></trkpt>
        <trkpt lat="29.5660338" lon="103.4352974"><ele>523.99</ele><time>2026-02-13T23:12:53.000Z</time></trkpt>
        <trkpt lat="29.5659999" lon="103.4351849"><ele>523.56</ele><time>2026-02-13T23:13:03.000Z</time></trkpt>
        <trkpt lat="29.5659453" lon="103.4350875"><ele>523.05</ele><time>2026-02-13T23:13:13.000Z</time></trkpt>
        <trkpt lat="29.5658887" lon="103.4349967"><ele>525.15</ele><time>2026-02-13T23:13:23.000Z</time></trkpt>
        <trkpt lat="29.565808" lon="103.4349275"><ele>526.26</ele><time>2026-02-13T23:13:33.000Z</time></trkpt>
        <trkpt lat="29.5657278" lon="103.4348659"><ele>527.99</ele><time>2026-02-13T23:13:41.000Z</time></trkpt>
        <trkpt lat="29.5656416" lon="103.4347873"><ele>530.17</ele><time>2026-02-13T23:13:51.000Z</time></trkpt>
        <trkpt lat="29.5655788" lon="103.4346869"><ele>532.44</ele><time>2026-02-13T23:14:01.000Z</time></trkpt>
        <trkpt lat="29.5655507" lon="103.434568"><ele>534.1</ele><time>2026-02-13T23:14:11.000Z</time></trkpt>
        <trkpt lat="29.5655776" lon="103.434459"><ele>535.96</ele><time>2026-02-13T23:14:19.000Z</time></trkpt>
        <trkpt lat="29.5656386" lon="103.4343595"><ele>537.03</ele><time>2026-02-13T23:14:27.000Z</time></trkpt>
        <trkpt lat="29.5656664" lon="103.4343279"><ele>538.87</ele><time>2026-02-13T23:14:31.000Z</time></trkpt>
        <trkpt lat="29.5656664" lon="103.4343279"><ele>538.87</ele><time>2026-02-13T23:15:05.000Z</time></trkpt>
        <trkpt lat="29.5657435" lon="103.4342759"><ele>539.73</ele><time>2026-02-13T23:15:11.000Z</time></trkpt>
        <trkpt lat="29.5657435" lon="103.4342759"><ele>539.73</ele><time>2026-02-13T23:15:31.000Z</time></trkpt>
        <trkpt lat="29.5657834" lon="103.4341563"><ele>540.12</ele><time>2026-02-13T23:15:43.000Z</time></trkpt>
        <trkpt lat="29.5657728" lon="103.4340347"><ele>540.08</ele><time>2026-02-13T23:15:55.000Z</time></trkpt>
        <trkpt lat="29.5657612" lon="103.4339164"><ele>541.72</ele><time>2026-02-13T23:16:05.000Z</time></trkpt>
        <trkpt lat="29.5657542" lon="103.4338073"><ele>543.27</ele><time>2026-02-13T23:16:13.000Z</time></trkpt>
        <trkpt lat="29.5657594" lon="103.4336922"><ele>544.57</ele><time>2026-02-13T23:16:23.000Z</time></trkpt>
        <trkpt lat="29.5657604" lon="103.4335762"><ele>545.38</ele><time>2026-02-13T23:16:31.000Z</time></trkpt>
        <trkpt lat="29.5657624" lon="103.4334407"><ele>546.17</ele><time>2026-02-13T23:16:39.000Z</time></trkpt>
        <trkpt lat="29.5657618" lon="103.4333201"><ele>546.19</ele><time>2026-02-13T23:16:47.000Z</time></trkpt>
        <trkpt lat="29.5657597" lon="103.4332057"><ele>546.88</ele><time>2026-02-13T23:16:57.000Z</time></trkpt>
        <trkpt lat="29.5657643" lon="103.4330787"><ele>547.75</ele><time>2026-02-13T23:17:05.000Z</time></trkpt>
        <trkpt lat="29.5657455" lon="103.4329702"><ele>549.32</ele><time>2026-02-13T23:17:13.000Z</time></trkpt>
        <trkpt lat="29.5656933" lon="103.4328777"><ele>549.2</ele><time>2026-02-13T23:17:19.000Z</time></trkpt>
        <trkpt lat="29.5656438" lon="103.432785"><ele>550.74</ele><time>2026-02-13T23:17:27.000Z</time></trkpt>
        <trkpt lat="29.5655874" lon="103.4326871"><ele>551.66</ele><time>2026-02-13T23:17:35.000Z</time></trkpt>
        <trkpt lat="29.5655458" lon="103.4325834"><ele>551.55</ele><time>2026-02-13T23:17:45.000Z</time></trkpt>
        <trkpt lat="29.5655117" lon="103.4324805"><ele>553.8</ele><time>2026-02-13T23:17:55.000Z</time></trkpt>
        <trkpt lat="29.565486" lon="103.4323738"><ele>556.64</ele><time>2026-02-13T23:18:03.000Z</time></trkpt>
        <trkpt lat="29.5654621" lon="103.4322694"><ele>557.35</ele><time>2026-02-13T23:18:11.000Z</time></trkpt>
        <trkpt lat="29.5654472" lon="103.4321831"><ele>557.4</ele><time>2026-02-13T23:18:23.000Z</time></trkpt>
        <trkpt lat="29.5653954" lon="103.4321106"><ele>556.37</ele><time>2026-02-13T23:18:39.000Z</time></trkpt>
        <trkpt lat="29.5653403" lon="103.4320235"><ele>556.99</ele><time>2026-02-13T23:18:49.000Z</time></trkpt>
        <trkpt lat="29.565319" lon="103.4320101"><ele>559.2</ele><time>2026-02-13T23:18:51.000Z</time></trkpt>
        <trkpt lat="29.5652973" lon="103.4319314"><ele>560.64</ele><time>2026-02-13T23:19:07.000Z</time></trkpt>
        <trkpt lat="29.565315" lon="103.4318227"><ele>562.31</ele><time>2026-02-13T23:19:31.000Z</time></trkpt>
        <trkpt lat="29.5653715" lon="103.4317331"><ele>563.11</ele><time>2026-02-13T23:19:49.000Z</time></trkpt>
        <trkpt lat="29.5654246" lon="103.4316345"><ele>563.14</ele><time>2026-02-13T23:19:57.000Z</time></trkpt>
        <trkpt lat="29.565464" lon="103.4315233"><ele>562.21</ele><time>2026-02-13T23:20:09.000Z</time></trkpt>
        <trkpt lat="29.5655009" lon="103.4314121"><ele>562.16</ele><time>2026-02-13T23:20:21.000Z</time></trkpt>
        <trkpt lat="29.5655374" lon="103.4313059"><ele>561.88</ele><time>2026-02-13T23:20:33.000Z</time></trkpt>
        <trkpt lat="29.5655565" lon="103.4311949"><ele>560.66</ele><time>2026-02-13T23:20:43.000Z</time></trkpt>
        <trkpt lat="29.5655791" lon="103.4310809"><ele>561.17</ele><time>2026-02-13T23:20:51.000Z</time></trkpt>
        <trkpt lat="29.565558" lon="103.4309561"><ele>562.28</ele><time>2026-02-13T23:20:59.000Z</time></trkpt>
        <trkpt lat="29.5654877" lon="103.4308669"><ele>565.18</ele><time>2026-02-13T23:21:09.000Z</time></trkpt>
        <trkpt lat="29.5653973" lon="103.4307929"><ele>568.39</ele><time>2026-02-13T23:21:19.000Z</time></trkpt>
        <trkpt lat="29.5653682" lon="103.4306849"><ele>572.53</ele><time>2026-02-13T23:21:29.000Z</time></trkpt>
        <trkpt lat="29.565359" lon="103.4306201"><ele>574.16</ele><time>2026-02-13T23:21:43.000Z</time></trkpt>
        <trkpt lat="29.5653157" lon="103.4305432"><ele>575.26</ele><time>2026-02-13T23:22:05.000Z</time></trkpt>
        <trkpt lat="29.565302" lon="103.4304419"><ele>576.44</ele><time>2026-02-13T23:22:15.000Z</time></trkpt>
        <trkpt lat="29.5652995" lon="103.4303225"><ele>576.5</ele><time>2026-02-13T23:22:35.000Z</time></trkpt>
        <trkpt lat="29.5652903" lon="103.4302086"><ele>576.33</ele><time>2026-02-13T23:22:43.000Z</time></trkpt>
        <trkpt lat="29.5652817" lon="103.4300933"><ele>575.81</ele><time>2026-02-13T23:22:51.000Z</time></trkpt>
        <trkpt lat="29.5652656" lon="103.4299842"><ele>576.33</ele><time>2026-02-13T23:22:59.000Z</time></trkpt>
        <trkpt lat="29.5652313" lon="103.4298735"><ele>576.34</ele><time>2026-02-13T23:23:07.000Z</time></trkpt>
        <trkpt lat="29.5651729" lon="103.4297623"><ele>577.39</ele><time>2026-02-13T23:23:17.000Z</time></trkpt>
        <trkpt lat="29.5651274" lon="103.4296622"><ele>578.46</ele><time>2026-02-13T23:23:25.000Z</time></trkpt>
        <trkpt lat="29.5650865" lon="103.4295446"><ele>579.69</ele><time>2026-02-13T23:23:35.000Z</time></trkpt>
        <trkpt lat="29.5650224" lon="103.4294359"><ele>582.42</ele><time>2026-02-13T23:23:45.000Z</time></trkpt>
        <trkpt lat="29.5649519" lon="103.4293352"><ele>585.24</ele><time>2026-02-13T23:23:53.000Z</time></trkpt>
        <trkpt lat="29.5649056" lon="103.4292245"><ele>586.85</ele><time>2026-02-13T23:24:03.000Z</time></trkpt>
        <trkpt lat="29.5648745" lon="103.4290973"><ele>587.12</ele><time>2026-02-13T23:24:11.000Z</time></trkpt>
        <trkpt lat="29.5648581" lon="103.4289703"><ele>586.9</ele><time>2026-02-13T23:24:19.000Z</time></trkpt>
        <trkpt lat="29.5648412" lon="103.4288603"><ele>586.75</ele><time>2026-02-13T23:24:25.000Z</time></trkpt>
        <trkpt lat="29.5648184" lon="103.4287586"><ele>585.32</ele><time>2026-02-13T23:24:31.000Z</time></trkpt>
        <trkpt lat="29.5648015" lon="103.4286418"><ele>584.29</ele><time>2026-02-13T23:24:41.000Z</time></trkpt>
        <trkpt lat="29.5648164" lon="103.4285361"><ele>583.27</ele><time>2026-02-13T23:24:49.000Z</time></trkpt>
        <trkpt lat="29.5648711" lon="103.4284434"><ele>583.99</ele><time>2026-02-13T23:24:57.000Z</time></trkpt>
        <trkpt lat="29.5649539" lon="103.4283805"><ele>585.89</ele><time>2026-02-13T23:25:05.000Z</time></trkpt>
        <trkpt lat="29.5650446" lon="103.4283375"><ele>587.3</ele><time>2026-02-13T23:25:13.000Z</time></trkpt>
        <trkpt lat="29.5651352" lon="103.4282923"><ele>588.53</ele><time>2026-02-13T23:25:21.000Z</time></trkpt>
        <trkpt lat="29.5652127" lon="103.4282258"><ele>589.72</ele><time>2026-02-13T23:25:29.000Z</time></trkpt>
        <trkpt lat="29.5653052" lon="103.4281427"><ele>589.68</ele><time>2026-02-13T23:25:37.000Z</time></trkpt>
        <trkpt lat="29.5653946" lon="103.4280717"><ele>590.82</ele><time>2026-02-13T23:25:43.000Z</time></trkpt>
        <trkpt lat="29.5654873" lon="103.4279958"><ele>591.39</ele><time>2026-02-13T23:25:51.000Z</time></trkpt>
        <trkpt lat="29.5655317" lon="103.4278926"><ele>589.07</ele><time>2026-02-13T23:26:01.000Z</time></trkpt>
        <trkpt lat="29.565503" lon="103.4277832"><ele>588.12</ele><time>2026-02-13T23:26:11.000Z</time></trkpt>
        <trkpt lat="29.5654572" lon="103.4276788"><ele>589.02</ele><time>2026-02-13T23:26:19.000Z</time></trkpt>
        <trkpt lat="29.5654218" lon="103.4275755"><ele>590.4</ele><time>2026-02-13T23:26:27.000Z</time></trkpt>
        <trkpt lat="29.5653923" lon="103.4274724"><ele>592.15</ele><time>2026-02-13T23:26:35.000Z</time></trkpt>
        <trkpt lat="29.5653692" lon="103.4273545"><ele>594.99</ele><time>2026-02-13T23:26:45.000Z</time></trkpt>
        <trkpt lat="29.5653364" lon="103.4272379"><ele>597.56</ele><time>2026-02-13T23:26:53.000Z</time></trkpt>
        <trkpt lat="29.5653015" lon="103.42713"><ele>599.23</ele><time>2026-02-13T23:27:01.000Z</time></trkpt>
        <trkpt lat="29.5652247" lon="103.427053"><ele>600.54</ele><time>2026-02-13T23:27:11.000Z</time></trkpt>
        <trkpt lat="29.5651301" lon="103.4270004"><ele>602.74</ele><time>2026-02-13T23:27:17.000Z</time></trkpt>
        <trkpt lat="29.5650427" lon="103.4269401"><ele>606.19</ele><time>2026-02-13T23:27:25.000Z</time></trkpt>
        <trkpt lat="29.5649599" lon="103.4268884"><ele>608.43</ele><time>2026-02-13T23:27:37.000Z</time></trkpt>
        <trkpt lat="29.5649162" lon="103.4267927"><ele>610.2</ele><time>2026-02-13T23:27:45.000Z</time></trkpt>
        <trkpt lat="29.5649134" lon="103.4267156"><ele>611.57</ele><time>2026-02-13T23:27:53.000Z</time></trkpt>
        <trkpt lat="29.5649704" lon="103.4266403"><ele>611.14</ele><time>2026-02-13T23:28:17.000Z</time></trkpt>
        <trkpt lat="29.565027" lon="103.4265493"><ele>611.34</ele><time>2026-02-13T23:28:31.000Z</time></trkpt>
        <trkpt lat="29.5650681" lon="103.4264442"><ele>614.54</ele><time>2026-02-13T23:28:49.000Z</time></trkpt>
        <trkpt lat="29.5651055" lon="103.4263396"><ele>616.62</ele><time>2026-02-13T23:29:07.000Z</time></trkpt>
        <trkpt lat="29.5651028" lon="103.4262299"><ele>618.02</ele><time>2026-02-13T23:29:25.000Z</time></trkpt>
        <trkpt lat="29.5651319" lon="103.4261244"><ele>621.93</ele><time>2026-02-13T23:29:47.000Z</time></trkpt>
        <trkpt lat="29.5651634" lon="103.4260198"><ele>627.07</ele><time>2026-02-13T23:30:13.000Z</time></trkpt>
        <trkpt lat="29.5652078" lon="103.4259237"><ele>631.48</ele><time>2026-02-13T23:30:33.000Z</time></trkpt>
        <trkpt lat="29.5652122" lon="103.4258221"><ele>637.07</ele><time>2026-02-13T23:30:55.000Z</time></trkpt>
        <trkpt lat="29.5652497" lon="103.425734"><ele>640.81</ele><time>2026-02-13T23:31:17.000Z</time></trkpt>
        <trkpt lat="29.5652059" lon="103.4257635"><ele>646.79</ele><time>2026-02-13T23:31:29.000Z</time></trkpt>
        <trkpt lat="29.565129" lon="103.4258293"><ele>648.33</ele><time>2026-02-13T23:31:49.000Z</time></trkpt>
        <trkpt lat="29.5651593" lon="103.425804"><ele>652.33</ele><time>2026-02-13T23:32:07.000Z</time></trkpt>
        <trkpt lat="29.5651593" lon="103.425804"><ele>652.33</ele><time>2026-02-13T23:32:51.000Z</time></trkpt>
        <trkpt lat="29.5651249" lon="103.425876"><ele>651.97</ele><time>2026-02-13T23:33:31.000Z</time></trkpt>
        <trkpt lat="29.5651249" lon="103.425876"><ele>651.97</ele><time>2026-02-13T23:33:43.000Z</time></trkpt>
        <trkpt lat="29.5650216" lon="103.4258535"><ele>654.25</ele><time>2026-02-13T23:34:46.000Z</time></trkpt>
        <trkpt lat="29.5649728" lon="103.4257547"><ele>655.32</ele><time>2026-02-13T23:34:52.000Z</time></trkpt>
        <trkpt lat="29.5648949" lon="103.4257017"><ele>656.01</ele><time>2026-02-13T23:35:02.000Z</time></trkpt>
        <trkpt lat="29.5648554" lon="103.4256079"><ele>656.38</ele><time>2026-02-13T23:35:08.000Z</time></trkpt>
        <trkpt lat="29.5648653" lon="103.4255075"><ele>657.46</ele><time>2026-02-13T23:35:16.000Z</time></trkpt>
        <trkpt lat="29.5648433" lon="103.4254564"><ele>657.63</ele><time>2026-02-13T23:35:22.000Z</time></trkpt>
        <trkpt lat="29.5648413" lon="103.4255485"><ele>655.82</ele><time>2026-02-13T23:35:40.000Z</time></trkpt>
        <trkpt lat="29.5648923" lon="103.4256462"><ele>655.4</ele><time>2026-02-13T23:35:48.000Z</time></trkpt>
        <trkpt lat="29.5649659" lon="103.4257342"><ele>656.18</ele><time>2026-02-13T23:35:56.000Z</time></trkpt>
        <trkpt lat="29.5650256" lon="103.4258385"><ele>656.77</ele><time>2026-02-13T23:36:06.000Z</time></trkpt>
        <trkpt lat="29.5651084" lon="103.4259173"><ele>657.97</ele><time>2026-02-13T23:36:14.000Z</time></trkpt>
        <trkpt lat="29.5651084" lon="103.4259173"><ele>657.97</ele><time>2026-02-13T23:36:27.000Z</time></trkpt>
        <trkpt lat="29.5651811" lon="103.4258785"><ele>657.7</ele><time>2026-02-13T23:36:35.000Z</time></trkpt>
        <trkpt lat="29.5651811" lon="103.4258785"><ele>657.7</ele><time>2026-02-13T23:36:42.000Z</time></trkpt>
        <trkpt lat="29.5652579" lon="103.4258116"><ele>656.65</ele><time>2026-02-13T23:36:54.000Z</time></trkpt>
        <trkpt lat="29.5652433" lon="103.425716"><ele>656.29</ele><time>2026-02-13T23:37:08.000Z</time></trkpt>
        <trkpt lat="29.5651726" lon="103.4256276"><ele>656.06</ele><time>2026-02-13T23:37:16.000Z</time></trkpt>
        <trkpt lat="29.5650795" lon="103.4255258"><ele>653.91</ele><time>2026-02-13T23:37:32.000Z</time></trkpt>
        <trkpt lat="29.5649965" lon="103.4254262"><ele>652.02</ele><time>2026-02-13T23:37:38.000Z</time></trkpt>
        <trkpt lat="29.564942" lon="103.4253075"><ele>650.7</ele><time>2026-02-13T23:37:46.000Z</time></trkpt>
        <trkpt lat="29.5648675" lon="103.425219"><ele>649.32</ele><time>2026-02-13T23:37:54.000Z</time></trkpt>
        <trkpt lat="29.5647969" lon="103.4251377"><ele>647.73</ele><time>2026-02-13T23:38:02.000Z</time></trkpt>
        <trkpt lat="29.5647695" lon="103.4250408"><ele>648.81</ele><time>2026-02-13T23:38:14.000Z</time></trkpt>
        <trkpt lat="29.5647724" lon="103.4249283"><ele>650.71</ele><time>2026-02-13T23:38:34.000Z</time></trkpt>
        <trkpt lat="29.5647335" lon="103.4248316"><ele>651.95</ele><time>2026-02-13T23:38:48.000Z</time></trkpt>
        <trkpt lat="29.5647067" lon="103.4247166"><ele>653.66</ele><time>2026-02-13T23:39:10.000Z</time></trkpt>
        <trkpt lat="29.5646971" lon="103.4246072"><ele>655.72</ele><time>2026-02-13T23:39:20.000Z</time></trkpt>
        <trkpt lat="29.5646904" lon="103.4245017"><ele>656.49</ele><time>2026-02-13T23:39:38.000Z</time></trkpt>
        <trkpt lat="29.5646758" lon="103.4243962"><ele>660.73</ele><time>2026-02-13T23:39:50.000Z</time></trkpt>
        <trkpt lat="29.5646317" lon="103.4242973"><ele>662.22</ele><time>2026-02-13T23:40:02.000Z</time></trkpt>
        <trkpt lat="29.5646273" lon="103.4242234"><ele>664.37</ele><time>2026-02-13T23:40:18.000Z</time></trkpt>
        <trkpt lat="29.5646273" lon="103.4242234"><ele>664.37</ele><time>2026-02-13T23:40:29.000Z</time></trkpt>
        <trkpt lat="29.5645992" lon="103.4241374"><ele>666.48</ele><time>2026-02-13T23:40:31.000Z</time></trkpt>
        <trkpt lat="29.5645992" lon="103.4241374"><ele>666.48</ele><time>2026-02-13T23:40:46.000Z</time></trkpt>
        <trkpt lat="29.5645199" lon="103.4241044"><ele>670.51</ele><time>2026-02-13T23:41:06.000Z</time></trkpt>
        <trkpt lat="29.5644794" lon="103.4240233"><ele>671.8</ele><time>2026-02-13T23:41:22.000Z</time></trkpt>
        <trkpt lat="29.5644034" lon="103.4239678"><ele>675.04</ele><time>2026-02-13T23:41:38.000Z</time></trkpt>
        <trkpt lat="29.5643715" lon="103.4238749"><ele>675.5</ele><time>2026-02-13T23:41:50.000Z</time></trkpt>
        <trkpt lat="29.564365" lon="103.4237654"><ele>676.56</ele><time>2026-02-13T23:42:04.000Z</time></trkpt>
        <trkpt lat="29.564353" lon="103.4236492"><ele>678.47</ele><time>2026-02-13T23:42:22.000Z</time></trkpt>
        <trkpt lat="29.5643866" lon="103.4235482"><ele>681.11</ele><time>2026-02-13T23:42:30.000Z</time></trkpt>
        <trkpt lat="29.5644554" lon="103.4234723"><ele>684.45</ele><time>2026-02-13T23:42:40.000Z</time></trkpt>
        <trkpt lat="29.5644749" lon="103.4234409"><ele>687.34</ele><time>2026-02-13T23:42:42.000Z</time></trkpt>
        <trkpt lat="29.564511" lon="103.4233681"><ele>688.78</ele><time>2026-02-13T23:42:56.000Z</time></trkpt>
        <trkpt lat="29.5645435" lon="103.4232656"><ele>690.49</ele><time>2026-02-13T23:43:16.000Z</time></trkpt>
        <trkpt lat="29.5645443" lon="103.4231527"><ele>693.8</ele><time>2026-02-13T23:43:36.000Z</time></trkpt>
        <trkpt lat="29.5645527" lon="103.4230366"><ele>694.07</ele><time>2026-02-13T23:44:06.000Z</time></trkpt>
        <trkpt lat="29.5645374" lon="103.4229255"><ele>697.27</ele><time>2026-02-13T23:44:16.000Z</time></trkpt>
        <trkpt lat="29.564534" lon="103.4228169"><ele>700.77</ele><time>2026-02-13T23:44:34.000Z</time></trkpt>
        <trkpt lat="29.5644984" lon="103.4227196"><ele>702.85</ele><time>2026-02-13T23:44:56.000Z</time></trkpt>
        <trkpt lat="29.5644706" lon="103.4226148"><ele>705.45</ele><time>2026-02-13T23:45:52.000Z</time></trkpt>
        <trkpt lat="29.5644297" lon="103.4225072"><ele>707.52</ele><time>2026-02-13T23:46:10.000Z</time></trkpt>
        <trkpt lat="29.5644426" lon="103.4224025"><ele>709.88</ele><time>2026-02-13T23:46:26.000Z</time></trkpt>
        <trkpt lat="29.5644617" lon="103.4222935"><ele>712.55</ele><time>2026-02-13T23:46:50.000Z</time></trkpt>
        <trkpt lat="29.5644208" lon="103.4222027"><ele>714.96</ele><time>2026-02-13T23:47:06.000Z</time></trkpt>
        <trkpt lat="29.5644298" lon="103.4221046"><ele>716.17</ele><time>2026-02-13T23:47:18.000Z</time></trkpt>
        <trkpt lat="29.5644298" lon="103.4221046"><ele>716.17</ele><time>2026-02-13T23:47:51.000Z</time></trkpt>
        <trkpt lat="29.5643928" lon="103.4220078"><ele>718.98</ele><time>2026-02-13T23:47:53.000Z</time></trkpt>
        <trkpt lat="29.5643928" lon="103.4220078"><ele>718.98</ele><time>2026-02-13T23:47:58.000Z</time></trkpt>
        <trkpt lat="29.564356" lon="103.4218977"><ele>722.86</ele><time>2026-02-13T23:48:16.000Z</time></trkpt>
        <trkpt lat="29.5643951" lon="103.4218094"><ele>724.42</ele><time>2026-02-13T23:48:30.000Z</time></trkpt>
        <trkpt lat="29.5643938" lon="103.4217125"><ele>728.77</ele><time>2026-02-13T23:48:50.000Z</time></trkpt>
        <trkpt lat="29.5643669" lon="103.4216149"><ele>732.92</ele><time>2026-02-13T23:49:12.000Z</time></trkpt>
        <trkpt lat="29.5643512" lon="103.4215124"><ele>736.75</ele><time>2026-02-13T23:49:38.000Z</time></trkpt>
        <trkpt lat="29.5643186" lon="103.4214137"><ele>740.03</ele><time>2026-02-13T23:50:02.000Z</time></trkpt>
        <trkpt lat="29.5643333" lon="103.4213169"><ele>745.15</ele><time>2026-02-13T23:50:22.000Z</time></trkpt>
        <trkpt lat="29.5644088" lon="103.4213089"><ele>748.54</ele><time>2026-02-13T23:50:34.000Z</time></trkpt>
        <trkpt lat="29.5644088" lon="103.4213089"><ele>748.54</ele><time>2026-02-13T23:51:11.000Z</time></trkpt>
        <trkpt lat="29.5644088" lon="103.4213089"><ele>748.54</ele><time>2026-02-13T23:51:13.000Z</time></trkpt>
        <trkpt lat="29.5644088" lon="103.4213089"><ele>748.54</ele><time>2026-02-13T23:51:29.000Z</time></trkpt>
        <trkpt lat="29.5644088" lon="103.4213089"><ele>748.54</ele><time>2026-02-13T23:51:31.000Z</time></trkpt>
        <trkpt lat="29.5644088" lon="103.4213089"><ele>748.54</ele><time>2026-02-13T23:52:11.000Z</time></trkpt>
        <trkpt lat="29.5644088" lon="103.4213089"><ele>748.54</ele><time>2026-02-13T23:52:21.000Z</time></trkpt>
        <trkpt lat="29.5644088" lon="103.4213089"><ele>748.54</ele><time>2026-02-13T23:52:35.000Z</time></trkpt>
        <trkpt lat="29.5644088" lon="103.4213089"><ele>748.54</ele><time>2026-02-13T23:52:41.000Z</time></trkpt>
        <trkpt lat="29.5644088" lon="103.4213089"><ele>748.54</ele><time>2026-02-13T23:52:57.000Z</time></trkpt>
        <trkpt lat="29.5644088" lon="103.4213089"><ele>748.54</ele><time>2026-02-13T23:53:07.000Z</time></trkpt>
        <trkpt lat="29.5644088" lon="103.4213089"><ele>748.54</ele><time>2026-02-13T23:53:23.000Z</time></trkpt>
        <trkpt lat="29.5644958" lon="103.4212425"><ele>750.86</ele><time>2026-02-13T23:54:33.000Z</time></trkpt>
        <trkpt lat="29.5644958" lon="103.4212425"><ele>750.86</ele><time>2026-02-13T23:54:42.000Z</time></trkpt>
        <trkpt lat="29.5645847" lon="103.4212164"><ele>751.22</ele><time>2026-02-13T23:54:50.000Z</time></trkpt>
        <trkpt lat="29.5646653" lon="103.4211414"><ele>751.78</ele><time>2026-02-13T23:55:04.000Z</time></trkpt>
        <trkpt lat="29.5647204" lon="103.4210472"><ele>751.72</ele><time>2026-02-13T23:55:18.000Z</time></trkpt>
        <trkpt lat="29.5647706" lon="103.4210898"><ele>753.93</ele><time>2026-02-13T23:55:26.000Z</time></trkpt>
        <trkpt lat="29.5648057" lon="103.4211932"><ele>756.66</ele><time>2026-02-13T23:55:36.000Z</time></trkpt>
        <trkpt lat="29.5648665" lon="103.4212897"><ele>760.95</ele><time>2026-02-13T23:55:50.000Z</time></trkpt>
        <trkpt lat="29.5649209" lon="103.42139"><ele>764.01</ele><time>2026-02-13T23:56:06.000Z</time></trkpt>
        <trkpt lat="29.5650033" lon="103.4214124"><ele>767.89</ele><time>2026-02-13T23:56:22.000Z</time></trkpt>
        <trkpt lat="29.5650993" lon="103.4213882"><ele>772.13</ele><time>2026-02-13T23:56:42.000Z</time></trkpt>
        <trkpt lat="29.5651872" lon="103.4213318"><ele>776.46</ele><time>2026-02-13T23:57:04.000Z</time></trkpt>
        <trkpt lat="29.5652752" lon="103.421283"><ele>777.93</ele><time>2026-02-13T23:57:30.000Z</time></trkpt>
        <trkpt lat="29.5653625" lon="103.4212373"><ele>779.61</ele><time>2026-02-13T23:58:02.000Z</time></trkpt>
        <trkpt lat="29.5654444" lon="103.4211622"><ele>782.29</ele><time>2026-02-13T23:59:30.000Z</time></trkpt>
        <trkpt lat="29.5655572" lon="103.4211427"><ele>785.65</ele><time>2026-02-13T23:59:42.000Z</time></trkpt>
        <trkpt lat="29.5656541" lon="103.4211319"><ele>788.72</ele><time>2026-02-13T23:59:48.000Z</time></trkpt>
        <trkpt lat="29.5657507" lon="103.4211177"><ele>790.4</ele><time>2026-02-13T23:59:58.000Z</time></trkpt>
        <trkpt lat="29.565841" lon="103.4211317"><ele>791.15</ele><time>2026-02-14T00:00:08.000Z</time></trkpt>
        <trkpt lat="29.5659429" lon="103.4211217"><ele>791.61</ele><time>2026-02-14T00:00:16.000Z</time></trkpt>
        <trkpt lat="29.5660444" lon="103.4211245"><ele>792.57</ele><time>2026-02-14T00:00:30.000Z</time></trkpt>
        <trkpt lat="29.5661411" lon="103.4211319"><ele>793.89</ele><time>2026-02-14T00:00:44.000Z</time></trkpt>
        <trkpt lat="29.5662403" lon="103.4211351"><ele>796.32</ele><time>2026-02-14T00:01:04.000Z</time></trkpt>
        <trkpt lat="29.5662827" lon="103.4210524"><ele>799.61</ele><time>2026-02-14T00:01:16.000Z</time></trkpt>
        <trkpt lat="29.5662827" lon="103.4210524"><ele>799.61</ele><time>2026-02-14T00:01:47.000Z</time></trkpt>
        <trkpt lat="29.5662827" lon="103.4210524"><ele>799.61</ele><time>2026-02-14T00:02:35.000Z</time></trkpt>
        <trkpt lat="29.5662827" lon="103.4210524"><ele>799.61</ele><time>2026-02-14T00:03:19.000Z</time></trkpt>
        <trkpt lat="29.5662827" lon="103.4210524"><ele>799.61</ele><time>2026-02-14T00:03:25.000Z</time></trkpt>
        <trkpt lat="29.5662827" lon="103.4210524"><ele>799.61</ele><time>2026-02-14T00:03:41.000Z</time></trkpt>
        <trkpt lat="29.5662923" lon="103.4208907"><ele>800.77</ele><time>2026-02-14T00:04:41.000Z</time></trkpt>
        <trkpt lat="29.5662923" lon="103.4208907"><ele>800.77</ele><time>2026-02-14T00:05:00.000Z</time></trkpt>
        <trkpt lat="29.5663224" lon="103.4207784"><ele>802.02</ele><time>2026-02-14T00:05:10.000Z</time></trkpt>
        <trkpt lat="29.5663448" lon="103.4206752"><ele>802.95</ele><time>2026-02-14T00:05:18.000Z</time></trkpt>
        <trkpt lat="29.5663772" lon="103.4205768"><ele>804.09</ele><time>2026-02-14T00:05:26.000Z</time></trkpt>
        <trkpt lat="29.5664045" lon="103.4204635"><ele>804.74</ele><time>2026-02-14T00:05:34.000Z</time></trkpt>
        <trkpt lat="29.5664657" lon="103.4203607"><ele>804.91</ele><time>2026-02-14T00:05:42.000Z</time></trkpt>
        <trkpt lat="29.5665483" lon="103.420269"><ele>803.59</ele><time>2026-02-14T00:05:50.000Z</time></trkpt>
        <trkpt lat="29.5666281" lon="103.4201989"><ele>802.58</ele><time>2026-02-14T00:05:58.000Z</time></trkpt>
        <trkpt lat="29.566685" lon="103.4200876"><ele>801.86</ele><time>2026-02-14T00:06:06.000Z</time></trkpt>
        <trkpt lat="29.5667178" lon="103.4199708"><ele>800.09</ele><time>2026-02-14T00:06:14.000Z</time></trkpt>
        <trkpt lat="29.5667377" lon="103.4198487"><ele>802.46</ele><time>2026-02-14T00:06:26.000Z</time></trkpt>
        <trkpt lat="29.5668109" lon="103.4198219"><ele>802.08</ele><time>2026-02-14T00:06:38.000Z</time></trkpt>
        <trkpt lat="29.566888" lon="103.4198773"><ele>802.36</ele><time>2026-02-14T00:06:56.000Z</time></trkpt>
        <trkpt lat="29.5669589" lon="103.4199702"><ele>804.99</ele><time>2026-02-14T00:07:18.000Z</time></trkpt>
        <trkpt lat="29.5670201" lon="103.4200662"><ele>807.74</ele><time>2026-02-14T00:07:36.000Z</time></trkpt>
        <trkpt lat="29.5670527" lon="103.4201787"><ele>813.52</ele><time>2026-02-14T00:07:58.000Z</time></trkpt>
        <trkpt lat="29.5670414" lon="103.4202946"><ele>816.78</ele><time>2026-02-14T00:08:12.000Z</time></trkpt>
        <trkpt lat="29.5670746" lon="103.4203932"><ele>818.37</ele><time>2026-02-14T00:08:38.000Z</time></trkpt>
        <trkpt lat="29.5671328" lon="103.4204721"><ele>821.39</ele><time>2026-02-14T00:08:54.000Z</time></trkpt>
        <trkpt lat="29.5672187" lon="103.4205212"><ele>824.16</ele><time>2026-02-14T00:09:14.000Z</time></trkpt>
        <trkpt lat="29.5673181" lon="103.4205134"><ele>828.13</ele><time>2026-02-14T00:09:30.000Z</time></trkpt>
        <trkpt lat="29.5674154" lon="103.4204974"><ele>829.9</ele><time>2026-02-14T00:09:48.000Z</time></trkpt>
        <trkpt lat="29.5675078" lon="103.4204577"><ele>831.68</ele><time>2026-02-14T00:10:16.000Z</time></trkpt>
        <trkpt lat="29.5675969" lon="103.420407"><ele>834.48</ele><time>2026-02-14T00:10:36.000Z</time></trkpt>
        <trkpt lat="29.5676837" lon="103.4203593"><ele>837.41</ele><time>2026-02-14T00:10:58.000Z</time></trkpt>
        <trkpt lat="29.5677645" lon="103.4203073"><ele>840.75</ele><time>2026-02-14T00:11:24.000Z</time></trkpt>
        <trkpt lat="29.5678497" lon="103.4202495"><ele>842.91</ele><time>2026-02-14T00:11:38.000Z</time></trkpt>
        <trkpt lat="29.5679356" lon="103.420201"><ele>845.97</ele><time>2026-02-14T00:11:54.000Z</time></trkpt>
        <trkpt lat="29.5680273" lon="103.4201545"><ele>849.98</ele><time>2026-02-14T00:12:14.000Z</time></trkpt>
        <trkpt lat="29.5681228" lon="103.4201189"><ele>853.13</ele><time>2026-02-14T00:12:44.000Z</time></trkpt>
        <trkpt lat="29.5682223" lon="103.4201126"><ele>859.14</ele><time>2026-02-14T00:13:10.000Z</time></trkpt>
        <trkpt lat="29.5683139" lon="103.4200884"><ele>862.44</ele><time>2026-02-14T00:13:28.000Z</time></trkpt>
        <trkpt lat="29.568405" lon="103.4200928"><ele>866.85</ele><time>2026-02-14T00:13:54.000Z</time></trkpt>
        <trkpt lat="29.5684992" lon="103.4200969"><ele>872.74</ele><time>2026-02-14T00:14:18.000Z</time></trkpt>
        <trkpt lat="29.568591" lon="103.420083"><ele>876.61</ele><time>2026-02-14T00:14:40.000Z</time></trkpt>
        <trkpt lat="29.5686861" lon="103.4200752"><ele>881.84</ele><time>2026-02-14T00:14:56.000Z</time></trkpt>
        <trkpt lat="29.5687738" lon="103.4200407"><ele>885.88</ele><time>2026-02-14T00:15:20.000Z</time></trkpt>
        <trkpt lat="29.5688592" lon="103.419983"><ele>888.24</ele><time>2026-02-14T00:15:36.000Z</time></trkpt>
        <trkpt lat="29.5689469" lon="103.4199307"><ele>889.54</ele><time>2026-02-14T00:15:56.000Z</time></trkpt>
        <trkpt lat="29.5690373" lon="103.4198904"><ele>891.15</ele><time>2026-02-14T00:16:08.000Z</time></trkpt>
        <trkpt lat="29.5691378" lon="103.4198464"><ele>890.67</ele><time>2026-02-14T00:16:18.000Z</time></trkpt>
        <trkpt lat="29.5692401" lon="103.4198025"><ele>890.89</ele><time>2026-02-14T00:16:26.000Z</time></trkpt>
        <trkpt lat="29.5693331" lon="103.419745"><ele>891.58</ele><time>2026-02-14T00:16:36.000Z</time></trkpt>
        <trkpt lat="29.5694293" lon="103.4197061"><ele>890.38</ele><time>2026-02-14T00:16:44.000Z</time></trkpt>
        <trkpt lat="29.5695168" lon="103.4196469"><ele>890.46</ele><time>2026-02-14T00:16:52.000Z</time></trkpt>
        <trkpt lat="29.5695945" lon="103.419579"><ele>888.92</ele><time>2026-02-14T00:17:02.000Z</time></trkpt>
        <trkpt lat="29.5696393" lon="103.4194856"><ele>886.79</ele><time>2026-02-14T00:17:12.000Z</time></trkpt>
        <trkpt lat="29.5696819" lon="103.4193873"><ele>885.51</ele><time>2026-02-14T00:17:20.000Z</time></trkpt>
        <trkpt lat="29.5697297" lon="103.4192788"><ele>884.49</ele><time>2026-02-14T00:17:30.000Z</time></trkpt>
        <trkpt lat="29.5697735" lon="103.4191608"><ele>883.48</ele><time>2026-02-14T00:17:38.000Z</time></trkpt>
        <trkpt lat="29.5697597" lon="103.4191363"><ele>883.5</ele><time>2026-02-14T00:17:40.000Z</time></trkpt>
        <trkpt lat="29.5697704" lon="103.4190593"><ele>882.74</ele><time>2026-02-14T00:18:02.000Z</time></trkpt>
        <trkpt lat="29.5697715" lon="103.4189541"><ele>882.84</ele><time>2026-02-14T00:18:12.000Z</time></trkpt>
        <trkpt lat="29.5697795" lon="103.418847"><ele>882.89</ele><time>2026-02-14T00:18:26.000Z</time></trkpt>
        <trkpt lat="29.5697697" lon="103.4187364"><ele>882.03</ele><time>2026-02-14T00:18:40.000Z</time></trkpt>
        <trkpt lat="29.5697902" lon="103.418632"><ele>881.58</ele><time>2026-02-14T00:18:52.000Z</time></trkpt>
        <trkpt lat="29.5698109" lon="103.418515"><ele>881.17</ele><time>2026-02-14T00:19:08.000Z</time></trkpt>
        <trkpt lat="29.5698269" lon="103.4183898"><ele>879.84</ele><time>2026-02-14T00:19:18.000Z</time></trkpt>
        <trkpt lat="29.5698321" lon="103.4182752"><ele>878.53</ele><time>2026-02-14T00:19:28.000Z</time></trkpt>
        <trkpt lat="29.5698417" lon="103.4181533"><ele>876.64</ele><time>2026-02-14T00:19:40.000Z</time></trkpt>
        <trkpt lat="29.5698453" lon="103.4181165"><ele>876.04</ele><time>2026-02-14T00:19:42.000Z</time></trkpt>
        <trkpt lat="29.5698869" lon="103.4180498"><ele>875.65</ele><time>2026-02-14T00:19:50.000Z</time></trkpt>
        <trkpt lat="29.5699559" lon="103.4179833"><ele>876.95</ele><time>2026-02-14T00:20:00.000Z</time></trkpt>
        <trkpt lat="29.5700166" lon="103.417894"><ele>879</ele><time>2026-02-14T00:20:10.000Z</time></trkpt>
        <trkpt lat="29.5700713" lon="103.417802"><ele>880.67</ele><time>2026-02-14T00:20:20.000Z</time></trkpt>
        <trkpt lat="29.5701018" lon="103.4176982"><ele>881.51</ele><time>2026-02-14T00:20:32.000Z</time></trkpt>
        <trkpt lat="29.5700917" lon="103.4175917"><ele>881.17</ele><time>2026-02-14T00:20:42.000Z</time></trkpt>
        <trkpt lat="29.5700719" lon="103.4174727"><ele>880.42</ele><time>2026-02-14T00:20:52.000Z</time></trkpt>
        <trkpt lat="29.5700583" lon="103.4173542"><ele>879.2</ele><time>2026-02-14T00:21:00.000Z</time></trkpt>
        <trkpt lat="29.5700696" lon="103.4172367"><ele>877.36</ele><time>2026-02-14T00:21:10.000Z</time></trkpt>
        <trkpt lat="29.5700676" lon="103.4171707"><ele>876.7</ele><time>2026-02-14T00:21:16.000Z</time></trkpt>
        <trkpt lat="29.5700676" lon="103.4171707"><ele>876.7</ele><time>2026-02-14T00:21:47.000Z</time></trkpt>
        <trkpt lat="29.5701205" lon="103.4170833"><ele>875.28</ele><time>2026-02-14T00:21:51.000Z</time></trkpt>
        <trkpt lat="29.5701205" lon="103.4170833"><ele>875.28</ele><time>2026-02-14T00:22:00.000Z</time></trkpt>
        <trkpt lat="29.5702082" lon="103.4170458"><ele>875.38</ele><time>2026-02-14T00:22:08.000Z</time></trkpt>
        <trkpt lat="29.5702845" lon="103.4170403"><ele>875.73</ele><time>2026-02-14T00:22:24.000Z</time></trkpt>
        <trkpt lat="29.5703644" lon="103.4169969"><ele>875.65</ele><time>2026-02-14T00:22:40.000Z</time></trkpt>
        <trkpt lat="29.5703745" lon="103.4169004"><ele>876.35</ele><time>2026-02-14T00:22:52.000Z</time></trkpt>
        <trkpt lat="29.5703435" lon="103.4167883"><ele>876.11</ele><time>2026-02-14T00:23:02.000Z</time></trkpt>
        <trkpt lat="29.5703329" lon="103.4166655"><ele>874.71</ele><time>2026-02-14T00:23:12.000Z</time></trkpt>
        <trkpt lat="29.5703359" lon="103.416549"><ele>873.81</ele><time>2026-02-14T00:23:20.000Z</time></trkpt>
        <trkpt lat="29.5703623" lon="103.4164269"><ele>873</ele><time>2026-02-14T00:23:30.000Z</time></trkpt>
        <trkpt lat="29.5703805" lon="103.4163131"><ele>873.2</ele><time>2026-02-14T00:23:42.000Z</time></trkpt>
        <trkpt lat="29.5704258" lon="103.4162103"><ele>875.03</ele><time>2026-02-14T00:23:56.000Z</time></trkpt>
        <trkpt lat="29.5705123" lon="103.4161555"><ele>874.59</ele><time>2026-02-14T00:24:04.000Z</time></trkpt>
        <trkpt lat="29.5706106" lon="103.416122"><ele>874.83</ele><time>2026-02-14T00:24:18.000Z</time></trkpt>
        <trkpt lat="29.5707025" lon="103.4160755"><ele>874.28</ele><time>2026-02-14T00:24:38.000Z</time></trkpt>
        <trkpt lat="29.5707869" lon="103.4160127"><ele>874.63</ele><time>2026-02-14T00:25:04.000Z</time></trkpt>
        <trkpt lat="29.5707591" lon="103.4159213"><ele>877.16</ele><time>2026-02-14T00:25:24.000Z</time></trkpt>
        <trkpt lat="29.5706692" lon="103.415847"><ele>878.79</ele><time>2026-02-14T00:25:32.000Z</time></trkpt>
        <trkpt lat="29.5705603" lon="103.4157998"><ele>878.64</ele><time>2026-02-14T00:25:42.000Z</time></trkpt>
        <trkpt lat="29.5704653" lon="103.4157405"><ele>878.46</ele><time>2026-02-14T00:25:52.000Z</time></trkpt>
        <trkpt lat="29.5703823" lon="103.4156571"><ele>877.29</ele><time>2026-02-14T00:26:04.000Z</time></trkpt>
        <trkpt lat="29.5703024" lon="103.4155901"><ele>876.37</ele><time>2026-02-14T00:26:12.000Z</time></trkpt>
        <trkpt lat="29.5702721" lon="103.4155826"><ele>875.58</ele><time>2026-02-14T00:26:14.000Z</time></trkpt>
        <trkpt lat="29.570218" lon="103.4155245"><ele>875.08</ele><time>2026-02-14T00:26:28.000Z</time></trkpt>
        <trkpt lat="29.570137" lon="103.4155253"><ele>875</ele><time>2026-02-14T00:26:34.000Z</time></trkpt>
        <trkpt lat="29.5700501" lon="103.4155638"><ele>876.06</ele><time>2026-02-14T00:26:50.000Z</time></trkpt>
        <trkpt lat="29.5700123" lon="103.4155571"><ele>878.83</ele><time>2026-02-14T00:26:58.000Z</time></trkpt>
        <trkpt lat="29.569964" lon="103.415485"><ele>880.61</ele><time>2026-02-14T00:27:16.000Z</time></trkpt>
        <trkpt lat="29.5698942" lon="103.4154175"><ele>882.68</ele><time>2026-02-14T00:27:32.000Z</time></trkpt>
        <trkpt lat="29.5698614" lon="103.4153127"><ele>884.7</ele><time>2026-02-14T00:27:42.000Z</time></trkpt>
        <trkpt lat="29.5698513" lon="103.415198"><ele>886.15</ele><time>2026-02-14T00:28:00.000Z</time></trkpt>
        <trkpt lat="29.5698686" lon="103.4150819"><ele>886.31</ele><time>2026-02-14T00:28:10.000Z</time></trkpt>
        <trkpt lat="29.5698692" lon="103.4149606"><ele>884.98</ele><time>2026-02-14T00:28:18.000Z</time></trkpt>
        <trkpt lat="29.5698241" lon="103.4148682"><ele>884.06</ele><time>2026-02-14T00:28:28.000Z</time></trkpt>
        <trkpt lat="29.5697499" lon="103.4147867"><ele>883.42</ele><time>2026-02-14T00:28:40.000Z</time></trkpt>
        <trkpt lat="29.5696796" lon="103.4146991"><ele>882.76</ele><time>2026-02-14T00:28:52.000Z</time></trkpt>
        <trkpt lat="29.5695806" lon="103.4146813"><ele>882.46</ele><time>2026-02-14T00:29:02.000Z</time></trkpt>
        <trkpt lat="29.5694844" lon="103.4147309"><ele>881.01</ele><time>2026-02-14T00:29:14.000Z</time></trkpt>
        <trkpt lat="29.5693911" lon="103.414781"><ele>881.02</ele><time>2026-02-14T00:29:24.000Z</time></trkpt>
        <trkpt lat="29.5693023" lon="103.4148235"><ele>881.42</ele><time>2026-02-14T00:29:34.000Z</time></trkpt>
        <trkpt lat="29.5692163" lon="103.4148089"><ele>881.74</ele><time>2026-02-14T00:30:10.000Z</time></trkpt>
        <trkpt lat="29.5691724" lon="103.4147113"><ele>880.5</ele><time>2026-02-14T00:30:18.000Z</time></trkpt>
        <trkpt lat="29.5691351" lon="103.4145901"><ele>880.88</ele><time>2026-02-14T00:30:28.000Z</time></trkpt>
        <trkpt lat="29.5691338" lon="103.4144725"><ele>880.28</ele><time>2026-02-14T00:30:38.000Z</time></trkpt>
        <trkpt lat="29.5691398" lon="103.4143513"><ele>880.96</ele><time>2026-02-14T00:30:50.000Z</time></trkpt>
        <trkpt lat="29.5691338" lon="103.4142354"><ele>882.29</ele><time>2026-02-14T00:31:08.000Z</time></trkpt>
        <trkpt lat="29.5691015" lon="103.4141136"><ele>882.58</ele><time>2026-02-14T00:31:18.000Z</time></trkpt>
        <trkpt lat="29.5691018" lon="103.4139935"><ele>882.65</ele><time>2026-02-14T00:31:28.000Z</time></trkpt>
        <trkpt lat="29.5691194" lon="103.4138733"><ele>882.16</ele><time>2026-02-14T00:31:38.000Z</time></trkpt>
        <trkpt lat="29.5690841" lon="103.4137695"><ele>881.52</ele><time>2026-02-14T00:31:48.000Z</time></trkpt>
        <trkpt lat="29.569036" lon="103.413663"><ele>880.68</ele><time>2026-02-14T00:31:58.000Z</time></trkpt>
        <trkpt lat="29.5689849" lon="103.4135623"><ele>880.18</ele><time>2026-02-14T00:32:08.000Z</time></trkpt>
        <trkpt lat="29.5689591" lon="103.4134612"><ele>879.39</ele><time>2026-02-14T00:32:16.000Z</time></trkpt>
        <trkpt lat="29.5689453" lon="103.413356"><ele>878.43</ele><time>2026-02-14T00:32:26.000Z</time></trkpt>
        <trkpt lat="29.568937" lon="103.4132439"><ele>877.52</ele><time>2026-02-14T00:32:40.000Z</time></trkpt>
        <trkpt lat="29.5689517" lon="103.4131268"><ele>875.6</ele><time>2026-02-14T00:32:52.000Z</time></trkpt>
        <trkpt lat="29.5690161" lon="103.4130379"><ele>873.76</ele><time>2026-02-14T00:33:02.000Z</time></trkpt>
        <trkpt lat="29.5690751" lon="103.4129397"><ele>873.39</ele><time>2026-02-14T00:33:12.000Z</time></trkpt>
        <trkpt lat="29.5691485" lon="103.4128554"><ele>873.07</ele><time>2026-02-14T00:33:22.000Z</time></trkpt>
        <trkpt lat="29.569232" lon="103.4127922"><ele>873.27</ele><time>2026-02-14T00:33:32.000Z</time></trkpt>
        <trkpt lat="29.569322" lon="103.4127475"><ele>873.2</ele><time>2026-02-14T00:33:42.000Z</time></trkpt>
        <trkpt lat="29.5693969" lon="103.4126745"><ele>872.84</ele><time>2026-02-14T00:33:55.000Z</time></trkpt>
        <trkpt lat="29.5693969" lon="103.4126745"><ele>872.84</ele><time>2026-02-14T00:34:49.000Z</time></trkpt>
        <trkpt lat="29.5693737" lon="103.4125674"><ele>871.72</ele><time>2026-02-14T00:34:59.000Z</time></trkpt>
        <trkpt lat="29.5693737" lon="103.4125674"><ele>871.72</ele><time>2026-02-14T00:35:24.000Z</time></trkpt>
        <trkpt lat="29.5693343" lon="103.4124697"><ele>872.48</ele><time>2026-02-14T00:35:40.000Z</time></trkpt>
        <trkpt lat="29.5693611" lon="103.4123724"><ele>873.48</ele><time>2026-02-14T00:36:10.000Z</time></trkpt>
        <trkpt lat="29.5693292" lon="103.4122848"><ele>873.29</ele><time>2026-02-14T00:36:22.000Z</time></trkpt>
        <trkpt lat="29.5693585" lon="103.4121973"><ele>872.53</ele><time>2026-02-14T00:36:40.000Z</time></trkpt>
        <trkpt lat="29.5692932" lon="103.412183"><ele>871.05</ele><time>2026-02-14T00:37:00.000Z</time></trkpt>
        <trkpt lat="29.5692045" lon="103.4121617"><ele>866.14</ele><time>2026-02-14T00:37:06.000Z</time></trkpt>
        <trkpt lat="29.5690938" lon="103.4121565"><ele>863.61</ele><time>2026-02-14T00:37:18.000Z</time></trkpt>
        <trkpt lat="29.5690073" lon="103.4120918"><ele>862.52</ele><time>2026-02-14T00:37:30.000Z</time></trkpt>
        <trkpt lat="29.5689257" lon="103.4120086"><ele>861.31</ele><time>2026-02-14T00:37:42.000Z</time></trkpt>
        <trkpt lat="29.568865" lon="103.4119185"><ele>860.46</ele><time>2026-02-14T00:37:56.000Z</time></trkpt>
        <trkpt lat="29.5687919" lon="103.4118498"><ele>859.25</ele><time>2026-02-14T00:38:10.000Z</time></trkpt>
        <trkpt lat="29.5686963" lon="103.4118318"><ele>855.48</ele><time>2026-02-14T00:38:18.000Z</time></trkpt>
        <trkpt lat="29.5685989" lon="103.4118228"><ele>853.23</ele><time>2026-02-14T00:38:26.000Z</time></trkpt>
        <trkpt lat="29.5685208" lon="103.4117749"><ele>853.01</ele><time>2026-02-14T00:38:38.000Z</time></trkpt>
        <trkpt lat="29.5684363" lon="103.4117098"><ele>850.58</ele><time>2026-02-14T00:38:56.000Z</time></trkpt>
        <trkpt lat="29.568401" lon="103.411602"><ele>844.93</ele><time>2026-02-14T00:39:10.000Z</time></trkpt>
        <trkpt lat="29.5683615" lon="103.4114995"><ele>840.76</ele><time>2026-02-14T00:39:22.000Z</time></trkpt>
        <trkpt lat="29.5683913" lon="103.4113927"><ele>839.17</ele><time>2026-02-14T00:39:32.000Z</time></trkpt>
        <trkpt lat="29.5684524" lon="103.4112851"><ele>837.23</ele><time>2026-02-14T00:39:46.000Z</time></trkpt>
        <trkpt lat="29.5685025" lon="103.4111751"><ele>836.81</ele><time>2026-02-14T00:40:00.000Z</time></trkpt>
        <trkpt lat="29.5685159" lon="103.4110581"><ele>836.15</ele><time>2026-02-14T00:40:10.000Z</time></trkpt>
        <trkpt lat="29.568523" lon="103.4109353"><ele>835.3</ele><time>2026-02-14T00:40:24.000Z</time></trkpt>
        <trkpt lat="29.5685384" lon="103.4108129"><ele>833.8</ele><time>2026-02-14T00:40:36.000Z</time></trkpt>
        <trkpt lat="29.568572" lon="103.4106991"><ele>832.18</ele><time>2026-02-14T00:40:48.000Z</time></trkpt>
        <trkpt lat="29.568591" lon="103.4105835"><ele>830.76</ele><time>2026-02-14T00:41:02.000Z</time></trkpt>
        <trkpt lat="29.5686194" lon="103.4104682"><ele>829.8</ele><time>2026-02-14T00:41:10.000Z</time></trkpt>
        <trkpt lat="29.5686257" lon="103.41035"><ele>830.04</ele><time>2026-02-14T00:41:18.000Z</time></trkpt>
        <trkpt lat="29.5686235" lon="103.4102393"><ele>831.36</ele><time>2026-02-14T00:41:26.000Z</time></trkpt>
        <trkpt lat="29.5686182" lon="103.410117"><ele>832.29</ele><time>2026-02-14T00:41:36.000Z</time></trkpt>
        <trkpt lat="29.5686203" lon="103.4100082"><ele>833.27</ele><time>2026-02-14T00:41:46.000Z</time></trkpt>
        <trkpt lat="29.5685673" lon="103.409932"><ele>834.58</ele><time>2026-02-14T00:41:56.000Z</time></trkpt>
        <trkpt lat="29.5684677" lon="103.409901"><ele>835.33</ele><time>2026-02-14T00:42:06.000Z</time></trkpt>
        <trkpt lat="29.5683589" lon="103.4098803"><ele>834.22</ele><time>2026-02-14T00:42:16.000Z</time></trkpt>
        <trkpt lat="29.5683086" lon="103.4098023"><ele>832.52</ele><time>2026-02-14T00:42:26.000Z</time></trkpt>
        <trkpt lat="29.5682652" lon="103.4096979"><ele>831.88</ele><time>2026-02-14T00:42:36.000Z</time></trkpt>
        <trkpt lat="29.5682229" lon="103.4095935"><ele>833.45</ele><time>2026-02-14T00:42:48.000Z</time></trkpt>
        <trkpt lat="29.5681937" lon="103.4094823"><ele>833.94</ele><time>2026-02-14T00:43:00.000Z</time></trkpt>
        <trkpt lat="29.5681473" lon="103.4093889"><ele>833.93</ele><time>2026-02-14T00:43:14.000Z</time></trkpt>
        <trkpt lat="29.5681262" lon="103.409278"><ele>835.06</ele><time>2026-02-14T00:43:53.000Z</time></trkpt>
        <trkpt lat="29.5680765" lon="103.4091773"><ele>826.94</ele><time>2026-02-14T00:44:03.000Z</time></trkpt>
        <trkpt lat="29.5680201" lon="103.4090833"><ele>823.41</ele><time>2026-02-14T00:44:15.000Z</time></trkpt>
        <trkpt lat="29.5679637" lon="103.4089942"><ele>820.88</ele><time>2026-02-14T00:44:31.000Z</time></trkpt>
        <trkpt lat="29.5679205" lon="103.4088976"><ele>818.08</ele><time>2026-02-14T00:44:53.000Z</time></trkpt>
        <trkpt lat="29.5679133" lon="103.4087917"><ele>810.04</ele><time>2026-02-14T00:45:09.000Z</time></trkpt>
        <trkpt lat="29.5679038" lon="103.4086825"><ele>804.96</ele><time>2026-02-14T00:45:21.000Z</time></trkpt>
        <trkpt lat="29.5678533" lon="103.4085861"><ele>801.8</ele><time>2026-02-14T00:45:33.000Z</time></trkpt>
        <trkpt lat="29.5677882" lon="103.4085008"><ele>799.36</ele><time>2026-02-14T00:45:47.000Z</time></trkpt>
        <trkpt lat="29.5677194" lon="103.4084274"><ele>795.71</ele><time>2026-02-14T00:45:59.000Z</time></trkpt>
        <trkpt lat="29.5676325" lon="103.4083742"><ele>792.96</ele><time>2026-02-14T00:46:11.000Z</time></trkpt>
        <trkpt lat="29.5675724" lon="103.4084538"><ele>792.07</ele><time>2026-02-14T00:46:27.000Z</time></trkpt>
        <trkpt lat="29.5675234" lon="103.4085625"><ele>788.39</ele><time>2026-02-14T00:46:35.000Z</time></trkpt>
        <trkpt lat="29.5674581" lon="103.4086483"><ele>785.09</ele><time>2026-02-14T00:46:45.000Z</time></trkpt>
        <trkpt lat="29.5673907" lon="103.4086463"><ele>783.09</ele><time>2026-02-14T00:47:01.000Z</time></trkpt>
        <trkpt lat="29.5673122" lon="103.4085828"><ele>781.87</ele><time>2026-02-14T00:47:25.000Z</time></trkpt>
        <trkpt lat="29.5672152" lon="103.408522"><ele>779.76</ele><time>2026-02-14T00:47:35.000Z</time></trkpt>
        <trkpt lat="29.5671268" lon="103.408461"><ele>778.1</ele><time>2026-02-14T00:47:43.000Z</time></trkpt>
        <trkpt lat="29.5670228" lon="103.4084378"><ele>777.96</ele><time>2026-02-14T00:47:51.000Z</time></trkpt>
        <trkpt lat="29.5669917" lon="103.4084419"><ele>777.31</ele><time>2026-02-14T00:47:55.000Z</time></trkpt>
        <trkpt lat="29.5669135" lon="103.408448"><ele>776.09</ele><time>2026-02-14T00:48:09.000Z</time></trkpt>
        <trkpt lat="29.566817" lon="103.4084539"><ele>773.41</ele><time>2026-02-14T00:48:19.000Z</time></trkpt>
        <trkpt lat="29.5667287" lon="103.4084021"><ele>770.62</ele><time>2026-02-14T00:48:29.000Z</time></trkpt>
        <trkpt lat="29.5666904" lon="103.4082948"><ele>769.1</ele><time>2026-02-14T00:48:37.000Z</time></trkpt>
        <trkpt lat="29.5666961" lon="103.4081757"><ele>770.36</ele><time>2026-02-14T00:48:45.000Z</time></trkpt>
        <trkpt lat="29.5666996" lon="103.4080509"><ele>771.43</ele><time>2026-02-14T00:48:55.000Z</time></trkpt>
        <trkpt lat="29.5666546" lon="103.4079424"><ele>772.28</ele><time>2026-02-14T00:49:05.000Z</time></trkpt>
        <trkpt lat="29.5666157" lon="103.4078422"><ele>773.28</ele><time>2026-02-14T00:49:35.000Z</time></trkpt>
        <trkpt lat="29.5665901" lon="103.4077373"><ele>775.04</ele><time>2026-02-14T00:49:43.000Z</time></trkpt>
        <trkpt lat="29.5665475" lon="103.4076409"><ele>776.11</ele><time>2026-02-14T00:49:51.000Z</time></trkpt>
        <trkpt lat="29.5665041" lon="103.4075471"><ele>777.32</ele><time>2026-02-14T00:49:59.000Z</time></trkpt>
        <trkpt lat="29.5664306" lon="103.4074787"><ele>778.27</ele><time>2026-02-14T00:50:07.000Z</time></trkpt>
        <trkpt lat="29.5663412" lon="103.4074635"><ele>778.36</ele><time>2026-02-14T00:50:17.000Z</time></trkpt>
        <trkpt lat="29.5663753" lon="103.4074104"><ele>778.25</ele><time>2026-02-14T00:50:34.000Z</time></trkpt>
        <trkpt lat="29.5664034" lon="103.4073119"><ele>777.46</ele><time>2026-02-14T00:50:42.000Z</time></trkpt>
        <trkpt lat="29.5664084" lon="103.4071903"><ele>777.14</ele><time>2026-02-14T00:50:56.000Z</time></trkpt>
        <trkpt lat="29.566407" lon="103.4070764"><ele>777.1</ele><time>2026-02-14T00:51:06.000Z</time></trkpt>
        <trkpt lat="29.5664354" lon="103.4069616"><ele>774.75</ele><time>2026-02-14T00:51:16.000Z</time></trkpt>
        <trkpt lat="29.566481" lon="103.4068488"><ele>773.04</ele><time>2026-02-14T00:51:26.000Z</time></trkpt>
        <trkpt lat="29.5665552" lon="103.4067569"><ele>771.57</ele><time>2026-02-14T00:51:36.000Z</time></trkpt>
        <trkpt lat="29.5666382" lon="103.4066934"><ele>770.37</ele><time>2026-02-14T00:51:44.000Z</time></trkpt>
        <trkpt lat="29.5667063" lon="103.4066154"><ele>769.57</ele><time>2026-02-14T00:51:52.000Z</time></trkpt>
        <trkpt lat="29.5667931" lon="103.4066019"><ele>769.12</ele><time>2026-02-14T00:52:04.000Z</time></trkpt>
        <trkpt lat="29.5668216" lon="103.4066131"><ele>769.33</ele><time>2026-02-14T00:52:06.000Z</time></trkpt>
        <trkpt lat="29.5668664" lon="103.4065576"><ele>769.42</ele><time>2026-02-14T00:52:20.000Z</time></trkpt>
        <trkpt lat="29.5668995" lon="103.4064574"><ele>770.05</ele><time>2026-02-14T00:52:30.000Z</time></trkpt>
        <trkpt lat="29.5669488" lon="103.406365"><ele>769.46</ele><time>2026-02-14T00:52:38.000Z</time></trkpt>
        <trkpt lat="29.5669979" lon="103.4062661"><ele>769.04</ele><time>2026-02-14T00:52:46.000Z</time></trkpt>
        <trkpt lat="29.5670464" lon="103.4061632"><ele>769.43</ele><time>2026-02-14T00:52:54.000Z</time></trkpt>
        <trkpt lat="29.5670942" lon="103.4060512"><ele>770.59</ele><time>2026-02-14T00:53:04.000Z</time></trkpt>
        <trkpt lat="29.5671468" lon="103.4059518"><ele>769.63</ele><time>2026-02-14T00:53:12.000Z</time></trkpt>
        <trkpt lat="29.5671809" lon="103.4058483"><ele>767.96</ele><time>2026-02-14T00:53:20.000Z</time></trkpt>
        <trkpt lat="29.5671592" lon="103.405734"><ele>766.01</ele><time>2026-02-14T00:53:28.000Z</time></trkpt>
        <trkpt lat="29.5670801" lon="103.4056607"><ele>764.75</ele><time>2026-02-14T00:53:36.000Z</time></trkpt>
        <trkpt lat="29.5669937" lon="103.4055953"><ele>763.08</ele><time>2026-02-14T00:53:44.000Z</time></trkpt>
        <trkpt lat="29.5669092" lon="103.4055246"><ele>761.09</ele><time>2026-02-14T00:53:52.000Z</time></trkpt>
        <trkpt lat="29.5668354" lon="103.405455"><ele>759.21</ele><time>2026-02-14T00:53:58.000Z</time></trkpt>
        <trkpt lat="29.5667739" lon="103.405354"><ele>758.9</ele><time>2026-02-14T00:54:06.000Z</time></trkpt>
        <trkpt lat="29.5667438" lon="103.4052316"><ele>758.38</ele><time>2026-02-14T00:54:14.000Z</time></trkpt>
        <trkpt lat="29.5667613" lon="103.4051096"><ele>757.97</ele><time>2026-02-14T00:54:26.000Z</time></trkpt>
        <trkpt lat="29.5668546" lon="103.4050847"><ele>757.65</ele><time>2026-02-14T00:54:36.000Z</time></trkpt>
        <trkpt lat="29.5669794" lon="103.4051078"><ele>757.53</ele><time>2026-02-14T00:54:46.000Z</time></trkpt>
        <trkpt lat="29.5670919" lon="103.40511"><ele>757.71</ele><time>2026-02-14T00:54:54.000Z</time></trkpt>
        <trkpt lat="29.5672013" lon="103.4051027"><ele>758.24</ele><time>2026-02-14T00:55:02.000Z</time></trkpt>
        <trkpt lat="29.5672947" lon="103.4050724"><ele>759.65</ele><time>2026-02-14T00:55:10.000Z</time></trkpt>
        <trkpt lat="29.5673918" lon="103.4050616"><ele>759.03</ele><time>2026-02-14T00:55:20.000Z</time></trkpt>
        <trkpt lat="29.5674868" lon="103.4050572"><ele>758.17</ele><time>2026-02-14T00:55:28.000Z</time></trkpt>
        <trkpt lat="29.5675885" lon="103.4050667"><ele>757.54</ele><time>2026-02-14T00:55:38.000Z</time></trkpt>
        <trkpt lat="29.567696" lon="103.4050873"><ele>757.13</ele><time>2026-02-14T00:55:48.000Z</time></trkpt>
        <trkpt lat="29.5678035" lon="103.4051145"><ele>757.08</ele><time>2026-02-14T00:55:58.000Z</time></trkpt>
        <trkpt lat="29.5679018" lon="103.4050904"><ele>757.73</ele><time>2026-02-14T00:56:04.000Z</time></trkpt>
        <trkpt lat="29.5679974" lon="103.4050308"><ele>756.92</ele><time>2026-02-14T00:56:14.000Z</time></trkpt>
        <trkpt lat="29.568075" lon="103.404962"><ele>756.07</ele><time>2026-02-14T00:56:22.000Z</time></trkpt>
        <trkpt lat="29.5681556" lon="103.4048943"><ele>755.61</ele><time>2026-02-14T00:56:32.000Z</time></trkpt>
        <trkpt lat="29.5682418" lon="103.4048654"><ele>754.99</ele><time>2026-02-14T00:56:40.000Z</time></trkpt>
        <trkpt lat="29.5683199" lon="103.4048056"><ele>755.11</ele><time>2026-02-14T00:56:50.000Z</time></trkpt>
        <trkpt lat="29.5683892" lon="103.4047543"><ele>754.68</ele><time>2026-02-14T00:57:00.000Z</time></trkpt>
        <trkpt lat="29.5684366" lon="103.4046637"><ele>754.34</ele><time>2026-02-14T00:57:08.000Z</time></trkpt>
        <trkpt lat="29.5684829" lon="103.4045594"><ele>753.81</ele><time>2026-02-14T00:57:14.000Z</time></trkpt>
        <trkpt lat="29.5685322" lon="103.4044649"><ele>754.7</ele><time>2026-02-14T00:57:24.000Z</time></trkpt>
        <trkpt lat="29.5685761" lon="103.404372"><ele>753.71</ele><time>2026-02-14T00:57:32.000Z</time></trkpt>
        <trkpt lat="29.5685767" lon="103.4042529"><ele>752.86</ele><time>2026-02-14T00:57:42.000Z</time></trkpt>
        <trkpt lat="29.5686357" lon="103.4041854"><ele>753.81</ele><time>2026-02-14T00:57:52.000Z</time></trkpt>
        <trkpt lat="29.5687108" lon="103.4041123"><ele>753.46</ele><time>2026-02-14T00:58:04.000Z</time></trkpt>
        <trkpt lat="29.5687805" lon="103.4040309"><ele>751.93</ele><time>2026-02-14T00:58:14.000Z</time></trkpt>
        <trkpt lat="29.5688544" lon="103.4039471"><ele>750.36</ele><time>2026-02-14T00:58:26.000Z</time></trkpt>
        <trkpt lat="29.5689502" lon="103.4039331"><ele>749.17</ele><time>2026-02-14T00:58:38.000Z</time></trkpt>
        <trkpt lat="29.5690576" lon="103.4039709"><ele>747.8</ele><time>2026-02-14T00:58:46.000Z</time></trkpt>
        <trkpt lat="29.5691649" lon="103.4039874"><ele>746.96</ele><time>2026-02-14T00:58:54.000Z</time></trkpt>
        <trkpt lat="29.5692493" lon="103.4039471"><ele>745.77</ele><time>2026-02-14T00:59:02.000Z</time></trkpt>
        <trkpt lat="29.5693331" lon="103.4038925"><ele>744.25</ele><time>2026-02-14T00:59:12.000Z</time></trkpt>
        <trkpt lat="29.5693769" lon="103.4038493"><ele>742.82</ele><time>2026-02-14T00:59:18.000Z</time></trkpt>
        <trkpt lat="29.5694544" lon="103.4037977"><ele>742.31</ele><time>2026-02-14T00:59:32.000Z</time></trkpt>
        <trkpt lat="29.5695351" lon="103.4037331"><ele>741.87</ele><time>2026-02-14T00:59:40.000Z</time></trkpt>
        <trkpt lat="29.5696202" lon="103.4036664"><ele>740.92</ele><time>2026-02-14T00:59:48.000Z</time></trkpt>
        <trkpt lat="29.5696967" lon="103.4035943"><ele>739.98</ele><time>2026-02-14T00:59:56.000Z</time></trkpt>
        <trkpt lat="29.5697729" lon="103.4035246"><ele>739.28</ele><time>2026-02-14T01:00:04.000Z</time></trkpt>
        <trkpt lat="29.5698306" lon="103.4034425"><ele>738.97</ele><time>2026-02-14T01:00:12.000Z</time></trkpt>
        <trkpt lat="29.5698979" lon="103.4033434"><ele>737.91</ele><time>2026-02-14T01:00:20.000Z</time></trkpt>
        <trkpt lat="29.5699647" lon="103.403252"><ele>737.68</ele><time>2026-02-14T01:00:30.000Z</time></trkpt>
        <trkpt lat="29.5700227" lon="103.403159"><ele>737.15</ele><time>2026-02-14T01:00:38.000Z</time></trkpt>
        <trkpt lat="29.5700683" lon="103.4030462"><ele>736.96</ele><time>2026-02-14T01:00:48.000Z</time></trkpt>
        <trkpt lat="29.5700995" lon="103.4029366"><ele>735.93</ele><time>2026-02-14T01:00:56.000Z</time></trkpt>
        <trkpt lat="29.5701597" lon="103.4028595"><ele>735.93</ele><time>2026-02-14T01:01:04.000Z</time></trkpt>
        <trkpt lat="29.5702474" lon="103.4028073"><ele>736.35</ele><time>2026-02-14T01:01:14.000Z</time></trkpt>
        <trkpt lat="29.5703412" lon="103.4027933"><ele>735.92</ele><time>2026-02-14T01:01:22.000Z</time></trkpt>
        <trkpt lat="29.5704391" lon="103.4027842"><ele>735.13</ele><time>2026-02-14T01:01:34.000Z</time></trkpt>
        <trkpt lat="29.5705375" lon="103.4027907"><ele>733.94</ele><time>2026-02-14T01:01:44.000Z</time></trkpt>
        <trkpt lat="29.5706333" lon="103.4027956"><ele>734.36</ele><time>2026-02-14T01:01:50.000Z</time></trkpt>
        <trkpt lat="29.5707305" lon="103.4027775"><ele>735.04</ele><time>2026-02-14T01:01:56.000Z</time></trkpt>
        <trkpt lat="29.5708184" lon="103.4027427"><ele>734.3</ele><time>2026-02-14T01:02:02.000Z</time></trkpt>
        <trkpt lat="29.5709152" lon="103.4026999"><ele>732.87</ele><time>2026-02-14T01:02:10.000Z</time></trkpt>
        <trkpt lat="29.5710072" lon="103.4026655"><ele>731.24</ele><time>2026-02-14T01:02:16.000Z</time></trkpt>
        <trkpt lat="29.5710911" lon="103.4026212"><ele>729.81</ele><time>2026-02-14T01:02:24.000Z</time></trkpt>
        <trkpt lat="29.5711593" lon="103.4025468"><ele>728.91</ele><time>2026-02-14T01:02:34.000Z</time></trkpt>
        <trkpt lat="29.5712122" lon="103.4024501"><ele>727.66</ele><time>2026-02-14T01:02:42.000Z</time></trkpt>
        <trkpt lat="29.5712804" lon="103.4023703"><ele>727.6</ele><time>2026-02-14T01:02:52.000Z</time></trkpt>
        <trkpt lat="29.5713231" lon="103.4022781"><ele>726.26</ele><time>2026-02-14T01:03:00.000Z</time></trkpt>
        <trkpt lat="29.5713709" lon="103.4021814"><ele>725.41</ele><time>2026-02-14T01:03:08.000Z</time></trkpt>
        <trkpt lat="29.5713898" lon="103.4020738"><ele>724.2</ele><time>2026-02-14T01:03:18.000Z</time></trkpt>
        <trkpt lat="29.571458" lon="103.4020086"><ele>723.01</ele><time>2026-02-14T01:03:26.000Z</time></trkpt>
        <trkpt lat="29.5715254" lon="103.4019384"><ele>722.67</ele><time>2026-02-14T01:03:34.000Z</time></trkpt>
        <trkpt lat="29.5716078" lon="103.4018924"><ele>723.07</ele><time>2026-02-14T01:03:42.000Z</time></trkpt>
        <trkpt lat="29.5717012" lon="103.4018815"><ele>724.33</ele><time>2026-02-14T01:03:50.000Z</time></trkpt>
        <trkpt lat="29.5717585" lon="103.4018745"><ele>724.83</ele><time>2026-02-14T01:04:00.000Z</time></trkpt>
        <trkpt lat="29.5717994" lon="103.4017933"><ele>726.2</ele><time>2026-02-14T01:04:10.000Z</time></trkpt>
        <trkpt lat="29.5718615" lon="103.4017087"><ele>727.36</ele><time>2026-02-14T01:04:22.000Z</time></trkpt>
        <trkpt lat="29.5719282" lon="103.4016205"><ele>727.12</ele><time>2026-02-14T01:04:34.000Z</time></trkpt>
        <trkpt lat="29.5720066" lon="103.4015615"><ele>727.63</ele><time>2026-02-14T01:04:42.000Z</time></trkpt>
        <trkpt lat="29.5720577" lon="103.4014767"><ele>727.27</ele><time>2026-02-14T01:04:50.000Z</time></trkpt>
        <trkpt lat="29.5720591" lon="103.4013722"><ele>727.71</ele><time>2026-02-14T01:05:06.000Z</time></trkpt>
        <trkpt lat="29.5720413" lon="103.4012641"><ele>728.29</ele><time>2026-02-14T01:05:20.000Z</time></trkpt>
        <trkpt lat="29.5720413" lon="103.4012641"><ele>728.29</ele><time>2026-02-14T01:05:49.000Z</time></trkpt>
        <trkpt lat="29.5719939" lon="103.4011435"><ele>728.95</ele><time>2026-02-14T01:05:55.000Z</time></trkpt>
        <trkpt lat="29.5719939" lon="103.4011435"><ele>728.95</ele><time>2026-02-14T01:07:57.000Z</time></trkpt>
        <trkpt lat="29.5720165" lon="103.401028"><ele>729.29</ele><time>2026-02-14T01:08:03.000Z</time></trkpt>
        <trkpt lat="29.5719879" lon="103.4009985"><ele>729.71</ele><time>2026-02-14T01:08:05.000Z</time></trkpt>
        <trkpt lat="29.5719879" lon="103.4009985"><ele>729.71</ele><time>2026-02-14T01:10:21.000Z</time></trkpt>
        <trkpt lat="29.5719879" lon="103.4009985"><ele>729.71</ele><time>2026-02-14T01:10:27.000Z</time></trkpt>
        <trkpt lat="29.5719879" lon="103.4009985"><ele>729.71</ele><time>2026-02-14T01:10:45.000Z</time></trkpt>
        <trkpt lat="29.5719879" lon="103.4009985"><ele>729.71</ele><time>2026-02-14T01:10:51.000Z</time></trkpt>
        <trkpt lat="29.5719879" lon="103.4009985"><ele>729.71</ele><time>2026-02-14T01:11:13.000Z</time></trkpt>
        <trkpt lat="29.5719879" lon="103.4009985"><ele>729.71</ele><time>2026-02-14T01:11:15.000Z</time></trkpt>
        <trkpt lat="29.5719879" lon="103.4009985"><ele>729.71</ele><time>2026-02-14T01:12:21.000Z</time></trkpt>
        <trkpt lat="29.5719537" lon="103.4009066"><ele>730.16</ele><time>2026-02-14T01:12:27.000Z</time></trkpt>
        <trkpt lat="29.5719537" lon="103.4009066"><ele>730.16</ele><time>2026-02-14T01:12:34.000Z</time></trkpt>
        <trkpt lat="29.5719644" lon="103.4007909"><ele>733.01</ele><time>2026-02-14T01:12:56.000Z</time></trkpt>
        <trkpt lat="29.5719456" lon="103.4006837"><ele>736.43</ele><time>2026-02-14T01:13:14.000Z</time></trkpt>
        <trkpt lat="29.5719195" lon="103.4005759"><ele>740.11</ele><time>2026-02-14T01:13:40.000Z</time></trkpt>
        <trkpt lat="29.5718925" lon="103.4004642"><ele>742.89</ele><time>2026-02-14T01:14:16.000Z</time></trkpt>
        <trkpt lat="29.5718719" lon="103.4003576"><ele>748.64</ele><time>2026-02-14T01:14:34.000Z</time></trkpt>
        <trkpt lat="29.5718719" lon="103.4002531"><ele>753.01</ele><time>2026-02-14T01:14:54.000Z</time></trkpt>
        <trkpt lat="29.5718883" lon="103.4001475"><ele>758.78</ele><time>2026-02-14T01:15:16.000Z</time></trkpt>
        <trkpt lat="29.5718738" lon="103.4000408"><ele>763.54</ele><time>2026-02-14T01:15:40.000Z</time></trkpt>
        <trkpt lat="29.5718497" lon="103.3999322"><ele>768.75</ele><time>2026-02-14T01:16:00.000Z</time></trkpt>
        <trkpt lat="29.5718711" lon="103.3998284"><ele>772.91</ele><time>2026-02-14T01:16:32.000Z</time></trkpt>
        <trkpt lat="29.5718806" lon="103.3997206"><ele>778.1</ele><time>2026-02-14T01:16:48.000Z</time></trkpt>
        <trkpt lat="29.5718684" lon="103.3996111"><ele>780.87</ele><time>2026-02-14T01:17:04.000Z</time></trkpt>
        <trkpt lat="29.5718527" lon="103.3994962"><ele>784.64</ele><time>2026-02-14T01:17:22.000Z</time></trkpt>
        <trkpt lat="29.5718437" lon="103.3993835"><ele>788.43</ele><time>2026-02-14T01:17:36.000Z</time></trkpt>
        <trkpt lat="29.5718162" lon="103.3992832"><ele>790.01</ele><time>2026-02-14T01:17:50.000Z</time></trkpt>
        <trkpt lat="29.5717562" lon="103.3992078"><ele>792.05</ele><time>2026-02-14T01:18:08.000Z</time></trkpt>
        <trkpt lat="29.5717076" lon="103.3991114"><ele>793.18</ele><time>2026-02-14T01:18:26.000Z</time></trkpt>
        <trkpt lat="29.5716821" lon="103.3990053"><ele>797.07</ele><time>2026-02-14T01:18:44.000Z</time></trkpt>
        <trkpt lat="29.5716415" lon="103.3989111"><ele>800.54</ele><time>2026-02-14T01:18:56.000Z</time></trkpt>
        <trkpt lat="29.5716237" lon="103.3988057"><ele>802.07</ele><time>2026-02-14T01:19:02.000Z</time></trkpt>
        <trkpt lat="29.5716157" lon="103.3987009"><ele>803.75</ele><time>2026-02-14T01:19:10.000Z</time></trkpt>
        <trkpt lat="29.5715917" lon="103.3985938"><ele>803.77</ele><time>2026-02-14T01:19:18.000Z</time></trkpt>
        <trkpt lat="29.5715829" lon="103.3984822"><ele>804.4</ele><time>2026-02-14T01:19:30.000Z</time></trkpt>
        <trkpt lat="29.5715778" lon="103.3983727"><ele>804.29</ele><time>2026-02-14T01:19:44.000Z</time></trkpt>
        <trkpt lat="29.5715903" lon="103.398252"><ele>802.29</ele><time>2026-02-14T01:19:56.000Z</time></trkpt>
        <trkpt lat="29.571605" lon="103.3981375"><ele>801.2</ele><time>2026-02-14T01:20:08.000Z</time></trkpt>
        <trkpt lat="29.5716163" lon="103.3980132"><ele>800.06</ele><time>2026-02-14T01:20:22.000Z</time></trkpt>
        <trkpt lat="29.5715923" lon="103.3979057"><ele>797.26</ele><time>2026-02-14T01:20:34.000Z</time></trkpt>
        <trkpt lat="29.571539" lon="103.3978111"><ele>795.12</ele><time>2026-02-14T01:20:54.000Z</time></trkpt>
        <trkpt lat="29.5715158" lon="103.3977075"><ele>792.59</ele><time>2026-02-14T01:21:08.000Z</time></trkpt>
        <trkpt lat="29.5714846" lon="103.397609"><ele>789.63</ele><time>2026-02-14T01:21:20.000Z</time></trkpt>
        <trkpt lat="29.5714583" lon="103.3975016"><ele>786.09</ele><time>2026-02-14T01:21:36.000Z</time></trkpt>
        <trkpt lat="29.5714662" lon="103.3973947"><ele>781</ele><time>2026-02-14T01:21:46.000Z</time></trkpt>
        <trkpt lat="29.571492" lon="103.3972834"><ele>779.86</ele><time>2026-02-14T01:22:02.000Z</time></trkpt>
        <trkpt lat="29.571552" lon="103.3971922"><ele>778.39</ele><time>2026-02-14T01:22:12.000Z</time></trkpt>
        <trkpt lat="29.5716151" lon="103.3971095"><ele>776.88</ele><time>2026-02-14T01:22:24.000Z</time></trkpt>
        <trkpt lat="29.5716908" lon="103.397039"><ele>773.96</ele><time>2026-02-14T01:22:38.000Z</time></trkpt>
        <trkpt lat="29.5717527" lon="103.3969426"><ele>770.42</ele><time>2026-02-14T01:22:50.000Z</time></trkpt>
        <trkpt lat="29.5718111" lon="103.3968445"><ele>766.93</ele><time>2026-02-14T01:23:06.000Z</time></trkpt>
        <trkpt lat="29.5718111" lon="103.3968445"><ele>766.93</ele><time>2026-02-14T01:23:31.000Z</time></trkpt>
        <trkpt lat="29.5719026" lon="103.3967993"><ele>763.08</ele><time>2026-02-14T01:23:51.000Z</time></trkpt>
        <trkpt lat="29.5719026" lon="103.3967993"><ele>763.08</ele><time>2026-02-14T01:23:56.000Z</time></trkpt>
        <trkpt lat="29.5719848" lon="103.3967953"><ele>759.08</ele><time>2026-02-14T01:24:04.000Z</time></trkpt>
        <trkpt lat="29.5720835" lon="103.3967762"><ele>757.21</ele><time>2026-02-14T01:24:36.000Z</time></trkpt>
        <trkpt lat="29.5721771" lon="103.3967475"><ele>753.76</ele><time>2026-02-14T01:24:54.000Z</time></trkpt>
        <trkpt lat="29.572279" lon="103.396731"><ele>749.97</ele><time>2026-02-14T01:25:10.000Z</time></trkpt>
        <trkpt lat="29.5723725" lon="103.3966957"><ele>746.31</ele><time>2026-02-14T01:25:24.000Z</time></trkpt>
        <trkpt lat="29.5724032" lon="103.3965988"><ele>742.9</ele><time>2026-02-14T01:25:34.000Z</time></trkpt>
        <trkpt lat="29.5723819" lon="103.3964914"><ele>739.76</ele><time>2026-02-14T01:25:48.000Z</time></trkpt>
        <trkpt lat="29.5723722" lon="103.3963725"><ele>734.82</ele><time>2026-02-14T01:25:56.000Z</time></trkpt>
        <trkpt lat="29.5724137" lon="103.3962758"><ele>732.92</ele><time>2026-02-14T01:26:06.000Z</time></trkpt>
        <trkpt lat="29.57243" lon="103.3961587"><ele>731.53</ele><time>2026-02-14T01:26:20.000Z</time></trkpt>
        <trkpt lat="29.572462" lon="103.3960558"><ele>731.02</ele><time>2026-02-14T01:26:32.000Z</time></trkpt>
        <trkpt lat="29.5724999" lon="103.3959964"><ele>729.31</ele><time>2026-02-14T01:26:44.000Z</time></trkpt>
        <trkpt lat="29.5725742" lon="103.3959549"><ele>728.5</ele><time>2026-02-14T01:26:56.000Z</time></trkpt>
        <trkpt lat="29.5726592" lon="103.3959001"><ele>727.94</ele><time>2026-02-14T01:27:10.000Z</time></trkpt>
        <trkpt lat="29.5727574" lon="103.3958438"><ele>725.67</ele><time>2026-02-14T01:27:24.000Z</time></trkpt>
        <trkpt lat="29.5728333" lon="103.3957576"><ele>721.45</ele><time>2026-02-14T01:27:36.000Z</time></trkpt>
        <trkpt lat="29.5728869" lon="103.3956565"><ele>718.45</ele><time>2026-02-14T01:27:48.000Z</time></trkpt>
        <trkpt lat="29.5729094" lon="103.3955446"><ele>716.91</ele><time>2026-02-14T01:27:56.000Z</time></trkpt>
        <trkpt lat="29.5729403" lon="103.3954324"><ele>717.29</ele><time>2026-02-14T01:28:04.000Z</time></trkpt>
        <trkpt lat="29.5729937" lon="103.3953342"><ele>717.09</ele><time>2026-02-14T01:28:14.000Z</time></trkpt>
        <trkpt lat="29.5730219" lon="103.3952316"><ele>716.45</ele><time>2026-02-14T01:28:26.000Z</time></trkpt>
        <trkpt lat="29.57299" lon="103.3951348"><ele>715.18</ele><time>2026-02-14T01:28:38.000Z</time></trkpt>
        <trkpt lat="29.5729463" lon="103.3950288"><ele>714</ele><time>2026-02-14T01:28:52.000Z</time></trkpt>
        <trkpt lat="29.5729319" lon="103.3949101"><ele>711.44</ele><time>2026-02-14T01:29:06.000Z</time></trkpt>
        <trkpt lat="29.5729123" lon="103.3947899"><ele>707.63</ele><time>2026-02-14T01:29:16.000Z</time></trkpt>
        <trkpt lat="29.5728472" lon="103.3946962"><ele>705.52</ele><time>2026-02-14T01:29:28.000Z</time></trkpt>
        <trkpt lat="29.5727711" lon="103.3946139"><ele>705.03</ele><time>2026-02-14T01:29:44.000Z</time></trkpt>
        <trkpt lat="29.572758" lon="103.3945072"><ele>703.15</ele><time>2026-02-14T01:30:06.000Z</time></trkpt>
        <trkpt lat="29.5727949" lon="103.39441"><ele>700.44</ele><time>2026-02-14T01:30:20.000Z</time></trkpt>
        <trkpt lat="29.5728043" lon="103.3943708"><ele>695.8</ele><time>2026-02-14T01:30:28.000Z</time></trkpt>
        <trkpt lat="29.5728497" lon="103.3942908"><ele>692.77</ele><time>2026-02-14T01:31:00.000Z</time></trkpt>
        <trkpt lat="29.5728843" lon="103.3941929"><ele>690.06</ele><time>2026-02-14T01:31:37.000Z</time></trkpt>
        <trkpt lat="29.5729171" lon="103.3940914"><ele>687.22</ele><time>2026-02-14T01:31:47.000Z</time></trkpt>
        <trkpt lat="29.5729626" lon="103.3939847"><ele>685.79</ele><time>2026-02-14T01:31:57.000Z</time></trkpt>
        <trkpt lat="29.5730139" lon="103.3938824"><ele>685.19</ele><time>2026-02-14T01:32:07.000Z</time></trkpt>
        <trkpt lat="29.5730684" lon="103.3937655"><ele>684.27</ele><time>2026-02-14T01:32:17.000Z</time></trkpt>
        <trkpt lat="29.5731544" lon="103.3937124"><ele>684.46</ele><time>2026-02-14T01:32:27.000Z</time></trkpt>
        <trkpt lat="29.573249" lon="103.393732"><ele>684.4</ele><time>2026-02-14T01:32:41.000Z</time></trkpt>
        <trkpt lat="29.5733342" lon="103.3937009"><ele>684.03</ele><time>2026-02-14T01:32:51.000Z</time></trkpt>
        <trkpt lat="29.5734333" lon="103.3936345"><ele>682.55</ele><time>2026-02-14T01:32:59.000Z</time></trkpt>
        <trkpt lat="29.5735327" lon="103.3935799"><ele>683.55</ele><time>2026-02-14T01:33:09.000Z</time></trkpt>
        <trkpt lat="29.5736254" lon="103.3935386"><ele>682</ele><time>2026-02-14T01:33:17.000Z</time></trkpt>
        <trkpt lat="29.5736909" lon="103.3934649"><ele>680.54</ele><time>2026-02-14T01:33:31.000Z</time></trkpt>
        <trkpt lat="29.5737815" lon="103.3934126"><ele>679.62</ele><time>2026-02-14T01:33:41.000Z</time></trkpt>
        <trkpt lat="29.5738753" lon="103.3933747"><ele>679.15</ele><time>2026-02-14T01:33:49.000Z</time></trkpt>
        <trkpt lat="29.5739633" lon="103.3933101"><ele>679.39</ele><time>2026-02-14T01:33:55.000Z</time></trkpt>
        <trkpt lat="29.5739661" lon="103.3932867"><ele>679.19</ele><time>2026-02-14T01:34:01.000Z</time></trkpt>
        <trkpt lat="29.5739817" lon="103.393192"><ele>679.32</ele><time>2026-02-14T01:34:27.000Z</time></trkpt>
        <trkpt lat="29.573997" lon="103.393126"><ele>680.3</ele><time>2026-02-14T01:34:35.000Z</time></trkpt>
        <trkpt lat="29.5740361" lon="103.3930398"><ele>680.08</ele><time>2026-02-14T01:34:45.000Z</time></trkpt>
        <trkpt lat="29.5740694" lon="103.3929323"><ele>678.9</ele><time>2026-02-14T01:34:55.000Z</time></trkpt>
        <trkpt lat="29.5741047" lon="103.392827"><ele>677.65</ele><time>2026-02-14T01:35:05.000Z</time></trkpt>
        <trkpt lat="29.5741515" lon="103.3927305"><ele>675.75</ele><time>2026-02-14T01:35:17.000Z</time></trkpt>
        <trkpt lat="29.5741657" lon="103.3926277"><ele>673.53</ele><time>2026-02-14T01:35:27.000Z</time></trkpt>
        <trkpt lat="29.574146" lon="103.3925414"><ele>672.72</ele><time>2026-02-14T01:35:39.000Z</time></trkpt>
        <trkpt lat="29.574092" lon="103.392449"><ele>669.51</ele><time>2026-02-14T01:35:51.000Z</time></trkpt>
        <trkpt lat="29.5741437" lon="103.3924388"><ele>666.02</ele><time>2026-02-14T01:36:21.000Z</time></trkpt>
        <trkpt lat="29.5741758" lon="103.3923935"><ele>660.9</ele><time>2026-02-14T01:36:31.000Z</time></trkpt>
        <trkpt lat="29.5741341" lon="103.3924386"><ele>657.13</ele><time>2026-02-14T01:37:03.000Z</time></trkpt>
        <trkpt lat="29.5741725" lon="103.392398"><ele>655.81</ele><time>2026-02-14T01:37:27.000Z</time></trkpt>
        <trkpt lat="29.574209" lon="103.392328"><ele>654.06</ele><time>2026-02-14T01:37:35.000Z</time></trkpt>
        <trkpt lat="29.5742035" lon="103.3922297"><ele>654.27</ele><time>2026-02-14T01:38:00.000Z</time></trkpt>
        <trkpt lat="29.5742035" lon="103.3922297"><ele>654.27</ele><time>2026-02-14T01:38:27.000Z</time></trkpt>
        <trkpt lat="29.574073" lon="103.3920587"><ele>651.22</ele><time>2026-02-14T01:38:33.000Z</time></trkpt>
        <trkpt lat="29.574073" lon="103.3920587"><ele>651.22</ele><time>2026-02-14T01:39:19.000Z</time></trkpt>
        <trkpt lat="29.5740438" lon="103.3920399"><ele>653.94</ele><time>2026-02-14T01:39:25.000Z</time></trkpt>
        <trkpt lat="29.5739893" lon="103.3919571"><ele>655.39</ele><time>2026-02-14T01:41:03.000Z</time></trkpt>
        <trkpt lat="29.5739893" lon="103.3919571"><ele>655.39</ele><time>2026-02-14T01:41:23.000Z</time></trkpt>
        <trkpt lat="29.5740851" lon="103.3919974"><ele>656.31</ele><time>2026-02-14T01:41:45.000Z</time></trkpt>
        <trkpt lat="29.5740851" lon="103.3919974"><ele>656.31</ele><time>2026-02-14T01:42:09.000Z</time></trkpt>
        <trkpt lat="29.5740085" lon="103.3920542"><ele>655.81</ele><time>2026-02-14T01:42:33.000Z</time></trkpt>
        <trkpt lat="29.5739095" lon="103.3920637"><ele>655.01</ele><time>2026-02-14T01:42:53.000Z</time></trkpt>
        <trkpt lat="29.5738154" lon="103.392056"><ele>654.66</ele><time>2026-02-14T01:42:59.000Z</time></trkpt>
        <trkpt lat="29.573781" lon="103.3920904"><ele>654.31</ele><time>2026-02-14T01:43:05.000Z</time></trkpt>
        <trkpt lat="29.5737042" lon="103.3920637"><ele>653.52</ele><time>2026-02-14T01:43:13.000Z</time></trkpt>
        <trkpt lat="29.5736279" lon="103.3919887"><ele>655.38</ele><time>2026-02-14T01:43:23.000Z</time></trkpt>
        <trkpt lat="29.5735623" lon="103.3918909"><ele>657.18</ele><time>2026-02-14T01:43:31.000Z</time></trkpt>
        <trkpt lat="29.5734846" lon="103.3917874"><ele>660.98</ele><time>2026-02-14T01:43:39.000Z</time></trkpt>
        <trkpt lat="29.5734416" lon="103.391751"><ele>665.03</ele><time>2026-02-14T01:44:01.000Z</time></trkpt>
        <trkpt lat="29.5734917" lon="103.3918082"><ele>662.43</ele><time>2026-02-14T01:44:29.000Z</time></trkpt>
        <trkpt lat="29.5735233" lon="103.3918261"><ele>660.08</ele><time>2026-02-14T01:44:35.000Z</time></trkpt>
        <trkpt lat="29.5734714" lon="103.3918014"><ele>658.83</ele><time>2026-02-14T01:45:22.000Z</time></trkpt>
        <trkpt lat="29.5733858" lon="103.3917354"><ele>658.96</ele><time>2026-02-14T01:45:36.000Z</time></trkpt>
        <trkpt lat="29.5732854" lon="103.3917028"><ele>658.6</ele><time>2026-02-14T01:45:46.000Z</time></trkpt>
        <trkpt lat="29.5731857" lon="103.3916635"><ele>658.91</ele><time>2026-02-14T01:46:02.000Z</time></trkpt>
        <trkpt lat="29.5730967" lon="103.3916947"><ele>658.15</ele><time>2026-02-14T01:46:14.000Z</time></trkpt>
        <trkpt lat="29.5729939" lon="103.3917251"><ele>659.83</ele><time>2026-02-14T01:46:26.000Z</time></trkpt>
        <trkpt lat="29.5729005" lon="103.3917812"><ele>660.81</ele><time>2026-02-14T01:46:34.000Z</time></trkpt>
        <trkpt lat="29.5728016" lon="103.3918337"><ele>662.27</ele><time>2026-02-14T01:46:42.000Z</time></trkpt>
        <trkpt lat="29.5726951" lon="103.3918041"><ele>662.95</ele><time>2026-02-14T01:46:56.000Z</time></trkpt>
        <trkpt lat="29.572591" lon="103.3917921"><ele>659.79</ele><time>2026-02-14T01:47:10.000Z</time></trkpt>
        <trkpt lat="29.5725012" lon="103.3918203"><ele>659.64</ele><time>2026-02-14T01:47:20.000Z</time></trkpt>
        <trkpt lat="29.5724119" lon="103.3918197"><ele>661.64</ele><time>2026-02-14T01:47:30.000Z</time></trkpt>
        <trkpt lat="29.572352" lon="103.391736"><ele>664.64</ele><time>2026-02-14T01:47:40.000Z</time></trkpt>
        <trkpt lat="29.5723184" lon="103.3916977"><ele>668.68</ele><time>2026-02-14T01:47:44.000Z</time></trkpt>
        <trkpt lat="29.5722334" lon="103.3916746"><ele>670.48</ele><time>2026-02-14T01:47:54.000Z</time></trkpt>
        <trkpt lat="29.572143" lon="103.3916301"><ele>672.47</ele><time>2026-02-14T01:48:04.000Z</time></trkpt>
        <trkpt lat="29.5720388" lon="103.3916035"><ele>672.86</ele><time>2026-02-14T01:48:14.000Z</time></trkpt>
        <trkpt lat="29.5719344" lon="103.3915937"><ele>671.32</ele><time>2026-02-14T01:48:24.000Z</time></trkpt>
        <trkpt lat="29.5718277" lon="103.3916112"><ele>669.44</ele><time>2026-02-14T01:48:34.000Z</time></trkpt>
        <trkpt lat="29.5717325" lon="103.391628"><ele>667.23</ele><time>2026-02-14T01:48:42.000Z</time></trkpt>
        <trkpt lat="29.5716408" lon="103.3916336"><ele>666.64</ele><time>2026-02-14T01:48:50.000Z</time></trkpt>
        <trkpt lat="29.5715486" lon="103.3916394"><ele>666.75</ele><time>2026-02-14T01:48:58.000Z</time></trkpt>
        <trkpt lat="29.5714515" lon="103.391643"><ele>666.91</ele><time>2026-02-14T01:49:06.000Z</time></trkpt>
        <trkpt lat="29.5713555" lon="103.3916359"><ele>667.2</ele><time>2026-02-14T01:49:16.000Z</time></trkpt>
        <trkpt lat="29.5712629" lon="103.3916432"><ele>664.93</ele><time>2026-02-14T01:49:26.000Z</time></trkpt>
        <trkpt lat="29.5711735" lon="103.391667"><ele>663.72</ele><time>2026-02-14T01:49:36.000Z</time></trkpt>
        <trkpt lat="29.5710824" lon="103.3916739"><ele>662.73</ele><time>2026-02-14T01:49:48.000Z</time></trkpt>
        <trkpt lat="29.5709884" lon="103.3916699"><ele>663.39</ele><time>2026-02-14T01:50:04.000Z</time></trkpt>
        <trkpt lat="29.5708929" lon="103.3916348"><ele>662.36</ele><time>2026-02-14T01:50:16.000Z</time></trkpt>
        <trkpt lat="29.5708046" lon="103.3915643"><ele>661.45</ele><time>2026-02-14T01:50:26.000Z</time></trkpt>
        <trkpt lat="29.5707298" lon="103.3914755"><ele>661.33</ele><time>2026-02-14T01:50:40.000Z</time></trkpt>
        <trkpt lat="29.5706606" lon="103.3913898"><ele>661.17</ele><time>2026-02-14T01:50:54.000Z</time></trkpt>
        <trkpt lat="29.5705758" lon="103.3913457"><ele>662.09</ele><time>2026-02-14T01:51:08.000Z</time></trkpt>
        <trkpt lat="29.5705084" lon="103.3912645"><ele>663.43</ele><time>2026-02-14T01:51:26.000Z</time></trkpt>
        <trkpt lat="29.5704228" lon="103.3912153"><ele>665.07</ele><time>2026-02-14T01:51:34.000Z</time></trkpt>
        <trkpt lat="29.5703817" lon="103.3911299"><ele>668.24</ele><time>2026-02-14T01:51:48.000Z</time></trkpt>
        <trkpt lat="29.5703463" lon="103.3910335"><ele>673.02</ele><time>2026-02-14T01:52:06.000Z</time></trkpt>
        <trkpt lat="29.5702674" lon="103.3910086"><ele>678.26</ele><time>2026-02-14T01:52:32.000Z</time></trkpt>
        <trkpt lat="29.5701731" lon="103.3909921"><ele>681.84</ele><time>2026-02-14T01:52:54.000Z</time></trkpt>
        <trkpt lat="29.5701389" lon="103.3909101"><ele>684.14</ele><time>2026-02-14T01:53:08.000Z</time></trkpt>
        <trkpt lat="29.5700763" lon="103.3908295"><ele>686.22</ele><time>2026-02-14T01:53:18.000Z</time></trkpt>
        <trkpt lat="29.5699798" lon="103.3908223"><ele>686.11</ele><time>2026-02-14T01:53:28.000Z</time></trkpt>
        <trkpt lat="29.5698804" lon="103.390841"><ele>684.12</ele><time>2026-02-14T01:53:36.000Z</time></trkpt>
        <trkpt lat="29.5697857" lon="103.3908671"><ele>683.35</ele><time>2026-02-14T01:53:44.000Z</time></trkpt>
        <trkpt lat="29.5696938" lon="103.390878"><ele>682.29</ele><time>2026-02-14T01:53:54.000Z</time></trkpt>
        <trkpt lat="29.5695979" lon="103.3908884"><ele>680.55</ele><time>2026-02-14T01:54:04.000Z</time></trkpt>
        <trkpt lat="29.5695069" lon="103.3909074"><ele>679.65</ele><time>2026-02-14T01:54:20.000Z</time></trkpt>
        <trkpt lat="29.5694481" lon="103.390907"><ele>675.51</ele><time>2026-02-14T01:54:30.000Z</time></trkpt>
        <trkpt lat="29.5694481" lon="103.390907"><ele>675.51</ele><time>2026-02-14T01:54:43.000Z</time></trkpt>
        <trkpt lat="29.5693737" lon="103.3909494"><ele>670.35</ele><time>2026-02-14T01:54:49.000Z</time></trkpt>
        <trkpt lat="29.5693737" lon="103.3909494"><ele>670.35</ele><time>2026-02-14T01:55:40.000Z</time></trkpt>
        <trkpt lat="29.5693737" lon="103.3909494"><ele>670.35</ele><time>2026-02-14T01:55:59.000Z</time></trkpt>
        <trkpt lat="29.5693737" lon="103.3909494"><ele>670.35</ele><time>2026-02-14T01:56:05.000Z</time></trkpt>
        <trkpt lat="29.5693737" lon="103.3909494"><ele>670.35</ele><time>2026-02-14T01:57:19.000Z</time></trkpt>
        <trkpt lat="29.5693166" lon="103.3908272"><ele>668.77</ele><time>2026-02-14T01:57:23.000Z</time></trkpt>
        <trkpt lat="29.5693166" lon="103.3908272"><ele>668.77</ele><time>2026-02-14T01:57:36.000Z</time></trkpt>
        <trkpt lat="29.5692943" lon="103.3906899"><ele>668.48</ele><time>2026-02-14T01:57:42.000Z</time></trkpt>
        <trkpt lat="29.5691937" lon="103.3907338"><ele>667.88</ele><time>2026-02-14T01:57:48.000Z</time></trkpt>
        <trkpt lat="29.5691675" lon="103.3908233"><ele>669.29</ele><time>2026-02-14T01:57:54.000Z</time></trkpt>
        <trkpt lat="29.5691675" lon="103.3908233"><ele>669.29</ele><time>2026-02-14T01:58:29.000Z</time></trkpt>
        <trkpt lat="29.5691082" lon="103.3909574"><ele>670.67</ele><time>2026-02-14T01:58:31.000Z</time></trkpt>
        <trkpt lat="29.5691082" lon="103.3909574"><ele>670.67</ele><time>2026-02-14T01:59:16.000Z</time></trkpt>
        <trkpt lat="29.5690281" lon="103.391017"><ele>673.14</ele><time>2026-02-14T01:59:28.000Z</time></trkpt>
        <trkpt lat="29.5689892" lon="103.3911127"><ele>674.26</ele><time>2026-02-14T01:59:36.000Z</time></trkpt>
        <trkpt lat="29.5689115" lon="103.3911524"><ele>675.34</ele><time>2026-02-14T01:59:42.000Z</time></trkpt>
        <trkpt lat="29.5688658" lon="103.3912533"><ele>676.3</ele><time>2026-02-14T01:59:54.000Z</time></trkpt>
        <trkpt lat="29.5687741" lon="103.3912854"><ele>677.79</ele><time>2026-02-14T02:00:02.000Z</time></trkpt>
        <trkpt lat="29.5686943" lon="103.3912569"><ele>674.89</ele><time>2026-02-14T02:00:10.000Z</time></trkpt>
        <trkpt lat="29.5685962" lon="103.3912248"><ele>672.25</ele><time>2026-02-14T02:00:30.000Z</time></trkpt>
        <trkpt lat="29.5685036" lon="103.3911747"><ele>667.99</ele><time>2026-02-14T02:00:38.000Z</time></trkpt>
        <trkpt lat="29.5684884" lon="103.3910744"><ele>666.92</ele><time>2026-02-14T02:00:42.000Z</time></trkpt>
        <trkpt lat="29.5685218" lon="103.3909311"><ele>666.87</ele><time>2026-02-14T02:00:46.000Z</time></trkpt>
        <trkpt lat="29.5685706" lon="103.3908049"><ele>667.63</ele><time>2026-02-14T02:00:50.000Z</time></trkpt>
        <trkpt lat="29.5686531" lon="103.3908053"><ele>669.33</ele><time>2026-02-14T02:00:54.000Z</time></trkpt>
        <trkpt lat="29.5686531" lon="103.3908053"><ele>669.33</ele><time>2026-02-14T02:01:03.000Z</time></trkpt>
        <trkpt lat="29.5686274" lon="103.3907596"><ele>664.55</ele><time>2026-02-14T02:01:07.000Z</time></trkpt>
        <trkpt lat="29.5686274" lon="103.3907596"><ele>664.55</ele><time>2026-02-14T02:01:28.000Z</time></trkpt>
        <trkpt lat="29.568532" lon="103.3907243"><ele>665.74</ele><time>2026-02-14T02:01:54.000Z</time></trkpt>
        <trkpt lat="29.5684607" lon="103.3907524"><ele>669.77</ele><time>2026-02-14T02:02:00.000Z</time></trkpt>
        <trkpt lat="29.5684005" lon="103.3908528"><ele>673.22</ele><time>2026-02-14T02:02:16.000Z</time></trkpt>
        <trkpt lat="29.5682916" lon="103.390886"><ele>675.2</ele><time>2026-02-14T02:02:26.000Z</time></trkpt>
        <trkpt lat="29.5681957" lon="103.3909307"><ele>676.15</ele><time>2026-02-14T02:02:32.000Z</time></trkpt>
        <trkpt lat="29.5681123" lon="103.3910013"><ele>676.9</ele><time>2026-02-14T02:02:48.000Z</time></trkpt>
        <trkpt lat="29.5680265" lon="103.3909712"><ele>680.13</ele><time>2026-02-14T02:03:02.000Z</time></trkpt>
        <trkpt lat="29.5679593" lon="103.3908932"><ele>682.56</ele><time>2026-02-14T02:03:10.000Z</time></trkpt>
        <trkpt lat="29.5679595" lon="103.3908771"><ele>683.34</ele><time>2026-02-14T02:03:14.000Z</time></trkpt>
        <trkpt lat="29.5679595" lon="103.3908771"><ele>683.34</ele><time>2026-02-14T02:03:27.000Z</time></trkpt>
        <trkpt lat="29.5679253" lon="103.3907994"><ele>681.24</ele><time>2026-02-14T02:03:31.000Z</time></trkpt>
        <trkpt lat="29.5679253" lon="103.3907994"><ele>681.24</ele><time>2026-02-14T02:03:42.000Z</time></trkpt>
        <trkpt lat="29.5678498" lon="103.3907928"><ele>680.87</ele><time>2026-02-14T02:03:50.000Z</time></trkpt>
        <trkpt lat="29.5677543" lon="103.3908043"><ele>680.81</ele><time>2026-02-14T02:03:58.000Z</time></trkpt>
        <trkpt lat="29.567666" lon="103.3907711"><ele>681.33</ele><time>2026-02-14T02:04:12.000Z</time></trkpt>
        <trkpt lat="29.5675779" lon="103.3907236"><ele>683.35</ele><time>2026-02-14T02:04:29.000Z</time></trkpt>
        <trkpt lat="29.5674976" lon="103.3906585"><ele>685.15</ele><time>2026-02-14T02:04:47.000Z</time></trkpt>
        <trkpt lat="29.5674921" lon="103.3905405"><ele>684.27</ele><time>2026-02-14T02:04:53.000Z</time></trkpt>
        <trkpt lat="29.5674682" lon="103.3904242"><ele>682.15</ele><time>2026-02-14T02:05:03.000Z</time></trkpt>
        <trkpt lat="29.5673871" lon="103.3903828"><ele>681.06</ele><time>2026-02-14T02:05:13.000Z</time></trkpt>
        <trkpt lat="29.5672953" lon="103.3903436"><ele>681.07</ele><time>2026-02-14T02:05:23.000Z</time></trkpt>
        <trkpt lat="29.5672039" lon="103.3902948"><ele>683.15</ele><time>2026-02-14T02:05:31.000Z</time></trkpt>
        <trkpt lat="29.5671224" lon="103.3902339"><ele>685.41</ele><time>2026-02-14T02:05:37.000Z</time></trkpt>
        <trkpt lat="29.56703" lon="103.3902025"><ele>688.28</ele><time>2026-02-14T02:05:45.000Z</time></trkpt>
        <trkpt lat="29.5669342" lon="103.3901859"><ele>691.13</ele><time>2026-02-14T02:05:53.000Z</time></trkpt>
        <trkpt lat="29.5668637" lon="103.3901127"><ele>695.19</ele><time>2026-02-14T02:06:05.000Z</time></trkpt>
        <trkpt lat="29.5668021" lon="103.3900133"><ele>697.01</ele><time>2026-02-14T02:06:17.000Z</time></trkpt>
        <trkpt lat="29.5667369" lon="103.3899146"><ele>697.42</ele><time>2026-02-14T02:06:27.000Z</time></trkpt>
        <trkpt lat="29.5666624" lon="103.389845"><ele>699.13</ele><time>2026-02-14T02:06:37.000Z</time></trkpt>
        <trkpt lat="29.5665699" lon="103.3897994"><ele>698.84</ele><time>2026-02-14T02:06:47.000Z</time></trkpt>
        <trkpt lat="29.5664744" lon="103.3897784"><ele>698.45</ele><time>2026-02-14T02:06:55.000Z</time></trkpt>
        <trkpt lat="29.5663795" lon="103.3897642"><ele>698.2</ele><time>2026-02-14T02:07:03.000Z</time></trkpt>
        <trkpt lat="29.5662727" lon="103.3897598"><ele>697.29</ele><time>2026-02-14T02:07:13.000Z</time></trkpt>
        <trkpt lat="29.5663134" lon="103.3897832"><ele>698.06</ele><time>2026-02-14T02:07:33.000Z</time></trkpt>
        <trkpt lat="29.5663444" lon="103.389869"><ele>699.74</ele><time>2026-02-14T02:07:43.000Z</time></trkpt>
        <trkpt lat="29.5663723" lon="103.3897778"><ele>698.49</ele><time>2026-02-14T02:08:51.000Z</time></trkpt>
        <trkpt lat="29.5663808" lon="103.3897707"><ele>699.36</ele><time>2026-02-14T02:08:53.000Z</time></trkpt>
        <trkpt lat="29.5663046" lon="103.3897393"><ele>699.79</ele><time>2026-02-14T02:09:09.000Z</time></trkpt>
        <trkpt lat="29.5662153" lon="103.3897055"><ele>699.35</ele><time>2026-02-14T02:09:25.000Z</time></trkpt>
        <trkpt lat="29.5661189" lon="103.3896689"><ele>698.96</ele><time>2026-02-14T02:09:36.000Z</time></trkpt>
        <trkpt lat="29.5660397" lon="103.3896667"><ele>698.22</ele><time>2026-02-14T02:09:48.000Z</time></trkpt>
        <trkpt lat="29.5660397" lon="103.3896667"><ele>698.22</ele><time>2026-02-14T02:10:31.000Z</time></trkpt>
        <trkpt lat="29.5660397" lon="103.3896667"><ele>698.22</ele><time>2026-02-14T02:12:01.000Z</time></trkpt>
        <trkpt lat="29.5660397" lon="103.3896667"><ele>698.22</ele><time>2026-02-14T02:12:23.000Z</time></trkpt>
        <trkpt lat="29.5660397" lon="103.3896667"><ele>698.22</ele><time>2026-02-14T02:12:27.000Z</time></trkpt>
        <trkpt lat="29.5660397" lon="103.3896667"><ele>698.22</ele><time>2026-02-14T02:12:43.000Z</time></trkpt>
        <trkpt lat="29.5660397" lon="103.3896667"><ele>698.22</ele><time>2026-02-14T02:14:57.000Z</time></trkpt>
        <trkpt lat="29.5660397" lon="103.3896667"><ele>698.22</ele><time>2026-02-14T02:15:21.000Z</time></trkpt>
        <trkpt lat="29.5660397" lon="103.3896667"><ele>698.22</ele><time>2026-02-14T02:15:29.000Z</time></trkpt>
        <trkpt lat="29.5660397" lon="103.3896667"><ele>698.22</ele><time>2026-02-14T02:15:45.000Z</time></trkpt>
        <trkpt lat="29.5660397" lon="103.3896667"><ele>698.22</ele><time>2026-02-14T02:16:49.000Z</time></trkpt>
        <trkpt lat="29.5660397" lon="103.3896667"><ele>698.22</ele><time>2026-02-14T02:17:05.000Z</time></trkpt>
        <trkpt lat="29.5659427" lon="103.3896882"><ele>698.44</ele><time>2026-02-14T02:17:35.000Z</time></trkpt>
        <trkpt lat="29.5659427" lon="103.3896882"><ele>698.44</ele><time>2026-02-14T02:17:44.000Z</time></trkpt>
        <trkpt lat="29.5658436" lon="103.3897341"><ele>698.29</ele><time>2026-02-14T02:18:00.000Z</time></trkpt>
        <trkpt lat="29.5657437" lon="103.3897604"><ele>697.21</ele><time>2026-02-14T02:18:10.000Z</time></trkpt>
        <trkpt lat="29.5656497" lon="103.3897663"><ele>696.63</ele><time>2026-02-14T02:18:24.000Z</time></trkpt>
        <trkpt lat="29.565622" lon="103.3896758"><ele>698.85</ele><time>2026-02-14T02:18:36.000Z</time></trkpt>
        <trkpt lat="29.5655715" lon="103.3895773"><ele>701.35</ele><time>2026-02-14T02:18:54.000Z</time></trkpt>
        <trkpt lat="29.5654797" lon="103.3895183"><ele>702.86</ele><time>2026-02-14T02:19:00.000Z</time></trkpt>
        <trkpt lat="29.5653814" lon="103.3894854"><ele>701.08</ele><time>2026-02-14T02:19:08.000Z</time></trkpt>
        <trkpt lat="29.5652881" lon="103.389432"><ele>699.32</ele><time>2026-02-14T02:19:18.000Z</time></trkpt>
        <trkpt lat="29.5652021" lon="103.389384"><ele>697.55</ele><time>2026-02-14T02:19:28.000Z</time></trkpt>
        <trkpt lat="29.565131" lon="103.3893195"><ele>696.82</ele><time>2026-02-14T02:19:40.000Z</time></trkpt>
        <trkpt lat="29.5650695" lon="103.3892331"><ele>697.13</ele><time>2026-02-14T02:19:50.000Z</time></trkpt>
        <trkpt lat="29.5650096" lon="103.3891434"><ele>697.69</ele><time>2026-02-14T02:19:58.000Z</time></trkpt>
        <trkpt lat="29.5649447" lon="103.3890528"><ele>698.44</ele><time>2026-02-14T02:20:10.000Z</time></trkpt>
        <trkpt lat="29.5648727" lon="103.3889738"><ele>701.51</ele><time>2026-02-14T02:20:22.000Z</time></trkpt>
        <trkpt lat="29.5648727" lon="103.3889738"><ele>701.51</ele><time>2026-02-14T02:20:39.000Z</time></trkpt>
        <trkpt lat="29.5648727" lon="103.3889738"><ele>701.51</ele><time>2026-02-14T02:20:49.000Z</time></trkpt>
        <trkpt lat="29.5648727" lon="103.3889738"><ele>701.51</ele><time>2026-02-14T02:21:11.000Z</time></trkpt>
        <trkpt lat="29.5647707" lon="103.3889997"><ele>703.05</ele><time>2026-02-14T02:21:17.000Z</time></trkpt>
        <trkpt lat="29.5647707" lon="103.3889997"><ele>703.05</ele><time>2026-02-14T02:21:41.000Z</time></trkpt>
        <trkpt lat="29.564735" lon="103.3890189"><ele>704.52</ele><time>2026-02-14T02:21:49.000Z</time></trkpt>
        <trkpt lat="29.5648143" lon="103.389012"><ele>706.72</ele><time>2026-02-14T02:22:43.000Z</time></trkpt>
        <trkpt lat="29.5647769" lon="103.3889433"><ele>707.01</ele><time>2026-02-14T02:22:53.000Z</time></trkpt>
        <trkpt lat="29.5646945" lon="103.3889078"><ele>705.97</ele><time>2026-02-14T02:22:59.000Z</time></trkpt>
        <trkpt lat="29.5646032" lon="103.3888594"><ele>707.17</ele><time>2026-02-14T02:23:11.000Z</time></trkpt>
        <trkpt lat="29.5644933" lon="103.3888482"><ele>708.35</ele><time>2026-02-14T02:23:19.000Z</time></trkpt>
        <trkpt lat="29.5643782" lon="103.3888413"><ele>709.01</ele><time>2026-02-14T02:23:29.000Z</time></trkpt>
        <trkpt lat="29.5642786" lon="103.3888174"><ele>712.28</ele><time>2026-02-14T02:23:39.000Z</time></trkpt>
        <trkpt lat="29.5641826" lon="103.3888224"><ele>714.8</ele><time>2026-02-14T02:23:51.000Z</time></trkpt>
        <trkpt lat="29.5640941" lon="103.3888637"><ele>717.06</ele><time>2026-02-14T02:24:11.000Z</time></trkpt>
        <trkpt lat="29.5640054" lon="103.3889107"><ele>718.5</ele><time>2026-02-14T02:24:23.000Z</time></trkpt>
        <trkpt lat="29.5639254" lon="103.3889656"><ele>718.68</ele><time>2026-02-14T02:24:35.000Z</time></trkpt>
        <trkpt lat="29.5638367" lon="103.3889957"><ele>721.16</ele><time>2026-02-14T02:24:49.000Z</time></trkpt>
        <trkpt lat="29.5637282" lon="103.3889863"><ele>724.07</ele><time>2026-02-14T02:24:57.000Z</time></trkpt>
        <trkpt lat="29.5636476" lon="103.388919"><ele>727.02</ele><time>2026-02-14T02:25:07.000Z</time></trkpt>
        <trkpt lat="29.563568" lon="103.3888516"><ele>727.21</ele><time>2026-02-14T02:25:20.000Z</time></trkpt>
        <trkpt lat="29.5634682" lon="103.3888293"><ele>728.24</ele><time>2026-02-14T02:25:48.000Z</time></trkpt>
        <trkpt lat="29.56338" lon="103.3888745"><ele>729.63</ele><time>2026-02-14T02:25:58.000Z</time></trkpt>
        <trkpt lat="29.5632883" lon="103.3888853"><ele>732.3</ele><time>2026-02-14T02:26:10.000Z</time></trkpt>
        <trkpt lat="29.5632018" lon="103.3889411"><ele>733.65</ele><time>2026-02-14T02:26:28.000Z</time></trkpt>
        <trkpt lat="29.5630954" lon="103.3889747"><ele>734.7</ele><time>2026-02-14T02:26:41.000Z</time></trkpt>
        <trkpt lat="29.562998" lon="103.389023"><ele>735.06</ele><time>2026-02-14T02:26:53.000Z</time></trkpt>
        <trkpt lat="29.5629623" lon="103.389051"><ele>734.29</ele><time>2026-02-14T02:26:57.000Z</time></trkpt>
        <trkpt lat="29.5628861" lon="103.3890651"><ele>733.75</ele><time>2026-02-14T02:27:35.000Z</time></trkpt>
        <trkpt lat="29.5627844" lon="103.3890836"><ele>732.92</ele><time>2026-02-14T02:27:45.000Z</time></trkpt>
        <trkpt lat="29.562683" lon="103.3891024"><ele>733.8</ele><time>2026-02-14T02:27:55.000Z</time></trkpt>
        <trkpt lat="29.5625802" lon="103.3891246"><ele>735.45</ele><time>2026-02-14T02:28:09.000Z</time></trkpt>
        <trkpt lat="29.5624857" lon="103.3891201"><ele>735.87</ele><time>2026-02-14T02:28:21.000Z</time></trkpt>
        <trkpt lat="29.5624159" lon="103.3890578"><ele>739.07</ele><time>2026-02-14T02:28:33.000Z</time></trkpt>
        <trkpt lat="29.5623305" lon="103.3890341"><ele>740.83</ele><time>2026-02-14T02:28:45.000Z</time></trkpt>
        <trkpt lat="29.5622572" lon="103.3890477"><ele>742.74</ele><time>2026-02-14T02:28:56.000Z</time></trkpt>
        <trkpt lat="29.5621488" lon="103.3890466"><ele>744.59</ele><time>2026-02-14T02:29:14.000Z</time></trkpt>
        <trkpt lat="29.5620485" lon="103.3890696"><ele>744.09</ele><time>2026-02-14T02:29:18.000Z</time></trkpt>
        <trkpt lat="29.5619585" lon="103.3891205"><ele>743.06</ele><time>2026-02-14T02:29:22.000Z</time></trkpt>
        <trkpt lat="29.5619301" lon="103.389145"><ele>744.28</ele><time>2026-02-14T02:29:28.000Z</time></trkpt>
        <trkpt lat="29.5619437" lon="103.3892352"><ele>743.05</ele><time>2026-02-14T02:29:44.000Z</time></trkpt>
        <trkpt lat="29.5620239" lon="103.3893325"><ele>739.96</ele><time>2026-02-14T02:29:56.000Z</time></trkpt>
        <trkpt lat="29.5620614" lon="103.3894046"><ele>736.85</ele><time>2026-02-14T02:30:02.000Z</time></trkpt>
        <trkpt lat="29.5620422" lon="103.3894949"><ele>737.24</ele><time>2026-02-14T02:30:18.000Z</time></trkpt>
        <trkpt lat="29.5619616" lon="103.3895019"><ele>735.48</ele><time>2026-02-14T02:30:28.000Z</time></trkpt>
        <trkpt lat="29.5618584" lon="103.3894734"><ele>735.07</ele><time>2026-02-14T02:30:42.000Z</time></trkpt>
        <trkpt lat="29.5617567" lon="103.3894103"><ele>735.15</ele><time>2026-02-14T02:30:56.000Z</time></trkpt>
        <trkpt lat="29.5616618" lon="103.3893373"><ele>736.57</ele><time>2026-02-14T02:31:08.000Z</time></trkpt>
        <trkpt lat="29.5615581" lon="103.3893422"><ele>737.11</ele><time>2026-02-14T02:31:18.000Z</time></trkpt>
        <trkpt lat="29.5614493" lon="103.3893421"><ele>737.23</ele><time>2026-02-14T02:31:26.000Z</time></trkpt>
        <trkpt lat="29.5613526" lon="103.3893266"><ele>737.59</ele><time>2026-02-14T02:31:34.000Z</time></trkpt>
        <trkpt lat="29.561259" lon="103.3893361"><ele>738.75</ele><time>2026-02-14T02:31:46.000Z</time></trkpt>
        <trkpt lat="29.56116" lon="103.3893365"><ele>738.55</ele><time>2026-02-14T02:31:58.000Z</time></trkpt>
        <trkpt lat="29.561063" lon="103.3893487"><ele>741.1</ele><time>2026-02-14T02:32:14.000Z</time></trkpt>
        <trkpt lat="29.5609668" lon="103.3893697"><ele>741.53</ele><time>2026-02-14T02:32:26.000Z</time></trkpt>
        <trkpt lat="29.5608653" lon="103.389386"><ele>744.36</ele><time>2026-02-14T02:32:36.000Z</time></trkpt>
        <trkpt lat="29.5607632" lon="103.3894101"><ele>745.19</ele><time>2026-02-14T02:32:44.000Z</time></trkpt>
        <trkpt lat="29.5606571" lon="103.3894293"><ele>748.47</ele><time>2026-02-14T02:32:54.000Z</time></trkpt>
        <trkpt lat="29.5605602" lon="103.3894447"><ele>750.11</ele><time>2026-02-14T02:33:02.000Z</time></trkpt>
        <trkpt lat="29.560461" lon="103.3894752"><ele>750.21</ele><time>2026-02-14T02:33:12.000Z</time></trkpt>
        <trkpt lat="29.5603656" lon="103.3894688"><ele>749.85</ele><time>2026-02-14T02:33:24.000Z</time></trkpt>
        <trkpt lat="29.5602705" lon="103.3894475"><ele>749.86</ele><time>2026-02-14T02:33:42.000Z</time></trkpt>
        <trkpt lat="29.5602137" lon="103.3893624"><ele>749.11</ele><time>2026-02-14T02:34:12.000Z</time></trkpt>
        <trkpt lat="29.5602525" lon="103.389272"><ele>746.1</ele><time>2026-02-14T02:34:22.000Z</time></trkpt>
        <trkpt lat="29.5602099" lon="103.3892219"><ele>745.66</ele><time>2026-02-14T02:34:52.000Z</time></trkpt>
        <trkpt lat="29.560162" lon="103.3891402"><ele>750.11</ele><time>2026-02-14T02:35:10.000Z</time></trkpt>
        <trkpt lat="29.5601424" lon="103.3890349"><ele>755.61</ele><time>2026-02-14T02:35:20.000Z</time></trkpt>
        <trkpt lat="29.5601203" lon="103.3889192"><ele>758.86</ele><time>2026-02-14T02:35:32.000Z</time></trkpt>
        <trkpt lat="29.5601164" lon="103.3888069"><ele>761.72</ele><time>2026-02-14T02:35:48.000Z</time></trkpt>
        <trkpt lat="29.5601826" lon="103.3887334"><ele>764.02</ele><time>2026-02-14T02:36:00.000Z</time></trkpt>
        <trkpt lat="29.5601519" lon="103.3886587"><ele>764.24</ele><time>2026-02-14T02:36:08.000Z</time></trkpt>
        <trkpt lat="29.5600578" lon="103.388619"><ele>762.79</ele><time>2026-02-14T02:36:16.000Z</time></trkpt>
        <trkpt lat="29.559945" lon="103.3885864"><ele>762.65</ele><time>2026-02-14T02:36:24.000Z</time></trkpt>
        <trkpt lat="29.559849" lon="103.3885426"><ele>762.8</ele><time>2026-02-14T02:36:34.000Z</time></trkpt>
        <trkpt lat="29.5597769" lon="103.3884742"><ele>763.47</ele><time>2026-02-14T02:36:44.000Z</time></trkpt>
        <trkpt lat="29.5597017" lon="103.3884103"><ele>765.3</ele><time>2026-02-14T02:36:56.000Z</time></trkpt>
        <trkpt lat="29.5596559" lon="103.3883183"><ele>766.58</ele><time>2026-02-14T02:37:08.000Z</time></trkpt>
        <trkpt lat="29.5596299" lon="103.3882062"><ele>766.57</ele><time>2026-02-14T02:37:18.000Z</time></trkpt>
        <trkpt lat="29.5595801" lon="103.3881072"><ele>766.04</ele><time>2026-02-14T02:37:26.000Z</time></trkpt>
        <trkpt lat="29.5594972" lon="103.3880273"><ele>766.07</ele><time>2026-02-14T02:37:36.000Z</time></trkpt>
        <trkpt lat="29.5594168" lon="103.387962"><ele>764.62</ele><time>2026-02-14T02:37:46.000Z</time></trkpt>
        <trkpt lat="29.5593138" lon="103.3879149"><ele>762.61</ele><time>2026-02-14T02:37:58.000Z</time></trkpt>
        <trkpt lat="29.5592089" lon="103.3878766"><ele>761.17</ele><time>2026-02-14T02:38:08.000Z</time></trkpt>
        <trkpt lat="29.5591252" lon="103.3878144"><ele>761.27</ele><time>2026-02-14T02:38:16.000Z</time></trkpt>
        <trkpt lat="29.5590223" lon="103.3878023"><ele>760.02</ele><time>2026-02-14T02:38:30.000Z</time></trkpt>
        <trkpt lat="29.5589198" lon="103.3877964"><ele>759.19</ele><time>2026-02-14T02:38:40.000Z</time></trkpt>
        <trkpt lat="29.5588228" lon="103.3878056"><ele>760.53</ele><time>2026-02-14T02:38:52.000Z</time></trkpt>
        <trkpt lat="29.5587176" lon="103.3877961"><ele>761.67</ele><time>2026-02-14T02:39:04.000Z</time></trkpt>
        <trkpt lat="29.5586353" lon="103.3877464"><ele>762.28</ele><time>2026-02-14T02:39:12.000Z</time></trkpt>
        <trkpt lat="29.5585674" lon="103.3876815"><ele>763.29</ele><time>2026-02-14T02:39:28.000Z</time></trkpt>
        <trkpt lat="29.5584852" lon="103.3876615"><ele>763.26</ele><time>2026-02-14T02:39:36.000Z</time></trkpt>
        <trkpt lat="29.5584088" lon="103.3875945"><ele>765.03</ele><time>2026-02-14T02:39:48.000Z</time></trkpt>
        <trkpt lat="29.5583404" lon="103.387515"><ele>766.46</ele><time>2026-02-14T02:39:56.000Z</time></trkpt>
        <trkpt lat="29.5582792" lon="103.3874155"><ele>767.16</ele><time>2026-02-14T02:40:14.000Z</time></trkpt>
        <trkpt lat="29.5582123" lon="103.3873249"><ele>769.67</ele><time>2026-02-14T02:40:30.000Z</time></trkpt>
        <trkpt lat="29.5581275" lon="103.3872551"><ele>770.38</ele><time>2026-02-14T02:40:44.000Z</time></trkpt>
        <trkpt lat="29.5580405" lon="103.3871925"><ele>770.5</ele><time>2026-02-14T02:41:06.000Z</time></trkpt>
        <trkpt lat="29.557947" lon="103.3871266"><ele>773.28</ele><time>2026-02-14T02:41:14.000Z</time></trkpt>
        <trkpt lat="29.5578563" lon="103.3870819"><ele>775.82</ele><time>2026-02-14T02:41:22.000Z</time></trkpt>
        <trkpt lat="29.5577609" lon="103.3870567"><ele>776.97</ele><time>2026-02-14T02:41:30.000Z</time></trkpt>
        <trkpt lat="29.5576635" lon="103.3870423"><ele>778.37</ele><time>2026-02-14T02:41:42.000Z</time></trkpt>
        <trkpt lat="29.5576465" lon="103.3870358"><ele>778.95</ele><time>2026-02-14T02:41:44.000Z</time></trkpt>
        <trkpt lat="29.5576659" lon="103.3869536"><ele>779.82</ele><time>2026-02-14T02:41:58.000Z</time></trkpt>
        <trkpt lat="29.5576738" lon="103.3868378"><ele>778.84</ele><time>2026-02-14T02:42:14.000Z</time></trkpt>
        <trkpt lat="29.5576089" lon="103.3867502"><ele>782.45</ele><time>2026-02-14T02:42:26.000Z</time></trkpt>
        <trkpt lat="29.5575422" lon="103.3866505"><ele>787.11</ele><time>2026-02-14T02:42:38.000Z</time></trkpt>
        <trkpt lat="29.5574787" lon="103.3865523"><ele>788.75</ele><time>2026-02-14T02:42:52.000Z</time></trkpt>
        <trkpt lat="29.5573957" lon="103.3864986"><ele>788.46</ele><time>2026-02-14T02:43:00.000Z</time></trkpt>
        <trkpt lat="29.5573034" lon="103.3864527"><ele>789.17</ele><time>2026-02-14T02:43:12.000Z</time></trkpt>
        <trkpt lat="29.5572111" lon="103.3864042"><ele>789.44</ele><time>2026-02-14T02:43:30.000Z</time></trkpt>
        <trkpt lat="29.5571159" lon="103.3864272"><ele>789.43</ele><time>2026-02-14T02:43:40.000Z</time></trkpt>
        <trkpt lat="29.5570179" lon="103.3864328"><ele>789.71</ele><time>2026-02-14T02:43:52.000Z</time></trkpt>
        <trkpt lat="29.5569909" lon="103.3863572"><ele>791.61</ele><time>2026-02-14T02:44:02.000Z</time></trkpt>
        <trkpt lat="29.5569879" lon="103.3862453"><ele>790.22</ele><time>2026-02-14T02:44:12.000Z</time></trkpt>
        <trkpt lat="29.5569422" lon="103.3861551"><ele>790.99</ele><time>2026-02-14T02:44:22.000Z</time></trkpt>
        <trkpt lat="29.5568694" lon="103.3860633"><ele>793.32</ele><time>2026-02-14T02:44:34.000Z</time></trkpt>
        <trkpt lat="29.5568329" lon="103.3860176"><ele>792.78</ele><time>2026-02-14T02:44:42.000Z</time></trkpt>
        <trkpt lat="29.5567564" lon="103.3860218"><ele>791.21</ele><time>2026-02-14T02:45:30.000Z</time></trkpt>
        <trkpt lat="29.5567564" lon="103.3860218"><ele>791.21</ele><time>2026-02-14T02:47:11.000Z</time></trkpt>
        <trkpt lat="29.5567564" lon="103.3860218"><ele>791.21</ele><time>2026-02-14T02:47:21.000Z</time></trkpt>
        <trkpt lat="29.5567564" lon="103.3860218"><ele>791.21</ele><time>2026-02-14T02:47:43.000Z</time></trkpt>
        <trkpt lat="29.5566658" lon="103.3860911"><ele>788.96</ele><time>2026-02-14T02:47:57.000Z</time></trkpt>
        <trkpt lat="29.5566658" lon="103.3860911"><ele>788.96</ele><time>2026-02-14T02:48:04.000Z</time></trkpt>
        <trkpt lat="29.5566658" lon="103.3860911"><ele>788.96</ele><time>2026-02-14T02:48:13.000Z</time></trkpt>
        <trkpt lat="29.5566658" lon="103.3860911"><ele>788.96</ele><time>2026-02-14T02:49:11.000Z</time></trkpt>
        <trkpt lat="29.5566658" lon="103.3860911"><ele>788.96</ele><time>2026-02-14T02:49:35.000Z</time></trkpt>
        <trkpt lat="29.5566658" lon="103.3860911"><ele>788.96</ele><time>2026-02-14T02:50:51.000Z</time></trkpt>
        <trkpt lat="29.5566658" lon="103.3860911"><ele>788.96</ele><time>2026-02-14T02:51:17.000Z</time></trkpt>
        <trkpt lat="29.5566658" lon="103.3860911"><ele>788.96</ele><time>2026-02-14T02:51:53.000Z</time></trkpt>
        <trkpt lat="29.5566658" lon="103.3860911"><ele>788.96</ele><time>2026-02-14T02:52:09.000Z</time></trkpt>
        <trkpt lat="29.5566658" lon="103.3860911"><ele>788.96</ele><time>2026-02-14T02:53:03.000Z</time></trkpt>
        <trkpt lat="29.5566658" lon="103.3860911"><ele>788.96</ele><time>2026-02-14T02:53:17.000Z</time></trkpt>
        <trkpt lat="29.5565653" lon="103.3861305"><ele>785.98</ele><time>2026-02-14T02:53:51.000Z</time></trkpt>
        <trkpt lat="29.5565653" lon="103.3861305"><ele>785.98</ele><time>2026-02-14T02:54:28.000Z</time></trkpt>
        <trkpt lat="29.5564806" lon="103.3860881"><ele>784.75</ele><time>2026-02-14T02:54:58.000Z</time></trkpt>
        <trkpt lat="29.5564243" lon="103.3860079"><ele>785.1</ele><time>2026-02-14T02:55:26.000Z</time></trkpt>
        <trkpt lat="29.5563926" lon="103.3858998"><ele>786.91</ele><time>2026-02-14T02:55:52.000Z</time></trkpt>
        <trkpt lat="29.5563372" lon="103.385932"><ele>790.3</ele><time>2026-02-14T02:56:06.000Z</time></trkpt>
        <trkpt lat="29.5562741" lon="103.386011"><ele>793.75</ele><time>2026-02-14T02:56:24.000Z</time></trkpt>
        <trkpt lat="29.556222" lon="103.3861131"><ele>797.76</ele><time>2026-02-14T02:56:40.000Z</time></trkpt>
        <trkpt lat="29.5561391" lon="103.3861162"><ele>803.35</ele><time>2026-02-14T02:57:04.000Z</time></trkpt>
        <trkpt lat="29.5560523" lon="103.3860814"><ele>806.64</ele><time>2026-02-14T02:57:22.000Z</time></trkpt>
        <trkpt lat="29.555951" lon="103.3860454"><ele>808.68</ele><time>2026-02-14T02:57:42.000Z</time></trkpt>
        <trkpt lat="29.5558563" lon="103.3859931"><ele>810.39</ele><time>2026-02-14T02:58:10.000Z</time></trkpt>
        <trkpt lat="29.5558781" lon="103.385913"><ele>814.67</ele><time>2026-02-14T02:58:24.000Z</time></trkpt>
        <trkpt lat="29.5559768" lon="103.385892"><ele>818.9</ele><time>2026-02-14T02:58:36.000Z</time></trkpt>
        <trkpt lat="29.5560303" lon="103.3858848"><ele>821.33</ele><time>2026-02-14T02:58:40.000Z</time></trkpt>
        <trkpt lat="29.5559717" lon="103.3858648"><ele>823.34</ele><time>2026-02-14T02:59:06.000Z</time></trkpt>
        <trkpt lat="29.5559834" lon="103.3857958"><ele>831.4</ele><time>2026-02-14T02:59:24.000Z</time></trkpt>
        <trkpt lat="29.5560165" lon="103.3857015"><ele>831.75</ele><time>2026-02-14T02:59:38.000Z</time></trkpt>
        <trkpt lat="29.5560192" lon="103.3855931"><ele>833.67</ele><time>2026-02-14T02:59:54.000Z</time></trkpt>
        <trkpt lat="29.5560428" lon="103.3854805"><ele>835.58</ele><time>2026-02-14T03:00:10.000Z</time></trkpt>
        <trkpt lat="29.5560841" lon="103.3853802"><ele>839.46</ele><time>2026-02-14T03:00:26.000Z</time></trkpt>
        <trkpt lat="29.5560417" lon="103.3854112"><ele>842.04</ele><time>2026-02-14T03:00:38.000Z</time></trkpt>
        <trkpt lat="29.5559888" lon="103.3855124"><ele>844.44</ele><time>2026-02-14T03:00:48.000Z</time></trkpt>
        <trkpt lat="29.5559247" lon="103.3856164"><ele>848.25</ele><time>2026-02-14T03:01:06.000Z</time></trkpt>
        <trkpt lat="29.5558853" lon="103.3855735"><ele>853.82</ele><time>2026-02-14T03:01:22.000Z</time></trkpt>
        <trkpt lat="29.5558112" lon="103.3855844"><ele>856.65</ele><time>2026-02-14T03:01:54.000Z</time></trkpt>
        <trkpt lat="29.5557196" lon="103.3855581"><ele>861.95</ele><time>2026-02-14T03:02:20.000Z</time></trkpt>
        <trkpt lat="29.5557196" lon="103.3855581"><ele>861.95</ele><time>2026-02-14T03:02:59.000Z</time></trkpt>
        <trkpt lat="29.5557196" lon="103.3854726"><ele>864.91</ele><time>2026-02-14T03:03:15.000Z</time></trkpt>
        <trkpt lat="29.5557196" lon="103.3854726"><ele>864.91</ele><time>2026-02-14T03:03:18.000Z</time></trkpt>
        <trkpt lat="29.5556927" lon="103.3854157"><ele>867.84</ele><time>2026-02-14T03:03:34.000Z</time></trkpt>
        <trkpt lat="29.5556302" lon="103.3853506"><ele>869.76</ele><time>2026-02-14T03:03:52.000Z</time></trkpt>
        <trkpt lat="29.5555801" lon="103.3852631"><ele>872.2</ele><time>2026-02-14T03:04:20.000Z</time></trkpt>
        <trkpt lat="29.5555977" lon="103.3851669"><ele>874.26</ele><time>2026-02-14T03:04:34.000Z</time></trkpt>
        <trkpt lat="29.5556455" lon="103.3850742"><ele>878.43</ele><time>2026-02-14T03:04:52.000Z</time></trkpt>
        <trkpt lat="29.5555979" lon="103.3850677"><ele>881.8</ele><time>2026-02-14T03:05:14.000Z</time></trkpt>
        <trkpt lat="29.5555104" lon="103.3850864"><ele>889.72</ele><time>2026-02-14T03:05:48.000Z</time></trkpt>
        <trkpt lat="29.5554097" lon="103.3850606"><ele>895.18</ele><time>2026-02-14T03:06:04.000Z</time></trkpt>
        <trkpt lat="29.5554097" lon="103.3850606"><ele>895.18</ele><time>2026-02-14T03:06:17.000Z</time></trkpt>
        <trkpt lat="29.5553134" lon="103.3850267"><ele>901.81</ele><time>2026-02-14T03:06:21.000Z</time></trkpt>
        <trkpt lat="29.5553134" lon="103.3850267"><ele>901.81</ele><time>2026-02-14T03:06:42.000Z</time></trkpt>
        <trkpt lat="29.5552155" lon="103.3850239"><ele>905.92</ele><time>2026-02-14T03:07:04.000Z</time></trkpt>
        <trkpt lat="29.5551185" lon="103.3850305"><ele>911.13</ele><time>2026-02-14T03:07:26.000Z</time></trkpt>
        <trkpt lat="29.5550223" lon="103.3850016"><ele>917.74</ele><time>2026-02-14T03:07:46.000Z</time></trkpt>
        <trkpt lat="29.5549421" lon="103.384945"><ele>921.7</ele><time>2026-02-14T03:08:00.000Z</time></trkpt>
        <trkpt lat="29.5548619" lon="103.3848808"><ele>924.86</ele><time>2026-02-14T03:08:18.000Z</time></trkpt>
        <trkpt lat="29.5547875" lon="103.3848117"><ele>928.02</ele><time>2026-02-14T03:08:32.000Z</time></trkpt>
        <trkpt lat="29.554718" lon="103.3847402"><ele>930.54</ele><time>2026-02-14T03:08:48.000Z</time></trkpt>
        <trkpt lat="29.5546699" lon="103.384651"><ele>931.86</ele><time>2026-02-14T03:09:06.000Z</time></trkpt>
        <trkpt lat="29.5546197" lon="103.3845626"><ele>931.95</ele><time>2026-02-14T03:09:28.000Z</time></trkpt>
        <trkpt lat="29.5546197" lon="103.3845626"><ele>931.95</ele><time>2026-02-14T03:09:49.000Z</time></trkpt>
        <trkpt lat="29.5546197" lon="103.3845626"><ele>931.95</ele><time>2026-02-14T03:09:59.000Z</time></trkpt>
        <trkpt lat="29.5546197" lon="103.3845626"><ele>931.95</ele><time>2026-02-14T03:10:15.000Z</time></trkpt>
        <trkpt lat="29.5546197" lon="103.3845626"><ele>931.95</ele><time>2026-02-14T03:10:23.000Z</time></trkpt>
        <trkpt lat="29.5546197" lon="103.3845626"><ele>931.95</ele><time>2026-02-14T03:10:57.000Z</time></trkpt>
        <trkpt lat="29.5546197" lon="103.3845626"><ele>931.95</ele><time>2026-02-14T03:11:09.000Z</time></trkpt>
        <trkpt lat="29.5546197" lon="103.3845626"><ele>931.95</ele><time>2026-02-14T03:11:25.000Z</time></trkpt>
        <trkpt lat="29.5546197" lon="103.3845626"><ele>931.95</ele><time>2026-02-14T03:11:29.000Z</time></trkpt>
        <trkpt lat="29.5546197" lon="103.3845626"><ele>931.95</ele><time>2026-02-14T03:11:43.000Z</time></trkpt>
        <trkpt lat="29.5546197" lon="103.3845626"><ele>931.95</ele><time>2026-02-14T03:11:49.000Z</time></trkpt>
        <trkpt lat="29.5546197" lon="103.3845626"><ele>931.95</ele><time>2026-02-14T03:12:03.000Z</time></trkpt>
        <trkpt lat="29.5547043" lon="103.3844985"><ele>932.67</ele><time>2026-02-14T03:15:47.000Z</time></trkpt>
        <trkpt lat="29.5547043" lon="103.3844985"><ele>932.67</ele><time>2026-02-14T03:16:21.000Z</time></trkpt>
        <trkpt lat="29.5547917" lon="103.3845311"><ele>935.47</ele><time>2026-02-14T03:16:43.000Z</time></trkpt>
        <trkpt lat="29.5548662" lon="103.3844615"><ele>941.11</ele><time>2026-02-14T03:17:01.000Z</time></trkpt>
        <trkpt lat="29.554924" lon="103.3843646"><ele>944.73</ele><time>2026-02-14T03:17:21.000Z</time></trkpt>
        <trkpt lat="29.5550072" lon="103.3843167"><ele>945.42</ele><time>2026-02-14T03:17:35.000Z</time></trkpt>
        <trkpt lat="29.5550817" lon="103.3842535"><ele>945.49</ele><time>2026-02-14T03:18:01.000Z</time></trkpt>
        <trkpt lat="29.5551135" lon="103.3841367"><ele>947.74</ele><time>2026-02-14T03:18:23.000Z</time></trkpt>
        <trkpt lat="29.555061" lon="103.3840356"><ele>950.35</ele><time>2026-02-14T03:18:33.000Z</time></trkpt>
        <trkpt lat="29.5550309" lon="103.3840398"><ele>953.41</ele><time>2026-02-14T03:18:35.000Z</time></trkpt>
        <trkpt lat="29.5549715" lon="103.3839808"><ele>954.11</ele><time>2026-02-14T03:18:47.000Z</time></trkpt>
        <trkpt lat="29.5549427" lon="103.3838861"><ele>955.34</ele><time>2026-02-14T03:18:57.000Z</time></trkpt>
        <trkpt lat="29.5549607" lon="103.3837811"><ele>957.02</ele><time>2026-02-14T03:19:09.000Z</time></trkpt>
        <trkpt lat="29.5550195" lon="103.3836791"><ele>957.7</ele><time>2026-02-14T03:19:23.000Z</time></trkpt>
        <trkpt lat="29.5550109" lon="103.3835805"><ele>956.09</ele><time>2026-02-14T03:19:33.000Z</time></trkpt>
        <trkpt lat="29.554962" lon="103.383486"><ele>955.51</ele><time>2026-02-14T03:19:47.000Z</time></trkpt>
        <trkpt lat="29.5548832" lon="103.3834143"><ele>954.96</ele><time>2026-02-14T03:20:01.000Z</time></trkpt>
        <trkpt lat="29.5547854" lon="103.3833578"><ele>954.1</ele><time>2026-02-14T03:20:13.000Z</time></trkpt>
        <trkpt lat="29.5546793" lon="103.3833197"><ele>951.73</ele><time>2026-02-14T03:20:23.000Z</time></trkpt>
        <trkpt lat="29.5545774" lon="103.3832808"><ele>950.14</ele><time>2026-02-14T03:20:33.000Z</time></trkpt>
        <trkpt lat="29.5544931" lon="103.3832308"><ele>948.09</ele><time>2026-02-14T03:20:41.000Z</time></trkpt>
        <trkpt lat="29.5544416" lon="103.3831373"><ele>946.56</ele><time>2026-02-14T03:20:57.000Z</time></trkpt>
        <trkpt lat="29.5544083" lon="103.3830356"><ele>949.2</ele><time>2026-02-14T03:21:11.000Z</time></trkpt>
        <trkpt lat="29.5543899" lon="103.3829275"><ele>950.98</ele><time>2026-02-14T03:21:45.000Z</time></trkpt>
        <trkpt lat="29.5543703" lon="103.3828209"><ele>956.56</ele><time>2026-02-14T03:22:21.000Z</time></trkpt>
        <trkpt lat="29.5544072" lon="103.3827267"><ele>959.72</ele><time>2026-02-14T03:22:49.000Z</time></trkpt>
        <trkpt lat="29.554407" lon="103.3827103"><ele>961.78</ele><time>2026-02-14T03:22:51.000Z</time></trkpt>
        <trkpt lat="29.5544317" lon="103.3826379"><ele>964.11</ele><time>2026-02-14T03:23:15.000Z</time></trkpt>
        <trkpt lat="29.5543841" lon="103.3825585"><ele>969.03</ele><time>2026-02-14T03:23:35.000Z</time></trkpt>
        <trkpt lat="29.5543066" lon="103.3824914"><ele>972.67</ele><time>2026-02-14T03:23:57.000Z</time></trkpt>
        <trkpt lat="29.5542336" lon="103.3824088"><ele>974.21</ele><time>2026-02-14T03:24:17.000Z</time></trkpt>
        <trkpt lat="29.5541933" lon="103.3823048"><ele>976.54</ele><time>2026-02-14T03:24:31.000Z</time></trkpt>
        <trkpt lat="29.5542016" lon="103.3821994"><ele>978.9</ele><time>2026-02-14T03:24:41.000Z</time></trkpt>
        <trkpt lat="29.5542146" lon="103.3820844"><ele>980.47</ele><time>2026-02-14T03:24:57.000Z</time></trkpt>
        <trkpt lat="29.5542244" lon="103.3819709"><ele>982.53</ele><time>2026-02-14T03:25:09.000Z</time></trkpt>
        <trkpt lat="29.5541818" lon="103.3818672"><ele>984.81</ele><time>2026-02-14T03:25:19.000Z</time></trkpt>
        <trkpt lat="29.5541527" lon="103.3817632"><ele>986.3</ele><time>2026-02-14T03:25:35.000Z</time></trkpt>
        <trkpt lat="29.5541231" lon="103.3816538"><ele>987.53</ele><time>2026-02-14T03:25:53.000Z</time></trkpt>
        <trkpt lat="29.5540804" lon="103.3815525"><ele>989.18</ele><time>2026-02-14T03:26:11.000Z</time></trkpt>
        <trkpt lat="29.554034" lon="103.3814543"><ele>989.67</ele><time>2026-02-14T03:26:21.000Z</time></trkpt>
        <trkpt lat="29.554022" lon="103.381349"><ele>990.64</ele><time>2026-02-14T03:26:33.000Z</time></trkpt>
        <trkpt lat="29.5540285" lon="103.3812363"><ele>991.78</ele><time>2026-02-14T03:26:45.000Z</time></trkpt>
        <trkpt lat="29.5539731" lon="103.3811659"><ele>993.28</ele><time>2026-02-14T03:27:21.000Z</time></trkpt>
        <trkpt lat="29.5539731" lon="103.3811659"><ele>993.28</ele><time>2026-02-14T03:27:37.000Z</time></trkpt>
        <trkpt lat="29.5539444" lon="103.3810655"><ele>994.44</ele><time>2026-02-14T03:27:39.000Z</time></trkpt>
        <trkpt lat="29.5539444" lon="103.3810655"><ele>994.44</ele><time>2026-02-14T03:27:49.000Z</time></trkpt>
        <trkpt lat="29.5539093" lon="103.3809592"><ele>994.39</ele><time>2026-02-14T03:28:05.000Z</time></trkpt>
        <trkpt lat="29.5539438" lon="103.3808686"><ele>994.83</ele><time>2026-02-14T03:28:15.000Z</time></trkpt>
        <trkpt lat="29.5539735" lon="103.3807707"><ele>995.96</ele><time>2026-02-14T03:28:27.000Z</time></trkpt>
        <trkpt lat="29.5540165" lon="103.3806686"><ele>997.14</ele><time>2026-02-14T03:28:37.000Z</time></trkpt>
        <trkpt lat="29.5540603" lon="103.3805713"><ele>997.5</ele><time>2026-02-14T03:28:47.000Z</time></trkpt>
        <trkpt lat="29.5540461" lon="103.3804502"><ele>998.84</ele><time>2026-02-14T03:28:59.000Z</time></trkpt>
        <trkpt lat="29.5540288" lon="103.3803608"><ele>999.73</ele><time>2026-02-14T03:29:07.000Z</time></trkpt>
        <trkpt lat="29.5540288" lon="103.3803608"><ele>999.73</ele><time>2026-02-14T03:29:15.000Z</time></trkpt>
        <trkpt lat="29.5540295" lon="103.3802584"><ele>999.94</ele><time>2026-02-14T03:29:19.000Z</time></trkpt>
        <trkpt lat="29.5540295" lon="103.3802584"><ele>999.94</ele><time>2026-02-14T03:29:27.000Z</time></trkpt>
        <trkpt lat="29.5540337" lon="103.3801549"><ele>1001.12</ele><time>2026-02-14T03:29:39.000Z</time></trkpt>
        <trkpt lat="29.5540179" lon="103.3800409"><ele>1001.68</ele><time>2026-02-14T03:29:53.000Z</time></trkpt>
        <trkpt lat="29.5539753" lon="103.3799293"><ele>1002.45</ele><time>2026-02-14T03:30:17.000Z</time></trkpt>
        <trkpt lat="29.5539304" lon="103.3798267"><ele>1003.65</ele><time>2026-02-14T03:30:36.000Z</time></trkpt>
        <trkpt lat="29.5539214" lon="103.3797234"><ele>1006.16</ele><time>2026-02-14T03:31:00.000Z</time></trkpt>
        <trkpt lat="29.553905" lon="103.3796217"><ele>1010.97</ele><time>2026-02-14T03:31:28.000Z</time></trkpt>
        <trkpt lat="29.5538889" lon="103.3795131"><ele>1014.59</ele><time>2026-02-14T03:31:52.000Z</time></trkpt>
        <trkpt lat="29.5538677" lon="103.3794094"><ele>1018.35</ele><time>2026-02-14T03:32:10.000Z</time></trkpt>
        <trkpt lat="29.5538333" lon="103.3793095"><ele>1021.86</ele><time>2026-02-14T03:32:30.000Z</time></trkpt>
        <trkpt lat="29.5537988" lon="103.3792017"><ele>1024.31</ele><time>2026-02-14T03:32:58.000Z</time></trkpt>
        <trkpt lat="29.5537792" lon="103.379089"><ele>1026.79</ele><time>2026-02-14T03:33:12.000Z</time></trkpt>
        <trkpt lat="29.5537684" lon="103.3789705"><ele>1029.26</ele><time>2026-02-14T03:33:24.000Z</time></trkpt>
        <trkpt lat="29.5537973" lon="103.3788588"><ele>1030.75</ele><time>2026-02-14T03:33:34.000Z</time></trkpt>
        <trkpt lat="29.5538307" lon="103.3787527"><ele>1032.25</ele><time>2026-02-14T03:33:44.000Z</time></trkpt>
        <trkpt lat="29.5538608" lon="103.3786469"><ele>1033.41</ele><time>2026-02-14T03:33:54.000Z</time></trkpt>
        <trkpt lat="29.5538473" lon="103.3785454"><ele>1034.28</ele><time>2026-02-14T03:34:06.000Z</time></trkpt>
        <trkpt lat="29.5538015" lon="103.3784472"><ele>1036.41</ele><time>2026-02-14T03:34:26.000Z</time></trkpt>
        <trkpt lat="29.553763" lon="103.3783459"><ele>1038.1</ele><time>2026-02-14T03:34:50.000Z</time></trkpt>
        <trkpt lat="29.5537023" lon="103.3782569"><ele>1041.39</ele><time>2026-02-14T03:35:10.000Z</time></trkpt>
        <trkpt lat="29.553642" lon="103.3781693"><ele>1045.13</ele><time>2026-02-14T03:35:22.000Z</time></trkpt>
        <trkpt lat="29.5535945" lon="103.3780738"><ele>1047.07</ele><time>2026-02-14T03:35:32.000Z</time></trkpt>
        <trkpt lat="29.5535353" lon="103.3779917"><ele>1048.28</ele><time>2026-02-14T03:35:56.000Z</time></trkpt>
        <trkpt lat="29.5534883" lon="103.3779025"><ele>1050.73</ele><time>2026-02-14T03:36:32.000Z</time></trkpt>
        <trkpt lat="29.5534218" lon="103.3778282"><ele>1052.1</ele><time>2026-02-14T03:37:22.000Z</time></trkpt>
        <trkpt lat="29.5534218" lon="103.3778282"><ele>1052.1</ele><time>2026-02-14T03:37:49.000Z</time></trkpt>
        <trkpt lat="29.5533585" lon="103.3777534"><ele>1056.35</ele><time>2026-02-14T03:37:53.000Z</time></trkpt>
        <trkpt lat="29.5533585" lon="103.3777534"><ele>1056.35</ele><time>2026-02-14T03:38:14.000Z</time></trkpt>
        <trkpt lat="29.5533585" lon="103.3777534"><ele>1056.35</ele><time>2026-02-14T03:38:33.000Z</time></trkpt>
        <trkpt lat="29.5532704" lon="103.3777246"><ele>1061.58</ele><time>2026-02-14T03:38:41.000Z</time></trkpt>
        <trkpt lat="29.5532704" lon="103.3777246"><ele>1061.58</ele><time>2026-02-14T03:39:02.000Z</time></trkpt>
        <trkpt lat="29.5531991" lon="103.3776567"><ele>1066.01</ele><time>2026-02-14T03:39:36.000Z</time></trkpt>
        <trkpt lat="29.5531441" lon="103.3775647"><ele>1072.22</ele><time>2026-02-14T03:40:06.000Z</time></trkpt>
        <trkpt lat="29.5531441" lon="103.3775647"><ele>1072.22</ele><time>2026-02-14T03:40:25.000Z</time></trkpt>
        <trkpt lat="29.5530764" lon="103.3774936"><ele>1076.65</ele><time>2026-02-14T03:40:29.000Z</time></trkpt>
        <trkpt lat="29.5530764" lon="103.3774936"><ele>1076.65</ele><time>2026-02-14T03:40:56.000Z</time></trkpt>
        <trkpt lat="29.5530122" lon="103.3774132"><ele>1079.35</ele><time>2026-02-14T03:41:18.000Z</time></trkpt>
        <trkpt lat="29.5530122" lon="103.3774132"><ele>1079.35</ele><time>2026-02-14T03:41:57.000Z</time></trkpt>
        <trkpt lat="29.553079" lon="103.3773437"><ele>1087.07</ele><time>2026-02-14T03:42:48.000Z</time></trkpt>
        <trkpt lat="29.553079" lon="103.3773437"><ele>1087.07</ele><time>2026-02-14T03:42:49.000Z</time></trkpt>
        <trkpt lat="29.5529433" lon="103.3773402"><ele>1087.07</ele><time>2026-02-14T03:42:53.000Z</time></trkpt>
        <trkpt lat="29.5529958" lon="103.3773648"><ele>1088.88</ele><time>2026-02-14T03:43:05.000Z</time></trkpt>
        <trkpt lat="29.5529488" lon="103.3773197"><ele>1092.24</ele><time>2026-02-14T03:43:27.000Z</time></trkpt>
        <trkpt lat="29.5528696" lon="103.3772708"><ele>1093.77</ele><time>2026-02-14T03:43:43.000Z</time></trkpt>
        <trkpt lat="29.5527884" lon="103.3772122"><ele>1095.55</ele><time>2026-02-14T03:44:01.000Z</time></trkpt>
        <trkpt lat="29.5527036" lon="103.3772301"><ele>1099.44</ele><time>2026-02-14T03:44:25.000Z</time></trkpt>
        <trkpt lat="29.5526425" lon="103.3771658"><ele>1102.09</ele><time>2026-02-14T03:44:37.000Z</time></trkpt>
        <trkpt lat="29.5525854" lon="103.3770771"><ele>1104.73</ele><time>2026-02-14T03:45:09.000Z</time></trkpt>
        <trkpt lat="29.5525" lon="103.3770576"><ele>1107.48</ele><time>2026-02-14T03:45:39.000Z</time></trkpt>
        <trkpt lat="29.5524203" lon="103.377007"><ele>1111.77</ele><time>2026-02-14T03:46:09.000Z</time></trkpt>
        <trkpt lat="29.5523317" lon="103.3769973"><ele>1117.64</ele><time>2026-02-14T03:46:31.000Z</time></trkpt>
        <trkpt lat="29.5522379" lon="103.3769889"><ele>1121.36</ele><time>2026-02-14T03:46:55.000Z</time></trkpt>
        <trkpt lat="29.5521495" lon="103.376942"><ele>1124.51</ele><time>2026-02-14T03:47:19.000Z</time></trkpt>
        <trkpt lat="29.5520794" lon="103.376869"><ele>1128.81</ele><time>2026-02-14T03:47:41.000Z</time></trkpt>
        <trkpt lat="29.5520017" lon="103.3768153"><ele>1131.93</ele><time>2026-02-14T03:48:03.000Z</time></trkpt>
        <trkpt lat="29.5519171" lon="103.3767758"><ele>1135.84</ele><time>2026-02-14T03:48:27.000Z</time></trkpt>
        <trkpt lat="29.5519171" lon="103.3767758"><ele>1135.84</ele><time>2026-02-14T03:49:34.000Z</time></trkpt>
        <trkpt lat="29.5519171" lon="103.3767758"><ele>1135.84</ele><time>2026-02-14T03:49:40.000Z</time></trkpt>
        <trkpt lat="29.5519171" lon="103.3767758"><ele>1135.84</ele><time>2026-02-14T03:49:58.000Z</time></trkpt>
        <trkpt lat="29.5519171" lon="103.3767758"><ele>1135.84</ele><time>2026-02-14T03:50:30.000Z</time></trkpt>
        <trkpt lat="29.5519171" lon="103.3767758"><ele>1135.84</ele><time>2026-02-14T03:51:04.000Z</time></trkpt>
        <trkpt lat="29.5519171" lon="103.3767758"><ele>1135.84</ele><time>2026-02-14T03:51:06.000Z</time></trkpt>
        <trkpt lat="29.5519171" lon="103.3767758"><ele>1135.84</ele><time>2026-02-14T03:51:36.000Z</time></trkpt>
        <trkpt lat="29.5510904" lon="103.3780261"><ele>1139.46</ele><time>2026-02-14T03:54:04.000Z</time></trkpt>
        <trkpt lat="29.5510904" lon="103.3780261"><ele>1139.46</ele><time>2026-02-14T03:54:05.000Z</time></trkpt>
        <trkpt lat="29.5511154" lon="103.3779066"><ele>1046.98</ele><time>2026-02-14T03:54:19.000Z</time></trkpt>
        <trkpt lat="29.5511154" lon="103.3779066"><ele>1046.98</ele><time>2026-02-14T03:54:20.000Z</time></trkpt>
        <trkpt lat="29.5512886" lon="103.3775869"><ele>986.89</ele><time>2026-02-14T03:54:26.000Z</time></trkpt>
        <trkpt lat="29.5512886" lon="103.3775869"><ele>986.89</ele><time>2026-02-14T03:54:31.000Z</time></trkpt>
        <trkpt lat="29.5513593" lon="103.3775023"><ele>978.4</ele><time>2026-02-14T03:54:37.000Z</time></trkpt>
        <trkpt lat="29.5513593" lon="103.3775023"><ele>978.4</ele><time>2026-02-14T03:54:40.000Z</time></trkpt>
        <trkpt lat="29.5516193" lon="103.3772375"><ele>982.01</ele><time>2026-02-14T03:55:06.000Z</time></trkpt>
        <trkpt lat="29.5516193" lon="103.3772375"><ele>982.01</ele><time>2026-02-14T03:55:09.000Z</time></trkpt>
        <trkpt lat="29.5517026" lon="103.3770986"><ele>1014.16</ele><time>2026-02-14T03:55:18.000Z</time></trkpt>
        <trkpt lat="29.5517026" lon="103.3770986"><ele>1014.16</ele><time>2026-02-14T03:55:22.000Z</time></trkpt>
        <trkpt lat="29.55176" lon="103.3770394"><ele>1035.37</ele><time>2026-02-14T03:55:42.000Z</time></trkpt>
        <trkpt lat="29.55176" lon="103.3770394"><ele>1035.37</ele><time>2026-02-14T03:55:50.000Z</time></trkpt>
        <trkpt lat="29.5517456" lon="103.3770055"><ele>1057.75</ele><time>2026-02-14T03:55:52.000Z</time></trkpt>
        <trkpt lat="29.551803" lon="103.3769399"><ele>1073.71</ele><time>2026-02-14T03:55:56.000Z</time></trkpt>
        <trkpt lat="29.551803" lon="103.3769399"><ele>1073.71</ele><time>2026-02-14T03:55:58.000Z</time></trkpt>
        <trkpt lat="29.5518842" lon="103.3768706"><ele>1087.74</ele><time>2026-02-14T03:56:08.000Z</time></trkpt>
        <trkpt lat="29.5518842" lon="103.3768706"><ele>1087.74</ele><time>2026-02-14T03:56:16.000Z</time></trkpt>
        <trkpt lat="29.5518842" lon="103.3768706"><ele>1087.74</ele><time>2026-02-14T03:56:26.000Z</time></trkpt>
        <trkpt lat="29.5518842" lon="103.3768706"><ele>1087.74</ele><time>2026-02-14T03:59:46.000Z</time></trkpt>
        <trkpt lat="29.5518842" lon="103.3768706"><ele>1087.74</ele><time>2026-02-14T04:00:08.000Z</time></trkpt>
        <trkpt lat="29.5518842" lon="103.3768706"><ele>1087.74</ele><time>2026-02-14T04:00:54.000Z</time></trkpt>
        <trkpt lat="29.5518842" lon="103.3768706"><ele>1087.74</ele><time>2026-02-14T04:01:30.000Z</time></trkpt>
        <trkpt lat="29.5518842" lon="103.3768706"><ele>1087.74</ele><time>2026-02-14T04:02:02.000Z</time></trkpt>
        <trkpt lat="29.5518842" lon="103.3768706"><ele>1087.74</ele><time>2026-02-14T04:02:18.000Z</time></trkpt>
        <trkpt lat="29.5518842" lon="103.3768706"><ele>1087.74</ele><time>2026-02-14T04:04:00.000Z</time></trkpt>
        <trkpt lat="29.5518842" lon="103.3768706"><ele>1087.74</ele><time>2026-02-14T04:05:02.000Z</time></trkpt>
        <trkpt lat="29.5518842" lon="103.3768706"><ele>1087.74</ele><time>2026-02-14T04:05:04.000Z</time></trkpt>
        <trkpt lat="29.5518842" lon="103.3768706"><ele>1087.74</ele><time>2026-02-14T04:05:18.000Z</time></trkpt>
        <trkpt lat="29.5518489" lon="103.3766762"><ele>1101.12</ele><time>2026-02-14T04:08:04.000Z</time></trkpt>
        <trkpt lat="29.5518489" lon="103.3766762"><ele>1101.12</ele><time>2026-02-14T04:08:48.000Z</time></trkpt>
        <trkpt lat="29.5518023" lon="103.3765876"><ele>1119.82</ele><time>2026-02-14T04:08:58.000Z</time></trkpt>
        <trkpt lat="29.5517415" lon="103.3764959"><ele>1133.7</ele><time>2026-02-14T04:09:20.000Z</time></trkpt>
        <trkpt lat="29.551717" lon="103.3763948"><ele>1142.23</ele><time>2026-02-14T04:09:44.000Z</time></trkpt>
        <trkpt lat="29.551665" lon="103.3763137"><ele>1150.33</ele><time>2026-02-14T04:10:20.000Z</time></trkpt>
        <trkpt lat="29.5516973" lon="103.3762316"><ele>1156.18</ele><time>2026-02-14T04:11:02.000Z</time></trkpt>
        <trkpt lat="29.5516973" lon="103.3762316"><ele>1156.18</ele><time>2026-02-14T04:11:22.000Z</time></trkpt>
        <trkpt lat="29.5517312" lon="103.3761337"><ele>1165.05</ele><time>2026-02-14T04:11:24.000Z</time></trkpt>
        <trkpt lat="29.5517312" lon="103.3761337"><ele>1165.05</ele><time>2026-02-14T04:11:38.000Z</time></trkpt>
        <trkpt lat="29.5517316" lon="103.3760289"><ele>1170.33</ele><time>2026-02-14T04:12:02.000Z</time></trkpt>
        <trkpt lat="29.5517271" lon="103.3759158"><ele>1176.25</ele><time>2026-02-14T04:12:28.000Z</time></trkpt>
        <trkpt lat="29.551697" lon="103.3758109"><ele>1181.36</ele><time>2026-02-14T04:12:46.000Z</time></trkpt>
        <trkpt lat="29.5516592" lon="103.3757051"><ele>1184.17</ele><time>2026-02-14T04:13:00.000Z</time></trkpt>
        <trkpt lat="29.5516252" lon="103.3756029"><ele>1186.12</ele><time>2026-02-14T04:13:12.000Z</time></trkpt>
        <trkpt lat="29.5515638" lon="103.3755276"><ele>1187.9</ele><time>2026-02-14T04:13:22.000Z</time></trkpt>
        <trkpt lat="29.5514873" lon="103.3754581"><ele>1188.8</ele><time>2026-02-14T04:13:34.000Z</time></trkpt>
        <trkpt lat="29.5514003" lon="103.3753877"><ele>1189.43</ele><time>2026-02-14T04:13:44.000Z</time></trkpt>
        <trkpt lat="29.5513175" lon="103.3753248"><ele>1191.79</ele><time>2026-02-14T04:13:56.000Z</time></trkpt>
        <trkpt lat="29.5512247" lon="103.3752813"><ele>1191.72</ele><time>2026-02-14T04:14:10.000Z</time></trkpt>
        <trkpt lat="29.5511346" lon="103.3752403"><ele>1194.65</ele><time>2026-02-14T04:14:40.000Z</time></trkpt>
        <trkpt lat="29.5510433" lon="103.3752088"><ele>1198.71</ele><time>2026-02-14T04:14:54.000Z</time></trkpt>
        <trkpt lat="29.5509547" lon="103.3752266"><ele>1201.46</ele><time>2026-02-14T04:15:16.000Z</time></trkpt>
        <trkpt lat="29.5508578" lon="103.3752391"><ele>1202.14</ele><time>2026-02-14T04:15:38.000Z</time></trkpt>
        <trkpt lat="29.5507922" lon="103.3751812"><ele>1203.06</ele><time>2026-02-14T04:15:54.000Z</time></trkpt>
        <trkpt lat="29.5507059" lon="103.3751456"><ele>1205.19</ele><time>2026-02-14T04:16:08.000Z</time></trkpt>
        <trkpt lat="29.5506213" lon="103.3751061"><ele>1205.56</ele><time>2026-02-14T04:16:18.000Z</time></trkpt>
        <trkpt lat="29.5505423" lon="103.375053"><ele>1206.66</ele><time>2026-02-14T04:16:26.000Z</time></trkpt>
        <trkpt lat="29.550454" lon="103.3750058"><ele>1207.14</ele><time>2026-02-14T04:16:36.000Z</time></trkpt>
        <trkpt lat="29.5503642" lon="103.3749481"><ele>1208.33</ele><time>2026-02-14T04:16:46.000Z</time></trkpt>
        <trkpt lat="29.5502812" lon="103.3748804"><ele>1210.21</ele><time>2026-02-14T04:16:54.000Z</time></trkpt>
        <trkpt lat="29.5502264" lon="103.3748439"><ele>1211.68</ele><time>2026-02-14T04:17:02.000Z</time></trkpt>
        <trkpt lat="29.55014" lon="103.3748505"><ele>1210.6</ele><time>2026-02-14T04:17:14.000Z</time></trkpt>
        <trkpt lat="29.5501187" lon="103.3748562"><ele>1208.35</ele><time>2026-02-14T04:17:16.000Z</time></trkpt>
        <trkpt lat="29.550063" lon="103.3748073"><ele>1207.36</ele><time>2026-02-14T04:17:34.000Z</time></trkpt>
        <trkpt lat="29.549988" lon="103.3747464"><ele>1208.62</ele><time>2026-02-14T04:17:54.000Z</time></trkpt>
        <trkpt lat="29.5499072" lon="103.3746766"><ele>1210.92</ele><time>2026-02-14T04:18:12.000Z</time></trkpt>
        <trkpt lat="29.5499474" lon="103.3746085"><ele>1211.86</ele><time>2026-02-14T04:18:28.000Z</time></trkpt>
        <trkpt lat="29.5500022" lon="103.37452"><ele>1211.75</ele><time>2026-02-14T04:18:52.000Z</time></trkpt>
        <trkpt lat="29.5500656" lon="103.3744151"><ele>1213.54</ele><time>2026-02-14T04:19:58.000Z</time></trkpt>
        <trkpt lat="29.5501503" lon="103.3743692"><ele>1217.82</ele><time>2026-02-14T04:20:06.000Z</time></trkpt>
        <trkpt lat="29.5502052" lon="103.3742883"><ele>1220.78</ele><time>2026-02-14T04:20:16.000Z</time></trkpt>
        <trkpt lat="29.5502873" lon="103.3742468"><ele>1222.65</ele><time>2026-02-14T04:20:28.000Z</time></trkpt>
        <trkpt lat="29.5503654" lon="103.3741877"><ele>1224.94</ele><time>2026-02-14T04:20:44.000Z</time></trkpt>
        <trkpt lat="29.5504327" lon="103.374116"><ele>1225.61</ele><time>2026-02-14T04:20:54.000Z</time></trkpt>
        <trkpt lat="29.5505112" lon="103.3740553"><ele>1225.2</ele><time>2026-02-14T04:21:02.000Z</time></trkpt>
        <trkpt lat="29.5505501" lon="103.3740654"><ele>1227.29</ele><time>2026-02-14T04:21:06.000Z</time></trkpt>
        <trkpt lat="29.5506291" lon="103.3741109"><ele>1228.45</ele><time>2026-02-14T04:21:18.000Z</time></trkpt>
        <trkpt lat="29.5507139" lon="103.3741017"><ele>1231.7</ele><time>2026-02-14T04:21:28.000Z</time></trkpt>
        <trkpt lat="29.5507775" lon="103.3740335"><ele>1234.15</ele><time>2026-02-14T04:21:36.000Z</time></trkpt>
        <trkpt lat="29.5508483" lon="103.373951"><ele>1235.07</ele><time>2026-02-14T04:21:46.000Z</time></trkpt>
        <trkpt lat="29.5509092" lon="103.3738744"><ele>1234.43</ele><time>2026-02-14T04:21:58.000Z</time></trkpt>
        <trkpt lat="29.550959" lon="103.3737754"><ele>1234.32</ele><time>2026-02-14T04:22:24.000Z</time></trkpt>
        <trkpt lat="29.5510403" lon="103.3737447"><ele>1230.07</ele><time>2026-02-14T04:22:34.000Z</time></trkpt>
        <trkpt lat="29.5511454" lon="103.3737627"><ele>1227.31</ele><time>2026-02-14T04:22:44.000Z</time></trkpt>
        <trkpt lat="29.5512371" lon="103.3737422"><ele>1226.19</ele><time>2026-02-14T04:22:54.000Z</time></trkpt>
        <trkpt lat="29.5512819" lon="103.3736525"><ele>1226.25</ele><time>2026-02-14T04:23:04.000Z</time></trkpt>
        <trkpt lat="29.5512497" lon="103.3735511"><ele>1223.81</ele><time>2026-02-14T04:23:14.000Z</time></trkpt>
        <trkpt lat="29.5512727" lon="103.3734412"><ele>1219.61</ele><time>2026-02-14T04:23:26.000Z</time></trkpt>
        <trkpt lat="29.5513105" lon="103.3733319"><ele>1217.77</ele><time>2026-02-14T04:23:36.000Z</time></trkpt>
        <trkpt lat="29.5513071" lon="103.3732256"><ele>1217.65</ele><time>2026-02-14T04:23:46.000Z</time></trkpt>
        <trkpt lat="29.5512726" lon="103.3731204"><ele>1217.22</ele><time>2026-02-14T04:23:56.000Z</time></trkpt>
        <trkpt lat="29.5511929" lon="103.3730412"><ele>1217.12</ele><time>2026-02-14T04:24:04.000Z</time></trkpt>
        <trkpt lat="29.551136" lon="103.3729437"><ele>1218.06</ele><time>2026-02-14T04:24:16.000Z</time></trkpt>
        <trkpt lat="29.5510501" lon="103.3729001"><ele>1220.13</ele><time>2026-02-14T04:24:36.000Z</time></trkpt>
        <trkpt lat="29.5509575" lon="103.3728737"><ele>1221.33</ele><time>2026-02-14T04:24:44.000Z</time></trkpt>
        <trkpt lat="29.5508531" lon="103.3728662"><ele>1222.78</ele><time>2026-02-14T04:24:54.000Z</time></trkpt>
        <trkpt lat="29.5507459" lon="103.3728736"><ele>1224.38</ele><time>2026-02-14T04:25:04.000Z</time></trkpt>
        <trkpt lat="29.5506371" lon="103.3728873"><ele>1225.24</ele><time>2026-02-14T04:25:12.000Z</time></trkpt>
        <trkpt lat="29.5505273" lon="103.3728987"><ele>1225.49</ele><time>2026-02-14T04:25:22.000Z</time></trkpt>
        <trkpt lat="29.5504258" lon="103.372946"><ele>1225.92</ele><time>2026-02-14T04:25:32.000Z</time></trkpt>
        <trkpt lat="29.55034" lon="103.3729989"><ele>1225.66</ele><time>2026-02-14T04:25:40.000Z</time></trkpt>
        <trkpt lat="29.550243" lon="103.3729864"><ele>1224.15</ele><time>2026-02-14T04:25:48.000Z</time></trkpt>
        <trkpt lat="29.5501633" lon="103.3729124"><ele>1224.39</ele><time>2026-02-14T04:25:58.000Z</time></trkpt>
        <trkpt lat="29.550118" lon="103.3728021"><ele>1224.36</ele><time>2026-02-14T04:26:09.000Z</time></trkpt>
        <trkpt lat="29.5501849" lon="103.3727651"><ele>1223.67</ele><time>2026-02-14T04:26:20.000Z</time></trkpt>
        <trkpt lat="29.5502795" lon="103.3727261"><ele>1222.91</ele><time>2026-02-14T04:26:32.000Z</time></trkpt>
        <trkpt lat="29.5503643" lon="103.3726624"><ele>1219.03</ele><time>2026-02-14T04:26:40.000Z</time></trkpt>
        <trkpt lat="29.5504437" lon="103.3726116"><ele>1216.98</ele><time>2026-02-14T04:26:48.000Z</time></trkpt>
        <trkpt lat="29.5505283" lon="103.3725513"><ele>1216.09</ele><time>2026-02-14T04:27:06.000Z</time></trkpt>
        <trkpt lat="29.5506092" lon="103.3724874"><ele>1215.87</ele><time>2026-02-14T04:27:20.000Z</time></trkpt>
        <trkpt lat="29.550648" lon="103.372388"><ele>1214.89</ele><time>2026-02-14T04:27:28.000Z</time></trkpt>
        <trkpt lat="29.5506845" lon="103.3722751"><ele>1214.1</ele><time>2026-02-14T04:27:38.000Z</time></trkpt>
        <trkpt lat="29.550698" lon="103.3721555"><ele>1214.35</ele><time>2026-02-14T04:27:48.000Z</time></trkpt>
        <trkpt lat="29.5506827" lon="103.3720436"><ele>1214.84</ele><time>2026-02-14T04:27:56.000Z</time></trkpt>
        <trkpt lat="29.5506292" lon="103.3719542"><ele>1214.66</ele><time>2026-02-14T04:28:04.000Z</time></trkpt>
        <trkpt lat="29.5505687" lon="103.3718618"><ele>1214.84</ele><time>2026-02-14T04:28:14.000Z</time></trkpt>
        <trkpt lat="29.5505065" lon="103.3717732"><ele>1216.39</ele><time>2026-02-14T04:28:24.000Z</time></trkpt>
        <trkpt lat="29.5504687" lon="103.3716768"><ele>1216.05</ele><time>2026-02-14T04:28:34.000Z</time></trkpt>
        <trkpt lat="29.550419" lon="103.37158"><ele>1214</ele><time>2026-02-14T04:28:44.000Z</time></trkpt>
        <trkpt lat="29.5503854" lon="103.3714773"><ele>1212.21</ele><time>2026-02-14T04:28:56.000Z</time></trkpt>
        <trkpt lat="29.5502997" lon="103.371442"><ele>1214.09</ele><time>2026-02-14T04:29:06.000Z</time></trkpt>
        <trkpt lat="29.5502159" lon="103.3713979"><ele>1214.01</ele><time>2026-02-14T04:29:16.000Z</time></trkpt>
        <trkpt lat="29.5502582" lon="103.371339"><ele>1211.73</ele><time>2026-02-14T04:29:28.000Z</time></trkpt>
        <trkpt lat="29.5503225" lon="103.371257"><ele>1206.94</ele><time>2026-02-14T04:29:38.000Z</time></trkpt>
        <trkpt lat="29.5504007" lon="103.3711614"><ele>1204.38</ele><time>2026-02-14T04:29:48.000Z</time></trkpt>
        <trkpt lat="29.5504701" lon="103.3710601"><ele>1203.11</ele><time>2026-02-14T04:29:58.000Z</time></trkpt>
        <trkpt lat="29.5504923" lon="103.3709533"><ele>1202.82</ele><time>2026-02-14T04:30:08.000Z</time></trkpt>
        <trkpt lat="29.5504608" lon="103.3708489"><ele>1203.08</ele><time>2026-02-14T04:30:18.000Z</time></trkpt>
        <trkpt lat="29.550382" lon="103.3707714"><ele>1203.14</ele><time>2026-02-14T04:30:32.000Z</time></trkpt>
        <trkpt lat="29.5503718" lon="103.3706746"><ele>1202.6</ele><time>2026-02-14T04:30:44.000Z</time></trkpt>
        <trkpt lat="29.5503119" lon="103.3706063"><ele>1199.54</ele><time>2026-02-14T04:30:58.000Z</time></trkpt>
        <trkpt lat="29.5502885" lon="103.3705711"><ele>1196.27</ele><time>2026-02-14T04:31:12.000Z</time></trkpt>
        <trkpt lat="29.5502885" lon="103.3705711"><ele>1196.27</ele><time>2026-02-14T04:31:22.000Z</time></trkpt>
        <trkpt lat="29.5503228" lon="103.3704749"><ele>1192.6</ele><time>2026-02-14T04:31:24.000Z</time></trkpt>
        <trkpt lat="29.5503228" lon="103.3704749"><ele>1192.6</ele><time>2026-02-14T04:31:40.000Z</time></trkpt>
        <trkpt lat="29.5503542" lon="103.3703847"><ele>1188.62</ele><time>2026-02-14T04:31:50.000Z</time></trkpt>
        <trkpt lat="29.5503985" lon="103.3702868"><ele>1185.92</ele><time>2026-02-14T04:32:12.000Z</time></trkpt>
        <trkpt lat="29.550405" lon="103.3701804"><ele>1186.44</ele><time>2026-02-14T04:32:44.000Z</time></trkpt>
        <trkpt lat="29.5503727" lon="103.370081"><ele>1189.86</ele><time>2026-02-14T04:33:02.000Z</time></trkpt>
        <trkpt lat="29.5503458" lon="103.3699675"><ele>1194.95</ele><time>2026-02-14T04:33:14.000Z</time></trkpt>
        <trkpt lat="29.550296" lon="103.3698711"><ele>1198.53</ele><time>2026-02-14T04:33:26.000Z</time></trkpt>
        <trkpt lat="29.5502181" lon="103.3697948"><ele>1201.12</ele><time>2026-02-14T04:33:42.000Z</time></trkpt>
        <trkpt lat="29.5501896" lon="103.3697004"><ele>1203.1</ele><time>2026-02-14T04:34:06.000Z</time></trkpt>
        <trkpt lat="29.5501787" lon="103.3695916"><ele>1204.52</ele><time>2026-02-14T04:34:32.000Z</time></trkpt>
        <trkpt lat="29.5501157" lon="103.3695227"><ele>1205.44</ele><time>2026-02-14T04:35:00.000Z</time></trkpt>
        <trkpt lat="29.5501157" lon="103.3695227"><ele>1205.44</ele><time>2026-02-14T04:35:42.000Z</time></trkpt>
        <trkpt lat="29.5501157" lon="103.3695227"><ele>1205.44</ele><time>2026-02-14T04:35:44.000Z</time></trkpt>
        <trkpt lat="29.5501157" lon="103.3695227"><ele>1205.44</ele><time>2026-02-14T04:36:02.000Z</time></trkpt>
        <trkpt lat="29.5500198" lon="103.369468"><ele>1208.47</ele><time>2026-02-14T04:36:18.000Z</time></trkpt>
        <trkpt lat="29.5500198" lon="103.369468"><ele>1208.47</ele><time>2026-02-14T04:36:28.000Z</time></trkpt>
        <trkpt lat="29.5499965" lon="103.3693625"><ele>1216.23</ele><time>2026-02-14T04:36:38.000Z</time></trkpt>
        <trkpt lat="29.5499608" lon="103.3692531"><ele>1221.24</ele><time>2026-02-14T04:36:54.000Z</time></trkpt>
        <trkpt lat="29.5499367" lon="103.36914"><ele>1224.08</ele><time>2026-02-14T04:37:18.000Z</time></trkpt>
        <trkpt lat="29.5499182" lon="103.3690243"><ele>1226.57</ele><time>2026-02-14T04:37:30.000Z</time></trkpt>
        <trkpt lat="29.5498969" lon="103.3689663"><ele>1229.07</ele><time>2026-02-14T04:37:40.000Z</time></trkpt>
        <trkpt lat="29.5499585" lon="103.3689337"><ele>1229.74</ele><time>2026-02-14T04:38:02.000Z</time></trkpt>
        <trkpt lat="29.5499156" lon="103.3689044"><ele>1234.45</ele><time>2026-02-14T04:38:14.000Z</time></trkpt>
        <trkpt lat="29.5498897" lon="103.3688205"><ele>1234.75</ele><time>2026-02-14T04:38:52.000Z</time></trkpt>
        <trkpt lat="29.5498387" lon="103.3688556"><ele>1237.99</ele><time>2026-02-14T04:39:18.000Z</time></trkpt>
        <trkpt lat="29.5497716" lon="103.3688038"><ele>1244.42</ele><time>2026-02-14T04:39:46.000Z</time></trkpt>
        <trkpt lat="29.5496811" lon="103.3687642"><ele>1249.68</ele><time>2026-02-14T04:39:54.000Z</time></trkpt>
        <trkpt lat="29.5496041" lon="103.3686861"><ele>1253.21</ele><time>2026-02-14T04:40:04.000Z</time></trkpt>
        <trkpt lat="29.5496414" lon="103.3686107"><ele>1253.84</ele><time>2026-02-14T04:40:28.000Z</time></trkpt>
        <trkpt lat="29.5496194" lon="103.3685292"><ele>1255.65</ele><time>2026-02-14T04:40:44.000Z</time></trkpt>
        <trkpt lat="29.5496864" lon="103.3685075"><ele>1254.72</ele><time>2026-02-14T04:41:44.000Z</time></trkpt>
        <trkpt lat="29.5496455" lon="103.3684883"><ele>1260.66</ele><time>2026-02-14T04:42:08.000Z</time></trkpt>
        <trkpt lat="29.5496946" lon="103.368457"><ele>1265.29</ele><time>2026-02-14T04:42:30.000Z</time></trkpt>
        <trkpt lat="29.5497579" lon="103.3683885"><ele>1268.29</ele><time>2026-02-14T04:43:14.000Z</time></trkpt>
        <trkpt lat="29.5497235" lon="103.3683198"><ele>1273</ele><time>2026-02-14T04:43:24.000Z</time></trkpt>
        <trkpt lat="29.5497632" lon="103.368345"><ele>1276.32</ele><time>2026-02-14T04:43:40.000Z</time></trkpt>
        <trkpt lat="29.5498182" lon="103.3683733"><ele>1281.25</ele><time>2026-02-14T04:44:00.000Z</time></trkpt>
        <trkpt lat="29.5497762" lon="103.3683404"><ele>1284.71</ele><time>2026-02-14T04:44:32.000Z</time></trkpt>
        <trkpt lat="29.5498235" lon="103.3683164"><ele>1288.51</ele><time>2026-02-14T04:45:00.000Z</time></trkpt>
        <trkpt lat="29.5498922" lon="103.3682575"><ele>1292.23</ele><time>2026-02-14T04:45:24.000Z</time></trkpt>
        <trkpt lat="29.5499363" lon="103.368156"><ele>1295.12</ele><time>2026-02-14T04:45:50.000Z</time></trkpt>
        <trkpt lat="29.5498918" lon="103.3681792"><ele>1297.86</ele><time>2026-02-14T04:46:12.000Z</time></trkpt>
        <trkpt lat="29.5498748" lon="103.3681131"><ele>1303.53</ele><time>2026-02-14T04:46:32.000Z</time></trkpt>
        <trkpt lat="29.549889" lon="103.3680094"><ele>1307.2</ele><time>2026-02-14T04:46:56.000Z</time></trkpt>
        <trkpt lat="29.5498932" lon="103.3678823"><ele>1309.36</ele><time>2026-02-14T04:48:10.000Z</time></trkpt>
        <trkpt lat="29.5499075" lon="103.3678677"><ele>1315.51</ele><time>2026-02-14T04:48:14.000Z</time></trkpt>
        <trkpt lat="29.5499075" lon="103.3678677"><ele>1315.51</ele><time>2026-02-14T04:48:56.000Z</time></trkpt>
        <trkpt lat="29.5499075" lon="103.3678677"><ele>1315.51</ele><time>2026-02-14T04:49:26.000Z</time></trkpt>
        <trkpt lat="29.5499075" lon="103.3678677"><ele>1315.51</ele><time>2026-02-14T04:50:16.000Z</time></trkpt>
        <trkpt lat="29.5499075" lon="103.3678677"><ele>1315.51</ele><time>2026-02-14T04:50:46.000Z</time></trkpt>
        <trkpt lat="29.5499075" lon="103.3678677"><ele>1315.51</ele><time>2026-02-14T04:51:02.000Z</time></trkpt>
        <trkpt lat="29.549995" lon="103.367832"><ele>1319.52</ele><time>2026-02-14T04:51:48.000Z</time></trkpt>
        <trkpt lat="29.549995" lon="103.367832"><ele>1319.52</ele><time>2026-02-14T04:52:32.000Z</time></trkpt>
        <trkpt lat="29.5499464" lon="103.3677329"><ele>1328.1</ele><time>2026-02-14T04:52:56.000Z</time></trkpt>
        <trkpt lat="29.5500137" lon="103.3676904"><ele>1331.07</ele><time>2026-02-14T04:53:44.000Z</time></trkpt>
        <trkpt lat="29.5500919" lon="103.3676298"><ele>1340.08</ele><time>2026-02-14T04:54:12.000Z</time></trkpt>
        <trkpt lat="29.5501708" lon="103.3675562"><ele>1347.32</ele><time>2026-02-14T04:54:28.000Z</time></trkpt>
        <trkpt lat="29.550187" lon="103.3674907"><ele>1352.03</ele><time>2026-02-14T04:54:38.000Z</time></trkpt>
        <trkpt lat="29.550187" lon="103.3674907"><ele>1352.03</ele><time>2026-02-14T04:54:50.000Z</time></trkpt>
        <trkpt lat="29.550187" lon="103.3674907"><ele>1352.03</ele><time>2026-02-14T04:54:52.000Z</time></trkpt>
        <trkpt lat="29.550187" lon="103.3674907"><ele>1352.03</ele><time>2026-02-14T04:55:34.000Z</time></trkpt>
        <trkpt lat="29.5502052" lon="103.3673853"><ele>1354.33</ele><time>2026-02-14T04:55:42.000Z</time></trkpt>
        <trkpt lat="29.5502052" lon="103.3673853"><ele>1354.33</ele><time>2026-02-14T04:55:48.000Z</time></trkpt>
        <trkpt lat="29.5501142" lon="103.3673804"><ele>1356.97</ele><time>2026-02-14T04:56:30.000Z</time></trkpt>
        <trkpt lat="29.5500837" lon="103.3672929"><ele>1363.87</ele><time>2026-02-14T04:57:16.000Z</time></trkpt>
        <trkpt lat="29.5501152" lon="103.3672013"><ele>1370.38</ele><time>2026-02-14T04:57:30.000Z</time></trkpt>
        <trkpt lat="29.5501654" lon="103.3671044"><ele>1375.32</ele><time>2026-02-14T04:57:44.000Z</time></trkpt>
        <trkpt lat="29.5502387" lon="103.3670259"><ele>1378.07</ele><time>2026-02-14T04:58:10.000Z</time></trkpt>
        <trkpt lat="29.5502949" lon="103.3669217"><ele>1382.04</ele><time>2026-02-14T04:58:28.000Z</time></trkpt>
        <trkpt lat="29.5502771" lon="103.3668193"><ele>1388.55</ele><time>2026-02-14T04:58:54.000Z</time></trkpt>
        <trkpt lat="29.5501917" lon="103.3668017"><ele>1396.67</ele><time>2026-02-14T04:59:16.000Z</time></trkpt>
        <trkpt lat="29.5501433" lon="103.3667304"><ele>1400.14</ele><time>2026-02-14T04:59:28.000Z</time></trkpt>
        <trkpt lat="29.5500635" lon="103.3666842"><ele>1399.58</ele><time>2026-02-14T05:00:08.000Z</time></trkpt>
        <trkpt lat="29.5500005" lon="103.3666072"><ele>1404.37</ele><time>2026-02-14T05:00:36.000Z</time></trkpt>
        <trkpt lat="29.5499112" lon="103.366593"><ele>1405.42</ele><time>2026-02-14T05:01:08.000Z</time></trkpt>
        <trkpt lat="29.5498201" lon="103.366622"><ele>1412.08</ele><time>2026-02-14T05:01:34.000Z</time></trkpt>
        <trkpt lat="29.5497207" lon="103.3666211"><ele>1417.58</ele><time>2026-02-14T05:01:56.000Z</time></trkpt>
        <trkpt lat="29.5496369" lon="103.3665658"><ele>1420.66</ele><time>2026-02-14T05:02:28.000Z</time></trkpt>
        <trkpt lat="29.549549" lon="103.3665225"><ele>1422.89</ele><time>2026-02-14T05:03:00.000Z</time></trkpt>
        <trkpt lat="29.5494643" lon="103.3664745"><ele>1425.94</ele><time>2026-02-14T05:03:44.000Z</time></trkpt>
        <trkpt lat="29.5494079" lon="103.3663895"><ele>1433.44</ele><time>2026-02-14T05:04:24.000Z</time></trkpt>
        <trkpt lat="29.5493874" lon="103.3662852"><ele>1439.49</ele><time>2026-02-14T05:05:06.000Z</time></trkpt>
        <trkpt lat="29.5493376" lon="103.3663112"><ele>1444.9</ele><time>2026-02-14T05:05:28.000Z</time></trkpt>
        <trkpt lat="29.5492575" lon="103.3663698"><ele>1450.08</ele><time>2026-02-14T05:05:38.000Z</time></trkpt>
        <trkpt lat="29.5492575" lon="103.3663698"><ele>1450.08</ele><time>2026-02-14T05:05:46.000Z</time></trkpt>
        <trkpt lat="29.5492575" lon="103.3663698"><ele>1450.08</ele><time>2026-02-14T05:05:50.000Z</time></trkpt>
        <trkpt lat="29.5492575" lon="103.3663698"><ele>1450.08</ele><time>2026-02-14T05:06:28.000Z</time></trkpt>
        <trkpt lat="29.5493434" lon="103.3663601"><ele>1454.03</ele><time>2026-02-14T05:07:02.000Z</time></trkpt>
        <trkpt lat="29.5493434" lon="103.3663601"><ele>1454.03</ele><time>2026-02-14T05:07:22.000Z</time></trkpt>
        <trkpt lat="29.5493434" lon="103.3663601"><ele>1454.03</ele><time>2026-02-14T05:07:50.000Z</time></trkpt>
        <trkpt lat="29.5493434" lon="103.3663601"><ele>1454.03</ele><time>2026-02-14T05:08:02.000Z</time></trkpt>
        <trkpt lat="29.5493434" lon="103.3663601"><ele>1454.03</ele><time>2026-02-14T05:08:16.000Z</time></trkpt>
        <trkpt lat="29.5493434" lon="103.3663601"><ele>1454.03</ele><time>2026-02-14T05:09:48.000Z</time></trkpt>
        <trkpt lat="29.5493434" lon="103.3663601"><ele>1454.03</ele><time>2026-02-14T05:10:02.000Z</time></trkpt>
        <trkpt lat="29.5493434" lon="103.3663601"><ele>1454.03</ele><time>2026-02-14T05:10:12.000Z</time></trkpt>
        <trkpt lat="29.5493434" lon="103.3663601"><ele>1454.03</ele><time>2026-02-14T05:10:36.000Z</time></trkpt>
        <trkpt lat="29.5493434" lon="103.3663601"><ele>1454.03</ele><time>2026-02-14T05:11:48.000Z</time></trkpt>
        <trkpt lat="29.5493434" lon="103.3663601"><ele>1454.03</ele><time>2026-02-14T05:12:06.000Z</time></trkpt>
        <trkpt lat="29.5494155" lon="103.3662777"><ele>1454.48</ele><time>2026-02-14T05:12:56.000Z</time></trkpt>
        <trkpt lat="29.5494155" lon="103.3662777"><ele>1454.48</ele><time>2026-02-14T05:13:03.000Z</time></trkpt>
        <trkpt lat="29.5494155" lon="103.3662777"><ele>1454.48</ele><time>2026-02-14T05:13:54.000Z</time></trkpt>
        <trkpt lat="29.5494155" lon="103.3662777"><ele>1454.48</ele><time>2026-02-14T05:13:56.000Z</time></trkpt>
        <trkpt lat="29.5494155" lon="103.3662777"><ele>1454.48</ele><time>2026-02-14T05:14:26.000Z</time></trkpt>
        <trkpt lat="29.5493487" lon="103.3663472"><ele>1456.51</ele><time>2026-02-14T05:15:24.000Z</time></trkpt>
        <trkpt lat="29.5493487" lon="103.3663472"><ele>1456.51</ele><time>2026-02-14T05:15:31.000Z</time></trkpt>
        <trkpt lat="29.5493586" lon="103.3663558"><ele>1457.81</ele><time>2026-02-14T05:15:35.000Z</time></trkpt>
        <trkpt lat="29.5493586" lon="103.3663558"><ele>1457.81</ele><time>2026-02-14T05:15:52.000Z</time></trkpt>
        <trkpt lat="29.5493586" lon="103.3663558"><ele>1457.81</ele><time>2026-02-14T05:17:02.000Z</time></trkpt>
        <trkpt lat="29.5493586" lon="103.3663558"><ele>1457.81</ele><time>2026-02-14T05:17:16.000Z</time></trkpt>
        <trkpt lat="29.5493586" lon="103.3663558"><ele>1457.81</ele><time>2026-02-14T05:18:52.000Z</time></trkpt>
        <trkpt lat="29.5493586" lon="103.3663558"><ele>1457.81</ele><time>2026-02-14T05:19:16.000Z</time></trkpt>
        <trkpt lat="29.5493586" lon="103.3663558"><ele>1457.81</ele><time>2026-02-14T05:20:46.000Z</time></trkpt>
        <trkpt lat="29.5493586" lon="103.3663558"><ele>1457.81</ele><time>2026-02-14T05:21:16.000Z</time></trkpt>
        <trkpt lat="29.5493986" lon="103.366261"><ele>1458.84</ele><time>2026-02-14T05:21:18.000Z</time></trkpt>
        <trkpt lat="29.5493986" lon="103.366261"><ele>1458.84</ele><time>2026-02-14T05:21:31.000Z</time></trkpt>
        <trkpt lat="29.5493986" lon="103.366261"><ele>1458.84</ele><time>2026-02-14T05:21:54.000Z</time></trkpt>
        <trkpt lat="29.5493986" lon="103.366261"><ele>1458.84</ele><time>2026-02-14T05:22:50.000Z</time></trkpt>
        <trkpt lat="29.5493986" lon="103.366261"><ele>1458.84</ele><time>2026-02-14T05:23:06.000Z</time></trkpt>
        <trkpt lat="29.5493986" lon="103.366261"><ele>1458.84</ele><time>2026-02-14T05:23:28.000Z</time></trkpt>
        <trkpt lat="29.5493986" lon="103.366261"><ele>1458.84</ele><time>2026-02-14T05:24:02.000Z</time></trkpt>
        <trkpt lat="29.5493986" lon="103.366261"><ele>1458.84</ele><time>2026-02-14T05:24:44.000Z</time></trkpt>
        <trkpt lat="29.5493986" lon="103.366261"><ele>1458.84</ele><time>2026-02-14T05:24:58.000Z</time></trkpt>
        <trkpt lat="29.5493986" lon="103.366261"><ele>1458.84</ele><time>2026-02-14T05:25:14.000Z</time></trkpt>
        <trkpt lat="29.5493986" lon="103.366261"><ele>1458.84</ele><time>2026-02-14T05:25:32.000Z</time></trkpt>
        <trkpt lat="29.5493986" lon="103.366261"><ele>1458.84</ele><time>2026-02-14T05:26:18.000Z</time></trkpt>
        <trkpt lat="29.5493986" lon="103.366261"><ele>1458.84</ele><time>2026-02-14T05:26:54.000Z</time></trkpt>
        <trkpt lat="29.5495063" lon="103.366209"><ele>1454.11</ele><time>2026-02-14T05:26:58.000Z</time></trkpt>
        <trkpt lat="29.5495063" lon="103.366209"><ele>1454.11</ele><time>2026-02-14T05:27:39.000Z</time></trkpt>
        <trkpt lat="29.5495975" lon="103.3661626"><ele>1455.04</ele><time>2026-02-14T05:27:51.000Z</time></trkpt>
        <trkpt lat="29.5496786" lon="103.3661017"><ele>1455.61</ele><time>2026-02-14T05:28:05.000Z</time></trkpt>
        <trkpt lat="29.5497439" lon="103.3660189"><ele>1454.64</ele><time>2026-02-14T05:28:23.000Z</time></trkpt>
        <trkpt lat="29.5497199" lon="103.365917"><ele>1452.84</ele><time>2026-02-14T05:28:33.000Z</time></trkpt>
        <trkpt lat="29.5496895" lon="103.3658041"><ele>1454.09</ele><time>2026-02-14T05:28:57.000Z</time></trkpt>
        <trkpt lat="29.549625" lon="103.3657165"><ele>1455.78</ele><time>2026-02-14T05:29:25.000Z</time></trkpt>
        <trkpt lat="29.5495911" lon="103.3656148"><ele>1459.58</ele><time>2026-02-14T05:29:47.000Z</time></trkpt>
        <trkpt lat="29.5495093" lon="103.3655515"><ele>1461.98</ele><time>2026-02-14T05:30:01.000Z</time></trkpt>
        <trkpt lat="29.54953" lon="103.3654656"><ele>1462.73</ele><time>2026-02-14T05:30:13.000Z</time></trkpt>
        <trkpt lat="29.5496062" lon="103.3653863"><ele>1463.37</ele><time>2026-02-14T05:30:25.000Z</time></trkpt>
        <trkpt lat="29.5496908" lon="103.3653203"><ele>1462.01</ele><time>2026-02-14T05:30:35.000Z</time></trkpt>
        <trkpt lat="29.5497606" lon="103.3652324"><ele>1460.45</ele><time>2026-02-14T05:30:45.000Z</time></trkpt>
        <trkpt lat="29.5498222" lon="103.3651402"><ele>1460.35</ele><time>2026-02-14T05:30:55.000Z</time></trkpt>
        <trkpt lat="29.5498917" lon="103.3650509"><ele>1460.66</ele><time>2026-02-14T05:31:07.000Z</time></trkpt>
        <trkpt lat="29.5499342" lon="103.3649395"><ele>1461.54</ele><time>2026-02-14T05:31:17.000Z</time></trkpt>
        <trkpt lat="29.5499831" lon="103.3648454"><ele>1462.27</ele><time>2026-02-14T05:31:27.000Z</time></trkpt>
        <trkpt lat="29.5500558" lon="103.3647647"><ele>1463.23</ele><time>2026-02-14T05:31:39.000Z</time></trkpt>
        <trkpt lat="29.5501185" lon="103.3646788"><ele>1463.1</ele><time>2026-02-14T05:31:53.000Z</time></trkpt>
        <trkpt lat="29.5501155" lon="103.3645794"><ele>1461.79</ele><time>2026-02-14T05:32:01.000Z</time></trkpt>
        <trkpt lat="29.5501244" lon="103.364471"><ele>1460.85</ele><time>2026-02-14T05:32:15.000Z</time></trkpt>
        <trkpt lat="29.5501885" lon="103.3644125"><ele>1461.63</ele><time>2026-02-14T05:32:25.000Z</time></trkpt>
        <trkpt lat="29.5502631" lon="103.3643403"><ele>1461.81</ele><time>2026-02-14T05:32:37.000Z</time></trkpt>
        <trkpt lat="29.5503215" lon="103.3642517"><ele>1462.36</ele><time>2026-02-14T05:32:49.000Z</time></trkpt>
        <trkpt lat="29.5503495" lon="103.3641406"><ele>1462.53</ele><time>2026-02-14T05:32:59.000Z</time></trkpt>
        <trkpt lat="29.5503569" lon="103.3640313"><ele>1463.59</ele><time>2026-02-14T05:33:13.000Z</time></trkpt>
        <trkpt lat="29.5503931" lon="103.3639322"><ele>1466.28</ele><time>2026-02-14T05:33:39.000Z</time></trkpt>
        <trkpt lat="29.5504566" lon="103.3639634"><ele>1469.32</ele><time>2026-02-14T05:33:59.000Z</time></trkpt>
        <trkpt lat="29.5504637" lon="103.363903"><ele>1469.25</ele><time>2026-02-14T05:34:33.000Z</time></trkpt>
        <trkpt lat="29.550475" lon="103.3638067"><ele>1472.03</ele><time>2026-02-14T05:34:49.000Z</time></trkpt>
        <trkpt lat="29.5505447" lon="103.3637853"><ele>1474.61</ele><time>2026-02-14T05:35:03.000Z</time></trkpt>
        <trkpt lat="29.5506321" lon="103.3637617"><ele>1477.06</ele><time>2026-02-14T05:35:15.000Z</time></trkpt>
        <trkpt lat="29.5507155" lon="103.3637105"><ele>1477.04</ele><time>2026-02-14T05:35:23.000Z</time></trkpt>
        <trkpt lat="29.5508119" lon="103.3636692"><ele>1476.33</ele><time>2026-02-14T05:35:35.000Z</time></trkpt>
        <trkpt lat="29.5508263" lon="103.3635782"><ele>1477.29</ele><time>2026-02-14T05:35:47.000Z</time></trkpt>
        <trkpt lat="29.5507744" lon="103.3634766"><ele>1477.27</ele><time>2026-02-14T05:35:59.000Z</time></trkpt>
        <trkpt lat="29.5507184" lon="103.363374"><ele>1479.13</ele><time>2026-02-14T05:36:17.000Z</time></trkpt>
        <trkpt lat="29.5507066" lon="103.3632587"><ele>1481.37</ele><time>2026-02-14T05:36:51.000Z</time></trkpt>
        <trkpt lat="29.5507648" lon="103.3632659"><ele>1482.4</ele><time>2026-02-14T05:37:11.000Z</time></trkpt>
        <trkpt lat="29.5507722" lon="103.3632034"><ele>1484.68</ele><time>2026-02-14T05:37:37.000Z</time></trkpt>
        <trkpt lat="29.5507699" lon="103.3631072"><ele>1489.91</ele><time>2026-02-14T05:38:03.000Z</time></trkpt>
        <trkpt lat="29.5507535" lon="103.3630004"><ele>1493.84</ele><time>2026-02-14T05:38:29.000Z</time></trkpt>
        <trkpt lat="29.5508177" lon="103.3630052"><ele>1493.7</ele><time>2026-02-14T05:38:45.000Z</time></trkpt>
        <trkpt lat="29.5508057" lon="103.3629484"><ele>1497.79</ele><time>2026-02-14T05:39:13.000Z</time></trkpt>
        <trkpt lat="29.5507326" lon="103.3629016"><ele>1508.88</ele><time>2026-02-14T05:39:45.000Z</time></trkpt>
        <trkpt lat="29.5506347" lon="103.3628927"><ele>1516.25</ele><time>2026-02-14T05:40:07.000Z</time></trkpt>
        <trkpt lat="29.5505555" lon="103.3628381"><ele>1520.88</ele><time>2026-02-14T05:40:39.000Z</time></trkpt>
        <trkpt lat="29.5505766" lon="103.3627548"><ele>1525.23</ele><time>2026-02-14T05:41:03.000Z</time></trkpt>
        <trkpt lat="29.5506058" lon="103.3626426"><ele>1531.31</ele><time>2026-02-14T05:41:29.000Z</time></trkpt>
        <trkpt lat="29.5506058" lon="103.3626426"><ele>1531.31</ele><time>2026-02-14T05:42:00.000Z</time></trkpt>
        <trkpt lat="29.5506058" lon="103.3626426"><ele>1531.31</ele><time>2026-02-14T05:42:58.000Z</time></trkpt>
        <trkpt lat="29.5506058" lon="103.3626426"><ele>1531.31</ele><time>2026-02-14T05:43:14.000Z</time></trkpt>
        <trkpt lat="29.5506521" lon="103.3625243"><ele>1536.56</ele><time>2026-02-14T05:43:58.000Z</time></trkpt>
        <trkpt lat="29.5506521" lon="103.3625243"><ele>1536.56</ele><time>2026-02-14T05:44:20.000Z</time></trkpt>
        <trkpt lat="29.5506933" lon="103.3624314"><ele>1540.87</ele><time>2026-02-14T05:44:42.000Z</time></trkpt>
        <trkpt lat="29.5506777" lon="103.3623285"><ele>1546.37</ele><time>2026-02-14T05:45:18.000Z</time></trkpt>
        <trkpt lat="29.5506458" lon="103.3622293"><ele>1550.24</ele><time>2026-02-14T05:45:44.000Z</time></trkpt>
        <trkpt lat="29.5505865" lon="103.36214"><ele>1554.34</ele><time>2026-02-14T05:46:17.000Z</time></trkpt>
        <trkpt lat="29.5505734" lon="103.3620374"><ele>1559.86</ele><time>2026-02-14T05:46:43.000Z</time></trkpt>
        <trkpt lat="29.5505817" lon="103.3619316"><ele>1563.9</ele><time>2026-02-14T05:47:05.000Z</time></trkpt>
        <trkpt lat="29.5505511" lon="103.3618389"><ele>1565.91</ele><time>2026-02-14T05:47:51.000Z</time></trkpt>
        <trkpt lat="29.5505018" lon="103.3617459"><ele>1572.27</ele><time>2026-02-14T05:48:15.000Z</time></trkpt>
        <trkpt lat="29.5504553" lon="103.3616527"><ele>1577.23</ele><time>2026-02-14T05:48:33.000Z</time></trkpt>
        <trkpt lat="29.5503766" lon="103.3616021"><ele>1581.18</ele><time>2026-02-14T05:48:51.000Z</time></trkpt>
        <trkpt lat="29.5504043" lon="103.3615366"><ele>1585.25</ele><time>2026-02-14T05:49:21.000Z</time></trkpt>
        <trkpt lat="29.5504227" lon="103.3615166"><ele>1589.2</ele><time>2026-02-14T05:49:23.000Z</time></trkpt>
        <trkpt lat="29.5503634" lon="103.3614886"><ele>1591.82</ele><time>2026-02-14T05:49:41.000Z</time></trkpt>
        <trkpt lat="29.550307" lon="103.3614127"><ele>1594.95</ele><time>2026-02-14T05:49:59.000Z</time></trkpt>
        <trkpt lat="29.5502495" lon="103.3613249"><ele>1595.87</ele><time>2026-02-14T05:50:21.000Z</time></trkpt>
        <trkpt lat="29.5501612" lon="103.3612989"><ele>1598.36</ele><time>2026-02-14T05:50:47.000Z</time></trkpt>
        <trkpt lat="29.5500718" lon="103.3612454"><ele>1603.76</ele><time>2026-02-14T05:51:05.000Z</time></trkpt>
        <trkpt lat="29.5499845" lon="103.3611998"><ele>1606.29</ele><time>2026-02-14T05:51:15.000Z</time></trkpt>
        <trkpt lat="29.5499132" lon="103.3611338"><ele>1607.85</ele><time>2026-02-14T05:51:27.000Z</time></trkpt>
        <trkpt lat="29.5498953" lon="103.361029"><ele>1609.83</ele><time>2026-02-14T05:51:39.000Z</time></trkpt>
        <trkpt lat="29.5498677" lon="103.3609247"><ele>1610.91</ele><time>2026-02-14T05:51:51.000Z</time></trkpt>
        <trkpt lat="29.5498182" lon="103.36083"><ele>1612.64</ele><time>2026-02-14T05:52:03.000Z</time></trkpt>
        <trkpt lat="29.5498438" lon="103.3607263"><ele>1613.78</ele><time>2026-02-14T05:52:15.000Z</time></trkpt>
        <trkpt lat="29.5498777" lon="103.3606231"><ele>1614.98</ele><time>2026-02-14T05:52:27.000Z</time></trkpt>
        <trkpt lat="29.5499229" lon="103.3605188"><ele>1616.62</ele><time>2026-02-14T05:52:43.000Z</time></trkpt>
        <trkpt lat="29.5499851" lon="103.3604347"><ele>1616.48</ele><time>2026-02-14T05:52:55.000Z</time></trkpt>
        <trkpt lat="29.550025" lon="103.3603375"><ele>1615.83</ele><time>2026-02-14T05:53:05.000Z</time></trkpt>
        <trkpt lat="29.5500592" lon="103.3602298"><ele>1616.26</ele><time>2026-02-14T05:53:17.000Z</time></trkpt>
        <trkpt lat="29.5501022" lon="103.3601317"><ele>1616.46</ele><time>2026-02-14T05:53:31.000Z</time></trkpt>
        <trkpt lat="29.5501311" lon="103.3600325"><ele>1617.09</ele><time>2026-02-14T05:53:55.000Z</time></trkpt>
        <trkpt lat="29.5501065" lon="103.3599364"><ele>1617.76</ele><time>2026-02-14T05:54:29.000Z</time></trkpt>
        <trkpt lat="29.5500542" lon="103.3598491"><ele>1618.82</ele><time>2026-02-14T05:55:05.000Z</time></trkpt>
        <trkpt lat="29.5499905" lon="103.3597597"><ele>1621.31</ele><time>2026-02-14T05:55:43.000Z</time></trkpt>
        <trkpt lat="29.5499905" lon="103.3597597"><ele>1621.31</ele><time>2026-02-14T05:57:22.000Z</time></trkpt>
        <trkpt lat="29.5499905" lon="103.3597597"><ele>1621.31</ele><time>2026-02-14T05:57:28.000Z</time></trkpt>
        <trkpt lat="29.5499905" lon="103.3597597"><ele>1621.31</ele><time>2026-02-14T05:57:44.000Z</time></trkpt>
        <trkpt lat="29.5499905" lon="103.3597597"><ele>1621.31</ele><time>2026-02-14T05:57:56.000Z</time></trkpt>
        <trkpt lat="29.5499905" lon="103.3597597"><ele>1621.31</ele><time>2026-02-14T05:58:22.000Z</time></trkpt>
        <trkpt lat="29.5499905" lon="103.3597597"><ele>1621.31</ele><time>2026-02-14T05:58:42.000Z</time></trkpt>
        <trkpt lat="29.5499905" lon="103.3597597"><ele>1621.31</ele><time>2026-02-14T05:59:06.000Z</time></trkpt>
        <trkpt lat="29.5499905" lon="103.3597597"><ele>1621.31</ele><time>2026-02-14T06:00:28.000Z</time></trkpt>
        <trkpt lat="29.5499905" lon="103.3597597"><ele>1621.31</ele><time>2026-02-14T06:01:04.000Z</time></trkpt>
        <trkpt lat="29.5499905" lon="103.3597597"><ele>1621.31</ele><time>2026-02-14T06:01:16.000Z</time></trkpt>
        <trkpt lat="29.5499905" lon="103.3597597"><ele>1621.31</ele><time>2026-02-14T06:02:14.000Z</time></trkpt>
        <trkpt lat="29.5499905" lon="103.3597597"><ele>1621.31</ele><time>2026-02-14T06:02:24.000Z</time></trkpt>
        <trkpt lat="29.5499905" lon="103.3597597"><ele>1621.31</ele><time>2026-02-14T06:02:52.000Z</time></trkpt>
        <trkpt lat="29.5499905" lon="103.3597597"><ele>1621.31</ele><time>2026-02-14T06:02:54.000Z</time></trkpt>
        <trkpt lat="29.5499905" lon="103.3597597"><ele>1621.31</ele><time>2026-02-14T06:03:10.000Z</time></trkpt>
        <trkpt lat="29.5499905" lon="103.3597597"><ele>1621.31</ele><time>2026-02-14T06:03:34.000Z</time></trkpt>
        <trkpt lat="29.5499905" lon="103.3597597"><ele>1621.31</ele><time>2026-02-14T06:03:48.000Z</time></trkpt>
        <trkpt lat="29.5499905" lon="103.3597597"><ele>1621.31</ele><time>2026-02-14T06:04:00.000Z</time></trkpt>
        <trkpt lat="29.5499905" lon="103.3597597"><ele>1621.31</ele><time>2026-02-14T06:04:14.000Z</time></trkpt>
        <trkpt lat="29.5499905" lon="103.3597597"><ele>1621.31</ele><time>2026-02-14T06:04:46.000Z</time></trkpt>
        <trkpt lat="29.5499905" lon="103.3597597"><ele>1621.31</ele><time>2026-02-14T06:05:06.000Z</time></trkpt>
        <trkpt lat="29.5499905" lon="103.3597597"><ele>1621.31</ele><time>2026-02-14T06:06:54.000Z</time></trkpt>
        <trkpt lat="29.5499905" lon="103.3597597"><ele>1621.31</ele><time>2026-02-14T06:07:28.000Z</time></trkpt>
        <trkpt lat="29.5499905" lon="103.3597597"><ele>1621.31</ele><time>2026-02-14T06:07:30.000Z</time></trkpt>
        <trkpt lat="29.5499905" lon="103.3597597"><ele>1621.31</ele><time>2026-02-14T06:07:48.000Z</time></trkpt>
        <trkpt lat="29.5499905" lon="103.3597597"><ele>1621.31</ele><time>2026-02-14T06:08:02.000Z</time></trkpt>
        <trkpt lat="29.5499905" lon="103.3597597"><ele>1621.31</ele><time>2026-02-14T06:08:36.000Z</time></trkpt>
        <trkpt lat="29.5499905" lon="103.3597597"><ele>1621.31</ele><time>2026-02-14T06:09:00.000Z</time></trkpt>
        <trkpt lat="29.5499905" lon="103.3597597"><ele>1621.31</ele><time>2026-02-14T06:09:16.000Z</time></trkpt>
        <trkpt lat="29.5499905" lon="103.3597597"><ele>1621.31</ele><time>2026-02-14T06:10:00.000Z</time></trkpt>
        <trkpt lat="29.5499905" lon="103.3597597"><ele>1621.31</ele><time>2026-02-14T06:10:16.000Z</time></trkpt>
        <trkpt lat="29.5499549" lon="103.3596518"><ele>1623.12</ele><time>2026-02-14T06:10:34.000Z</time></trkpt>
        <trkpt lat="29.5499549" lon="103.3596518"><ele>1623.12</ele><time>2026-02-14T06:10:42.000Z</time></trkpt>
        <trkpt lat="29.5498769" lon="103.3595817"><ele>1626.74</ele><time>2026-02-14T06:11:00.000Z</time></trkpt>
        <trkpt lat="29.5498395" lon="103.3594755"><ele>1628.34</ele><time>2026-02-14T06:11:30.000Z</time></trkpt>
        <trkpt lat="29.5498336" lon="103.3593656"><ele>1631.71</ele><time>2026-02-14T06:11:40.000Z</time></trkpt>
        <trkpt lat="29.5498764" lon="103.359271"><ele>1633.77</ele><time>2026-02-14T06:12:00.000Z</time></trkpt>
        <trkpt lat="29.5499687" lon="103.3592246"><ele>1637.32</ele><time>2026-02-14T06:12:12.000Z</time></trkpt>
        <trkpt lat="29.5500662" lon="103.3591579"><ele>1641.18</ele><time>2026-02-14T06:12:26.000Z</time></trkpt>
        <trkpt lat="29.5501624" lon="103.3591028"><ele>1644.57</ele><time>2026-02-14T06:12:36.000Z</time></trkpt>
        <trkpt lat="29.5502566" lon="103.3591001"><ele>1647.23</ele><time>2026-02-14T06:12:44.000Z</time></trkpt>
        <trkpt lat="29.5502974" lon="103.3590077"><ele>1650.15</ele><time>2026-02-14T06:12:54.000Z</time></trkpt>
        <trkpt lat="29.5502727" lon="103.3589014"><ele>1651.49</ele><time>2026-02-14T06:13:02.000Z</time></trkpt>
        <trkpt lat="29.5502714" lon="103.3587891"><ele>1651.32</ele><time>2026-02-14T06:13:20.000Z</time></trkpt>
        <trkpt lat="29.5502593" lon="103.3586762"><ele>1653.72</ele><time>2026-02-14T06:13:34.000Z</time></trkpt>
        <trkpt lat="29.5502683" lon="103.3585631"><ele>1655.95</ele><time>2026-02-14T06:13:46.000Z</time></trkpt>
        <trkpt lat="29.5503092" lon="103.3584655"><ele>1658.92</ele><time>2026-02-14T06:14:12.000Z</time></trkpt>
        <trkpt lat="29.5503389" lon="103.3583594"><ele>1663.84</ele><time>2026-02-14T06:14:36.000Z</time></trkpt>
        <trkpt lat="29.5503249" lon="103.3582459"><ele>1668.36</ele><time>2026-02-14T06:14:50.000Z</time></trkpt>
        <trkpt lat="29.5503084" lon="103.3581151"><ele>1670.62</ele><time>2026-02-14T06:15:00.000Z</time></trkpt>
        <trkpt lat="29.550341" lon="103.3580023"><ele>1671.74</ele><time>2026-02-14T06:15:08.000Z</time></trkpt>
        <trkpt lat="29.5503362" lon="103.3578968"><ele>1674.27</ele><time>2026-02-14T06:15:22.000Z</time></trkpt>
        <trkpt lat="29.5503646" lon="103.3577959"><ele>1676.4</ele><time>2026-02-14T06:15:38.000Z</time></trkpt>
        <trkpt lat="29.5504017" lon="103.3576953"><ele>1679.33</ele><time>2026-02-14T06:15:52.000Z</time></trkpt>
        <trkpt lat="29.5504054" lon="103.3575832"><ele>1682.6</ele><time>2026-02-14T06:16:08.000Z</time></trkpt>
        <trkpt lat="29.5503874" lon="103.3574658"><ele>1685.68</ele><time>2026-02-14T06:16:20.000Z</time></trkpt>
        <trkpt lat="29.5503943" lon="103.3573447"><ele>1686.73</ele><time>2026-02-14T06:16:30.000Z</time></trkpt>
        <trkpt lat="29.5503932" lon="103.3572282"><ele>1688.69</ele><time>2026-02-14T06:16:44.000Z</time></trkpt>
        <trkpt lat="29.5504047" lon="103.3571154"><ele>1690.97</ele><time>2026-02-14T06:17:00.000Z</time></trkpt>
        <trkpt lat="29.5503852" lon="103.3570008"><ele>1694</ele><time>2026-02-14T06:17:16.000Z</time></trkpt>
        <trkpt lat="29.5503267" lon="103.3569203"><ele>1695.78</ele><time>2026-02-14T06:17:30.000Z</time></trkpt>
        <trkpt lat="29.5502229" lon="103.356889"><ele>1697.17</ele><time>2026-02-14T06:17:40.000Z</time></trkpt>
        <trkpt lat="29.550135" lon="103.3568594"><ele>1697.43</ele><time>2026-02-14T06:17:56.000Z</time></trkpt>
        <trkpt lat="29.5501929" lon="103.3568805"><ele>1698.39</ele><time>2026-02-14T06:18:17.000Z</time></trkpt>
        <trkpt lat="29.5501569" lon="103.3568679"><ele>1698.81</ele><time>2026-02-14T06:18:45.000Z</time></trkpt>
        <trkpt lat="29.5500811" lon="103.3569045"><ele>1697.94</ele><time>2026-02-14T06:18:51.000Z</time></trkpt>
        <trkpt lat="29.549981" lon="103.3569192"><ele>1698.09</ele><time>2026-02-14T06:18:59.000Z</time></trkpt>
        <trkpt lat="29.5499041" lon="103.356915"><ele>1697.88</ele><time>2026-02-14T06:19:07.000Z</time></trkpt>
        <trkpt lat="29.5499041" lon="103.356915"><ele>1697.88</ele><time>2026-02-14T06:19:18.000Z</time></trkpt>
        <trkpt lat="29.5499906" lon="103.3569415"><ele>1697.97</ele><time>2026-02-14T06:19:38.000Z</time></trkpt>
        <trkpt lat="29.5499906" lon="103.3569415"><ele>1697.97</ele><time>2026-02-14T06:20:13.000Z</time></trkpt>
        <trkpt lat="29.5500261" lon="103.3568335"><ele>1698.45</ele><time>2026-02-14T06:20:33.000Z</time></trkpt>
        <trkpt lat="29.5499709" lon="103.3568735"><ele>1699.98</ele><time>2026-02-14T06:20:45.000Z</time></trkpt>
        <trkpt lat="29.5498861" lon="103.3569025"><ele>1700.19</ele><time>2026-02-14T06:20:59.000Z</time></trkpt>
        <trkpt lat="29.5498425" lon="103.3569207"><ele>1700.73</ele><time>2026-02-14T06:21:11.000Z</time></trkpt>
        <trkpt lat="29.5499059" lon="103.3569211"><ele>1700.85</ele><time>2026-02-14T06:21:39.000Z</time></trkpt>
        <trkpt lat="29.5499501" lon="103.3568339"><ele>1701.42</ele><time>2026-02-14T06:21:51.000Z</time></trkpt>
        <trkpt lat="29.5499668" lon="103.3567159"><ele>1700.93</ele><time>2026-02-14T06:22:01.000Z</time></trkpt>
        <trkpt lat="29.5499586" lon="103.3566019"><ele>1699.98</ele><time>2026-02-14T06:22:11.000Z</time></trkpt>
        <trkpt lat="29.5499404" lon="103.3564763"><ele>1701.2</ele><time>2026-02-14T06:22:23.000Z</time></trkpt>
        <trkpt lat="29.5499807" lon="103.3563699"><ele>1700.77</ele><time>2026-02-14T06:22:31.000Z</time></trkpt>
        <trkpt lat="29.5500016" lon="103.3563583"><ele>1700.58</ele><time>2026-02-14T06:22:35.000Z</time></trkpt>
        <trkpt lat="29.5500584" lon="103.3563125"><ele>1698.9</ele><time>2026-02-14T06:22:45.000Z</time></trkpt>
        <trkpt lat="29.5501296" lon="103.3562449"><ele>1697.97</ele><time>2026-02-14T06:22:53.000Z</time></trkpt>
        <trkpt lat="29.5500989" lon="103.35623"><ele>1696.93</ele><time>2026-02-14T06:23:03.000Z</time></trkpt>
        <trkpt lat="29.5500989" lon="103.35623"><ele>1696.93</ele><time>2026-02-14T06:23:08.000Z</time></trkpt>
        <trkpt lat="29.5501437" lon="103.3561823"><ele>1695.28</ele><time>2026-02-14T06:23:12.000Z</time></trkpt>
        <trkpt lat="29.5501437" lon="103.3561823"><ele>1695.28</ele><time>2026-02-14T06:23:13.000Z</time></trkpt>
        <trkpt lat="29.5501964" lon="103.3561049"><ele>1694.62</ele><time>2026-02-14T06:23:19.000Z</time></trkpt>
        <trkpt lat="29.5502163" lon="103.3559943"><ele>1695.37</ele><time>2026-02-14T06:23:29.000Z</time></trkpt>
        <trkpt lat="29.5502582" lon="103.3558908"><ele>1694.56</ele><time>2026-02-14T06:23:37.000Z</time></trkpt>
        <trkpt lat="29.5503224" lon="103.3557972"><ele>1694.96</ele><time>2026-02-14T06:23:47.000Z</time></trkpt>
        <trkpt lat="29.5503934" lon="103.35572"><ele>1696.65</ele><time>2026-02-14T06:23:57.000Z</time></trkpt>
        <trkpt lat="29.5504832" lon="103.3556974"><ele>1695.97</ele><time>2026-02-14T06:24:09.000Z</time></trkpt>
        <trkpt lat="29.550578" lon="103.3557175"><ele>1693.53</ele><time>2026-02-14T06:24:19.000Z</time></trkpt>
        <trkpt lat="29.5506821" lon="103.3557411"><ele>1690.5</ele><time>2026-02-14T06:24:29.000Z</time></trkpt>
        <trkpt lat="29.5507894" lon="103.3557242"><ele>1687.86</ele><time>2026-02-14T06:24:45.000Z</time></trkpt>
        <trkpt lat="29.5508754" lon="103.3556696"><ele>1683.17</ele><time>2026-02-14T06:24:53.000Z</time></trkpt>
        <trkpt lat="29.5509661" lon="103.3556345"><ele>1680.24</ele><time>2026-02-14T06:25:05.000Z</time></trkpt>
        <trkpt lat="29.5510603" lon="103.355626"><ele>1679.19</ele><time>2026-02-14T06:25:13.000Z</time></trkpt>
        <trkpt lat="29.5511326" lon="103.355569"><ele>1677.65</ele><time>2026-02-14T06:25:21.000Z</time></trkpt>
        <trkpt lat="29.551223" lon="103.3555155"><ele>1677.16</ele><time>2026-02-14T06:25:35.000Z</time></trkpt>
        <trkpt lat="29.5512828" lon="103.3554279"><ele>1676.09</ele><time>2026-02-14T06:25:53.000Z</time></trkpt>
        <trkpt lat="29.5513481" lon="103.3553494"><ele>1673.16</ele><time>2026-02-14T06:26:07.000Z</time></trkpt>
        <trkpt lat="29.5513814" lon="103.3552256"><ele>1671.95</ele><time>2026-02-14T06:26:19.000Z</time></trkpt>
        <trkpt lat="29.551438" lon="103.3551329"><ele>1671.1</ele><time>2026-02-14T06:26:35.000Z</time></trkpt>
        <trkpt lat="29.5514726" lon="103.3550318"><ele>1668.91</ele><time>2026-02-14T06:26:49.000Z</time></trkpt>
        <trkpt lat="29.5515038" lon="103.3549298"><ele>1665.93</ele><time>2026-02-14T06:26:59.000Z</time></trkpt>
        <trkpt lat="29.5515433" lon="103.3548185"><ele>1663.08</ele><time>2026-02-14T06:27:07.000Z</time></trkpt>
        <trkpt lat="29.5515887" lon="103.3547102"><ele>1661.81</ele><time>2026-02-14T06:27:17.000Z</time></trkpt>
        <trkpt lat="29.5516343" lon="103.3546105"><ele>1660.82</ele><time>2026-02-14T06:27:25.000Z</time></trkpt>
        <trkpt lat="29.55163" lon="103.3546432"><ele>1660.34</ele><time>2026-02-14T06:27:33.000Z</time></trkpt>
        <trkpt lat="29.5516686" lon="103.3545973"><ele>1655.25</ele><time>2026-02-14T06:28:13.000Z</time></trkpt>
        <trkpt lat="29.5517176" lon="103.3545147"><ele>1650.97</ele><time>2026-02-14T06:28:37.000Z</time></trkpt>
        <trkpt lat="29.5517862" lon="103.3544383"><ele>1647.43</ele><time>2026-02-14T06:28:47.000Z</time></trkpt>
        <trkpt lat="29.5518152" lon="103.3543353"><ele>1645.82</ele><time>2026-02-14T06:28:57.000Z</time></trkpt>
        <trkpt lat="29.5517876" lon="103.3542235"><ele>1644.76</ele><time>2026-02-14T06:29:09.000Z</time></trkpt>
        <trkpt lat="29.5518159" lon="103.3541199"><ele>1642.43</ele><time>2026-02-14T06:29:19.000Z</time></trkpt>
        <trkpt lat="29.5518907" lon="103.3540659"><ele>1640.03</ele><time>2026-02-14T06:29:29.000Z</time></trkpt>
        <trkpt lat="29.5519396" lon="103.3539797"><ele>1638.15</ele><time>2026-02-14T06:29:41.000Z</time></trkpt>
        <trkpt lat="29.5519154" lon="103.3538846"><ele>1637.24</ele><time>2026-02-14T06:29:51.000Z</time></trkpt>
        <trkpt lat="29.5518368" lon="103.3538282"><ele>1637.65</ele><time>2026-02-14T06:30:05.000Z</time></trkpt>
        <trkpt lat="29.5517801" lon="103.3537399"><ele>1638.22</ele><time>2026-02-14T06:30:17.000Z</time></trkpt>
        <trkpt lat="29.5516992" lon="103.3536695"><ele>1636.66</ele><time>2026-02-14T06:30:29.000Z</time></trkpt>
        <trkpt lat="29.5516445" lon="103.3535747"><ele>1634.44</ele><time>2026-02-14T06:30:43.000Z</time></trkpt>
        <trkpt lat="29.5516789" lon="103.3534847"><ele>1632.33</ele><time>2026-02-14T06:30:55.000Z</time></trkpt>
        <trkpt lat="29.5517081" lon="103.3533643"><ele>1632.36</ele><time>2026-02-14T06:31:07.000Z</time></trkpt>
        <trkpt lat="29.5517385" lon="103.3532545"><ele>1634.34</ele><time>2026-02-14T06:31:17.000Z</time></trkpt>
        <trkpt lat="29.5517754" lon="103.3531427"><ele>1632.93</ele><time>2026-02-14T06:31:29.000Z</time></trkpt>
        <trkpt lat="29.5518056" lon="103.3530271"><ele>1631.32</ele><time>2026-02-14T06:31:39.000Z</time></trkpt>
        <trkpt lat="29.5518337" lon="103.3529231"><ele>1629.13</ele><time>2026-02-14T06:31:49.000Z</time></trkpt>
        <trkpt lat="29.5518818" lon="103.3528274"><ele>1625.36</ele><time>2026-02-14T06:32:01.000Z</time></trkpt>
        <trkpt lat="29.5519351" lon="103.3527395"><ele>1621.39</ele><time>2026-02-14T06:32:13.000Z</time></trkpt>
        <trkpt lat="29.5519848" lon="103.3526386"><ele>1619.19</ele><time>2026-02-14T06:32:27.000Z</time></trkpt>
        <trkpt lat="29.5520804" lon="103.3526488"><ele>1617.97</ele><time>2026-02-14T06:33:21.000Z</time></trkpt>
        <trkpt lat="29.5521881" lon="103.3526711"><ele>1613.66</ele><time>2026-02-14T06:33:31.000Z</time></trkpt>
        <trkpt lat="29.5522218" lon="103.3525971"><ele>1609.52</ele><time>2026-02-14T06:33:59.000Z</time></trkpt>
        <trkpt lat="29.5522221" lon="103.352484"><ele>1604.44</ele><time>2026-02-14T06:34:17.000Z</time></trkpt>
        <trkpt lat="29.5522459" lon="103.352377"><ele>1602.09</ele><time>2026-02-14T06:34:37.000Z</time></trkpt>
        <trkpt lat="29.5522123" lon="103.3522707"><ele>1598.5</ele><time>2026-02-14T06:34:57.000Z</time></trkpt>
        <trkpt lat="29.5522655" lon="103.352245"><ele>1594.62</ele><time>2026-02-14T06:35:09.000Z</time></trkpt>
        <trkpt lat="29.5522655" lon="103.352245"><ele>1594.62</ele><time>2026-02-14T06:35:58.000Z</time></trkpt>
        <trkpt lat="29.5522655" lon="103.352245"><ele>1594.62</ele><time>2026-02-14T06:36:08.000Z</time></trkpt>
        <trkpt lat="29.5522655" lon="103.352245"><ele>1594.62</ele><time>2026-02-14T06:36:42.000Z</time></trkpt>
        <trkpt lat="29.5522655" lon="103.352245"><ele>1594.62</ele><time>2026-02-14T06:37:56.000Z</time></trkpt>
        <trkpt lat="29.5522655" lon="103.352245"><ele>1594.62</ele><time>2026-02-14T06:39:04.000Z</time></trkpt>
        <trkpt lat="29.5523723" lon="103.3522426"><ele>1589.07</ele><time>2026-02-14T06:39:10.000Z</time></trkpt>
        <trkpt lat="29.5523723" lon="103.3522426"><ele>1589.07</ele><time>2026-02-14T06:40:09.000Z</time></trkpt>
        <trkpt lat="29.5523677" lon="103.3522462"><ele>1584.63</ele><time>2026-02-14T06:40:11.000Z</time></trkpt>
        <trkpt lat="29.5523677" lon="103.3522462"><ele>1584.63</ele><time>2026-02-14T06:40:26.000Z</time></trkpt>
        <trkpt lat="29.5523677" lon="103.3522462"><ele>1584.63</ele><time>2026-02-14T06:40:44.000Z</time></trkpt>
        <trkpt lat="29.5523677" lon="103.3522462"><ele>1584.63</ele><time>2026-02-14T06:41:18.000Z</time></trkpt>
        <trkpt lat="29.5522701" lon="103.3522587"><ele>1582.24</ele><time>2026-02-14T06:42:04.000Z</time></trkpt>
        <trkpt lat="29.5522701" lon="103.3522587"><ele>1582.24</ele><time>2026-02-14T06:42:09.000Z</time></trkpt>
        <trkpt lat="29.5522705" lon="103.352257"><ele>1578.74</ele><time>2026-02-14T06:42:11.000Z</time></trkpt>
        <trkpt lat="29.5522705" lon="103.352257"><ele>1578.74</ele><time>2026-02-14T06:42:22.000Z</time></trkpt>
        <trkpt lat="29.5522705" lon="103.352257"><ele>1578.74</ele><time>2026-02-14T06:43:24.000Z</time></trkpt>
        <trkpt lat="29.5522705" lon="103.352257"><ele>1578.74</ele><time>2026-02-14T06:43:40.000Z</time></trkpt>
        <trkpt lat="29.5522705" lon="103.352257"><ele>1578.74</ele><time>2026-02-14T06:43:52.000Z</time></trkpt>
        <trkpt lat="29.5522705" lon="103.352257"><ele>1578.74</ele><time>2026-02-14T06:44:08.000Z</time></trkpt>
        <trkpt lat="29.5522812" lon="103.3523667"><ele>1576.75</ele><time>2026-02-14T06:44:18.000Z</time></trkpt>
        <trkpt lat="29.5522812" lon="103.3523667"><ele>1576.75</ele><time>2026-02-14T06:44:23.000Z</time></trkpt>
        <trkpt lat="29.5523019" lon="103.3522392"><ele>1576.43</ele><time>2026-02-14T06:44:41.000Z</time></trkpt>
        <trkpt lat="29.5523019" lon="103.3522392"><ele>1576.43</ele><time>2026-02-14T06:45:02.000Z</time></trkpt>
        <trkpt lat="29.5523387" lon="103.3521393"><ele>1574.69</ele><time>2026-02-14T06:45:12.000Z</time></trkpt>
        <trkpt lat="29.5523387" lon="103.3521393"><ele>1574.69</ele><time>2026-02-14T06:45:21.000Z</time></trkpt>
        <trkpt lat="29.5523567" lon="103.3521045"><ele>1574.41</ele><time>2026-02-14T06:45:23.000Z</time></trkpt>
        <trkpt lat="29.5523567" lon="103.3521045"><ele>1574.41</ele><time>2026-02-14T06:45:30.000Z</time></trkpt>
        <trkpt lat="29.5523224" lon="103.3521721"><ele>1574.35</ele><time>2026-02-14T06:45:46.000Z</time></trkpt>
        <trkpt lat="29.5523224" lon="103.3521721"><ele>1574.35</ele><time>2026-02-14T06:46:05.000Z</time></trkpt>
        <trkpt lat="29.5523224" lon="103.3521721"><ele>1574.35</ele><time>2026-02-14T06:46:40.000Z</time></trkpt>
        <trkpt lat="29.5523224" lon="103.3521721"><ele>1574.35</ele><time>2026-02-14T06:46:48.000Z</time></trkpt>
        <trkpt lat="29.5523224" lon="103.3521721"><ele>1574.35</ele><time>2026-02-14T06:47:10.000Z</time></trkpt>
        <trkpt lat="29.5523224" lon="103.3521721"><ele>1574.35</ele><time>2026-02-14T06:47:22.000Z</time></trkpt>
        <trkpt lat="29.5523224" lon="103.3521721"><ele>1574.35</ele><time>2026-02-14T06:47:40.000Z</time></trkpt>
        <trkpt lat="29.5523826" lon="103.3522866"><ele>1573.78</ele><time>2026-02-14T06:48:00.000Z</time></trkpt>
        <trkpt lat="29.5523826" lon="103.3522866"><ele>1573.78</ele><time>2026-02-14T06:48:21.000Z</time></trkpt>
        <trkpt lat="29.5523246" lon="103.3524028"><ele>1574.8</ele><time>2026-02-14T06:48:27.000Z</time></trkpt>
        <trkpt lat="29.5523211" lon="103.3525156"><ele>1575.81</ele><time>2026-02-14T06:48:33.000Z</time></trkpt>
        <trkpt lat="29.5523877" lon="103.3525938"><ele>1576.73</ele><time>2026-02-14T06:48:43.000Z</time></trkpt>
        <trkpt lat="29.5524783" lon="103.352646"><ele>1581.24</ele><time>2026-02-14T06:48:59.000Z</time></trkpt>
        <trkpt lat="29.5525505" lon="103.3525905"><ele>1587.18</ele><time>2026-02-14T06:49:05.000Z</time></trkpt>
        <trkpt lat="29.5525959" lon="103.3524848"><ele>1589.57</ele><time>2026-02-14T06:49:21.000Z</time></trkpt>
        <trkpt lat="29.5526436" lon="103.3523593"><ele>1589.63</ele><time>2026-02-14T06:49:35.000Z</time></trkpt>
        <trkpt lat="29.552668" lon="103.3523239"><ele>1588.91</ele><time>2026-02-14T06:49:43.000Z</time></trkpt>
        <trkpt lat="29.5527002" lon="103.3524033"><ele>1588.36</ele><time>2026-02-14T06:49:51.000Z</time></trkpt>
        <trkpt lat="29.5527653" lon="103.3524809"><ele>1591.3</ele><time>2026-02-14T06:50:01.000Z</time></trkpt>
        <trkpt lat="29.5527687" lon="103.3524651"><ele>1593.63</ele><time>2026-02-14T06:50:03.000Z</time></trkpt>
        <trkpt lat="29.5528268" lon="103.3524953"><ele>1592.76</ele><time>2026-02-14T06:50:27.000Z</time></trkpt>
        <trkpt lat="29.5528905" lon="103.3525671"><ele>1594.66</ele><time>2026-02-14T06:50:39.000Z</time></trkpt>
        <trkpt lat="29.5529171" lon="103.3526718"><ele>1598.04</ele><time>2026-02-14T06:50:57.000Z</time></trkpt>
        <trkpt lat="29.5529429" lon="103.3526792"><ele>1601.22</ele><time>2026-02-14T06:51:05.000Z</time></trkpt>
        <trkpt lat="29.5529959" lon="103.3527365"><ele>1598.88</ele><time>2026-02-14T06:51:31.000Z</time></trkpt>
        <trkpt lat="29.5530797" lon="103.3527519"><ele>1600.02</ele><time>2026-02-14T06:51:41.000Z</time></trkpt>
        <trkpt lat="29.5531721" lon="103.3527399"><ele>1599.81</ele><time>2026-02-14T06:51:49.000Z</time></trkpt>
        <trkpt lat="29.5532667" lon="103.3527025"><ele>1599.24</ele><time>2026-02-14T06:52:03.000Z</time></trkpt>
        <trkpt lat="29.5533526" lon="103.3526478"><ele>1597.2</ele><time>2026-02-14T06:52:15.000Z</time></trkpt>
        <trkpt lat="29.5534455" lon="103.3525951"><ele>1595.74</ele><time>2026-02-14T06:52:33.000Z</time></trkpt>
        <trkpt lat="29.5535376" lon="103.3525705"><ele>1593.02</ele><time>2026-02-14T06:52:47.000Z</time></trkpt>
        <trkpt lat="29.5536463" lon="103.3525506"><ele>1590.85</ele><time>2026-02-14T06:53:05.000Z</time></trkpt>
        <trkpt lat="29.5537421" lon="103.352504"><ele>1590.21</ele><time>2026-02-14T06:53:15.000Z</time></trkpt>
        <trkpt lat="29.5538335" lon="103.3524665"><ele>1589.51</ele><time>2026-02-14T06:53:33.000Z</time></trkpt>
        <trkpt lat="29.5538662" lon="103.3525405"><ele>1588.1</ele><time>2026-02-14T06:53:49.000Z</time></trkpt>
        <trkpt lat="29.5538662" lon="103.3525405"><ele>1588.1</ele><time>2026-02-14T06:54:12.000Z</time></trkpt>
        <trkpt lat="29.5539036" lon="103.3526433"><ele>1590.18</ele><time>2026-02-14T06:54:14.000Z</time></trkpt>
        <trkpt lat="29.5539036" lon="103.3526433"><ele>1590.18</ele><time>2026-02-14T06:54:42.000Z</time></trkpt>
        <trkpt lat="29.5539766" lon="103.3527081"><ele>1592.64</ele><time>2026-02-14T06:54:54.000Z</time></trkpt>
        <trkpt lat="29.5540563" lon="103.3526816"><ele>1594.43</ele><time>2026-02-14T06:55:04.000Z</time></trkpt>
        <trkpt lat="29.5541468" lon="103.3526537"><ele>1594.3</ele><time>2026-02-14T06:55:18.000Z</time></trkpt>
        <trkpt lat="29.5542355" lon="103.3526874"><ele>1592.58</ele><time>2026-02-14T06:55:36.000Z</time></trkpt>
        <trkpt lat="29.5543266" lon="103.3527318"><ele>1593.43</ele><time>2026-02-14T06:55:48.000Z</time></trkpt>
        <trkpt lat="29.5544288" lon="103.3527514"><ele>1595.43</ele><time>2026-02-14T06:56:04.000Z</time></trkpt>
        <trkpt lat="29.5544731" lon="103.3528474"><ele>1596.52</ele><time>2026-02-14T06:56:24.000Z</time></trkpt>
        <trkpt lat="29.5544679" lon="103.3529598"><ele>1599.81</ele><time>2026-02-14T06:56:40.000Z</time></trkpt>
        <trkpt lat="29.5544827" lon="103.3530746"><ele>1601.87</ele><time>2026-02-14T06:57:06.000Z</time></trkpt>
        <trkpt lat="29.5545503" lon="103.3531583"><ele>1602.35</ele><time>2026-02-14T06:58:12.000Z</time></trkpt>
        <trkpt lat="29.5546223" lon="103.3532369"><ele>1602.71</ele><time>2026-02-14T06:58:38.000Z</time></trkpt>
        <trkpt lat="29.5546174" lon="103.353335"><ele>1603.43</ele><time>2026-02-14T06:58:52.000Z</time></trkpt>
        <trkpt lat="29.5546434" lon="103.3534302"><ele>1606.75</ele><time>2026-02-14T06:59:16.000Z</time></trkpt>
        <trkpt lat="29.554648" lon="103.3535365"><ele>1608.75</ele><time>2026-02-14T06:59:36.000Z</time></trkpt>
        <trkpt lat="29.5546449" lon="103.3536438"><ele>1610.86</ele><time>2026-02-14T06:59:52.000Z</time></trkpt>
        <trkpt lat="29.5547092" lon="103.3536902"><ele>1612.61</ele><time>2026-02-14T07:00:02.000Z</time></trkpt>
        <trkpt lat="29.5547959" lon="103.3537216"><ele>1613.01</ele><time>2026-02-14T07:00:12.000Z</time></trkpt>
        <trkpt lat="29.5548943" lon="103.3537205"><ele>1613.06</ele><time>2026-02-14T07:00:24.000Z</time></trkpt>
        <trkpt lat="29.5548943" lon="103.3537205"><ele>1613.06</ele><time>2026-02-14T07:01:10.000Z</time></trkpt>
        <trkpt lat="29.5549657" lon="103.3536106"><ele>1613.04</ele><time>2026-02-14T07:02:06.000Z</time></trkpt>
        <trkpt lat="29.5549657" lon="103.3536106"><ele>1613.04</ele><time>2026-02-14T07:02:13.000Z</time></trkpt>
        <trkpt lat="29.555021" lon="103.3535269"><ele>1611.8</ele><time>2026-02-14T07:03:07.000Z</time></trkpt>
        <trkpt lat="29.5550744" lon="103.3534306"><ele>1608.9</ele><time>2026-02-14T07:03:33.000Z</time></trkpt>
        <trkpt lat="29.5550744" lon="103.3534306"><ele>1608.9</ele><time>2026-02-14T07:03:58.000Z</time></trkpt>
        <trkpt lat="29.5551629" lon="103.3533811"><ele>1602.91</ele><time>2026-02-14T07:04:18.000Z</time></trkpt>
        <trkpt lat="29.5551629" lon="103.3533811"><ele>1602.91</ele><time>2026-02-14T07:04:27.000Z</time></trkpt>
        <trkpt lat="29.5551629" lon="103.3533811"><ele>1602.91</ele><time>2026-02-14T07:04:54.000Z</time></trkpt>
        <trkpt lat="29.5552614" lon="103.3533614"><ele>1601.3</ele><time>2026-02-14T07:05:06.000Z</time></trkpt>
        <trkpt lat="29.5552614" lon="103.3533614"><ele>1601.3</ele><time>2026-02-14T07:05:09.000Z</time></trkpt>
        <trkpt lat="29.5553647" lon="103.3533461"><ele>1598.03</ele><time>2026-02-14T07:05:21.000Z</time></trkpt>
        <trkpt lat="29.555461" lon="103.3533459"><ele>1596.12</ele><time>2026-02-14T07:05:33.000Z</time></trkpt>
        <trkpt lat="29.5555546" lon="103.3533559"><ele>1595.53</ele><time>2026-02-14T07:05:51.000Z</time></trkpt>
        <trkpt lat="29.5556375" lon="103.3533106"><ele>1594.74</ele><time>2026-02-14T07:06:05.000Z</time></trkpt>
        <trkpt lat="29.5557309" lon="103.3533125"><ele>1591.89</ele><time>2026-02-14T07:06:29.000Z</time></trkpt>
        <trkpt lat="29.5558179" lon="103.3533655"><ele>1590.49</ele><time>2026-02-14T07:06:41.000Z</time></trkpt>
        <trkpt lat="29.5559006" lon="103.3534221"><ele>1589.9</ele><time>2026-02-14T07:06:51.000Z</time></trkpt>
        <trkpt lat="29.5559831" lon="103.3534922"><ele>1589.81</ele><time>2026-02-14T07:07:01.000Z</time></trkpt>
        <trkpt lat="29.5560721" lon="103.3535357"><ele>1589.97</ele><time>2026-02-14T07:07:15.000Z</time></trkpt>
        <trkpt lat="29.5561705" lon="103.3535213"><ele>1590.46</ele><time>2026-02-14T07:07:31.000Z</time></trkpt>
        <trkpt lat="29.5562672" lon="103.3534851"><ele>1592.2</ele><time>2026-02-14T07:08:01.000Z</time></trkpt>
        <trkpt lat="29.5563226" lon="103.3533905"><ele>1593.07</ele><time>2026-02-14T07:08:33.000Z</time></trkpt>
        <trkpt lat="29.5563633" lon="103.3532803"><ele>1593.05</ele><time>2026-02-14T07:08:43.000Z</time></trkpt>
        <trkpt lat="29.5564312" lon="103.3532141"><ele>1593.48</ele><time>2026-02-14T07:08:57.000Z</time></trkpt>
        <trkpt lat="29.5565033" lon="103.3531354"><ele>1593.33</ele><time>2026-02-14T07:09:13.000Z</time></trkpt>
        <trkpt lat="29.5565664" lon="103.3530466"><ele>1591</ele><time>2026-02-14T07:09:25.000Z</time></trkpt>
        <trkpt lat="29.5566473" lon="103.3529808"><ele>1589.79</ele><time>2026-02-14T07:09:43.000Z</time></trkpt>
        <trkpt lat="29.5567426" lon="103.3529438"><ele>1589.85</ele><time>2026-02-14T07:09:57.000Z</time></trkpt>
        <trkpt lat="29.5567956" lon="103.3528879"><ele>1589.7</ele><time>2026-02-14T07:10:21.000Z</time></trkpt>
        <trkpt lat="29.5568541" lon="103.3528169"><ele>1587.3</ele><time>2026-02-14T07:10:43.000Z</time></trkpt>
        <trkpt lat="29.5568892" lon="103.3527197"><ele>1586.42</ele><time>2026-02-14T07:11:03.000Z</time></trkpt>
        <trkpt lat="29.5569272" lon="103.3526171"><ele>1585.94</ele><time>2026-02-14T07:11:47.000Z</time></trkpt>
        <trkpt lat="29.5570024" lon="103.3525447"><ele>1581.56</ele><time>2026-02-14T07:12:03.000Z</time></trkpt>
        <trkpt lat="29.5570849" lon="103.3524772"><ele>1579.1</ele><time>2026-02-14T07:12:19.000Z</time></trkpt>
        <trkpt lat="29.5571806" lon="103.3524289"><ele>1577.81</ele><time>2026-02-14T07:12:37.000Z</time></trkpt>
        <trkpt lat="29.5571898" lon="103.3524127"><ele>1577.61</ele><time>2026-02-14T07:12:41.000Z</time></trkpt>
        <trkpt lat="29.5572226" lon="103.352349"><ele>1576.26</ele><time>2026-02-14T07:13:19.000Z</time></trkpt>
        <trkpt lat="29.5572752" lon="103.3522727"><ele>1573.26</ele><time>2026-02-14T07:13:45.000Z</time></trkpt>
        <trkpt lat="29.5573238" lon="103.3521709"><ele>1569.83</ele><time>2026-02-14T07:14:05.000Z</time></trkpt>
        <trkpt lat="29.5573977" lon="103.3521069"><ele>1565.87</ele><time>2026-02-14T07:14:21.000Z</time></trkpt>
        <trkpt lat="29.557456" lon="103.3520252"><ele>1564.08</ele><time>2026-02-14T07:14:49.000Z</time></trkpt>
        <trkpt lat="29.5575136" lon="103.3519315"><ele>1564.31</ele><time>2026-02-14T07:15:05.000Z</time></trkpt>
        <trkpt lat="29.5574947" lon="103.3518343"><ele>1563.48</ele><time>2026-02-14T07:15:21.000Z</time></trkpt>
        <trkpt lat="29.5575052" lon="103.3517272"><ele>1561.76</ele><time>2026-02-14T07:15:47.000Z</time></trkpt>
        <trkpt lat="29.5575701" lon="103.3516558"><ele>1558.79</ele><time>2026-02-14T07:16:09.000Z</time></trkpt>
        <trkpt lat="29.5576017" lon="103.351646"><ele>1559.27</ele><time>2026-02-14T07:16:19.000Z</time></trkpt>
        <trkpt lat="29.557592" lon="103.3515744"><ele>1558.54</ele><time>2026-02-14T07:17:01.000Z</time></trkpt>
        <trkpt lat="29.5575577" lon="103.3514763"><ele>1551.04</ele><time>2026-02-14T07:17:13.000Z</time></trkpt>
        <trkpt lat="29.5575577" lon="103.3514763"><ele>1551.04</ele><time>2026-02-14T07:17:40.000Z</time></trkpt>
        <trkpt lat="29.5575874" lon="103.3515532"><ele>1545.39</ele><time>2026-02-14T07:17:42.000Z</time></trkpt>
        <trkpt lat="29.5575874" lon="103.3515532"><ele>1545.39</ele><time>2026-02-14T07:18:15.000Z</time></trkpt>
        <trkpt lat="29.5575874" lon="103.3515532"><ele>1545.39</ele><time>2026-02-14T07:18:30.000Z</time></trkpt>
        <trkpt lat="29.5576411" lon="103.3514693"><ele>1543.53</ele><time>2026-02-14T07:18:54.000Z</time></trkpt>
        <trkpt lat="29.5576411" lon="103.3514693"><ele>1543.53</ele><time>2026-02-14T07:19:07.000Z</time></trkpt>
        <trkpt lat="29.5577219" lon="103.3514278"><ele>1542.71</ele><time>2026-02-14T07:19:23.000Z</time></trkpt>
        <trkpt lat="29.5577219" lon="103.3514278"><ele>1542.71</ele><time>2026-02-14T07:19:58.000Z</time></trkpt>
        <trkpt lat="29.557889" lon="103.3515161"><ele>1541.27</ele><time>2026-02-14T07:20:06.000Z</time></trkpt>
        <trkpt lat="29.557889" lon="103.3515161"><ele>1541.27</ele><time>2026-02-14T07:20:21.000Z</time></trkpt>
        <trkpt lat="29.5579808" lon="103.351547"><ele>1544.98</ele><time>2026-02-14T07:20:45.000Z</time></trkpt>
        <trkpt lat="29.5580751" lon="103.3515478"><ele>1547.82</ele><time>2026-02-14T07:21:07.000Z</time></trkpt>
        <trkpt lat="29.5581667" lon="103.3515318"><ele>1548.36</ele><time>2026-02-14T07:21:21.000Z</time></trkpt>
        <trkpt lat="29.5582362" lon="103.3514607"><ele>1548.18</ele><time>2026-02-14T07:21:47.000Z</time></trkpt>
        <trkpt lat="29.5583197" lon="103.351417"><ele>1546.3</ele><time>2026-02-14T07:22:03.000Z</time></trkpt>
        <trkpt lat="29.5584029" lon="103.3513683"><ele>1544.55</ele><time>2026-02-14T07:22:15.000Z</time></trkpt>
        <trkpt lat="29.5584398" lon="103.3513481"><ele>1543.47</ele><time>2026-02-14T07:22:23.000Z</time></trkpt>
        <trkpt lat="29.5584398" lon="103.3513481"><ele>1543.47</ele><time>2026-02-14T07:22:38.000Z</time></trkpt>
        <trkpt lat="29.5585181" lon="103.3513228"><ele>1542.67</ele><time>2026-02-14T07:22:44.000Z</time></trkpt>
        <trkpt lat="29.5585181" lon="103.3513228"><ele>1542.67</ele><time>2026-02-14T07:23:01.000Z</time></trkpt>
        <trkpt lat="29.5585997" lon="103.3512793"><ele>1540.95</ele><time>2026-02-14T07:23:19.000Z</time></trkpt>
        <trkpt lat="29.5586758" lon="103.3512191"><ele>1542.91</ele><time>2026-02-14T07:23:53.000Z</time></trkpt>
        <trkpt lat="29.5587546" lon="103.3511653"><ele>1542.56</ele><time>2026-02-14T07:24:09.000Z</time></trkpt>
        <trkpt lat="29.5587546" lon="103.3511653"><ele>1542.56</ele><time>2026-02-14T07:24:38.000Z</time></trkpt>
        <trkpt lat="29.5587546" lon="103.3511653"><ele>1542.56</ele><time>2026-02-14T07:24:44.000Z</time></trkpt>
        <trkpt lat="29.5587546" lon="103.3511653"><ele>1542.56</ele><time>2026-02-14T07:25:02.000Z</time></trkpt>
        <trkpt lat="29.5588347" lon="103.351094"><ele>1541.78</ele><time>2026-02-14T07:25:04.000Z</time></trkpt>
        <trkpt lat="29.5588347" lon="103.351094"><ele>1541.78</ele><time>2026-02-14T07:25:13.000Z</time></trkpt>
        <trkpt lat="29.5589356" lon="103.3510657"><ele>1537.36</ele><time>2026-02-14T07:25:29.000Z</time></trkpt>
        <trkpt lat="29.5589979" lon="103.3509883"><ele>1537.24</ele><time>2026-02-14T07:25:49.000Z</time></trkpt>
        <trkpt lat="29.5590228" lon="103.35089"><ele>1537.82</ele><time>2026-02-14T07:26:11.000Z</time></trkpt>
        <trkpt lat="29.5590275" lon="103.3508663"><ele>1536.72</ele><time>2026-02-14T07:26:15.000Z</time></trkpt>
        <trkpt lat="29.5590865" lon="103.3508297"><ele>1535.46</ele><time>2026-02-14T07:26:31.000Z</time></trkpt>
        <trkpt lat="29.5591593" lon="103.3507729"><ele>1535.45</ele><time>2026-02-14T07:27:01.000Z</time></trkpt>
        <trkpt lat="29.5592491" lon="103.3507587"><ele>1535.84</ele><time>2026-02-14T07:27:11.000Z</time></trkpt>
        <trkpt lat="29.5592491" lon="103.3507587"><ele>1535.84</ele><time>2026-02-14T07:27:32.000Z</time></trkpt>
        <trkpt lat="29.5593449" lon="103.3507274"><ele>1535.15</ele><time>2026-02-14T07:27:54.000Z</time></trkpt>
        <trkpt lat="29.5593449" lon="103.3507274"><ele>1535.15</ele><time>2026-02-14T07:28:09.000Z</time></trkpt>
        <trkpt lat="29.5594034" lon="103.3506479"><ele>1531.62</ele><time>2026-02-14T07:28:29.000Z</time></trkpt>
        <trkpt lat="29.5594799" lon="103.3505883"><ele>1531.12</ele><time>2026-02-14T07:28:51.000Z</time></trkpt>
        <trkpt lat="29.5595669" lon="103.3505634"><ele>1531.85</ele><time>2026-02-14T07:29:03.000Z</time></trkpt>
        <trkpt lat="29.5596246" lon="103.3504883"><ele>1530.92</ele><time>2026-02-14T07:29:21.000Z</time></trkpt>
        <trkpt lat="29.5596938" lon="103.3504239"><ele>1529.03</ele><time>2026-02-14T07:29:43.000Z</time></trkpt>
        <trkpt lat="29.5597745" lon="103.350379"><ele>1529.3</ele><time>2026-02-14T07:30:07.000Z</time></trkpt>
        <trkpt lat="29.5598523" lon="103.3503266"><ele>1530.47</ele><time>2026-02-14T07:30:31.000Z</time></trkpt>
        <trkpt lat="29.5599391" lon="103.350339"><ele>1532.03</ele><time>2026-02-14T07:31:27.000Z</time></trkpt>
        <trkpt lat="29.5600193" lon="103.3503954"><ele>1536.18</ele><time>2026-02-14T07:32:01.000Z</time></trkpt>
        <trkpt lat="29.560084" lon="103.3504983"><ele>1540.03</ele><time>2026-02-14T07:35:01.000Z</time></trkpt>
        <trkpt lat="29.5601544" lon="103.3505643"><ele>1545.58</ele><time>2026-02-14T07:35:59.000Z</time></trkpt>
        <trkpt lat="29.560234" lon="103.3506254"><ele>1549.5</ele><time>2026-02-14T07:36:19.000Z</time></trkpt>
        <trkpt lat="29.5602853" lon="103.3507242"><ele>1552.89</ele><time>2026-02-14T07:37:05.000Z</time></trkpt>
        <trkpt lat="29.5602437" lon="103.3508107"><ele>1559.32</ele><time>2026-02-14T07:37:27.000Z</time></trkpt>
        <trkpt lat="29.5602389" lon="103.3509115"><ele>1564.32</ele><time>2026-02-14T07:37:57.000Z</time></trkpt>
        <trkpt lat="29.5602389" lon="103.3509115"><ele>1564.32</ele><time>2026-02-14T07:38:20.000Z</time></trkpt>
        <trkpt lat="29.5602389" lon="103.3509115"><ele>1564.32</ele><time>2026-02-14T07:38:50.000Z</time></trkpt>
        <trkpt lat="29.5602389" lon="103.3509115"><ele>1564.32</ele><time>2026-02-14T07:39:10.000Z</time></trkpt>
        <trkpt lat="29.5602503" lon="103.3510298"><ele>1570.68</ele><time>2026-02-14T07:39:12.000Z</time></trkpt>
        <trkpt lat="29.5602503" lon="103.3510298"><ele>1570.68</ele><time>2026-02-14T07:40:23.000Z</time></trkpt>
        <trkpt lat="29.5602148" lon="103.3511275"><ele>1577.29</ele><time>2026-02-14T07:40:35.000Z</time></trkpt>
        <trkpt lat="29.5602889" lon="103.3511386"><ele>1582.29</ele><time>2026-02-14T07:40:59.000Z</time></trkpt>
        <trkpt lat="29.5603848" lon="103.3511278"><ele>1586.75</ele><time>2026-02-14T07:41:33.000Z</time></trkpt>
        <trkpt lat="29.560481" lon="103.3510841"><ele>1590.4</ele><time>2026-02-14T07:42:03.000Z</time></trkpt>
        <trkpt lat="29.5605362" lon="103.3511397"><ele>1595.59</ele><time>2026-02-14T07:42:33.000Z</time></trkpt>
        <trkpt lat="29.5606173" lon="103.3511413"><ele>1601.52</ele><time>2026-02-14T07:43:09.000Z</time></trkpt>
        <trkpt lat="29.5606056" lon="103.3512073"><ele>1608.39</ele><time>2026-02-14T07:43:35.000Z</time></trkpt>
        <trkpt lat="29.5606056" lon="103.3512073"><ele>1608.39</ele><time>2026-02-14T07:44:08.000Z</time></trkpt>
        <trkpt lat="29.5605397" lon="103.3512814"><ele>1612.92</ele><time>2026-02-14T07:44:10.000Z</time></trkpt>
        <trkpt lat="29.5605397" lon="103.3512814"><ele>1612.92</ele><time>2026-02-14T07:44:29.000Z</time></trkpt>
        <trkpt lat="29.5605397" lon="103.3512814"><ele>1612.92</ele><time>2026-02-14T07:44:46.000Z</time></trkpt>
        <trkpt lat="29.5605764" lon="103.3512749"><ele>1619.95</ele><time>2026-02-14T07:45:00.000Z</time></trkpt>
        <trkpt lat="29.5605764" lon="103.3512749"><ele>1619.95</ele><time>2026-02-14T07:45:19.000Z</time></trkpt>
        <trkpt lat="29.5605764" lon="103.3512749"><ele>1619.95</ele><time>2026-02-14T07:45:52.000Z</time></trkpt>
        <trkpt lat="29.5605764" lon="103.3512749"><ele>1619.95</ele><time>2026-02-14T07:46:08.000Z</time></trkpt>
        <trkpt lat="29.5605764" lon="103.3512749"><ele>1619.95</ele><time>2026-02-14T07:46:40.000Z</time></trkpt>
        <trkpt lat="29.5605764" lon="103.3512749"><ele>1619.95</ele><time>2026-02-14T07:46:44.000Z</time></trkpt>
        <trkpt lat="29.5605764" lon="103.3512749"><ele>1619.95</ele><time>2026-02-14T07:47:00.000Z</time></trkpt>
        <trkpt lat="29.5606766" lon="103.3512979"><ele>1623.45</ele><time>2026-02-14T07:47:10.000Z</time></trkpt>
        <trkpt lat="29.5606766" lon="103.3512979"><ele>1623.45</ele><time>2026-02-14T07:47:25.000Z</time></trkpt>
        <trkpt lat="29.560606" lon="103.3513622"><ele>1627.32</ele><time>2026-02-14T07:48:29.000Z</time></trkpt>
        <trkpt lat="29.560551" lon="103.351453"><ele>1633.25</ele><time>2026-02-14T07:49:01.000Z</time></trkpt>
        <trkpt lat="29.5604887" lon="103.3515322"><ele>1637.13</ele><time>2026-02-14T07:49:39.000Z</time></trkpt>
        <trkpt lat="29.5605331" lon="103.3515942"><ele>1640.54</ele><time>2026-02-14T07:50:19.000Z</time></trkpt>
        <trkpt lat="29.5605331" lon="103.3515942"><ele>1640.54</ele><time>2026-02-14T07:50:52.000Z</time></trkpt>
        <trkpt lat="29.5605331" lon="103.3515942"><ele>1640.54</ele><time>2026-02-14T07:50:54.000Z</time></trkpt>
        <trkpt lat="29.5605331" lon="103.3515942"><ele>1640.54</ele><time>2026-02-14T07:51:30.000Z</time></trkpt>
        <trkpt lat="29.560516" lon="103.3516793"><ele>1644.76</ele><time>2026-02-14T07:51:50.000Z</time></trkpt>
        <trkpt lat="29.560516" lon="103.3516793"><ele>1644.76</ele><time>2026-02-14T07:51:55.000Z</time></trkpt>
        <trkpt lat="29.560516" lon="103.3516793"><ele>1644.76</ele><time>2026-02-14T07:52:24.000Z</time></trkpt>
        <trkpt lat="29.5605949" lon="103.3516144"><ele>1648.09</ele><time>2026-02-14T07:52:26.000Z</time></trkpt>
        <trkpt lat="29.5605949" lon="103.3516144"><ele>1648.09</ele><time>2026-02-14T07:52:33.000Z</time></trkpt>
        <trkpt lat="29.5606434" lon="103.3515272"><ele>1652.68</ele><time>2026-02-14T07:53:01.000Z</time></trkpt>
        <trkpt lat="29.5607197" lon="103.351481"><ele>1656.82</ele><time>2026-02-14T07:53:19.000Z</time></trkpt>
        <trkpt lat="29.5607908" lon="103.3515255"><ele>1659.37</ele><time>2026-02-14T07:53:41.000Z</time></trkpt>
        <trkpt lat="29.5608739" lon="103.3515143"><ele>1661.56</ele><time>2026-02-14T07:54:05.000Z</time></trkpt>
        <trkpt lat="29.560955" lon="103.3515672"><ele>1663.52</ele><time>2026-02-14T07:54:19.000Z</time></trkpt>
        <trkpt lat="29.5610448" lon="103.3515892"><ele>1664.37</ele><time>2026-02-14T07:54:33.000Z</time></trkpt>
        <trkpt lat="29.5610448" lon="103.3515892"><ele>1664.37</ele><time>2026-02-14T07:54:50.000Z</time></trkpt>
        <trkpt lat="29.5611439" lon="103.3516152"><ele>1664.97</ele><time>2026-02-14T07:54:52.000Z</time></trkpt>
        <trkpt lat="29.5611439" lon="103.3516152"><ele>1664.97</ele><time>2026-02-14T07:55:07.000Z</time></trkpt>
        <trkpt lat="29.5612403" lon="103.3516269"><ele>1664.54</ele><time>2026-02-14T07:55:19.000Z</time></trkpt>
        <trkpt lat="29.5612403" lon="103.3516269"><ele>1664.54</ele><time>2026-02-14T07:55:34.000Z</time></trkpt>
        <trkpt lat="29.5613295" lon="103.3516731"><ele>1664.12</ele><time>2026-02-14T07:55:46.000Z</time></trkpt>
        <trkpt lat="29.5613295" lon="103.3516731"><ele>1664.12</ele><time>2026-02-14T07:56:21.000Z</time></trkpt>
        <trkpt lat="29.5613295" lon="103.3516731"><ele>1664.12</ele><time>2026-02-14T07:56:48.000Z</time></trkpt>
        <trkpt lat="29.5614155" lon="103.3517301"><ele>1665.73</ele><time>2026-02-14T07:57:02.000Z</time></trkpt>
        <trkpt lat="29.5614155" lon="103.3517301"><ele>1665.73</ele><time>2026-02-14T07:57:41.000Z</time></trkpt>
        <trkpt lat="29.5614611" lon="103.3517616"><ele>1669.43</ele><time>2026-02-14T07:58:05.000Z</time></trkpt>
        <trkpt lat="29.5614611" lon="103.3517616"><ele>1669.43</ele><time>2026-02-14T07:58:14.000Z</time></trkpt>
        <trkpt lat="29.5613992" lon="103.3518057"><ele>1673.19</ele><time>2026-02-14T07:58:30.000Z</time></trkpt>
        <trkpt lat="29.5613992" lon="103.3518057"><ele>1673.19</ele><time>2026-02-14T07:58:55.000Z</time></trkpt>
        <trkpt lat="29.5613992" lon="103.3518057"><ele>1673.19</ele><time>2026-02-14T07:59:18.000Z</time></trkpt>
        <trkpt lat="29.5613768" lon="103.3519124"><ele>1676.7</ele><time>2026-02-14T07:59:50.000Z</time></trkpt>
        <trkpt lat="29.5613768" lon="103.3519124"><ele>1676.7</ele><time>2026-02-14T08:00:47.000Z</time></trkpt>
        <trkpt lat="29.5614653" lon="103.3518863"><ele>1683.02</ele><time>2026-02-14T08:01:39.000Z</time></trkpt>
        <trkpt lat="29.561484" lon="103.35197"><ele>1688.97</ele><time>2026-02-14T08:02:07.000Z</time></trkpt>
        <trkpt lat="29.561484" lon="103.35197"><ele>1688.97</ele><time>2026-02-14T08:02:36.000Z</time></trkpt>
        <trkpt lat="29.5615539" lon="103.3519355"><ele>1691.76</ele><time>2026-02-14T08:03:16.000Z</time></trkpt>
        <trkpt lat="29.5615539" lon="103.3519355"><ele>1691.76</ele><time>2026-02-14T08:03:27.000Z</time></trkpt>
        <trkpt lat="29.5615539" lon="103.3519355"><ele>1691.76</ele><time>2026-02-14T08:04:00.000Z</time></trkpt>
        <trkpt lat="29.5616486" lon="103.3519591"><ele>1695.3</ele><time>2026-02-14T08:04:06.000Z</time></trkpt>
        <trkpt lat="29.5616486" lon="103.3519591"><ele>1695.3</ele><time>2026-02-14T08:04:17.000Z</time></trkpt>
        <trkpt lat="29.5617247" lon="103.3520206"><ele>1697.46</ele><time>2026-02-14T08:04:43.000Z</time></trkpt>
        <trkpt lat="29.5618008" lon="103.3520847"><ele>1700.98</ele><time>2026-02-14T08:05:09.000Z</time></trkpt>
        <trkpt lat="29.5618197" lon="103.3521012"><ele>1704.64</ele><time>2026-02-14T08:05:11.000Z</time></trkpt>
        <trkpt lat="29.5618197" lon="103.3521012"><ele>1704.64</ele><time>2026-02-14T08:05:20.000Z</time></trkpt>
        <trkpt lat="29.5618197" lon="103.3521012"><ele>1704.64</ele><time>2026-02-14T08:05:40.000Z</time></trkpt>
        <trkpt lat="29.5618197" lon="103.3521012"><ele>1704.64</ele><time>2026-02-14T08:06:00.000Z</time></trkpt>
        <trkpt lat="29.5617178" lon="103.3521365"><ele>1706.75</ele><time>2026-02-14T08:07:10.000Z</time></trkpt>
        <trkpt lat="29.5617178" lon="103.3521365"><ele>1706.75</ele><time>2026-02-14T08:07:47.000Z</time></trkpt>
        <trkpt lat="29.5618013" lon="103.3521754"><ele>1708.6</ele><time>2026-02-14T08:08:17.000Z</time></trkpt>
        <trkpt lat="29.5618814" lon="103.3522258"><ele>1712.83</ele><time>2026-02-14T08:08:47.000Z</time></trkpt>
        <trkpt lat="29.5618814" lon="103.3522258"><ele>1712.83</ele><time>2026-02-14T08:09:20.000Z</time></trkpt>
        <trkpt lat="29.5618814" lon="103.3522258"><ele>1712.83</ele><time>2026-02-14T08:10:12.000Z</time></trkpt>
        <trkpt lat="29.5618814" lon="103.3522258"><ele>1712.83</ele><time>2026-02-14T08:11:10.000Z</time></trkpt>
        <trkpt lat="29.5618814" lon="103.3522258"><ele>1712.83</ele><time>2026-02-14T08:11:54.000Z</time></trkpt>
        <trkpt lat="29.5618814" lon="103.3522258"><ele>1712.83</ele><time>2026-02-14T08:12:08.000Z</time></trkpt>
        <trkpt lat="29.5618814" lon="103.3522258"><ele>1712.83</ele><time>2026-02-14T08:12:14.000Z</time></trkpt>
        <trkpt lat="29.5618814" lon="103.3522258"><ele>1712.83</ele><time>2026-02-14T08:12:28.000Z</time></trkpt>
        <trkpt lat="29.5618814" lon="103.3522258"><ele>1712.83</ele><time>2026-02-14T08:12:56.000Z</time></trkpt>
        <trkpt lat="29.5618814" lon="103.3522258"><ele>1712.83</ele><time>2026-02-14T08:13:24.000Z</time></trkpt>
        <trkpt lat="29.5618814" lon="103.3522258"><ele>1712.83</ele><time>2026-02-14T08:13:50.000Z</time></trkpt>
        <trkpt lat="29.5618814" lon="103.3522258"><ele>1712.83</ele><time>2026-02-14T08:14:04.000Z</time></trkpt>
        <trkpt lat="29.5618814" lon="103.3522258"><ele>1712.83</ele><time>2026-02-14T08:14:16.000Z</time></trkpt>
        <trkpt lat="29.5618814" lon="103.3522258"><ele>1712.83</ele><time>2026-02-14T08:14:30.000Z</time></trkpt>
        <trkpt lat="29.5618814" lon="103.3522258"><ele>1712.83</ele><time>2026-02-14T08:14:52.000Z</time></trkpt>
        <trkpt lat="29.5618814" lon="103.3522258"><ele>1712.83</ele><time>2026-02-14T08:15:06.000Z</time></trkpt>
        <trkpt lat="29.5618814" lon="103.3522258"><ele>1712.83</ele><time>2026-02-14T08:15:18.000Z</time></trkpt>
        <trkpt lat="29.5618814" lon="103.3522258"><ele>1712.83</ele><time>2026-02-14T08:15:34.000Z</time></trkpt>
        <trkpt lat="29.5618814" lon="103.3522258"><ele>1712.83</ele><time>2026-02-14T08:16:38.000Z</time></trkpt>
        <trkpt lat="29.5618814" lon="103.3522258"><ele>1712.83</ele><time>2026-02-14T08:17:02.000Z</time></trkpt>
        <trkpt lat="29.5618814" lon="103.3522258"><ele>1712.83</ele><time>2026-02-14T08:20:02.000Z</time></trkpt>
        <trkpt lat="29.5618814" lon="103.3522258"><ele>1712.83</ele><time>2026-02-14T08:20:16.000Z</time></trkpt>
        <trkpt lat="29.5619316" lon="103.3521385"><ele>1717.27</ele><time>2026-02-14T08:20:18.000Z</time></trkpt>
        <trkpt lat="29.5619316" lon="103.3521385"><ele>1717.27</ele><time>2026-02-14T08:20:28.000Z</time></trkpt>
        <trkpt lat="29.5618869" lon="103.3522307"><ele>1724.47</ele><time>2026-02-14T08:21:12.000Z</time></trkpt>
        <trkpt lat="29.5618869" lon="103.3522307"><ele>1724.47</ele><time>2026-02-14T08:21:28.000Z</time></trkpt>
        <trkpt lat="29.5618869" lon="103.3522307"><ele>1724.47</ele><time>2026-02-14T08:21:32.000Z</time></trkpt>
        <trkpt lat="29.5618869" lon="103.3522307"><ele>1724.47</ele><time>2026-02-14T08:22:40.000Z</time></trkpt>
        <trkpt lat="29.5618869" lon="103.3522307"><ele>1724.47</ele><time>2026-02-14T08:22:50.000Z</time></trkpt>
        <trkpt lat="29.5618869" lon="103.3522307"><ele>1724.47</ele><time>2026-02-14T08:23:06.000Z</time></trkpt>
        <trkpt lat="29.5619794" lon="103.3522071"><ele>1730.28</ele><time>2026-02-14T08:23:14.000Z</time></trkpt>
        <trkpt lat="29.5619794" lon="103.3522071"><ele>1730.28</ele><time>2026-02-14T08:23:24.000Z</time></trkpt>
        <trkpt lat="29.5618819" lon="103.3522241"><ele>1732.01</ele><time>2026-02-14T08:23:54.000Z</time></trkpt>
        <trkpt lat="29.5618819" lon="103.3522241"><ele>1732.01</ele><time>2026-02-14T08:24:08.000Z</time></trkpt>
        <trkpt lat="29.5618819" lon="103.3522241"><ele>1732.01</ele><time>2026-02-14T08:24:18.000Z</time></trkpt>
        <trkpt lat="29.5618819" lon="103.3522241"><ele>1732.01</ele><time>2026-02-14T08:24:48.000Z</time></trkpt>
        <trkpt lat="29.5618819" lon="103.3522241"><ele>1732.01</ele><time>2026-02-14T08:24:50.000Z</time></trkpt>
        <trkpt lat="29.5618819" lon="103.3522241"><ele>1732.01</ele><time>2026-02-14T08:25:20.000Z</time></trkpt>
        <trkpt lat="29.5618819" lon="103.3522241"><ele>1732.01</ele><time>2026-02-14T08:26:02.000Z</time></trkpt>
        <trkpt lat="29.5618819" lon="103.3522241"><ele>1732.01</ele><time>2026-02-14T08:26:18.000Z</time></trkpt>
        <trkpt lat="29.5618819" lon="103.3522241"><ele>1732.01</ele><time>2026-02-14T08:27:26.000Z</time></trkpt>
        <trkpt lat="29.5618819" lon="103.3522241"><ele>1732.01</ele><time>2026-02-14T08:27:40.000Z</time></trkpt>
        <trkpt lat="29.5618819" lon="103.3522241"><ele>1732.01</ele><time>2026-02-14T08:27:54.000Z</time></trkpt>
        <trkpt lat="29.5618819" lon="103.3522241"><ele>1732.01</ele><time>2026-02-14T08:28:10.000Z</time></trkpt>
        <trkpt lat="29.5619179" lon="103.3523199"><ele>1733.94</ele><time>2026-02-14T08:28:16.000Z</time></trkpt>
        <trkpt lat="29.5619179" lon="103.3523199"><ele>1733.94</ele><time>2026-02-14T08:28:36.000Z</time></trkpt>
        <trkpt lat="29.5620069" lon="103.3522711"><ele>1731.9</ele><time>2026-02-14T08:28:44.000Z</time></trkpt>
        <trkpt lat="29.5620872" lon="103.3522177"><ele>1730.56</ele><time>2026-02-14T08:28:58.000Z</time></trkpt>
        <trkpt lat="29.5621803" lon="103.3521921"><ele>1730.99</ele><time>2026-02-14T08:29:22.000Z</time></trkpt>
        <trkpt lat="29.5622749" lon="103.3521973"><ele>1733.52</ele><time>2026-02-14T08:29:46.000Z</time></trkpt>
        <trkpt lat="29.5623696" lon="103.3521931"><ele>1736.34</ele><time>2026-02-14T08:30:10.000Z</time></trkpt>
        <trkpt lat="29.5624634" lon="103.3522243"><ele>1740.02</ele><time>2026-02-14T08:30:38.000Z</time></trkpt>
        <trkpt lat="29.5624634" lon="103.3522243"><ele>1740.02</ele><time>2026-02-14T08:31:20.000Z</time></trkpt>
        <trkpt lat="29.5625588" lon="103.3522328"><ele>1743.66</ele><time>2026-02-14T08:31:32.000Z</time></trkpt>
        <trkpt lat="29.5625588" lon="103.3522328"><ele>1743.66</ele><time>2026-02-14T08:31:34.000Z</time></trkpt>
        <trkpt lat="29.5625665" lon="103.3523106"><ele>1748.55</ele><time>2026-02-14T08:31:52.000Z</time></trkpt>
        <trkpt lat="29.5625665" lon="103.3523106"><ele>1748.55</ele><time>2026-02-14T08:32:20.000Z</time></trkpt>
        <trkpt lat="29.5625665" lon="103.3523106"><ele>1748.55</ele><time>2026-02-14T08:32:24.000Z</time></trkpt>
        <trkpt lat="29.5625665" lon="103.3523106"><ele>1748.55</ele><time>2026-02-14T08:32:40.000Z</time></trkpt>
        <trkpt lat="29.5626047" lon="103.3522642"><ele>1749.84</ele><time>2026-02-14T08:33:52.000Z</time></trkpt>
        <trkpt lat="29.5626047" lon="103.3522642"><ele>1749.84</ele><time>2026-02-14T08:33:58.000Z</time></trkpt>
        <trkpt lat="29.5626047" lon="103.3522642"><ele>1749.84</ele><time>2026-02-14T08:34:22.000Z</time></trkpt>
        <trkpt lat="29.5626047" lon="103.3522642"><ele>1749.84</ele><time>2026-02-14T08:36:52.000Z</time></trkpt>
        <trkpt lat="29.5626047" lon="103.3522642"><ele>1749.84</ele><time>2026-02-14T08:37:06.000Z</time></trkpt>
        <trkpt lat="29.5626804" lon="103.3521925"><ele>1753.91</ele><time>2026-02-14T08:37:26.000Z</time></trkpt>
        <trkpt lat="29.5626804" lon="103.3521925"><ele>1753.91</ele><time>2026-02-14T08:37:45.000Z</time></trkpt>
        <trkpt lat="29.562667" lon="103.3520864"><ele>1757.33</ele><time>2026-02-14T08:37:59.000Z</time></trkpt>
        <trkpt lat="29.5625971" lon="103.3520213"><ele>1759.37</ele><time>2026-02-14T08:38:09.000Z</time></trkpt>
        <trkpt lat="29.5625321" lon="103.3519472"><ele>1763.13</ele><time>2026-02-14T08:38:17.000Z</time></trkpt>
        <trkpt lat="29.5624623" lon="103.3518636"><ele>1766.4</ele><time>2026-02-14T08:38:29.000Z</time></trkpt>
        <trkpt lat="29.5623954" lon="103.3517861"><ele>1768.18</ele><time>2026-02-14T08:38:41.000Z</time></trkpt>
        <trkpt lat="29.5624271" lon="103.35171"><ele>1769.05</ele><time>2026-02-14T08:38:51.000Z</time></trkpt>
        <trkpt lat="29.5625143" lon="103.3516704"><ele>1767.95</ele><time>2026-02-14T08:39:07.000Z</time></trkpt>
        <trkpt lat="29.5625953" lon="103.3516079"><ele>1767.24</ele><time>2026-02-14T08:39:41.000Z</time></trkpt>
        <trkpt lat="29.5626448" lon="103.351519"><ele>1769.32</ele><time>2026-02-14T08:39:59.000Z</time></trkpt>
        <trkpt lat="29.5626624" lon="103.3514157"><ele>1771</ele><time>2026-02-14T08:40:09.000Z</time></trkpt>
        <trkpt lat="29.5626947" lon="103.3513049"><ele>1772.51</ele><time>2026-02-14T08:40:21.000Z</time></trkpt>
        <trkpt lat="29.5627397" lon="103.3511975"><ele>1774.07</ele><time>2026-02-14T08:40:33.000Z</time></trkpt>
        <trkpt lat="29.5628006" lon="103.3511109"><ele>1775.97</ele><time>2026-02-14T08:40:49.000Z</time></trkpt>
        <trkpt lat="29.5628094" lon="103.3510132"><ele>1778</ele><time>2026-02-14T08:41:07.000Z</time></trkpt>
        <trkpt lat="29.5627877" lon="103.3509111"><ele>1780.43</ele><time>2026-02-14T08:41:27.000Z</time></trkpt>
        <trkpt lat="29.5627808" lon="103.3508055"><ele>1784.8</ele><time>2026-02-14T08:41:43.000Z</time></trkpt>
        <trkpt lat="29.5627808" lon="103.3508055"><ele>1784.8</ele><time>2026-02-14T08:43:24.000Z</time></trkpt>
        <trkpt lat="29.5628607" lon="103.3507508"><ele>1786.98</ele><time>2026-02-14T08:43:44.000Z</time></trkpt>
        <trkpt lat="29.5628607" lon="103.3507508"><ele>1786.98</ele><time>2026-02-14T08:43:49.000Z</time></trkpt>
        <trkpt lat="29.5628607" lon="103.3507508"><ele>1786.98</ele><time>2026-02-14T08:44:34.000Z</time></trkpt>
        <trkpt lat="29.5627593" lon="103.3507472"><ele>1788.27</ele><time>2026-02-14T08:44:42.000Z</time></trkpt>
        <trkpt lat="29.5627593" lon="103.3507472"><ele>1788.27</ele><time>2026-02-14T08:44:47.000Z</time></trkpt>
        <trkpt lat="29.5627593" lon="103.3507472"><ele>1788.27</ele><time>2026-02-14T08:45:14.000Z</time></trkpt>
        <trkpt lat="29.5627593" lon="103.3507472"><ele>1788.27</ele><time>2026-02-14T08:45:22.000Z</time></trkpt>
        <trkpt lat="29.5627593" lon="103.3507472"><ele>1788.27</ele><time>2026-02-14T08:45:38.000Z</time></trkpt>
        <trkpt lat="29.5627593" lon="103.3507472"><ele>1788.27</ele><time>2026-02-14T08:45:56.000Z</time></trkpt>
        <trkpt lat="29.5627593" lon="103.3507472"><ele>1788.27</ele><time>2026-02-14T08:46:12.000Z</time></trkpt>
        <trkpt lat="29.5627593" lon="103.3507472"><ele>1788.27</ele><time>2026-02-14T08:47:42.000Z</time></trkpt>
        <trkpt lat="29.5627593" lon="103.3507472"><ele>1788.27</ele><time>2026-02-14T08:47:58.000Z</time></trkpt>
        <trkpt lat="29.5627823" lon="103.3506201"><ele>1789.1</ele><time>2026-02-14T08:59:31.000Z</time></trkpt>
        <trkpt lat="29.5627823" lon="103.3506201"><ele>1789.1</ele><time>2026-02-14T09:00:04.000Z</time></trkpt>
        <trkpt lat="29.5628108" lon="103.3505048"><ele>1789.76</ele><time>2026-02-14T09:00:16.000Z</time></trkpt>
        <trkpt lat="29.5628306" lon="103.350384"><ele>1789.84</ele><time>2026-02-14T09:00:26.000Z</time></trkpt>
        <trkpt lat="29.5628435" lon="103.3502658"><ele>1790.27</ele><time>2026-02-14T09:00:38.000Z</time></trkpt>
        <trkpt lat="29.5628827" lon="103.3501576"><ele>1788.76</ele><time>2026-02-14T09:00:50.000Z</time></trkpt>
        <trkpt lat="29.5629035" lon="103.35004"><ele>1787.47</ele><time>2026-02-14T09:01:02.000Z</time></trkpt>
        <trkpt lat="29.5629037" lon="103.3499318"><ele>1785.85</ele><time>2026-02-14T09:01:14.000Z</time></trkpt>
        <trkpt lat="29.5629125" lon="103.3498139"><ele>1784.23</ele><time>2026-02-14T09:01:24.000Z</time></trkpt>
        <trkpt lat="29.5629413" lon="103.3496972"><ele>1784.12</ele><time>2026-02-14T09:01:34.000Z</time></trkpt>
        <trkpt lat="29.5629883" lon="103.349603"><ele>1783.66</ele><time>2026-02-14T09:01:42.000Z</time></trkpt>
        <trkpt lat="29.5630405" lon="103.3495144"><ele>1783.62</ele><time>2026-02-14T09:01:50.000Z</time></trkpt>
        <trkpt lat="29.5630979" lon="103.3494286"><ele>1783.27</ele><time>2026-02-14T09:01:58.000Z</time></trkpt>
        <trkpt lat="29.5631298" lon="103.3493149"><ele>1783.75</ele><time>2026-02-14T09:02:08.000Z</time></trkpt>
        <trkpt lat="29.563179" lon="103.3492047"><ele>1784.08</ele><time>2026-02-14T09:02:18.000Z</time></trkpt>
        <trkpt lat="29.5632173" lon="103.3490992"><ele>1784.52</ele><time>2026-02-14T09:02:28.000Z</time></trkpt>
        <trkpt lat="29.5632149" lon="103.3489957"><ele>1785.31</ele><time>2026-02-14T09:02:36.000Z</time></trkpt>
        <trkpt lat="29.5632306" lon="103.3488932"><ele>1786.43</ele><time>2026-02-14T09:02:48.000Z</time></trkpt>
        <trkpt lat="29.5632334" lon="103.3487848"><ele>1788.44</ele><time>2026-02-14T09:03:02.000Z</time></trkpt>
        <trkpt lat="29.563229" lon="103.3486686"><ele>1788.67</ele><time>2026-02-14T09:03:12.000Z</time></trkpt>
        <trkpt lat="29.5632286" lon="103.3485505"><ele>1788.75</ele><time>2026-02-14T09:03:22.000Z</time></trkpt>
        <trkpt lat="29.5632508" lon="103.3484272"><ele>1789.08</ele><time>2026-02-14T09:03:32.000Z</time></trkpt>
        <trkpt lat="29.5632901" lon="103.348313"><ele>1790.28</ele><time>2026-02-14T09:03:44.000Z</time></trkpt>
        <trkpt lat="29.5633617" lon="103.3482257"><ele>1791.01</ele><time>2026-02-14T09:03:56.000Z</time></trkpt>
        <trkpt lat="29.5634121" lon="103.3481358"><ele>1792.06</ele><time>2026-02-14T09:04:06.000Z</time></trkpt>
        <trkpt lat="29.5634531" lon="103.3480316"><ele>1791.69</ele><time>2026-02-14T09:04:14.000Z</time></trkpt>
        <trkpt lat="29.5635194" lon="103.347957"><ele>1791.54</ele><time>2026-02-14T09:04:22.000Z</time></trkpt>
        <trkpt lat="29.5635698" lon="103.3478562"><ele>1791.24</ele><time>2026-02-14T09:04:32.000Z</time></trkpt>
        <trkpt lat="29.5635828" lon="103.347744"><ele>1790.53</ele><time>2026-02-14T09:04:44.000Z</time></trkpt>
        <trkpt lat="29.563564" lon="103.3476273"><ele>1788.54</ele><time>2026-02-14T09:04:54.000Z</time></trkpt>
        <trkpt lat="29.5635582" lon="103.347497"><ele>1786.27</ele><time>2026-02-14T09:05:04.000Z</time></trkpt>
        <trkpt lat="29.5635363" lon="103.347385"><ele>1784.91</ele><time>2026-02-14T09:05:14.000Z</time></trkpt>
        <trkpt lat="29.5634852" lon="103.3472921"><ele>1783.3</ele><time>2026-02-14T09:05:22.000Z</time></trkpt>
        <trkpt lat="29.5634194" lon="103.3472106"><ele>1782.95</ele><time>2026-02-14T09:05:36.000Z</time></trkpt>
        <trkpt lat="29.5633325" lon="103.3471511"><ele>1782.6</ele><time>2026-02-14T09:05:48.000Z</time></trkpt>
        <trkpt lat="29.5632313" lon="103.3471098"><ele>1782</ele><time>2026-02-14T09:05:58.000Z</time></trkpt>
        <trkpt lat="29.5631446" lon="103.3470425"><ele>1781.44</ele><time>2026-02-14T09:06:08.000Z</time></trkpt>
        <trkpt lat="29.5630692" lon="103.3469558"><ele>1780.29</ele><time>2026-02-14T09:06:18.000Z</time></trkpt>
        <trkpt lat="29.5630153" lon="103.3468525"><ele>1779.26</ele><time>2026-02-14T09:06:30.000Z</time></trkpt>
        <trkpt lat="29.562958" lon="103.3467603"><ele>1778.64</ele><time>2026-02-14T09:06:40.000Z</time></trkpt>
        <trkpt lat="29.5628897" lon="103.3466721"><ele>1777.31</ele><time>2026-02-14T09:06:50.000Z</time></trkpt>
        <trkpt lat="29.5628328" lon="103.3465868"><ele>1776.04</ele><time>2026-02-14T09:06:58.000Z</time></trkpt>
        <trkpt lat="29.5627687" lon="103.3465139"><ele>1774.8</ele><time>2026-02-14T09:07:06.000Z</time></trkpt>
        <trkpt lat="29.5626814" lon="103.3464784"><ele>1773.52</ele><time>2026-02-14T09:07:14.000Z</time></trkpt>
        <trkpt lat="29.5625953" lon="103.3464268"><ele>1772.5</ele><time>2026-02-14T09:07:22.000Z</time></trkpt>
        <trkpt lat="29.5625094" lon="103.3463665"><ele>1771.91</ele><time>2026-02-14T09:07:30.000Z</time></trkpt>
        <trkpt lat="29.562443" lon="103.3462922"><ele>1771.48</ele><time>2026-02-14T09:07:38.000Z</time></trkpt>
        <trkpt lat="29.5623722" lon="103.3462112"><ele>1772.28</ele><time>2026-02-14T09:07:48.000Z</time></trkpt>
        <trkpt lat="29.562296" lon="103.3461267"><ele>1771.28</ele><time>2026-02-14T09:07:58.000Z</time></trkpt>
        <trkpt lat="29.562231" lon="103.3460267"><ele>1770.37</ele><time>2026-02-14T09:08:08.000Z</time></trkpt>
        <trkpt lat="29.5621879" lon="103.3459101"><ele>1769.17</ele><time>2026-02-14T09:08:18.000Z</time></trkpt>
        <trkpt lat="29.5621449" lon="103.3458079"><ele>1768.38</ele><time>2026-02-14T09:08:26.000Z</time></trkpt>
        <trkpt lat="29.5620885" lon="103.3457158"><ele>1767.18</ele><time>2026-02-14T09:08:34.000Z</time></trkpt>
        <trkpt lat="29.5620276" lon="103.3456286"><ele>1767.32</ele><time>2026-02-14T09:08:44.000Z</time></trkpt>
        <trkpt lat="29.5619431" lon="103.3455907"><ele>1768.55</ele><time>2026-02-14T09:08:54.000Z</time></trkpt>
        <trkpt lat="29.5618491" lon="103.3455837"><ele>1768.47</ele><time>2026-02-14T09:09:04.000Z</time></trkpt>
        <trkpt lat="29.5617545" lon="103.3455927"><ele>1768.65</ele><time>2026-02-14T09:09:14.000Z</time></trkpt>
        <trkpt lat="29.5616617" lon="103.3455984"><ele>1769.46</ele><time>2026-02-14T09:09:24.000Z</time></trkpt>
        <trkpt lat="29.5615721" lon="103.345565"><ele>1770.63</ele><time>2026-02-14T09:09:34.000Z</time></trkpt>
        <trkpt lat="29.5614851" lon="103.3454914"><ele>1771.21</ele><time>2026-02-14T09:09:44.000Z</time></trkpt>
        <trkpt lat="29.5614186" lon="103.3453885"><ele>1770.56</ele><time>2026-02-14T09:09:54.000Z</time></trkpt>
        <trkpt lat="29.5613641" lon="103.345286"><ele>1770.02</ele><time>2026-02-14T09:10:06.000Z</time></trkpt>
        <trkpt lat="29.5613011" lon="103.3452044"><ele>1770.15</ele><time>2026-02-14T09:10:22.000Z</time></trkpt>
        <trkpt lat="29.5612253" lon="103.3451297"><ele>1772.49</ele><time>2026-02-14T09:10:50.000Z</time></trkpt>
        <trkpt lat="29.5611516" lon="103.3450632"><ele>1775.95</ele><time>2026-02-14T09:11:24.000Z</time></trkpt>
        <trkpt lat="29.5610682" lon="103.3450119"><ele>1781.68</ele><time>2026-02-14T09:12:04.000Z</time></trkpt>
        <trkpt lat="29.5609795" lon="103.345024"><ele>1788.21</ele><time>2026-02-14T09:12:42.000Z</time></trkpt>
        <trkpt lat="29.5608962" lon="103.3450724"><ele>1795.8</ele><time>2026-02-14T09:13:14.000Z</time></trkpt>
        <trkpt lat="29.5608318" lon="103.3450295"><ele>1802.99</ele><time>2026-02-14T09:13:40.000Z</time></trkpt>
        <trkpt lat="29.5608003" lon="103.3449359"><ele>1808.3</ele><time>2026-02-14T09:14:12.000Z</time></trkpt>
        <trkpt lat="29.5607279" lon="103.3448895"><ele>1813.61</ele><time>2026-02-14T09:14:50.000Z</time></trkpt>
        <trkpt lat="29.5606985" lon="103.3447978"><ele>1820.22</ele><time>2026-02-14T09:15:24.000Z</time></trkpt>
        <trkpt lat="29.5606645" lon="103.3446993"><ele>1827.31</ele><time>2026-02-14T09:15:50.000Z</time></trkpt>
        <trkpt lat="29.5606645" lon="103.3446993"><ele>1827.31</ele><time>2026-02-14T09:16:15.000Z</time></trkpt>
        <trkpt lat="29.5606645" lon="103.3446993"><ele>1827.31</ele><time>2026-02-14T09:16:21.000Z</time></trkpt>
        <trkpt lat="29.5606645" lon="103.3446993"><ele>1827.31</ele><time>2026-02-14T09:16:57.000Z</time></trkpt>
        <trkpt lat="29.5606645" lon="103.3446993"><ele>1827.31</ele><time>2026-02-14T09:17:13.000Z</time></trkpt>
        <trkpt lat="29.5606645" lon="103.3446993"><ele>1827.31</ele><time>2026-02-14T09:17:43.000Z</time></trkpt>
        <trkpt lat="29.5606645" lon="103.3446993"><ele>1827.31</ele><time>2026-02-14T09:18:11.000Z</time></trkpt>
        <trkpt lat="29.5606645" lon="103.3446993"><ele>1827.31</ele><time>2026-02-14T09:18:27.000Z</time></trkpt>
        <trkpt lat="29.5606645" lon="103.3446993"><ele>1827.31</ele><time>2026-02-14T09:18:35.000Z</time></trkpt>
        <trkpt lat="29.5606645" lon="103.3446993"><ele>1827.31</ele><time>2026-02-14T09:18:51.000Z</time></trkpt>
        <trkpt lat="29.5605785" lon="103.3446543"><ele>1832.88</ele><time>2026-02-14T09:19:01.000Z</time></trkpt>
        <trkpt lat="29.5605785" lon="103.3446543"><ele>1832.88</ele><time>2026-02-14T09:19:14.000Z</time></trkpt>
        <trkpt lat="29.560488" lon="103.3446226"><ele>1838.76</ele><time>2026-02-14T09:19:44.000Z</time></trkpt>
        <trkpt lat="29.5604076" lon="103.3445722"><ele>1843.96</ele><time>2026-02-14T09:20:16.000Z</time></trkpt>
        <trkpt lat="29.5603289" lon="103.3445211"><ele>1849.32</ele><time>2026-02-14T09:20:42.000Z</time></trkpt>
        <trkpt lat="29.5602528" lon="103.3444604"><ele>1854.23</ele><time>2026-02-14T09:21:14.000Z</time></trkpt>
        <trkpt lat="29.5601757" lon="103.3443991"><ele>1859.47</ele><time>2026-02-14T09:21:46.000Z</time></trkpt>
        <trkpt lat="29.5601131" lon="103.3443166"><ele>1864.34</ele><time>2026-02-14T09:22:14.000Z</time></trkpt>
        <trkpt lat="29.5601559" lon="103.3442456"><ele>1869.4</ele><time>2026-02-14T09:22:38.000Z</time></trkpt>
        <trkpt lat="29.5601076" lon="103.3442079"><ele>1875.16</ele><time>2026-02-14T09:23:00.000Z</time></trkpt>
        <trkpt lat="29.5600218" lon="103.344152"><ele>1879.08</ele><time>2026-02-14T09:23:24.000Z</time></trkpt>
        <trkpt lat="29.5600559" lon="103.3441062"><ele>1883.65</ele><time>2026-02-14T09:23:42.000Z</time></trkpt>
        <trkpt lat="29.5600541" lon="103.3440199"><ele>1888.34</ele><time>2026-02-14T09:24:20.000Z</time></trkpt>
        <trkpt lat="29.5601147" lon="103.3439492"><ele>1893.04</ele><time>2026-02-14T09:24:58.000Z</time></trkpt>
        <trkpt lat="29.5601001" lon="103.3438668"><ele>1899.02</ele><time>2026-02-14T09:25:18.000Z</time></trkpt>
        <trkpt lat="29.5600252" lon="103.343832"><ele>1904.01</ele><time>2026-02-14T09:25:44.000Z</time></trkpt>
        <trkpt lat="29.5599455" lon="103.3437719"><ele>1907.78</ele><time>2026-02-14T09:26:14.000Z</time></trkpt>
        <trkpt lat="29.5598562" lon="103.3437265"><ele>1912.74</ele><time>2026-02-14T09:26:52.000Z</time></trkpt>
        <trkpt lat="29.5597861" lon="103.3436553"><ele>1917.6</ele><time>2026-02-14T09:27:22.000Z</time></trkpt>
        <trkpt lat="29.5597254" lon="103.3435681"><ele>1922.54</ele><time>2026-02-14T09:27:46.000Z</time></trkpt>
        <trkpt lat="29.5596703" lon="103.3434799"><ele>1927.05</ele><time>2026-02-14T09:28:08.000Z</time></trkpt>
        <trkpt lat="29.5596703" lon="103.3434799"><ele>1927.05</ele><time>2026-02-14T09:28:29.000Z</time></trkpt>
        <trkpt lat="29.5596322" lon="103.3435357"><ele>1931.84</ele><time>2026-02-14T09:28:45.000Z</time></trkpt>
        <trkpt lat="29.5596322" lon="103.3435357"><ele>1931.84</ele><time>2026-02-14T09:29:00.000Z</time></trkpt>
        <trkpt lat="29.5595583" lon="103.3435518"><ele>1935.98</ele><time>2026-02-14T09:29:26.000Z</time></trkpt>
        <trkpt lat="29.5594801" lon="103.3435075"><ele>1939.27</ele><time>2026-02-14T09:30:02.000Z</time></trkpt>
        <trkpt lat="29.5594358" lon="103.3435658"><ele>1943.97</ele><time>2026-02-14T09:30:24.000Z</time></trkpt>
        <trkpt lat="29.5593538" lon="103.3435946"><ele>1948.41</ele><time>2026-02-14T09:30:56.000Z</time></trkpt>
        <trkpt lat="29.5593538" lon="103.3435946"><ele>1948.41</ele><time>2026-02-14T09:31:39.000Z</time></trkpt>
        <trkpt lat="29.559258" lon="103.3436616"><ele>1953.66</ele><time>2026-02-14T09:31:49.000Z</time></trkpt>
        <trkpt lat="29.559258" lon="103.3436616"><ele>1953.66</ele><time>2026-02-14T09:32:24.000Z</time></trkpt>
        <trkpt lat="29.5592264" lon="103.3437588"><ele>1958.48</ele><time>2026-02-14T09:32:50.000Z</time></trkpt>
        <trkpt lat="29.5591785" lon="103.3438479"><ele>1963.55</ele><time>2026-02-14T09:33:14.000Z</time></trkpt>
        <trkpt lat="29.5591366" lon="103.3437909"><ele>1969.87</ele><time>2026-02-14T09:33:34.000Z</time></trkpt>
        <trkpt lat="29.5591233" lon="103.3437437"><ele>1973.95</ele><time>2026-02-14T09:33:42.000Z</time></trkpt>
        <trkpt lat="29.5590598" lon="103.343691"><ele>1977.34</ele><time>2026-02-14T09:34:16.000Z</time></trkpt>
        <trkpt lat="29.5589691" lon="103.3436867"><ele>1980.86</ele><time>2026-02-14T09:34:52.000Z</time></trkpt>
        <trkpt lat="29.5588827" lon="103.3437366"><ele>1985.75</ele><time>2026-02-14T09:35:30.000Z</time></trkpt>
        <trkpt lat="29.5588485" lon="103.343845"><ele>1992.1</ele><time>2026-02-14T09:35:44.000Z</time></trkpt>
        <trkpt lat="29.5588701" lon="103.3439624"><ele>1996.45</ele><time>2026-02-14T09:35:54.000Z</time></trkpt>
        <trkpt lat="29.5589054" lon="103.3440831"><ele>1999.23</ele><time>2026-02-14T09:36:06.000Z</time></trkpt>
        <trkpt lat="29.5588902" lon="103.3441931"><ele>2001.4</ele><time>2026-02-14T09:36:54.000Z</time></trkpt>
        <trkpt lat="29.5588595" lon="103.3443026"><ele>2007.27</ele><time>2026-02-14T09:37:18.000Z</time></trkpt>
        <trkpt lat="29.5587814" lon="103.3442783"><ele>2011.77</ele><time>2026-02-14T09:37:56.000Z</time></trkpt>
        <trkpt lat="29.5587389" lon="103.3442493"><ele>2014.75</ele><time>2026-02-14T09:38:00.000Z</time></trkpt>
        <trkpt lat="29.5586537" lon="103.3442223"><ele>2016.46</ele><time>2026-02-14T09:38:20.000Z</time></trkpt>
        <trkpt lat="29.5585605" lon="103.3441862"><ele>2017.28</ele><time>2026-02-14T09:38:38.000Z</time></trkpt>
        <trkpt lat="29.5584664" lon="103.3441466"><ele>2020.11</ele><time>2026-02-14T09:39:04.000Z</time></trkpt>
        <trkpt lat="29.5583747" lon="103.3441121"><ele>2024.27</ele><time>2026-02-14T09:39:30.000Z</time></trkpt>
        <trkpt lat="29.5582843" lon="103.3440849"><ele>2028.47</ele><time>2026-02-14T09:39:46.000Z</time></trkpt>
        <trkpt lat="29.5581919" lon="103.3440669"><ele>2030.63</ele><time>2026-02-14T09:40:01.000Z</time></trkpt>
        <trkpt lat="29.5581006" lon="103.3440388"><ele>2031.06</ele><time>2026-02-14T09:40:30.000Z</time></trkpt>
        <trkpt lat="29.5581006" lon="103.3440388"><ele>2031.06</ele><time>2026-02-14T09:40:35.000Z</time></trkpt>
        <trkpt lat="29.5581006" lon="103.3440388"><ele>2031.06</ele><time>2026-02-14T09:40:51.000Z</time></trkpt>
        <trkpt lat="29.5581006" lon="103.3440388"><ele>2031.06</ele><time>2026-02-14T09:41:19.000Z</time></trkpt>
        <trkpt lat="29.5581006" lon="103.3440388"><ele>2031.06</ele><time>2026-02-14T09:41:29.000Z</time></trkpt>
        <trkpt lat="29.5581006" lon="103.3440388"><ele>2031.06</ele><time>2026-02-14T09:41:47.000Z</time></trkpt>
        <trkpt lat="29.5581006" lon="103.3440388"><ele>2031.06</ele><time>2026-02-14T09:41:49.000Z</time></trkpt>
        <trkpt lat="29.5581006" lon="103.3440388"><ele>2031.06</ele><time>2026-02-14T09:42:15.000Z</time></trkpt>
        <trkpt lat="29.5581006" lon="103.3440388"><ele>2031.06</ele><time>2026-02-14T09:42:21.000Z</time></trkpt>
        <trkpt lat="29.5581006" lon="103.3440388"><ele>2031.06</ele><time>2026-02-14T09:42:59.000Z</time></trkpt>
        <trkpt lat="29.5581006" lon="103.3440388"><ele>2031.06</ele><time>2026-02-14T09:43:21.000Z</time></trkpt>
        <trkpt lat="29.5581006" lon="103.3440388"><ele>2031.06</ele><time>2026-02-14T09:43:49.000Z</time></trkpt>
        <trkpt lat="29.5581679" lon="103.344117"><ele>2030.6</ele><time>2026-02-14T09:44:23.000Z</time></trkpt>
        <trkpt lat="29.5581679" lon="103.344117"><ele>2030.6</ele><time>2026-02-14T09:44:36.000Z</time></trkpt>
        <trkpt lat="29.5581679" lon="103.344117"><ele>2030.6</ele><time>2026-02-14T09:44:49.000Z</time></trkpt>
        <trkpt lat="29.5581039" lon="103.3440358"><ele>2035.65</ele><time>2026-02-14T09:47:11.000Z</time></trkpt>
        <trkpt lat="29.5581039" lon="103.3440358"><ele>2035.65</ele><time>2026-02-14T09:47:18.000Z</time></trkpt>
        <trkpt lat="29.5581039" lon="103.3440358"><ele>2035.65</ele><time>2026-02-14T09:47:27.000Z</time></trkpt>
        <trkpt lat="29.5581039" lon="103.3440358"><ele>2035.65</ele><time>2026-02-14T09:48:11.000Z</time></trkpt>
        <trkpt lat="29.5581039" lon="103.3440358"><ele>2035.65</ele><time>2026-02-14T09:48:25.000Z</time></trkpt>
        <trkpt lat="29.5581039" lon="103.3440358"><ele>2035.65</ele><time>2026-02-14T09:48:55.000Z</time></trkpt>
        <trkpt lat="29.5581039" lon="103.3440358"><ele>2035.65</ele><time>2026-02-14T09:49:19.000Z</time></trkpt>
        <trkpt lat="29.5581039" lon="103.3440358"><ele>2035.65</ele><time>2026-02-14T09:49:21.000Z</time></trkpt>
        <trkpt lat="29.5581039" lon="103.3440358"><ele>2035.65</ele><time>2026-02-14T09:49:37.000Z</time></trkpt>
        <trkpt lat="29.5581039" lon="103.3440358"><ele>2035.65</ele><time>2026-02-14T09:51:03.000Z</time></trkpt>
        <trkpt lat="29.5581039" lon="103.3440358"><ele>2035.65</ele><time>2026-02-14T09:51:19.000Z</time></trkpt>
        <trkpt lat="29.5581039" lon="103.3440358"><ele>2035.65</ele><time>2026-02-14T09:51:25.000Z</time></trkpt>
        <trkpt lat="29.5581039" lon="103.3440358"><ele>2035.65</ele><time>2026-02-14T09:51:41.000Z</time></trkpt>
        <trkpt lat="29.5581601" lon="103.3441338"><ele>2035.4</ele><time>2026-02-14T09:51:49.000Z</time></trkpt>
        <trkpt lat="29.5581601" lon="103.3441338"><ele>2035.4</ele><time>2026-02-14T09:51:58.000Z</time></trkpt>
        <trkpt lat="29.5581601" lon="103.3441338"><ele>2035.4</ele><time>2026-02-14T09:52:13.000Z</time></trkpt>
        <trkpt lat="29.5581601" lon="103.3441338"><ele>2035.4</ele><time>2026-02-14T09:52:29.000Z</time></trkpt>
        <trkpt lat="29.5581601" lon="103.3441338"><ele>2035.4</ele><time>2026-02-14T09:52:45.000Z</time></trkpt>
        <trkpt lat="29.5581601" lon="103.3441338"><ele>2035.4</ele><time>2026-02-14T09:54:47.000Z</time></trkpt>
        <trkpt lat="29.5581601" lon="103.3441338"><ele>2035.4</ele><time>2026-02-14T09:55:03.000Z</time></trkpt>
        <trkpt lat="29.5580022" lon="103.344037"><ele>2029.13</ele><time>2026-02-14T09:56:09.000Z</time></trkpt>
        <trkpt lat="29.5580022" lon="103.344037"><ele>2029.13</ele><time>2026-02-14T09:56:28.000Z</time></trkpt>
        <trkpt lat="29.5578584" lon="103.3440161"><ele>2030.97</ele><time>2026-02-14T09:56:48.000Z</time></trkpt>
        <trkpt lat="29.5577312" lon="103.3439338"><ele>2031.91</ele><time>2026-02-14T09:56:57.000Z</time></trkpt>
        <trkpt lat="29.5576282" lon="103.3439428"><ele>2035.01</ele><time>2026-02-14T09:57:07.000Z</time></trkpt>
        <trkpt lat="29.5576087" lon="103.3439264"><ele>2033.68</ele><time>2026-02-14T09:57:13.000Z</time></trkpt>
        <trkpt lat="29.5575405" lon="103.3439291"><ele>2031.2</ele><time>2026-02-14T09:57:31.000Z</time></trkpt>
        <trkpt lat="29.5575405" lon="103.3439291"><ele>2031.2</ele><time>2026-02-14T09:57:39.000Z</time></trkpt>
        <trkpt lat="29.5575405" lon="103.3439291"><ele>2031.2</ele><time>2026-02-14T09:57:41.000Z</time></trkpt>
        <trkpt lat="29.5575405" lon="103.3439291"><ele>2031.2</ele><time>2026-02-14T09:57:57.000Z</time></trkpt>
        <trkpt lat="29.5575224" lon="103.3438187"><ele>2030.67</ele><time>2026-02-14T09:58:03.000Z</time></trkpt>
        <trkpt lat="29.5575224" lon="103.3438187"><ele>2030.67</ele><time>2026-02-14T09:58:41.000Z</time></trkpt>
        <trkpt lat="29.5574722" lon="103.3437319"><ele>2031.3</ele><time>2026-02-14T09:58:49.000Z</time></trkpt>
        <trkpt lat="29.5573898" lon="103.3436664"><ele>2031.47</ele><time>2026-02-14T09:59:03.000Z</time></trkpt>
        <trkpt lat="29.5573002" lon="103.343633"><ele>2031.33</ele><time>2026-02-14T09:59:17.000Z</time></trkpt>
        <trkpt lat="29.5572751" lon="103.3436306"><ele>2031.97</ele><time>2026-02-14T09:59:19.000Z</time></trkpt>
        <trkpt lat="29.5572067" lon="103.3436186"><ele>2032.23</ele><time>2026-02-14T09:59:51.000Z</time></trkpt>
        <trkpt lat="29.55712" lon="103.3436055"><ele>2035.37</ele><time>2026-02-14T10:00:23.000Z</time></trkpt>
        <trkpt lat="29.5570337" lon="103.3436464"><ele>2038.81</ele><time>2026-02-14T10:00:51.000Z</time></trkpt>
        <trkpt lat="29.5569403" lon="103.343694"><ele>2043.95</ele><time>2026-02-14T10:01:17.000Z</time></trkpt>
        <trkpt lat="29.5568509" lon="103.3437479"><ele>2049.35</ele><time>2026-02-14T10:01:27.000Z</time></trkpt>
        <trkpt lat="29.5567596" lon="103.3437337"><ele>2052.01</ele><time>2026-02-14T10:01:59.000Z</time></trkpt>
        <trkpt lat="29.5566635" lon="103.3437404"><ele>2056.16</ele><time>2026-02-14T10:02:23.000Z</time></trkpt>
        <trkpt lat="29.5565836" lon="103.3437899"><ele>2060.32</ele><time>2026-02-14T10:02:51.000Z</time></trkpt>
        <trkpt lat="29.5565281" lon="103.3438732"><ele>2064.84</ele><time>2026-02-14T10:03:23.000Z</time></trkpt>
        <trkpt lat="29.5565151" lon="103.3439811"><ele>2070.2</ele><time>2026-02-14T10:03:59.000Z</time></trkpt>
        <trkpt lat="29.556497" lon="103.3440882"><ele>2074.99</ele><time>2026-02-14T10:04:41.000Z</time></trkpt>
        <trkpt lat="29.5564391" lon="103.3441692"><ele>2081.14</ele><time>2026-02-14T10:04:59.000Z</time></trkpt>
        <trkpt lat="29.5563591" lon="103.3442261"><ele>2085.92</ele><time>2026-02-14T10:05:19.000Z</time></trkpt>
        <trkpt lat="29.556265" lon="103.3442601"><ele>2090.51</ele><time>2026-02-14T10:05:39.000Z</time></trkpt>
        <trkpt lat="29.5562103" lon="103.3443372"><ele>2094.77</ele><time>2026-02-14T10:06:03.000Z</time></trkpt>
        <trkpt lat="29.556153" lon="103.34442"><ele>2097.71</ele><time>2026-02-14T10:06:27.000Z</time></trkpt>
        <trkpt lat="29.5560817" lon="103.3444962"><ele>2101.21</ele><time>2026-02-14T10:06:51.000Z</time></trkpt>
        <trkpt lat="29.5560817" lon="103.3444962"><ele>2101.21</ele><time>2026-02-14T10:07:25.000Z</time></trkpt>
        <trkpt lat="29.5560817" lon="103.3444962"><ele>2101.21</ele><time>2026-02-14T10:08:09.000Z</time></trkpt>
        <trkpt lat="29.5560817" lon="103.3444962"><ele>2101.21</ele><time>2026-02-14T10:08:25.000Z</time></trkpt>
        <trkpt lat="29.5560817" lon="103.3444962"><ele>2101.21</ele><time>2026-02-14T10:09:03.000Z</time></trkpt>
        <trkpt lat="29.5560817" lon="103.3444962"><ele>2101.21</ele><time>2026-02-14T10:09:19.000Z</time></trkpt>
        <trkpt lat="29.5560817" lon="103.3444962"><ele>2101.21</ele><time>2026-02-14T10:09:54.000Z</time></trkpt>
        <trkpt lat="29.5560817" lon="103.3444962"><ele>2101.21</ele><time>2026-02-14T10:09:55.000Z</time></trkpt>
        <trkpt lat="29.5560817" lon="103.3444962"><ele>2101.21</ele><time>2026-02-14T10:09:57.000Z</time></trkpt>
        <trkpt lat="29.5560817" lon="103.3444962"><ele>2101.21</ele><time>2026-02-14T10:10:17.000Z</time></trkpt>
        <trkpt lat="29.5560194" lon="103.3445813"><ele>2104.11</ele><time>2026-02-14T10:10:25.000Z</time></trkpt>
        <trkpt lat="29.5560194" lon="103.3445813"><ele>2104.11</ele><time>2026-02-14T10:10:45.000Z</time></trkpt>
        <trkpt lat="29.5559851" lon="103.3446775"><ele>2107.35</ele><time>2026-02-14T10:11:07.000Z</time></trkpt>
        <trkpt lat="29.555937" lon="103.3447647"><ele>2112.39</ele><time>2026-02-14T10:11:31.000Z</time></trkpt>
        <trkpt lat="29.555937" lon="103.3447647"><ele>2112.39</ele><time>2026-02-14T10:11:31.000Z</time></trkpt>
        <trkpt lat="29.5557708" lon="103.3449652"><ele>2125.89</ele><time>2026-02-14T10:12:48.000Z</time></trkpt>
        <trkpt lat="29.5557708" lon="103.3449652"><ele>2125.89</ele><time>2026-02-14T10:12:50.000Z</time></trkpt>
        <trkpt lat="29.5558628" lon="103.3449832"><ele>2125.89</ele><time>2026-02-14T10:12:53.000Z</time></trkpt>
        <trkpt lat="29.5557904" lon="103.3449779"><ele>2128.42</ele><time>2026-02-14T10:12:57.000Z</time></trkpt>
        <trkpt lat="29.5556983" lon="103.3449764"><ele>2126.23</ele><time>2026-02-14T10:13:24.000Z</time></trkpt>
        <trkpt lat="29.5556039" lon="103.3449365"><ele>2128.19</ele><time>2026-02-14T10:13:54.000Z</time></trkpt>
        <trkpt lat="29.5555225" lon="103.3449807"><ele>2131.95</ele><time>2026-02-14T10:14:26.000Z</time></trkpt>
        <trkpt lat="29.5554675" lon="103.3450712"><ele>2136.1</ele><time>2026-02-14T10:15:00.000Z</time></trkpt>
        <trkpt lat="29.5553916" lon="103.3451377"><ele>2140.8</ele><time>2026-02-14T10:15:28.000Z</time></trkpt>
        <trkpt lat="29.5553333" lon="103.345088"><ele>2146.28</ele><time>2026-02-14T10:15:48.000Z</time></trkpt>
        <trkpt lat="29.5552665" lon="103.3450031"><ele>2150.96</ele><time>2026-02-14T10:16:08.000Z</time></trkpt>
        <trkpt lat="29.5552016" lon="103.3450282"><ele>2154.4</ele><time>2026-02-14T10:16:26.000Z</time></trkpt>
        <trkpt lat="29.5551325" lon="103.3450931"><ele>2158.2</ele><time>2026-02-14T10:16:48.000Z</time></trkpt>
        <trkpt lat="29.5550443" lon="103.345154"><ele>2160.9</ele><time>2026-02-14T10:16:58.000Z</time></trkpt>
        <trkpt lat="29.5549473" lon="103.3451748"><ele>2162.12</ele><time>2026-02-14T10:17:12.000Z</time></trkpt>
        <trkpt lat="29.5548515" lon="103.3451944"><ele>2163.54</ele><time>2026-02-14T10:17:32.000Z</time></trkpt>
        <trkpt lat="29.5547772" lon="103.3452544"><ele>2166.61</ele><time>2026-02-14T10:18:04.000Z</time></trkpt>
        <trkpt lat="29.5547014" lon="103.345316"><ele>2169.51</ele><time>2026-02-14T10:18:32.000Z</time></trkpt>
        <trkpt lat="29.5546138" lon="103.345358"><ele>2173.28</ele><time>2026-02-14T10:19:02.000Z</time></trkpt>
        <trkpt lat="29.5545225" lon="103.3453808"><ele>2177.22</ele><time>2026-02-14T10:19:28.000Z</time></trkpt>
        <trkpt lat="29.554432" lon="103.3453952"><ele>2181.17</ele><time>2026-02-14T10:20:00.000Z</time></trkpt>
        <trkpt lat="29.5543419" lon="103.3454089"><ele>2185.58</ele><time>2026-02-14T10:20:32.000Z</time></trkpt>
        <trkpt lat="29.5543419" lon="103.3454089"><ele>2185.58</ele><time>2026-02-14T10:21:40.000Z</time></trkpt>
        <trkpt lat="29.554164" lon="103.3454653"><ele>2189.48</ele><time>2026-02-14T10:21:48.000Z</time></trkpt>
        <trkpt lat="29.554164" lon="103.3454653"><ele>2189.48</ele><time>2026-02-14T10:22:24.000Z</time></trkpt>
        <trkpt lat="29.5540729" lon="103.3454942"><ele>2196.84</ele><time>2026-02-14T10:22:50.000Z</time></trkpt>
        <trkpt lat="29.5539848" lon="103.3454762"><ele>2203.31</ele><time>2026-02-14T10:23:12.000Z</time></trkpt>
        <trkpt lat="29.5538975" lon="103.3454322"><ele>2208.39</ele><time>2026-02-14T10:23:42.000Z</time></trkpt>
        <trkpt lat="29.5538175" lon="103.3453762"><ele>2210.91</ele><time>2026-02-14T10:24:00.000Z</time></trkpt>
        <trkpt lat="29.5537326" lon="103.3453289"><ele>2213.72</ele><time>2026-02-14T10:24:22.000Z</time></trkpt>
        <trkpt lat="29.5536388" lon="103.3453091"><ele>2216.97</ele><time>2026-02-14T10:24:44.000Z</time></trkpt>
        <trkpt lat="29.5535412" lon="103.3453262"><ele>2219.62</ele><time>2026-02-14T10:25:00.000Z</time></trkpt>
        <trkpt lat="29.5534424" lon="103.3453379"><ele>2221.56</ele><time>2026-02-14T10:25:18.000Z</time></trkpt>
        <trkpt lat="29.5533485" lon="103.3453463"><ele>2223.82</ele><time>2026-02-14T10:25:36.000Z</time></trkpt>
        <trkpt lat="29.5532523" lon="103.3453697"><ele>2226.48</ele><time>2026-02-14T10:25:52.000Z</time></trkpt>
        <trkpt lat="29.5531521" lon="103.3453863"><ele>2228.85</ele><time>2026-02-14T10:26:06.000Z</time></trkpt>
        <trkpt lat="29.5530592" lon="103.3453869"><ele>2230.18</ele><time>2026-02-14T10:26:16.000Z</time></trkpt>
        <trkpt lat="29.5529644" lon="103.3454059"><ele>2231.57</ele><time>2026-02-14T10:26:28.000Z</time></trkpt>
        <trkpt lat="29.5528699" lon="103.3454342"><ele>2232.06</ele><time>2026-02-14T10:26:42.000Z</time></trkpt>
        <trkpt lat="29.5527783" lon="103.345448"><ele>2233.2</ele><time>2026-02-14T10:26:52.000Z</time></trkpt>
        <trkpt lat="29.5526887" lon="103.3454368"><ele>2234.23</ele><time>2026-02-14T10:27:02.000Z</time></trkpt>
        <trkpt lat="29.5525972" lon="103.3454256"><ele>2235.7</ele><time>2026-02-14T10:27:14.000Z</time></trkpt>
        <trkpt lat="29.5525061" lon="103.3454403"><ele>2236.36</ele><time>2026-02-14T10:27:26.000Z</time></trkpt>
        <trkpt lat="29.5524136" lon="103.3454446"><ele>2236.73</ele><time>2026-02-14T10:27:44.000Z</time></trkpt>
        <trkpt lat="29.5523868" lon="103.345357"><ele>2235.76</ele><time>2026-02-14T10:27:56.000Z</time></trkpt>
        <trkpt lat="29.5524021" lon="103.3452975"><ele>2235.13</ele><time>2026-02-14T10:28:02.000Z</time></trkpt>
        <trkpt lat="29.5523665" lon="103.3452128"><ele>2234.65</ele><time>2026-02-14T10:28:20.000Z</time></trkpt>
        <trkpt lat="29.5522854" lon="103.3451571"><ele>2235.26</ele><time>2026-02-14T10:28:34.000Z</time></trkpt>
        <trkpt lat="29.5521923" lon="103.3451222"><ele>2236.2</ele><time>2026-02-14T10:28:44.000Z</time></trkpt>
        <trkpt lat="29.5520939" lon="103.3451009"><ele>2236.56</ele><time>2026-02-14T10:28:54.000Z</time></trkpt>
        <trkpt lat="29.5520072" lon="103.3450571"><ele>2236.92</ele><time>2026-02-14T10:29:06.000Z</time></trkpt>
        <trkpt lat="29.5519693" lon="103.3449653"><ele>2237.09</ele><time>2026-02-14T10:29:24.000Z</time></trkpt>
        <trkpt lat="29.5519379" lon="103.3448527"><ele>2236.63</ele><time>2026-02-14T10:29:46.000Z</time></trkpt>
        <trkpt lat="29.5518852" lon="103.3447497"><ele>2235.54</ele><time>2026-02-14T10:29:58.000Z</time></trkpt>
        <trkpt lat="29.5518193" lon="103.3446712"><ele>2233.66</ele><time>2026-02-14T10:30:12.000Z</time></trkpt>
        <trkpt lat="29.5518193" lon="103.3446712"><ele>2233.66</ele><time>2026-02-14T10:30:54.000Z</time></trkpt>
        <trkpt lat="29.5517768" lon="103.3445718"><ele>2232.26</ele><time>2026-02-14T10:31:00.000Z</time></trkpt>
        <trkpt lat="29.5517768" lon="103.3445718"><ele>2232.26</ele><time>2026-02-14T10:31:04.000Z</time></trkpt>
        <trkpt lat="29.5517286" lon="103.3444779"><ele>2231.28</ele><time>2026-02-14T10:31:18.000Z</time></trkpt>
        <trkpt lat="29.5516599" lon="103.3444067"><ele>2232.02</ele><time>2026-02-14T10:31:30.000Z</time></trkpt>
        <trkpt lat="29.5515945" lon="103.3443313"><ele>2232.62</ele><time>2026-02-14T10:31:40.000Z</time></trkpt>
        <trkpt lat="29.5515128" lon="103.3442599"><ele>2233.03</ele><time>2026-02-14T10:31:52.000Z</time></trkpt>
        <trkpt lat="29.5514173" lon="103.3442093"><ele>2231.94</ele><time>2026-02-14T10:32:04.000Z</time></trkpt>
        <trkpt lat="29.5513234" lon="103.34418"><ele>2231.21</ele><time>2026-02-14T10:32:16.000Z</time></trkpt>
        <trkpt lat="29.5512248" lon="103.3441772"><ele>2229.96</ele><time>2026-02-14T10:32:28.000Z</time></trkpt>
        <trkpt lat="29.5511276" lon="103.3441984"><ele>2228.38</ele><time>2026-02-14T10:32:38.000Z</time></trkpt>
        <trkpt lat="29.5510341" lon="103.3441862"><ele>2225.74</ele><time>2026-02-14T10:32:52.000Z</time></trkpt>
        <trkpt lat="29.5509358" lon="103.3441555"><ele>2224.54</ele><time>2026-02-14T10:33:02.000Z</time></trkpt>
        <trkpt lat="29.5508413" lon="103.3441406"><ele>2223.61</ele><time>2026-02-14T10:33:10.000Z</time></trkpt>
        <trkpt lat="29.5507508" lon="103.3441055"><ele>2223.09</ele><time>2026-02-14T10:33:20.000Z</time></trkpt>
        <trkpt lat="29.5506976" lon="103.3440259"><ele>2223.17</ele><time>2026-02-14T10:33:30.000Z</time></trkpt>
        <trkpt lat="29.5506435" lon="103.3439418"><ele>2222.71</ele><time>2026-02-14T10:33:46.000Z</time></trkpt>
        <trkpt lat="29.550565" lon="103.3438853"><ele>2223.71</ele><time>2026-02-14T10:34:02.000Z</time></trkpt>
        <trkpt lat="29.5504985" lon="103.3438062"><ele>2224.71</ele><time>2026-02-14T10:34:14.000Z</time></trkpt>
        <trkpt lat="29.5504311" lon="103.3437155"><ele>2225.15</ele><time>2026-02-14T10:34:26.000Z</time></trkpt>
        <trkpt lat="29.5503553" lon="103.3436344"><ele>2225.47</ele><time>2026-02-14T10:34:36.000Z</time></trkpt>
        <trkpt lat="29.5502929" lon="103.3435475"><ele>2225.53</ele><time>2026-02-14T10:34:46.000Z</time></trkpt>
        <trkpt lat="29.5502485" lon="103.3434459"><ele>2226.27</ele><time>2026-02-14T10:34:56.000Z</time></trkpt>
        <trkpt lat="29.5501977" lon="103.34334"><ele>2226.84</ele><time>2026-02-14T10:35:06.000Z</time></trkpt>
        <trkpt lat="29.5501316" lon="103.3432545"><ele>2227.35</ele><time>2026-02-14T10:35:16.000Z</time></trkpt>
        <trkpt lat="29.5500574" lon="103.3431858"><ele>2227.52</ele><time>2026-02-14T10:35:26.000Z</time></trkpt>
        <trkpt lat="29.5499823" lon="103.3431067"><ele>2228.31</ele><time>2026-02-14T10:35:38.000Z</time></trkpt>
        <trkpt lat="29.5499251" lon="103.3430093"><ele>2230.36</ele><time>2026-02-14T10:35:52.000Z</time></trkpt>
        <trkpt lat="29.5498758" lon="103.3429127"><ele>2231.92</ele><time>2026-02-14T10:36:04.000Z</time></trkpt>
        <trkpt lat="29.5498368" lon="103.342815"><ele>2232.87</ele><time>2026-02-14T10:36:16.000Z</time></trkpt>
        <trkpt lat="29.5497942" lon="103.3427211"><ele>2233.36</ele><time>2026-02-14T10:36:26.000Z</time></trkpt>
        <trkpt lat="29.5497364" lon="103.3426274"><ele>2233.45</ele><time>2026-02-14T10:36:38.000Z</time></trkpt>
        <trkpt lat="29.54967" lon="103.3425403"><ele>2233.69</ele><time>2026-02-14T10:36:48.000Z</time></trkpt>
        <trkpt lat="29.5495953" lon="103.3424568"><ele>2233.71</ele><time>2026-02-14T10:37:00.000Z</time></trkpt>
        <trkpt lat="29.5495264" lon="103.3423828"><ele>2234.09</ele><time>2026-02-14T10:37:10.000Z</time></trkpt>
        <trkpt lat="29.5494594" lon="103.3423057"><ele>2234.3</ele><time>2026-02-14T10:37:20.000Z</time></trkpt>
        <trkpt lat="29.5493906" lon="103.3422294"><ele>2235.06</ele><time>2026-02-14T10:37:30.000Z</time></trkpt>
        <trkpt lat="29.5493461" lon="103.3421302"><ele>2235.02</ele><time>2026-02-14T10:37:42.000Z</time></trkpt>
        <trkpt lat="29.5493192" lon="103.3420181"><ele>2235.75</ele><time>2026-02-14T10:38:00.000Z</time></trkpt>
        <trkpt lat="29.5493192" lon="103.3420181"><ele>2235.75</ele><time>2026-02-14T10:38:22.000Z</time></trkpt>
        <trkpt lat="29.549305" lon="103.3419063"><ele>2237.05</ele><time>2026-02-14T10:38:24.000Z</time></trkpt>
        <trkpt lat="29.549305" lon="103.3419063"><ele>2237.05</ele><time>2026-02-14T10:38:28.000Z</time></trkpt>
        <trkpt lat="29.5492875" lon="103.3417948"><ele>2238.2</ele><time>2026-02-14T10:38:42.000Z</time></trkpt>
        <trkpt lat="29.5492557" lon="103.3416923"><ele>2238</ele><time>2026-02-14T10:38:53.000Z</time></trkpt>
        <trkpt lat="29.5492288" lon="103.3415769"><ele>2237.61</ele><time>2026-02-14T10:39:05.000Z</time></trkpt>
        <trkpt lat="29.5492124" lon="103.3414647"><ele>2237.22</ele><time>2026-02-14T10:39:17.000Z</time></trkpt>
        <trkpt lat="29.5492124" lon="103.3414647"><ele>2237.22</ele><time>2026-02-14T10:39:40.000Z</time></trkpt>
        <trkpt lat="29.5492124" lon="103.3414647"><ele>2237.22</ele><time>2026-02-14T10:39:42.000Z</time></trkpt>
        <trkpt lat="29.5492124" lon="103.3414647"><ele>2237.22</ele><time>2026-02-14T10:40:04.000Z</time></trkpt>
        <trkpt lat="29.5492124" lon="103.3414647"><ele>2237.22</ele><time>2026-02-14T10:40:16.000Z</time></trkpt>
        <trkpt lat="29.5492124" lon="103.3414647"><ele>2237.22</ele><time>2026-02-14T10:40:44.000Z</time></trkpt>
        <trkpt lat="29.5491738" lon="103.3413699"><ele>2238.18</ele><time>2026-02-14T10:41:14.000Z</time></trkpt>
        <trkpt lat="29.5491738" lon="103.3413699"><ele>2238.18</ele><time>2026-02-14T10:41:31.000Z</time></trkpt>
        <trkpt lat="29.5490928" lon="103.341309"><ele>2239.62</ele><time>2026-02-14T10:41:57.000Z</time></trkpt>
        <trkpt lat="29.5490561" lon="103.3412138"><ele>2241.29</ele><time>2026-02-14T10:42:23.000Z</time></trkpt>
        <trkpt lat="29.5489766" lon="103.341174"><ele>2243.6</ele><time>2026-02-14T10:42:33.000Z</time></trkpt>
        <trkpt lat="29.5488837" lon="103.3411362"><ele>2244.68</ele><time>2026-02-14T10:42:45.000Z</time></trkpt>
        <trkpt lat="29.5487908" lon="103.341145"><ele>2247.33</ele><time>2026-02-14T10:43:07.000Z</time></trkpt>
        <trkpt lat="29.5486961" lon="103.3411684"><ele>2250.4</ele><time>2026-02-14T10:43:31.000Z</time></trkpt>
        <trkpt lat="29.5486019" lon="103.341188"><ele>2252.91</ele><time>2026-02-14T10:44:03.000Z</time></trkpt>
        <trkpt lat="29.548515" lon="103.3412244"><ele>2256.2</ele><time>2026-02-14T10:44:27.000Z</time></trkpt>
        <trkpt lat="29.5484265" lon="103.3412553"><ele>2260.62</ele><time>2026-02-14T10:44:55.000Z</time></trkpt>
        <trkpt lat="29.5483368" lon="103.3412583"><ele>2264.66</ele><time>2026-02-14T10:45:23.000Z</time></trkpt>
        <trkpt lat="29.5482494" lon="103.3412319"><ele>2268.47</ele><time>2026-02-14T10:45:51.000Z</time></trkpt>
        <trkpt lat="29.5481581" lon="103.3412073"><ele>2272.26</ele><time>2026-02-14T10:46:17.000Z</time></trkpt>
        <trkpt lat="29.5480647" lon="103.3411861"><ele>2275.87</ele><time>2026-02-14T10:46:37.000Z</time></trkpt>
        <trkpt lat="29.5480647" lon="103.3411861"><ele>2275.87</ele><time>2026-02-14T10:47:02.000Z</time></trkpt>
        <trkpt lat="29.5480647" lon="103.3411861"><ele>2275.87</ele><time>2026-02-14T10:47:14.000Z</time></trkpt>
        <trkpt lat="29.5480647" lon="103.3411861"><ele>2275.87</ele><time>2026-02-14T10:47:30.000Z</time></trkpt>
        <trkpt lat="29.5480647" lon="103.3411861"><ele>2275.87</ele><time>2026-02-14T10:49:16.000Z</time></trkpt>
        <trkpt lat="29.5480647" lon="103.3411861"><ele>2275.87</ele><time>2026-02-14T10:49:32.000Z</time></trkpt>
        <trkpt lat="29.5480647" lon="103.3411861"><ele>2275.87</ele><time>2026-02-14T10:52:46.000Z</time></trkpt>
        <trkpt lat="29.5480647" lon="103.3411861"><ele>2275.87</ele><time>2026-02-14T10:53:16.000Z</time></trkpt>
        <trkpt lat="29.5480647" lon="103.3411861"><ele>2275.87</ele><time>2026-02-14T10:56:32.000Z</time></trkpt>
        <trkpt lat="29.5480647" lon="103.3411861"><ele>2275.87</ele><time>2026-02-14T10:56:54.000Z</time></trkpt>
        <trkpt lat="29.5479772" lon="103.3412159"><ele>2278.14</ele><time>2026-02-14T10:57:30.000Z</time></trkpt>
        <trkpt lat="29.5479772" lon="103.3412159"><ele>2278.14</ele><time>2026-02-14T10:57:31.000Z</time></trkpt>
        <trkpt lat="29.547887" lon="103.3412125"><ele>2283.58</ele><time>2026-02-14T10:57:41.000Z</time></trkpt>
        <trkpt lat="29.5478128" lon="103.3411563"><ele>2287.03</ele><time>2026-02-14T10:57:53.000Z</time></trkpt>
        <trkpt lat="29.5477315" lon="103.3411006"><ele>2289.22</ele><time>2026-02-14T10:58:07.000Z</time></trkpt>
        <trkpt lat="29.5476385" lon="103.3410678"><ele>2288.28</ele><time>2026-02-14T10:58:21.000Z</time></trkpt>
        <trkpt lat="29.5475426" lon="103.3410591"><ele>2287.85</ele><time>2026-02-14T10:58:37.000Z</time></trkpt>
        <trkpt lat="29.5474529" lon="103.341035"><ele>2289.97</ele><time>2026-02-14T10:58:53.000Z</time></trkpt>
        <trkpt lat="29.5473666" lon="103.340997"><ele>2291.66</ele><time>2026-02-14T10:59:19.000Z</time></trkpt>
        <trkpt lat="29.5472945" lon="103.3409217"><ele>2292.87</ele><time>2026-02-14T10:59:47.000Z</time></trkpt>
        <trkpt lat="29.5472585" lon="103.3408152"><ele>2294.13</ele><time>2026-02-14T10:59:59.000Z</time></trkpt>
        <trkpt lat="29.5472114" lon="103.34072"><ele>2295.23</ele><time>2026-02-14T11:00:13.000Z</time></trkpt>
        <trkpt lat="29.5471872" lon="103.3406146"><ele>2296.13</ele><time>2026-02-14T11:00:27.000Z</time></trkpt>
        <trkpt lat="29.5471737" lon="103.3405023"><ele>2298.68</ele><time>2026-02-14T11:00:55.000Z</time></trkpt>
        <trkpt lat="29.5471379" lon="103.3404056"><ele>2301.33</ele><time>2026-02-14T11:01:23.000Z</time></trkpt>
        <trkpt lat="29.5471033" lon="103.3403069"><ele>2304.32</ele><time>2026-02-14T11:01:53.000Z</time></trkpt>
        <trkpt lat="29.5470919" lon="103.3402024"><ele>2307.94</ele><time>2026-02-14T11:02:25.000Z</time></trkpt>
        <trkpt lat="29.5470656" lon="103.3401028"><ele>2313.13</ele><time>2026-02-14T11:03:03.000Z</time></trkpt>
        <trkpt lat="29.5470625" lon="103.339999"><ele>2317.47</ele><time>2026-02-14T11:03:43.000Z</time></trkpt>
        <trkpt lat="29.5470468" lon="103.3398954"><ele>2322.79</ele><time>2026-02-14T11:04:17.000Z</time></trkpt>
        <trkpt lat="29.5470592" lon="103.3397895"><ele>2327.48</ele><time>2026-02-14T11:04:41.000Z</time></trkpt>
        <trkpt lat="29.5470343" lon="103.3396878"><ele>2332.22</ele><time>2026-02-14T11:05:09.000Z</time></trkpt>
        <trkpt lat="29.5469633" lon="103.339623"><ele>2337.15</ele><time>2026-02-14T11:05:39.000Z</time></trkpt>
        <trkpt lat="29.5468901" lon="103.3395496"><ele>2341.04</ele><time>2026-02-14T11:06:11.000Z</time></trkpt>
        <trkpt lat="29.5468309" lon="103.3394655"><ele>2344.87</ele><time>2026-02-14T11:06:43.000Z</time></trkpt>
        <trkpt lat="29.5468108" lon="103.3393647"><ele>2349.1</ele><time>2026-02-14T11:07:25.000Z</time></trkpt>
        <trkpt lat="29.5467515" lon="103.339283"><ele>2354.34</ele><time>2026-02-14T11:07:57.000Z</time></trkpt>
        <trkpt lat="29.546685" lon="103.3392061"><ele>2359.06</ele><time>2026-02-14T11:08:35.000Z</time></trkpt>
        <trkpt lat="29.5466235" lon="103.3391279"><ele>2364.08</ele><time>2026-02-14T11:09:05.000Z</time></trkpt>
        <trkpt lat="29.5465767" lon="103.3390394"><ele>2369.17</ele><time>2026-02-14T11:09:27.000Z</time></trkpt>
        <trkpt lat="29.5465186" lon="103.3389509"><ele>2373.74</ele><time>2026-02-14T11:09:45.000Z</time></trkpt>
        <trkpt lat="29.5464591" lon="103.3388659"><ele>2377.21</ele><time>2026-02-14T11:10:15.000Z</time></trkpt>
        <trkpt lat="29.5463871" lon="103.3387986"><ele>2381.32</ele><time>2026-02-14T11:10:47.000Z</time></trkpt>
        <trkpt lat="29.5463145" lon="103.3387331"><ele>2385.53</ele><time>2026-02-14T11:11:19.000Z</time></trkpt>
        <trkpt lat="29.5462576" lon="103.3386438"><ele>2390.17</ele><time>2026-02-14T11:11:51.000Z</time></trkpt>
        <trkpt lat="29.546212" lon="103.3385472"><ele>2394.76</ele><time>2026-02-14T11:12:13.000Z</time></trkpt>
        <trkpt lat="29.5461769" lon="103.3384403"><ele>2397.95</ele><time>2026-02-14T11:12:31.000Z</time></trkpt>
        <trkpt lat="29.5461489" lon="103.3383291"><ele>2400.96</ele><time>2026-02-14T11:12:57.000Z</time></trkpt>
        <trkpt lat="29.5461625" lon="103.3382192"><ele>2403.5</ele><time>2026-02-14T11:13:19.000Z</time></trkpt>
        <trkpt lat="29.5461913" lon="103.3381143"><ele>2406.73</ele><time>2026-02-14T11:13:53.000Z</time></trkpt>
        <trkpt lat="29.5462347" lon="103.3380183"><ele>2410.98</ele><time>2026-02-14T11:14:19.000Z</time></trkpt>
        <trkpt lat="29.5462783" lon="103.3379246"><ele>2414.92</ele><time>2026-02-14T11:14:33.000Z</time></trkpt>
        <trkpt lat="29.5463451" lon="103.3378327"><ele>2416.94</ele><time>2026-02-14T11:14:47.000Z</time></trkpt>
        <trkpt lat="29.546391" lon="103.3377273"><ele>2417.8</ele><time>2026-02-14T11:15:05.000Z</time></trkpt>
        <trkpt lat="29.5464233" lon="103.3376196"><ele>2418</ele><time>2026-02-14T11:15:21.000Z</time></trkpt>
        <trkpt lat="29.546463" lon="103.3375073"><ele>2419.61</ele><time>2026-02-14T11:15:33.000Z</time></trkpt>
        <trkpt lat="29.5465305" lon="103.337417"><ele>2420.44</ele><time>2026-02-14T11:15:45.000Z</time></trkpt>
        <trkpt lat="29.5465815" lon="103.3373155"><ele>2420.45</ele><time>2026-02-14T11:16:01.000Z</time></trkpt>
        <trkpt lat="29.5466047" lon="103.337212"><ele>2420.76</ele><time>2026-02-14T11:16:13.000Z</time></trkpt>
        <trkpt lat="29.5466076" lon="103.3371021"><ele>2421.46</ele><time>2026-02-14T11:16:27.000Z</time></trkpt>
        <trkpt lat="29.5465543" lon="103.337011"><ele>2422.66</ele><time>2026-02-14T11:16:51.000Z</time></trkpt>
        <trkpt lat="29.5464813" lon="103.3369301"><ele>2422.76</ele><time>2026-02-14T11:17:07.000Z</time></trkpt>
        <trkpt lat="29.5464313" lon="103.3368358"><ele>2422.78</ele><time>2026-02-14T11:17:23.000Z</time></trkpt>
        <trkpt lat="29.5464161" lon="103.3367212"><ele>2422.49</ele><time>2026-02-14T11:17:37.000Z</time></trkpt>
        <trkpt lat="29.5464149" lon="103.3366114"><ele>2422.65</ele><time>2026-02-14T11:17:53.000Z</time></trkpt>
        <trkpt lat="29.5464401" lon="103.3365082"><ele>2422.09</ele><time>2026-02-14T11:18:07.000Z</time></trkpt>
        <trkpt lat="29.5464746" lon="103.3364066"><ele>2420.99</ele><time>2026-02-14T11:18:25.000Z</time></trkpt>
        <trkpt lat="29.54649" lon="103.3363019"><ele>2419.48</ele><time>2026-02-14T11:18:47.000Z</time></trkpt>
        <trkpt lat="29.5464903" lon="103.3361932"><ele>2416.62</ele><time>2026-02-14T11:18:59.000Z</time></trkpt>
        <trkpt lat="29.5465204" lon="103.3360899"><ele>2414.15</ele><time>2026-02-14T11:19:11.000Z</time></trkpt>
        <trkpt lat="29.5465684" lon="103.335997"><ele>2412.88</ele><time>2026-02-14T11:19:25.000Z</time></trkpt>
        <trkpt lat="29.5466144" lon="103.3359016"><ele>2411.41</ele><time>2026-02-14T11:19:39.000Z</time></trkpt>
        <trkpt lat="29.5466468" lon="103.3357906"><ele>2409.52</ele><time>2026-02-14T11:19:51.000Z</time></trkpt>
        <trkpt lat="29.5466621" lon="103.3356758"><ele>2407.62</ele><time>2026-02-14T11:20:03.000Z</time></trkpt>
        <trkpt lat="29.5466863" lon="103.3355724"><ele>2405.17</ele><time>2026-02-14T11:20:13.000Z</time></trkpt>
        <trkpt lat="29.546721" lon="103.3354654"><ele>2403.26</ele><time>2026-02-14T11:20:25.000Z</time></trkpt>
        <trkpt lat="29.5467372" lon="103.3353613"><ele>2401.4</ele><time>2026-02-14T11:20:37.000Z</time></trkpt>
        <trkpt lat="29.5467504" lon="103.3352562"><ele>2399.83</ele><time>2026-02-14T11:20:51.000Z</time></trkpt>
        <trkpt lat="29.5467671" lon="103.3351464"><ele>2399.13</ele><time>2026-02-14T11:21:09.000Z</time></trkpt>
        <trkpt lat="29.5467359" lon="103.3350502"><ele>2397.61</ele><time>2026-02-14T11:21:27.000Z</time></trkpt>
        <trkpt lat="29.5466621" lon="103.3349721"><ele>2395.66</ele><time>2026-02-14T11:21:47.000Z</time></trkpt>
        <trkpt lat="29.5465739" lon="103.3348978"><ele>2392.92</ele><time>2026-02-14T11:21:59.000Z</time></trkpt>
        <trkpt lat="29.5464865" lon="103.3348334"><ele>2390.92</ele><time>2026-02-14T11:22:13.000Z</time></trkpt>
        <trkpt lat="29.5463903" lon="103.3347868"><ele>2390.88</ele><time>2026-02-14T11:22:25.000Z</time></trkpt>
        <trkpt lat="29.5462959" lon="103.3347592"><ele>2391.88</ele><time>2026-02-14T11:22:51.000Z</time></trkpt>
        <trkpt lat="29.546202" lon="103.3347568"><ele>2393.11</ele><time>2026-02-14T11:23:17.000Z</time></trkpt>
        <trkpt lat="29.5461092" lon="103.3347593"><ele>2395.7</ele><time>2026-02-14T11:23:57.000Z</time></trkpt>
        <trkpt lat="29.5460168" lon="103.3347517"><ele>2397.19</ele><time>2026-02-14T11:24:21.000Z</time></trkpt>
        <trkpt lat="29.5459216" lon="103.3347419"><ele>2397.48</ele><time>2026-02-14T11:24:37.000Z</time></trkpt>
        <trkpt lat="29.5458604" lon="103.3346674"><ele>2396.55</ele><time>2026-02-14T11:25:05.000Z</time></trkpt>
        <trkpt lat="29.5457992" lon="103.3345781"><ele>2393.89</ele><time>2026-02-14T11:25:17.000Z</time></trkpt>
        <trkpt lat="29.5457163" lon="103.334511"><ele>2391.18</ele><time>2026-02-14T11:25:29.000Z</time></trkpt>
        <trkpt lat="29.5456323" lon="103.3344506"><ele>2389.86</ele><time>2026-02-14T11:25:41.000Z</time></trkpt>
        <trkpt lat="29.5455447" lon="103.3344007"><ele>2389.02</ele><time>2026-02-14T11:25:53.000Z</time></trkpt>
        <trkpt lat="29.5454586" lon="103.3343622"><ele>2387.65</ele><time>2026-02-14T11:26:07.000Z</time></trkpt>
        <trkpt lat="29.5453709" lon="103.3343207"><ele>2387.24</ele><time>2026-02-14T11:26:31.000Z</time></trkpt>
        <trkpt lat="29.5452889" lon="103.3342541"><ele>2388.66</ele><time>2026-02-14T11:26:45.000Z</time></trkpt>
        <trkpt lat="29.5452215" lon="103.3341751"><ele>2389.22</ele><time>2026-02-14T11:26:59.000Z</time></trkpt>
        <trkpt lat="29.5451565" lon="103.3340933"><ele>2390.51</ele><time>2026-02-14T11:27:15.000Z</time></trkpt>
        <trkpt lat="29.5450678" lon="103.3340573"><ele>2392.05</ele><time>2026-02-14T11:27:27.000Z</time></trkpt>
        <trkpt lat="29.5449714" lon="103.3340547"><ele>2392.71</ele><time>2026-02-14T11:27:41.000Z</time></trkpt>
        <trkpt lat="29.5448769" lon="103.334059"><ele>2392.54</ele><time>2026-02-14T11:27:53.000Z</time></trkpt>
        <trkpt lat="29.5447829" lon="103.3340994"><ele>2391.1</ele><time>2026-02-14T11:28:05.000Z</time></trkpt>
        <trkpt lat="29.5447023" lon="103.3341807"><ele>2390.18</ele><time>2026-02-14T11:28:17.000Z</time></trkpt>
        <trkpt lat="29.5446233" lon="103.3342477"><ele>2389.43</ele><time>2026-02-14T11:28:27.000Z</time></trkpt>
        <trkpt lat="29.5445347" lon="103.3342515"><ele>2389.84</ele><time>2026-02-14T11:28:39.000Z</time></trkpt>
        <trkpt lat="29.5444488" lon="103.3342109"><ele>2390.34</ele><time>2026-02-14T11:28:49.000Z</time></trkpt>
        <trkpt lat="29.5443527" lon="103.3341844"><ele>2389.89</ele><time>2026-02-14T11:28:59.000Z</time></trkpt>
        <trkpt lat="29.5442546" lon="103.3341591"><ele>2389.55</ele><time>2026-02-14T11:29:13.000Z</time></trkpt>
        <trkpt lat="29.544155" lon="103.3341362"><ele>2389.76</ele><time>2026-02-14T11:29:27.000Z</time></trkpt>
        <trkpt lat="29.5440567" lon="103.3341191"><ele>2390</ele><time>2026-02-14T11:29:37.000Z</time></trkpt>
        <trkpt lat="29.5439642" lon="103.334067"><ele>2390.04</ele><time>2026-02-14T11:29:49.000Z</time></trkpt>
        <trkpt lat="29.5438902" lon="103.3339914"><ele>2389.95</ele><time>2026-02-14T11:30:01.000Z</time></trkpt>
        <trkpt lat="29.5438249" lon="103.333913"><ele>2390.72</ele><time>2026-02-14T11:30:13.000Z</time></trkpt>
        <trkpt lat="29.543782" lon="103.3338977"><ele>2390.8</ele><time>2026-02-14T11:30:19.000Z</time></trkpt>
        <trkpt lat="29.5437016" lon="103.3339245"><ele>2391.26</ele><time>2026-02-14T11:30:39.000Z</time></trkpt>
        <trkpt lat="29.5436184" lon="103.3338875"><ele>2391.27</ele><time>2026-02-14T11:30:51.000Z</time></trkpt>
        <trkpt lat="29.5435483" lon="103.3338095"><ele>2389.99</ele><time>2026-02-14T11:31:03.000Z</time></trkpt>
        <trkpt lat="29.5434762" lon="103.3337315"><ele>2389.74</ele><time>2026-02-14T11:31:17.000Z</time></trkpt>
        <trkpt lat="29.5434002" lon="103.3336539"><ele>2389.79</ele><time>2026-02-14T11:31:31.000Z</time></trkpt>
        <trkpt lat="29.543368" lon="103.3335431"><ele>2388.15</ele><time>2026-02-14T11:31:45.000Z</time></trkpt>
        <trkpt lat="29.5433464" lon="103.3334268"><ele>2385.51</ele><time>2026-02-14T11:31:55.000Z</time></trkpt>
        <trkpt lat="29.5433214" lon="103.3333091"><ele>2384.01</ele><time>2026-02-14T11:32:07.000Z</time></trkpt>
        <trkpt lat="29.5432941" lon="103.3331994"><ele>2384.39</ele><time>2026-02-14T11:32:19.000Z</time></trkpt>
        <trkpt lat="29.5432353" lon="103.3331183"><ele>2384.22</ele><time>2026-02-14T11:32:29.000Z</time></trkpt>
        <trkpt lat="29.5431711" lon="103.3330344"><ele>2383.49</ele><time>2026-02-14T11:32:51.000Z</time></trkpt>
        <trkpt lat="29.5430861" lon="103.3329835"><ele>2384.95</ele><time>2026-02-14T11:33:03.000Z</time></trkpt>
        <trkpt lat="29.5429922" lon="103.3329683"><ele>2385.06</ele><time>2026-02-14T11:33:13.000Z</time></trkpt>
        <trkpt lat="29.5429071" lon="103.3329289"><ele>2384.48</ele><time>2026-02-14T11:33:25.000Z</time></trkpt>
        <trkpt lat="29.542828" lon="103.3328698"><ele>2384.36</ele><time>2026-02-14T11:33:37.000Z</time></trkpt>
        <trkpt lat="29.5427724" lon="103.3327864"><ele>2384.08</ele><time>2026-02-14T11:33:47.000Z</time></trkpt>
        <trkpt lat="29.5427243" lon="103.3326844"><ele>2383.65</ele><time>2026-02-14T11:34:01.000Z</time></trkpt>
        <trkpt lat="29.5426468" lon="103.3326365"><ele>2383.99</ele><time>2026-02-14T11:34:11.000Z</time></trkpt>
        <trkpt lat="29.5425611" lon="103.3325903"><ele>2384.08</ele><time>2026-02-14T11:34:21.000Z</time></trkpt>
        <trkpt lat="29.5425188" lon="103.3325028"><ele>2384.07</ele><time>2026-02-14T11:34:31.000Z</time></trkpt>
        <trkpt lat="29.5424956" lon="103.3324005"><ele>2385.1</ele><time>2026-02-14T11:34:43.000Z</time></trkpt>
        <trkpt lat="29.5424527" lon="103.3323008"><ele>2385.62</ele><time>2026-02-14T11:34:57.000Z</time></trkpt>
        <trkpt lat="29.5424309" lon="103.3322156"><ele>2385.67</ele><time>2026-02-14T11:35:09.000Z</time></trkpt>
        <trkpt lat="29.542385" lon="103.3321185"><ele>2385.83</ele><time>2026-02-14T11:35:23.000Z</time></trkpt>
        <trkpt lat="29.5423043" lon="103.3320464"><ele>2384.95</ele><time>2026-02-14T11:35:33.000Z</time></trkpt>
        <trkpt lat="29.5422233" lon="103.3319838"><ele>2383.62</ele><time>2026-02-14T11:35:41.000Z</time></trkpt>
        <trkpt lat="29.5421307" lon="103.3319752"><ele>2382.75</ele><time>2026-02-14T11:35:49.000Z</time></trkpt>
        <trkpt lat="29.5420297" lon="103.3319713"><ele>2382.24</ele><time>2026-02-14T11:36:01.000Z</time></trkpt>
        <trkpt lat="29.5419281" lon="103.3319884"><ele>2381.5</ele><time>2026-02-14T11:36:13.000Z</time></trkpt>
        <trkpt lat="29.5418231" lon="103.3320033"><ele>2380.22</ele><time>2026-02-14T11:36:23.000Z</time></trkpt>
        <trkpt lat="29.5417252" lon="103.3319937"><ele>2379.22</ele><time>2026-02-14T11:36:33.000Z</time></trkpt>
        <trkpt lat="29.5417278" lon="103.3319029"><ele>2378.9</ele><time>2026-02-14T11:36:43.000Z</time></trkpt>
        <trkpt lat="29.541776" lon="103.3317948"><ele>2378.88</ele><time>2026-02-14T11:36:53.000Z</time></trkpt>
        <trkpt lat="29.5417843" lon="103.3316806"><ele>2378.57</ele><time>2026-02-14T11:37:03.000Z</time></trkpt>
        <trkpt lat="29.5417095" lon="103.331636"><ele>2378.98</ele><time>2026-02-14T11:37:19.000Z</time></trkpt>
        <trkpt lat="29.5416076" lon="103.3316515"><ele>2379.66</ele><time>2026-02-14T11:37:31.000Z</time></trkpt>
        <trkpt lat="29.5414972" lon="103.3316924"><ele>2380.32</ele><time>2026-02-14T11:37:43.000Z</time></trkpt>
        <trkpt lat="29.541396" lon="103.3317353"><ele>2380.92</ele><time>2026-02-14T11:37:55.000Z</time></trkpt>
        <trkpt lat="29.5412982" lon="103.3317715"><ele>2382.05</ele><time>2026-02-14T11:38:09.000Z</time></trkpt>
        <trkpt lat="29.5412011" lon="103.3318018"><ele>2382.7</ele><time>2026-02-14T11:38:29.000Z</time></trkpt>
        <trkpt lat="29.541099" lon="103.3318019"><ele>2382.35</ele><time>2026-02-14T11:38:39.000Z</time></trkpt>
        <trkpt lat="29.5409997" lon="103.3317972"><ele>2382.37</ele><time>2026-02-14T11:38:57.000Z</time></trkpt>
        <trkpt lat="29.5409067" lon="103.331782"><ele>2383.51</ele><time>2026-02-14T11:39:23.000Z</time></trkpt>
        <trkpt lat="29.5408136" lon="103.3317447"><ele>2386.34</ele><time>2026-02-14T11:39:35.000Z</time></trkpt>
        <trkpt lat="29.540723" lon="103.3317122"><ele>2388.46</ele><time>2026-02-14T11:39:47.000Z</time></trkpt>
        <trkpt lat="29.540625" lon="103.3317273"><ele>2389.56</ele><time>2026-02-14T11:40:03.000Z</time></trkpt>
        <trkpt lat="29.5405362" lon="103.3317901"><ele>2389.65</ele><time>2026-02-14T11:40:13.000Z</time></trkpt>
        <trkpt lat="29.5404666" lon="103.3318705"><ele>2390.01</ele><time>2026-02-14T11:40:29.000Z</time></trkpt>
        <trkpt lat="29.5403793" lon="103.3319117"><ele>2390.81</ele><time>2026-02-14T11:40:43.000Z</time></trkpt>
        <trkpt lat="29.5402972" lon="103.3319595"><ele>2391.67</ele><time>2026-02-14T11:40:55.000Z</time></trkpt>
        <trkpt lat="29.5402125" lon="103.3320064"><ele>2392.56</ele><time>2026-02-14T11:41:09.000Z</time></trkpt>
        <trkpt lat="29.5401709" lon="103.3320981"><ele>2392.5</ele><time>2026-02-14T11:41:35.000Z</time></trkpt>
        <trkpt lat="29.5400932" lon="103.3321382"><ele>2392.73</ele><time>2026-02-14T11:42:01.000Z</time></trkpt>
        <trkpt lat="29.5400233" lon="103.3322014"><ele>2392.58</ele><time>2026-02-14T11:42:13.000Z</time></trkpt>
        <trkpt lat="29.5399427" lon="103.3322466"><ele>2393.39</ele><time>2026-02-14T11:42:27.000Z</time></trkpt>
        <trkpt lat="29.5398573" lon="103.3322817"><ele>2394.28</ele><time>2026-02-14T11:42:49.000Z</time></trkpt>
        <trkpt lat="29.5397766" lon="103.3323331"><ele>2394.17</ele><time>2026-02-14T11:42:59.000Z</time></trkpt>
        <trkpt lat="29.5398129" lon="103.3322993"><ele>2394.93</ele><time>2026-02-14T11:43:57.000Z</time></trkpt>
        <trkpt lat="29.5399051" lon="103.3322634"><ele>2394.26</ele><time>2026-02-14T11:44:05.000Z</time></trkpt>
        <trkpt lat="29.5400037" lon="103.3322164"><ele>2393.22</ele><time>2026-02-14T11:44:15.000Z</time></trkpt>
        <trkpt lat="29.540094" lon="103.332148"><ele>2392.8</ele><time>2026-02-14T11:44:25.000Z</time></trkpt>
        <trkpt lat="29.5401686" lon="103.3320712"><ele>2392.07</ele><time>2026-02-14T11:44:37.000Z</time></trkpt>
        <trkpt lat="29.5401333" lon="103.3319981"><ele>2392.58</ele><time>2026-02-14T11:44:55.000Z</time></trkpt>
        <trkpt lat="29.5400371" lon="103.3319901"><ele>2387.31</ele><time>2026-02-14T11:45:05.000Z</time></trkpt>
        <trkpt lat="29.5399256" lon="103.3320082"><ele>2381.25</ele><time>2026-02-14T11:45:13.000Z</time></trkpt>
        <trkpt lat="29.5398907" lon="103.3320368"><ele>2376.67</ele><time>2026-02-14T11:45:15.000Z</time></trkpt>
        <trkpt lat="29.5398907" lon="103.3320368"><ele>2376.67</ele><time>2026-02-14T11:45:28.000Z</time></trkpt>
        <trkpt lat="29.539823" lon="103.332111"><ele>2373.66</ele><time>2026-02-14T11:45:38.000Z</time></trkpt>
        <trkpt lat="29.539823" lon="103.332111"><ele>2373.66</ele><time>2026-02-14T11:45:45.000Z</time></trkpt>
        <trkpt lat="29.5398551" lon="103.3321695"><ele>2370.84</ele><time>2026-02-14T11:45:57.000Z</time></trkpt>
        <trkpt lat="29.5398551" lon="103.3321695"><ele>2370.84</ele><time>2026-02-14T11:46:10.000Z</time></trkpt>
        <trkpt lat="29.5398551" lon="103.3321695"><ele>2370.84</ele><time>2026-02-14T11:46:56.000Z</time></trkpt>
        <trkpt lat="29.5398551" lon="103.3321695"><ele>2370.84</ele><time>2026-02-14T11:47:10.000Z</time></trkpt>
        <trkpt lat="29.5398551" lon="103.3321695"><ele>2370.84</ele><time>2026-02-14T11:47:24.000Z</time></trkpt>
        <trkpt lat="29.5398551" lon="103.3321695"><ele>2370.84</ele><time>2026-02-14T11:47:44.000Z</time></trkpt>
        <trkpt lat="29.5398007" lon="103.3321103"><ele>2371.24</ele><time>2026-02-14T11:48:32.000Z</time></trkpt>
        <trkpt lat="29.5398007" lon="103.3321103"><ele>2371.24</ele><time>2026-02-14T11:48:37.000Z</time></trkpt>
        <trkpt lat="29.5398007" lon="103.3321103"><ele>2371.24</ele><time>2026-02-14T11:49:06.000Z</time></trkpt>
        <trkpt lat="29.539943" lon="103.3320636"><ele>2373.2</ele><time>2026-02-14T11:55:24.000Z</time></trkpt>
        <trkpt lat="29.539943" lon="103.3320636"><ele>2373.2</ele><time>2026-02-14T11:55:28.000Z</time></trkpt>
        <trkpt lat="29.5398624" lon="103.3321646"><ele>2376.24</ele><time>2026-02-14T11:55:33.000Z</time></trkpt>
        <trkpt lat="29.5398624" lon="103.3321646"><ele>2376.24</ele><time>2026-02-14T11:55:35.000Z</time></trkpt>
        <trkpt lat="29.5398624" lon="103.3321646"><ele>2376.24</ele><time>2026-02-14T11:58:51.000Z</time></trkpt>
        <trkpt lat="29.5398624" lon="103.3321646"><ele>2376.24</ele><time>2026-02-14T11:59:07.000Z</time></trkpt>
        <trkpt lat="29.5398624" lon="103.3321646"><ele>2376.24</ele><time>2026-02-14T12:17:00.000Z</time></trkpt>
        <trkpt lat="29.5398624" lon="103.3321646"><ele>2376.24</ele><time>2026-02-14T12:17:21.000Z</time></trkpt>
        <trkpt lat="29.5398624" lon="103.3321646"><ele>2376.24</ele><time>2026-02-14T12:18:17.000Z</time></trkpt>
        <trkpt lat="29.5398624" lon="103.3321646"><ele>2376.24</ele><time>2026-02-14T12:18:33.000Z</time></trkpt>
        <trkpt lat="29.5398624" lon="103.3321646"><ele>2376.24</ele><time>2026-02-14T12:18:43.000Z</time></trkpt>
        <trkpt lat="29.5398624" lon="103.3321646"><ele>2376.24</ele><time>2026-02-14T12:18:59.000Z</time></trkpt>
        <trkpt lat="29.5398624" lon="103.3321646"><ele>2376.24</ele><time>2026-02-14T12:19:13.000Z</time></trkpt>
        <trkpt lat="29.5398624" lon="103.3321646"><ele>2376.24</ele><time>2026-02-14T12:19:35.000Z</time></trkpt>
        <trkpt lat="29.5398624" lon="103.3321646"><ele>2376.24</ele><time>2026-02-14T12:19:47.000Z</time></trkpt>
        <trkpt lat="29.5398624" lon="103.3321646"><ele>2376.24</ele><time>2026-02-14T12:20:09.000Z</time></trkpt>
        <trkpt lat="29.5398624" lon="103.3321646"><ele>2376.24</ele><time>2026-02-14T12:21:45.000Z</time></trkpt>
        <trkpt lat="29.5398624" lon="103.3321646"><ele>2376.24</ele><time>2026-02-14T12:22:03.000Z</time></trkpt>
        <trkpt lat="29.5399748" lon="103.3321004"><ele>2379.51</ele><time>2026-02-14T12:22:29.000Z</time></trkpt>
        <trkpt lat="29.5399748" lon="103.3321004"><ele>2379.51</ele><time>2026-02-14T12:22:59.000Z</time></trkpt>
        <trkpt lat="29.540061" lon="103.3321447"><ele>2376.3</ele><time>2026-02-14T12:23:03.000Z</time></trkpt>
        <trkpt lat="29.5401641" lon="103.3321323"><ele>2375.3</ele><time>2026-02-14T12:23:25.000Z</time></trkpt>
        <trkpt lat="29.5402437" lon="103.3320694"><ele>2381.01</ele><time>2026-02-14T12:23:33.000Z</time></trkpt>
        <trkpt lat="29.5402442" lon="103.3321293"><ele>2385.55</ele><time>2026-02-14T12:23:49.000Z</time></trkpt>
        <trkpt lat="29.5402527" lon="103.3322097"><ele>2387.6</ele><time>2026-02-14T12:23:57.000Z</time></trkpt>
        <trkpt lat="29.5402961" lon="103.3321567"><ele>2388.82</ele><time>2026-02-14T12:24:15.000Z</time></trkpt>
        <trkpt lat="29.5402961" lon="103.3321567"><ele>2388.82</ele><time>2026-02-14T12:24:33.000Z</time></trkpt>
        <trkpt lat="29.5402621" lon="103.3321987"><ele>2389.14</ele><time>2026-02-14T12:24:57.000Z</time></trkpt>
        <trkpt lat="29.5402621" lon="103.3321987"><ele>2389.14</ele><time>2026-02-14T12:25:13.000Z</time></trkpt>
        <trkpt lat="29.5402621" lon="103.3321987"><ele>2389.14</ele><time>2026-02-14T12:25:43.000Z</time></trkpt>
        <trkpt lat="29.5403254" lon="103.3321459"><ele>2386.43</ele><time>2026-02-14T12:26:55.000Z</time></trkpt>
        <trkpt lat="29.5403254" lon="103.3321459"><ele>2386.43</ele><time>2026-02-14T12:27:23.000Z</time></trkpt>
        <trkpt lat="29.5403254" lon="103.3321459"><ele>2386.43</ele><time>2026-02-14T12:27:45.000Z</time></trkpt>
        <trkpt lat="29.5403254" lon="103.3321459"><ele>2386.43</ele><time>2026-02-14T12:28:07.000Z</time></trkpt>
        <trkpt lat="29.5403254" lon="103.3321459"><ele>2386.43</ele><time>2026-02-14T12:28:23.000Z</time></trkpt>
        <trkpt lat="29.5401402" lon="103.3319626"><ele>2388.96</ele><time>2026-02-14T12:29:29.000Z</time></trkpt>
        <trkpt lat="29.5401402" lon="103.3319626"><ele>2388.96</ele><time>2026-02-14T12:29:40.000Z</time></trkpt>
        <trkpt lat="29.5401276" lon="103.3320878"><ele>2394.22</ele><time>2026-02-14T12:29:53.000Z</time></trkpt>
        <trkpt lat="29.5400626" lon="103.3321682"><ele>2394.33</ele><time>2026-02-14T12:30:27.000Z</time></trkpt>
        <trkpt lat="29.5400626" lon="103.3321682"><ele>2394.33</ele><time>2026-02-14T12:30:43.000Z</time></trkpt>
        <trkpt lat="29.5399846" lon="103.3322266"><ele>2395.57</ele><time>2026-02-14T12:30:47.000Z</time></trkpt>
        <trkpt lat="29.5399846" lon="103.3322266"><ele>2395.57</ele><time>2026-02-14T12:31:19.000Z</time></trkpt>
        <trkpt lat="29.5398922" lon="103.3322577"><ele>2396.53</ele><time>2026-02-14T12:31:29.000Z</time></trkpt>
        <trkpt lat="29.5398042" lon="103.3323103"><ele>2396.59</ele><time>2026-02-14T12:31:39.000Z</time></trkpt>
        <trkpt lat="29.5397093" lon="103.3323544"><ele>2396.03</ele><time>2026-02-14T12:31:49.000Z</time></trkpt>
        <trkpt lat="29.5396341" lon="103.3324253"><ele>2395.94</ele><time>2026-02-14T12:32:21.000Z</time></trkpt>
        <trkpt lat="29.5395582" lon="103.3324884"><ele>2396.83</ele><time>2026-02-14T12:32:39.000Z</time></trkpt>
        <trkpt lat="29.5394742" lon="103.3325439"><ele>2398.94</ele><time>2026-02-14T12:32:57.000Z</time></trkpt>
        <trkpt lat="29.5394106" lon="103.3326178"><ele>2400.89</ele><time>2026-02-14T12:33:21.000Z</time></trkpt>
        <trkpt lat="29.5393368" lon="103.3326953"><ele>2402.95</ele><time>2026-02-14T12:33:35.000Z</time></trkpt>
        <trkpt lat="29.5392616" lon="103.3327709"><ele>2404.29</ele><time>2026-02-14T12:33:49.000Z</time></trkpt>
        <trkpt lat="29.5391757" lon="103.3328297"><ele>2406.05</ele><time>2026-02-14T12:34:05.000Z</time></trkpt>
        <trkpt lat="29.539079" lon="103.3328793"><ele>2407.37</ele><time>2026-02-14T12:34:15.000Z</time></trkpt>
        <trkpt lat="29.5389881" lon="103.332944"><ele>2409.32</ele><time>2026-02-14T12:34:25.000Z</time></trkpt>
        <trkpt lat="29.5389111" lon="103.3330117"><ele>2411.35</ele><time>2026-02-14T12:34:37.000Z</time></trkpt>
        <trkpt lat="29.5388367" lon="103.3330806"><ele>2411.81</ele><time>2026-02-14T12:34:45.000Z</time></trkpt>
        <trkpt lat="29.5387542" lon="103.3331273"><ele>2412.48</ele><time>2026-02-14T12:34:53.000Z</time></trkpt>
        <trkpt lat="29.5386598" lon="103.3331511"><ele>2413.52</ele><time>2026-02-14T12:35:01.000Z</time></trkpt>
        <trkpt lat="29.5385695" lon="103.333178"><ele>2414.45</ele><time>2026-02-14T12:35:13.000Z</time></trkpt>
        <trkpt lat="29.5384723" lon="103.3331893"><ele>2414.85</ele><time>2026-02-14T12:35:23.000Z</time></trkpt>
        <trkpt lat="29.5383789" lon="103.3331849"><ele>2415.44</ele><time>2026-02-14T12:35:33.000Z</time></trkpt>
        <trkpt lat="29.538285" lon="103.3332033"><ele>2416.38</ele><time>2026-02-14T12:35:45.000Z</time></trkpt>
        <trkpt lat="29.5382057" lon="103.3332669"><ele>2416.56</ele><time>2026-02-14T12:35:55.000Z</time></trkpt>
        <trkpt lat="29.5381245" lon="103.333344"><ele>2416.94</ele><time>2026-02-14T12:36:05.000Z</time></trkpt>
        <trkpt lat="29.5380253" lon="103.3334115"><ele>2416.62</ele><time>2026-02-14T12:36:15.000Z</time></trkpt>
        <trkpt lat="29.5379324" lon="103.3334674"><ele>2416.77</ele><time>2026-02-14T12:36:23.000Z</time></trkpt>
        <trkpt lat="29.5378442" lon="103.3335063"><ele>2417.77</ele><time>2026-02-14T12:36:33.000Z</time></trkpt>
        <trkpt lat="29.537762" lon="103.33356"><ele>2417.11</ele><time>2026-02-14T12:36:41.000Z</time></trkpt>
        <trkpt lat="29.537689" lon="103.3336334"><ele>2416.68</ele><time>2026-02-14T12:36:51.000Z</time></trkpt>
        <trkpt lat="29.5376257" lon="103.3337105"><ele>2417.31</ele><time>2026-02-14T12:37:03.000Z</time></trkpt>
        <trkpt lat="29.5375472" lon="103.3337747"><ele>2418.52</ele><time>2026-02-14T12:37:17.000Z</time></trkpt>
        <trkpt lat="29.5374515" lon="103.3337692"><ele>2419.08</ele><time>2026-02-14T12:37:33.000Z</time></trkpt>
        <trkpt lat="29.5373578" lon="103.333771"><ele>2422.18</ele><time>2026-02-14T12:37:47.000Z</time></trkpt>
        <trkpt lat="29.5372782" lon="103.3338158"><ele>2424.83</ele><time>2026-02-14T12:37:59.000Z</time></trkpt>
        <trkpt lat="29.5372295" lon="103.3339111"><ele>2425.51</ele><time>2026-02-14T12:38:11.000Z</time></trkpt>
        <trkpt lat="29.537209" lon="103.3340195"><ele>2427.59</ele><time>2026-02-14T12:38:51.000Z</time></trkpt>
        <trkpt lat="29.5371572" lon="103.3341197"><ele>2430.67</ele><time>2026-02-14T12:39:06.000Z</time></trkpt>
        <trkpt lat="29.5370752" lon="103.3341782"><ele>2432.48</ele><time>2026-02-14T12:39:24.000Z</time></trkpt>
        <trkpt lat="29.5369898" lon="103.3342406"><ele>2434.69</ele><time>2026-02-14T12:39:42.000Z</time></trkpt>
        <trkpt lat="29.5368971" lon="103.3342768"><ele>2437.83</ele><time>2026-02-14T12:40:00.000Z</time></trkpt>
        <trkpt lat="29.5368078" lon="103.3343146"><ele>2439.85</ele><time>2026-02-14T12:40:26.000Z</time></trkpt>
        <trkpt lat="29.5367189" lon="103.3343384"><ele>2442.04</ele><time>2026-02-14T12:40:44.000Z</time></trkpt>
        <trkpt lat="29.5366278" lon="103.3343588"><ele>2444.62</ele><time>2026-02-14T12:40:54.000Z</time></trkpt>
        <trkpt lat="29.5365331" lon="103.334357"><ele>2446.13</ele><time>2026-02-14T12:41:04.000Z</time></trkpt>
        <trkpt lat="29.5364363" lon="103.3343481"><ele>2446.31</ele><time>2026-02-14T12:41:14.000Z</time></trkpt>
        <trkpt lat="29.5363405" lon="103.3343376"><ele>2446.22</ele><time>2026-02-14T12:41:28.000Z</time></trkpt>
        <trkpt lat="29.5362487" lon="103.3343467"><ele>2446.61</ele><time>2026-02-14T12:41:42.000Z</time></trkpt>
        <trkpt lat="29.5361666" lon="103.3343122"><ele>2449.19</ele><time>2026-02-14T12:41:58.000Z</time></trkpt>
        <trkpt lat="29.5361044" lon="103.3342377"><ele>2449.85</ele><time>2026-02-14T12:42:10.000Z</time></trkpt>
        <trkpt lat="29.5360412" lon="103.3342052"><ele>2452.24</ele><time>2026-02-14T12:42:22.000Z</time></trkpt>
        <trkpt lat="29.535966" lon="103.3341478"><ele>2453.42</ele><time>2026-02-14T12:42:40.000Z</time></trkpt>
        <trkpt lat="29.5358742" lon="103.3341383"><ele>2454.99</ele><time>2026-02-14T12:43:00.000Z</time></trkpt>
        <trkpt lat="29.5357908" lon="103.33408"><ele>2456.52</ele><time>2026-02-14T12:43:30.000Z</time></trkpt>
        <trkpt lat="29.5356989" lon="103.3340319"><ele>2459.88</ele><time>2026-02-14T12:43:42.000Z</time></trkpt>
        <trkpt lat="29.5356093" lon="103.3339753"><ele>2461.71</ele><time>2026-02-14T12:43:54.000Z</time></trkpt>
        <trkpt lat="29.5355634" lon="103.3338826"><ele>2463.39</ele><time>2026-02-14T12:44:10.000Z</time></trkpt>
        <trkpt lat="29.5355064" lon="103.3337976"><ele>2466.39</ele><time>2026-02-14T12:44:36.000Z</time></trkpt>
        <trkpt lat="29.5354406" lon="103.333721"><ele>2469</ele><time>2026-02-14T12:44:50.000Z</time></trkpt>
        <trkpt lat="29.5353824" lon="103.3336345"><ele>2470.55</ele><time>2026-02-14T12:45:00.000Z</time></trkpt>
        <trkpt lat="29.5353316" lon="103.3335566"><ele>2471.84</ele><time>2026-02-14T12:45:12.000Z</time></trkpt>
        <trkpt lat="29.5352749" lon="103.3334703"><ele>2472.8</ele><time>2026-02-14T12:45:32.000Z</time></trkpt>
        <trkpt lat="29.5352581" lon="103.3333701"><ele>2473.61</ele><time>2026-02-14T12:45:44.000Z</time></trkpt>
        <trkpt lat="29.5352103" lon="103.3332802"><ele>2475.66</ele><time>2026-02-14T12:46:02.000Z</time></trkpt>
        <trkpt lat="29.5351819" lon="103.333177"><ele>2477.02</ele><time>2026-02-14T12:46:24.000Z</time></trkpt>
        <trkpt lat="29.5351463" lon="103.3330742"><ele>2479.89</ele><time>2026-02-14T12:46:56.000Z</time></trkpt>
        <trkpt lat="29.5351276" lon="103.3329474"><ele>2483.76</ele><time>2026-02-14T12:47:24.000Z</time></trkpt>
        <trkpt lat="29.5350699" lon="103.3328522"><ele>2487.82</ele><time>2026-02-14T12:47:40.000Z</time></trkpt>
        <trkpt lat="29.5349958" lon="103.3327834"><ele>2491.05</ele><time>2026-02-14T12:47:48.000Z</time></trkpt>
        <trkpt lat="29.5349021" lon="103.3327495"><ele>2493.51</ele><time>2026-02-14T12:47:56.000Z</time></trkpt>
        <trkpt lat="29.5348347" lon="103.3328137"><ele>2495.63</ele><time>2026-02-14T12:48:04.000Z</time></trkpt>
        <trkpt lat="29.5347942" lon="103.3329191"><ele>2495.08</ele><time>2026-02-14T12:48:18.000Z</time></trkpt>
        <trkpt lat="29.5347942" lon="103.3329191"><ele>2495.08</ele><time>2026-02-14T12:48:35.000Z</time></trkpt>
        <trkpt lat="29.5347161" lon="103.3329824"><ele>2492.26</ele><time>2026-02-14T12:48:43.000Z</time></trkpt>
        <trkpt lat="29.5347161" lon="103.3329824"><ele>2492.26</ele><time>2026-02-14T12:49:06.000Z</time></trkpt>
        <trkpt lat="29.5346307" lon="103.3330317"><ele>2493.96</ele><time>2026-02-14T12:49:38.000Z</time></trkpt>
        <trkpt lat="29.53454" lon="103.3330614"><ele>2496.91</ele><time>2026-02-14T12:49:54.000Z</time></trkpt>
        <trkpt lat="29.5344565" lon="103.3331092"><ele>2499.78</ele><time>2026-02-14T12:50:10.000Z</time></trkpt>
        <trkpt lat="29.5344565" lon="103.3331092"><ele>2499.78</ele><time>2026-02-14T12:50:37.000Z</time></trkpt>
        <trkpt lat="29.5343683" lon="103.3331394"><ele>2503.6</ele><time>2026-02-14T12:50:39.000Z</time></trkpt>
        <trkpt lat="29.5343683" lon="103.3331394"><ele>2503.6</ele><time>2026-02-14T12:50:44.000Z</time></trkpt>
        <trkpt lat="29.534279" lon="103.333119"><ele>2506.3</ele><time>2026-02-14T12:51:10.000Z</time></trkpt>
        <trkpt lat="29.534279" lon="103.333119"><ele>2506.3</ele><time>2026-02-14T12:51:45.000Z</time></trkpt>
        <trkpt lat="29.5341833" lon="103.3331383"><ele>2509.29</ele><time>2026-02-14T12:51:47.000Z</time></trkpt>
        <trkpt lat="29.5341833" lon="103.3331383"><ele>2509.29</ele><time>2026-02-14T12:52:00.000Z</time></trkpt>
        <trkpt lat="29.534102" lon="103.333193"><ele>2511.85</ele><time>2026-02-14T12:52:16.000Z</time></trkpt>
        <trkpt lat="29.5340094" lon="103.3332195"><ele>2515.76</ele><time>2026-02-14T12:52:32.000Z</time></trkpt>
        <trkpt lat="29.5339113" lon="103.3332369"><ele>2517.6</ele><time>2026-02-14T12:52:52.000Z</time></trkpt>
        <trkpt lat="29.5338246" lon="103.3331855"><ele>2520.85</ele><time>2026-02-14T12:53:14.000Z</time></trkpt>
        <trkpt lat="29.5337496" lon="103.3331073"><ele>2522.89</ele><time>2026-02-14T12:53:40.000Z</time></trkpt>
        <trkpt lat="29.533678" lon="103.3330268"><ele>2526.29</ele><time>2026-02-14T12:54:12.000Z</time></trkpt>
        <trkpt lat="29.5336149" lon="103.3329445"><ele>2531.52</ele><time>2026-02-14T12:54:30.000Z</time></trkpt>
        <trkpt lat="29.5335384" lon="103.3328789"><ele>2538.03</ele><time>2026-02-14T12:55:20.000Z</time></trkpt>
        <trkpt lat="29.5334624" lon="103.3328154"><ele>2541.43</ele><time>2026-02-14T12:55:42.000Z</time></trkpt>
        <trkpt lat="29.5333795" lon="103.332764"><ele>2544.73</ele><time>2026-02-14T12:56:04.000Z</time></trkpt>
        <trkpt lat="29.5332997" lon="103.332707"><ele>2547.72</ele><time>2026-02-14T12:56:30.000Z</time></trkpt>
        <trkpt lat="29.5332208" lon="103.3326398"><ele>2551.14</ele><time>2026-02-14T12:57:04.000Z</time></trkpt>
        <trkpt lat="29.5331415" lon="103.3325727"><ele>2555.39</ele><time>2026-02-14T12:57:32.000Z</time></trkpt>
        <trkpt lat="29.53307" lon="103.3325017"><ele>2559.06</ele><time>2026-02-14T12:57:56.000Z</time></trkpt>
        <trkpt lat="29.5329993" lon="103.3324274"><ele>2562.96</ele><time>2026-02-14T12:58:20.000Z</time></trkpt>
        <trkpt lat="29.5329239" lon="103.3323629"><ele>2566.15</ele><time>2026-02-14T12:58:38.000Z</time></trkpt>
        <trkpt lat="29.5328569" lon="103.3322923"><ele>2568.93</ele><time>2026-02-14T12:59:02.000Z</time></trkpt>
        <trkpt lat="29.5328113" lon="103.332204"><ele>2571.53</ele><time>2026-02-14T12:59:24.000Z</time></trkpt>
        <trkpt lat="29.5327526" lon="103.3321199"><ele>2574.98</ele><time>2026-02-14T12:59:48.000Z</time></trkpt>
        <trkpt lat="29.5327526" lon="103.3321199"><ele>2574.98</ele><time>2026-02-14T13:00:39.000Z</time></trkpt>
        <trkpt lat="29.5327526" lon="103.3321199"><ele>2574.98</ele><time>2026-02-14T13:16:55.000Z</time></trkpt>
        <trkpt lat="29.5327526" lon="103.3321199"><ele>2574.98</ele><time>2026-02-14T13:17:07.000Z</time></trkpt>
        <trkpt lat="29.5327526" lon="103.3321199"><ele>2574.98</ele><time>2026-02-14T13:19:09.000Z</time></trkpt>
        <trkpt lat="29.5327526" lon="103.3321199"><ele>2574.98</ele><time>2026-02-14T13:19:29.000Z</time></trkpt>
        <trkpt lat="29.5327526" lon="103.3321199"><ele>2574.98</ele><time>2026-02-14T13:19:53.000Z</time></trkpt>
        <trkpt lat="29.5327526" lon="103.3321199"><ele>2574.98</ele><time>2026-02-14T13:20:09.000Z</time></trkpt>
        <trkpt lat="29.5326849" lon="103.3320348"><ele>2578.27</ele><time>2026-02-14T13:21:33.000Z</time></trkpt>
        <trkpt lat="29.5326849" lon="103.3320348"><ele>2578.27</ele><time>2026-02-14T13:21:54.000Z</time></trkpt>
        <trkpt lat="29.5326072" lon="103.3319792"><ele>2582.74</ele><time>2026-02-14T13:22:16.000Z</time></trkpt>
        <trkpt lat="29.5325636" lon="103.3318823"><ele>2584.69</ele><time>2026-02-14T13:22:38.000Z</time></trkpt>
        <trkpt lat="29.5325262" lon="103.3317811"><ele>2587.03</ele><time>2026-02-14T13:23:06.000Z</time></trkpt>
        <trkpt lat="29.5325046" lon="103.3316754"><ele>2589.94</ele><time>2026-02-14T13:23:32.000Z</time></trkpt>
        <trkpt lat="29.5324513" lon="103.3315961"><ele>2594.93</ele><time>2026-02-14T13:23:58.000Z</time></trkpt>
        <trkpt lat="29.5324169" lon="103.3315005"><ele>2598.29</ele><time>2026-02-14T13:24:24.000Z</time></trkpt>
        <trkpt lat="29.5323806" lon="103.3314042"><ele>2602.74</ele><time>2026-02-14T13:24:52.000Z</time></trkpt>
        <trkpt lat="29.5323457" lon="103.3313061"><ele>2606.56</ele><time>2026-02-14T13:25:12.000Z</time></trkpt>
        <trkpt lat="29.5323348" lon="103.3311976"><ele>2610.43</ele><time>2026-02-14T13:25:44.000Z</time></trkpt>
        <trkpt lat="29.532285" lon="103.3312234"><ele>2614.86</ele><time>2026-02-14T13:26:10.000Z</time></trkpt>
        <trkpt lat="29.5322344" lon="103.3313127"><ele>2617.37</ele><time>2026-02-14T13:26:32.000Z</time></trkpt>
        <trkpt lat="29.5321742" lon="103.3314178"><ele>2621.01</ele><time>2026-02-14T13:26:54.000Z</time></trkpt>
        <trkpt lat="29.5321637" lon="103.3313707"><ele>2623.81</ele><time>2026-02-14T13:27:10.000Z</time></trkpt>
        <trkpt lat="29.5321623" lon="103.3312687"><ele>2626.47</ele><time>2026-02-14T13:27:28.000Z</time></trkpt>
        <trkpt lat="29.5321458" lon="103.331151"><ele>2628.98</ele><time>2026-02-14T13:27:48.000Z</time></trkpt>
        <trkpt lat="29.5321494" lon="103.3310267"><ele>2631.41</ele><time>2026-02-14T13:28:04.000Z</time></trkpt>
        <trkpt lat="29.5321592" lon="103.3309098"><ele>2633.96</ele><time>2026-02-14T13:28:24.000Z</time></trkpt>
        <trkpt lat="29.53215" lon="103.3307982"><ele>2636.48</ele><time>2026-02-14T13:28:36.000Z</time></trkpt>
        <trkpt lat="29.5321395" lon="103.3306924"><ele>2637.98</ele><time>2026-02-14T13:28:46.000Z</time></trkpt>
        <trkpt lat="29.5321438" lon="103.3305851"><ele>2638.82</ele><time>2026-02-14T13:29:06.000Z</time></trkpt>
        <trkpt lat="29.5321555" lon="103.3304795"><ele>2638.65</ele><time>2026-02-14T13:29:26.000Z</time></trkpt>
        <trkpt lat="29.5321142" lon="103.3303923"><ele>2640.15</ele><time>2026-02-14T13:30:08.000Z</time></trkpt>
        <trkpt lat="29.5321228" lon="103.3303003"><ele>2645.41</ele><time>2026-02-14T13:30:34.000Z</time></trkpt>
        <trkpt lat="29.5320461" lon="103.3302597"><ele>2650.77</ele><time>2026-02-14T13:31:40.000Z</time></trkpt>
        <trkpt lat="29.5319589" lon="103.3302318"><ele>2654.33</ele><time>2026-02-14T13:32:42.000Z</time></trkpt>
        <trkpt lat="29.5318614" lon="103.3302434"><ele>2660.16</ele><time>2026-02-14T13:33:02.000Z</time></trkpt>
        <trkpt lat="29.5317899" lon="103.3301852"><ele>2666.56</ele><time>2026-02-14T13:33:30.000Z</time></trkpt>
        <trkpt lat="29.5317446" lon="103.3300963"><ele>2670.78</ele><time>2026-02-14T13:33:58.000Z</time></trkpt>
        <trkpt lat="29.5316789" lon="103.3300283"><ele>2675.57</ele><time>2026-02-14T13:34:18.000Z</time></trkpt>
        <trkpt lat="29.5315968" lon="103.3299923"><ele>2677.97</ele><time>2026-02-14T13:34:38.000Z</time></trkpt>
        <trkpt lat="29.5315151" lon="103.3299466"><ele>2681.46</ele><time>2026-02-14T13:35:06.000Z</time></trkpt>
        <trkpt lat="29.5314357" lon="103.3298921"><ele>2685.16</ele><time>2026-02-14T13:35:38.000Z</time></trkpt>
        <trkpt lat="29.5314357" lon="103.3298921"><ele>2685.16</ele><time>2026-02-14T13:35:57.000Z</time></trkpt>
        <trkpt lat="29.5313602" lon="103.3298311"><ele>2691.08</ele><time>2026-02-14T13:35:59.000Z</time></trkpt>
        <trkpt lat="29.5313602" lon="103.3298311"><ele>2691.08</ele><time>2026-02-14T13:36:28.000Z</time></trkpt>
        <trkpt lat="29.5312866" lon="103.3297651"><ele>2697.17</ele><time>2026-02-14T13:37:14.000Z</time></trkpt>
        <trkpt lat="29.5312353" lon="103.3296791"><ele>2703.2</ele><time>2026-02-14T13:37:48.000Z</time></trkpt>
        <trkpt lat="29.5311826" lon="103.3295877"><ele>2709.49</ele><time>2026-02-14T13:38:24.000Z</time></trkpt>
        <trkpt lat="29.5311271" lon="103.3294972"><ele>2715.04</ele><time>2026-02-14T13:38:52.000Z</time></trkpt>
        <trkpt lat="29.5311021" lon="103.3293961"><ele>2719.7</ele><time>2026-02-14T13:39:08.000Z</time></trkpt>
        <trkpt lat="29.5310891" lon="103.3292872"><ele>2722.9</ele><time>2026-02-14T13:39:26.000Z</time></trkpt>
        <trkpt lat="29.5310774" lon="103.3291803"><ele>2726.03</ele><time>2026-02-14T13:39:40.000Z</time></trkpt>
        <trkpt lat="29.5310753" lon="103.329065"><ele>2727.97</ele><time>2026-02-14T13:39:54.000Z</time></trkpt>
        <trkpt lat="29.5310725" lon="103.3289459"><ele>2729.99</ele><time>2026-02-14T13:40:10.000Z</time></trkpt>
        <trkpt lat="29.5310749" lon="103.3288296"><ele>2732.13</ele><time>2026-02-14T13:40:28.000Z</time></trkpt>
        <trkpt lat="29.5310858" lon="103.3287189"><ele>2734.5</ele><time>2026-02-14T13:40:46.000Z</time></trkpt>
        <trkpt lat="29.5311195" lon="103.3286213"><ele>2737.02</ele><time>2026-02-14T13:41:06.000Z</time></trkpt>
        <trkpt lat="29.5311381" lon="103.3285148"><ele>2739.96</ele><time>2026-02-14T13:41:28.000Z</time></trkpt>
        <trkpt lat="29.5311381" lon="103.3285148"><ele>2739.96</ele><time>2026-02-14T13:41:51.000Z</time></trkpt>
        <trkpt lat="29.5311731" lon="103.3284114"><ele>2742.66</ele><time>2026-02-14T13:41:57.000Z</time></trkpt>
        <trkpt lat="29.5311731" lon="103.3284114"><ele>2742.66</ele><time>2026-02-14T13:42:02.000Z</time></trkpt>
        <trkpt lat="29.5312047" lon="103.3283076"><ele>2744.47</ele><time>2026-02-14T13:42:14.000Z</time></trkpt>
        <trkpt lat="29.5312399" lon="103.3282004"><ele>2746.19</ele><time>2026-02-14T13:42:26.000Z</time></trkpt>
        <trkpt lat="29.5312336" lon="103.3280964"><ele>2747.26</ele><time>2026-02-14T13:42:36.000Z</time></trkpt>
        <trkpt lat="29.5312326" lon="103.3279919"><ele>2747.44</ele><time>2026-02-14T13:42:50.000Z</time></trkpt>
        <trkpt lat="29.53123" lon="103.3278842"><ele>2748.45</ele><time>2026-02-14T13:43:06.000Z</time></trkpt>
        <trkpt lat="29.5312055" lon="103.3277832"><ele>2749.87</ele><time>2026-02-14T13:43:24.000Z</time></trkpt>
        <trkpt lat="29.5311974" lon="103.3276741"><ele>2750.44</ele><time>2026-02-14T13:43:42.000Z</time></trkpt>
        <trkpt lat="29.5311972" lon="103.3275646"><ele>2752.85</ele><time>2026-02-14T13:44:04.000Z</time></trkpt>
        <trkpt lat="29.5311942" lon="103.3274529"><ele>2755.48</ele><time>2026-02-14T13:44:28.000Z</time></trkpt>
        <trkpt lat="29.5311932" lon="103.3273455"><ele>2758.58</ele><time>2026-02-14T13:44:52.000Z</time></trkpt>
        <trkpt lat="29.5311945" lon="103.327236"><ele>2762.02</ele><time>2026-02-14T13:45:20.000Z</time></trkpt>
        <trkpt lat="29.5311644" lon="103.327138"><ele>2765.79</ele><time>2026-02-14T13:45:48.000Z</time></trkpt>
        <trkpt lat="29.5310928" lon="103.3270717"><ele>2768.81</ele><time>2026-02-14T13:46:14.000Z</time></trkpt>
        <trkpt lat="29.531001" lon="103.3270233"><ele>2772.65</ele><time>2026-02-14T13:46:34.000Z</time></trkpt>
        <trkpt lat="29.5309107" lon="103.3269821"><ele>2775.91</ele><time>2026-02-14T13:46:50.000Z</time></trkpt>
        <trkpt lat="29.5308194" lon="103.3269413"><ele>2778.48</ele><time>2026-02-14T13:47:10.000Z</time></trkpt>
        <trkpt lat="29.5307703" lon="103.3268509"><ele>2781.05</ele><time>2026-02-14T13:47:30.000Z</time></trkpt>
        <trkpt lat="29.5306981" lon="103.3268512"><ele>2784.66</ele><time>2026-02-14T13:48:08.000Z</time></trkpt>
        <trkpt lat="29.5306089" lon="103.3268836"><ele>2789.08</ele><time>2026-02-14T13:48:34.000Z</time></trkpt>
        <trkpt lat="29.5305194" lon="103.3269218"><ele>2792.9</ele><time>2026-02-14T13:48:52.000Z</time></trkpt>
        <trkpt lat="29.5304337" lon="103.3269696"><ele>2795.19</ele><time>2026-02-14T13:49:16.000Z</time></trkpt>
        <trkpt lat="29.530341" lon="103.3270118"><ele>2797.93</ele><time>2026-02-14T13:49:46.000Z</time></trkpt>
        <trkpt lat="29.5302481" lon="103.3270601"><ele>2801.09</ele><time>2026-02-14T13:50:04.000Z</time></trkpt>
        <trkpt lat="29.5301639" lon="103.3271092"><ele>2803.82</ele><time>2026-02-14T13:50:20.000Z</time></trkpt>
        <trkpt lat="29.5300882" lon="103.3271735"><ele>2806.38</ele><time>2026-02-14T13:50:34.000Z</time></trkpt>
        <trkpt lat="29.5300113" lon="103.3272492"><ele>2808.52</ele><time>2026-02-14T13:50:48.000Z</time></trkpt>
        <trkpt lat="29.529929" lon="103.3273203"><ele>2810.1</ele><time>2026-02-14T13:51:02.000Z</time></trkpt>
        <trkpt lat="29.5298668" lon="103.32742"><ele>2811.86</ele><time>2026-02-14T13:51:34.000Z</time></trkpt>
        <trkpt lat="29.5298258" lon="103.3275218"><ele>2809.92</ele><time>2026-02-14T13:51:44.000Z</time></trkpt>
        <trkpt lat="29.5297842" lon="103.3276244"><ele>2808.19</ele><time>2026-02-14T13:51:52.000Z</time></trkpt>
        <trkpt lat="29.5297387" lon="103.3277262"><ele>2808.53</ele><time>2026-02-14T13:52:02.000Z</time></trkpt>
        <trkpt lat="29.5296756" lon="103.3278197"><ele>2811.23</ele><time>2026-02-14T13:52:16.000Z</time></trkpt>
        <trkpt lat="29.5295912" lon="103.3278569"><ele>2814.73</ele><time>2026-02-14T13:52:28.000Z</time></trkpt>
        <trkpt lat="29.5295912" lon="103.3278569"><ele>2814.73</ele><time>2026-02-14T13:53:07.000Z</time></trkpt>
        <trkpt lat="29.5295912" lon="103.3278569"><ele>2814.73</ele><time>2026-02-14T13:54:45.000Z</time></trkpt>
        <trkpt lat="29.5295912" lon="103.3278569"><ele>2814.73</ele><time>2026-02-14T13:55:01.000Z</time></trkpt>
        <trkpt lat="29.5295912" lon="103.3278569"><ele>2814.73</ele><time>2026-02-14T13:55:13.000Z</time></trkpt>
        <trkpt lat="29.5295912" lon="103.3278569"><ele>2814.73</ele><time>2026-02-14T13:55:29.000Z</time></trkpt>
        <trkpt lat="29.5295912" lon="103.3278569"><ele>2814.73</ele><time>2026-02-14T13:56:03.000Z</time></trkpt>
        <trkpt lat="29.5295912" lon="103.3278569"><ele>2814.73</ele><time>2026-02-14T13:56:19.000Z</time></trkpt>
        <trkpt lat="29.5295912" lon="103.3278569"><ele>2814.73</ele><time>2026-02-14T13:57:31.000Z</time></trkpt>
        <trkpt lat="29.5295912" lon="103.3278569"><ele>2814.73</ele><time>2026-02-14T13:57:45.000Z</time></trkpt>
        <trkpt lat="29.5295912" lon="103.3278569"><ele>2814.73</ele><time>2026-02-14T13:58:05.000Z</time></trkpt>
        <trkpt lat="29.5295912" lon="103.3278569"><ele>2814.73</ele><time>2026-02-14T13:58:37.000Z</time></trkpt>
        <trkpt lat="29.5295912" lon="103.3278569"><ele>2814.73</ele><time>2026-02-14T13:59:33.000Z</time></trkpt>
        <trkpt lat="29.5295912" lon="103.3278569"><ele>2814.73</ele><time>2026-02-14T13:59:47.000Z</time></trkpt>
        <trkpt lat="29.529489" lon="103.3278408"><ele>2816.66</ele><time>2026-02-14T14:00:27.000Z</time></trkpt>
        <trkpt lat="29.529489" lon="103.3278408"><ele>2816.66</ele><time>2026-02-14T14:00:34.000Z</time></trkpt>
        <trkpt lat="29.5293819" lon="103.327817"><ele>2815.98</ele><time>2026-02-14T14:00:46.000Z</time></trkpt>
        <trkpt lat="29.5292881" lon="103.3278016"><ele>2815.91</ele><time>2026-02-14T14:00:56.000Z</time></trkpt>
        <trkpt lat="29.529231" lon="103.3278693"><ele>2816.88</ele><time>2026-02-14T14:01:16.000Z</time></trkpt>
        <trkpt lat="29.5292128" lon="103.3279734"><ele>2817.52</ele><time>2026-02-14T14:01:28.000Z</time></trkpt>
        <trkpt lat="29.5291907" lon="103.3280886"><ele>2818.21</ele><time>2026-02-14T14:01:46.000Z</time></trkpt>
        <trkpt lat="29.5291649" lon="103.3282041"><ele>2820.19</ele><time>2026-02-14T14:02:04.000Z</time></trkpt>
        <trkpt lat="29.5291569" lon="103.3283192"><ele>2822.18</ele><time>2026-02-14T14:02:28.000Z</time></trkpt>
        <trkpt lat="29.5291245" lon="103.3284196"><ele>2826.07</ele><time>2026-02-14T14:02:54.000Z</time></trkpt>
        <trkpt lat="29.5290916" lon="103.3285175"><ele>2827.56</ele><time>2026-02-14T14:03:14.000Z</time></trkpt>
        <trkpt lat="29.5290459" lon="103.3286166"><ele>2830.43</ele><time>2026-02-14T14:03:34.000Z</time></trkpt>
        <trkpt lat="29.5290022" lon="103.3287159"><ele>2833.28</ele><time>2026-02-14T14:03:54.000Z</time></trkpt>
        <trkpt lat="29.5289647" lon="103.3288158"><ele>2834.95</ele><time>2026-02-14T14:04:10.000Z</time></trkpt>
        <trkpt lat="29.5289353" lon="103.3289148"><ele>2836.94</ele><time>2026-02-14T14:04:24.000Z</time></trkpt>
        <trkpt lat="29.5288896" lon="103.3290047"><ele>2838.15</ele><time>2026-02-14T14:04:38.000Z</time></trkpt>
        <trkpt lat="29.5288381" lon="103.3290916"><ele>2840.61</ele><time>2026-02-14T14:04:52.000Z</time></trkpt>
        <trkpt lat="29.5287873" lon="103.3291824"><ele>2843.14</ele><time>2026-02-14T14:05:08.000Z</time></trkpt>
        <trkpt lat="29.5287278" lon="103.3292739"><ele>2845.23</ele><time>2026-02-14T14:05:30.000Z</time></trkpt>
        <trkpt lat="29.5286728" lon="103.3293614"><ele>2846.62</ele><time>2026-02-14T14:05:44.000Z</time></trkpt>
        <trkpt lat="29.5286306" lon="103.329457"><ele>2848.58</ele><time>2026-02-14T14:05:54.000Z</time></trkpt>
        <trkpt lat="29.528612" lon="103.3295624"><ele>2850.42</ele><time>2026-02-14T14:06:08.000Z</time></trkpt>
        <trkpt lat="29.5285892" lon="103.3296669"><ele>2851.2</ele><time>2026-02-14T14:06:24.000Z</time></trkpt>
        <trkpt lat="29.5285722" lon="103.329772"><ele>2852.72</ele><time>2026-02-14T14:06:38.000Z</time></trkpt>
        <trkpt lat="29.5285589" lon="103.3298822"><ele>2854.94</ele><time>2026-02-14T14:06:54.000Z</time></trkpt>
        <trkpt lat="29.5285425" lon="103.3299943"><ele>2856.33</ele><time>2026-02-14T14:07:06.000Z</time></trkpt>
        <trkpt lat="29.5284927" lon="103.3300876"><ele>2857.56</ele><time>2026-02-14T14:07:20.000Z</time></trkpt>
        <trkpt lat="29.5284201" lon="103.330157"><ele>2858.04</ele><time>2026-02-14T14:07:36.000Z</time></trkpt>
        <trkpt lat="29.5283431" lon="103.330222"><ele>2858.81</ele><time>2026-02-14T14:07:48.000Z</time></trkpt>
        <trkpt lat="29.5282925" lon="103.3303099"><ele>2858.53</ele><time>2026-02-14T14:07:58.000Z</time></trkpt>
        <trkpt lat="29.5282874" lon="103.3304176"><ele>2859.32</ele><time>2026-02-14T14:08:14.000Z</time></trkpt>
        <trkpt lat="29.5283015" lon="103.3305264"><ele>2859.09</ele><time>2026-02-14T14:08:28.000Z</time></trkpt>
        <trkpt lat="29.5283093" lon="103.330633"><ele>2859.22</ele><time>2026-02-14T14:08:48.000Z</time></trkpt>
        <trkpt lat="29.5282634" lon="103.3307153"><ele>2861.4</ele><time>2026-02-14T14:09:06.000Z</time></trkpt>
        <trkpt lat="29.5281951" lon="103.3307832"><ele>2863.91</ele><time>2026-02-14T14:09:24.000Z</time></trkpt>
        <trkpt lat="29.5281261" lon="103.3308597"><ele>2866.12</ele><time>2026-02-14T14:09:42.000Z</time></trkpt>
        <trkpt lat="29.5280812" lon="103.3309624"><ele>2868.03</ele><time>2026-02-14T14:09:58.000Z</time></trkpt>
        <trkpt lat="29.5280441" lon="103.3310705"><ele>2870.19</ele><time>2026-02-14T14:10:14.000Z</time></trkpt>
        <trkpt lat="29.5280073" lon="103.3311755"><ele>2873.23</ele><time>2026-02-14T14:10:32.000Z</time></trkpt>
        <trkpt lat="29.5279587" lon="103.3312742"><ele>2875.3</ele><time>2026-02-14T14:10:52.000Z</time></trkpt>
        <trkpt lat="29.5278939" lon="103.3313528"><ele>2877.36</ele><time>2026-02-14T14:11:08.000Z</time></trkpt>
        <trkpt lat="29.5278255" lon="103.3314223"><ele>2878.21</ele><time>2026-02-14T14:11:24.000Z</time></trkpt>
        <trkpt lat="29.5277753" lon="103.3315063"><ele>2880.44</ele><time>2026-02-14T14:11:40.000Z</time></trkpt>
        <trkpt lat="29.5277287" lon="103.3316052"><ele>2883.23</ele><time>2026-02-14T14:11:58.000Z</time></trkpt>
        <trkpt lat="29.5277113" lon="103.3317176"><ele>2885.5</ele><time>2026-02-14T14:12:14.000Z</time></trkpt>
        <trkpt lat="29.5277072" lon="103.3318337"><ele>2887.11</ele><time>2026-02-14T14:12:28.000Z</time></trkpt>
        <trkpt lat="29.5277147" lon="103.3319445"><ele>2886.83</ele><time>2026-02-14T14:12:40.000Z</time></trkpt>
        <trkpt lat="29.5277011" lon="103.332051"><ele>2888.15</ele><time>2026-02-14T14:12:54.000Z</time></trkpt>
        <trkpt lat="29.527628" lon="103.3321138"><ele>2890.5</ele><time>2026-02-14T14:13:10.000Z</time></trkpt>
        <trkpt lat="29.5275434" lon="103.3321647"><ele>2893.04</ele><time>2026-02-14T14:13:28.000Z</time></trkpt>
        <trkpt lat="29.5275348" lon="103.3322552"><ele>2895.36</ele><time>2026-02-14T14:13:52.000Z</time></trkpt>
        <trkpt lat="29.5275792" lon="103.3323464"><ele>2897.76</ele><time>2026-02-14T14:14:12.000Z</time></trkpt>
        <trkpt lat="29.5275391" lon="103.332434"><ele>2900.81</ele><time>2026-02-14T14:14:28.000Z</time></trkpt>
        <trkpt lat="29.5274596" lon="103.3325047"><ele>2902.51</ele><time>2026-02-14T14:14:44.000Z</time></trkpt>
        <trkpt lat="29.5273638" lon="103.3325356"><ele>2904.36</ele><time>2026-02-14T14:15:08.000Z</time></trkpt>
        <trkpt lat="29.5272768" lon="103.3324912"><ele>2906.69</ele><time>2026-02-14T14:15:30.000Z</time></trkpt>
        <trkpt lat="29.5271963" lon="103.3324118"><ele>2907.81</ele><time>2026-02-14T14:15:42.000Z</time></trkpt>
        <trkpt lat="29.5271531" lon="103.3322966"><ele>2908.56</ele><time>2026-02-14T14:15:52.000Z</time></trkpt>
        <trkpt lat="29.5270948" lon="103.3323215"><ele>2909.56</ele><time>2026-02-14T14:16:06.000Z</time></trkpt>
        <trkpt lat="29.527049" lon="103.332411"><ele>2910.43</ele><time>2026-02-14T14:16:28.000Z</time></trkpt>
        <trkpt lat="29.5270395" lon="103.3325317"><ele>2912.37</ele><time>2026-02-14T14:16:58.000Z</time></trkpt>
        <trkpt lat="29.5270686" lon="103.3326556"><ele>2914.7</ele><time>2026-02-14T14:17:10.000Z</time></trkpt>
        <trkpt lat="29.5270829" lon="103.3327802"><ele>2916.25</ele><time>2026-02-14T14:17:22.000Z</time></trkpt>
        <trkpt lat="29.5270508" lon="103.3328892"><ele>2917.76</ele><time>2026-02-14T14:17:32.000Z</time></trkpt>
        <trkpt lat="29.5270236" lon="103.3330009"><ele>2919.62</ele><time>2026-02-14T14:17:50.000Z</time></trkpt>
        <trkpt lat="29.5270667" lon="103.3330925"><ele>2921.18</ele><time>2026-02-14T14:18:04.000Z</time></trkpt>
        <trkpt lat="29.5271156" lon="103.3331927"><ele>2922.34</ele><time>2026-02-14T14:18:18.000Z</time></trkpt>
        <trkpt lat="29.5271198" lon="103.3332993"><ele>2923.13</ele><time>2026-02-14T14:18:32.000Z</time></trkpt>
        <trkpt lat="29.5270725" lon="103.3333848"><ele>2924.02</ele><time>2026-02-14T14:18:46.000Z</time></trkpt>
        <trkpt lat="29.5269912" lon="103.3334505"><ele>2924.88</ele><time>2026-02-14T14:19:00.000Z</time></trkpt>
        <trkpt lat="29.5269014" lon="103.3335032"><ele>2925.56</ele><time>2026-02-14T14:19:16.000Z</time></trkpt>
        <trkpt lat="29.5268045" lon="103.3335177"><ele>2927.61</ele><time>2026-02-14T14:19:32.000Z</time></trkpt>
        <trkpt lat="29.5267082" lon="103.3335311"><ele>2929.27</ele><time>2026-02-14T14:19:54.000Z</time></trkpt>
        <trkpt lat="29.5267082" lon="103.3335311"><ele>2929.27</ele><time>2026-02-14T14:20:55.000Z</time></trkpt>
        <trkpt lat="29.5266047" lon="103.333527"><ele>2933.62</ele><time>2026-02-14T14:21:03.000Z</time></trkpt>
        <trkpt lat="29.5266047" lon="103.333527"><ele>2933.62</ele><time>2026-02-14T14:21:08.000Z</time></trkpt>
        <trkpt lat="29.5265307" lon="103.3335894"><ele>2937.85</ele><time>2026-02-14T14:21:24.000Z</time></trkpt>
        <trkpt lat="29.5264356" lon="103.3336306"><ele>2941.36</ele><time>2026-02-14T14:21:44.000Z</time></trkpt>
        <trkpt lat="29.5263425" lon="103.3336853"><ele>2943.42</ele><time>2026-02-14T14:21:56.000Z</time></trkpt>
        <trkpt lat="29.5262562" lon="103.3337451"><ele>2944.19</ele><time>2026-02-14T14:22:06.000Z</time></trkpt>
        <trkpt lat="29.5261784" lon="103.3338144"><ele>2944.16</ele><time>2026-02-14T14:22:22.000Z</time></trkpt>
        <trkpt lat="29.5260946" lon="103.3338727"><ele>2945.15</ele><time>2026-02-14T14:22:42.000Z</time></trkpt>
        <trkpt lat="29.5260056" lon="103.33392"><ele>2948.39</ele><time>2026-02-14T14:23:04.000Z</time></trkpt>
        <trkpt lat="29.5259162" lon="103.3339791"><ele>2951.81</ele><time>2026-02-14T14:23:24.000Z</time></trkpt>
        <trkpt lat="29.525832" lon="103.3340381"><ele>2953.7</ele><time>2026-02-14T14:23:32.000Z</time></trkpt>
        <trkpt lat="29.5257365" lon="103.334062"><ele>2956.11</ele><time>2026-02-14T14:23:54.000Z</time></trkpt>
        <trkpt lat="29.5256569" lon="103.3341117"><ele>2959.27</ele><time>2026-02-14T14:24:06.000Z</time></trkpt>
        <trkpt lat="29.5256361" lon="103.3341259"><ele>2959.37</ele><time>2026-02-14T14:24:08.000Z</time></trkpt>
        <trkpt lat="29.5256361" lon="103.3341259"><ele>2959.37</ele><time>2026-02-14T14:24:19.000Z</time></trkpt>
        <trkpt lat="29.5255884" lon="103.3341894"><ele>2959.02</ele><time>2026-02-14T14:25:07.000Z</time></trkpt>
        <trkpt lat="29.5255884" lon="103.3341894"><ele>2959.02</ele><time>2026-02-14T14:25:32.000Z</time></trkpt>
        <trkpt lat="29.5255285" lon="103.3342871"><ele>2958.94</ele><time>2026-02-14T14:25:50.000Z</time></trkpt>
        <trkpt lat="29.5254595" lon="103.3343711"><ele>2959.61</ele><time>2026-02-14T14:26:02.000Z</time></trkpt>
        <trkpt lat="29.5253949" lon="103.3344485"><ele>2960.26</ele><time>2026-02-14T14:26:14.000Z</time></trkpt>
        <trkpt lat="29.5253429" lon="103.3345402"><ele>2961.53</ele><time>2026-02-14T14:26:36.000Z</time></trkpt>
        <trkpt lat="29.5252692" lon="103.3346198"><ele>2962.53</ele><time>2026-02-14T14:26:52.000Z</time></trkpt>
        <trkpt lat="29.5251884" lon="103.3346887"><ele>2964.55</ele><time>2026-02-14T14:27:14.000Z</time></trkpt>
        <trkpt lat="29.5251084" lon="103.3347496"><ele>2968.05</ele><time>2026-02-14T14:27:34.000Z</time></trkpt>
        <trkpt lat="29.5250794" lon="103.3347709"><ele>2970.96</ele><time>2026-02-14T14:27:38.000Z</time></trkpt>
        <trkpt lat="29.5250228" lon="103.3348199"><ele>2972.69</ele><time>2026-02-14T14:28:02.000Z</time></trkpt>
        <trkpt lat="29.5249326" lon="103.3348332"><ele>2975.76</ele><time>2026-02-14T14:28:24.000Z</time></trkpt>
        <trkpt lat="29.5249326" lon="103.3348332"><ele>2975.76</ele><time>2026-02-14T14:28:57.000Z</time></trkpt>
        <trkpt lat="29.5248326" lon="103.3347855"><ele>2977.79</ele><time>2026-02-14T14:30:05.000Z</time></trkpt>
        <trkpt lat="29.5248326" lon="103.3347855"><ele>2977.79</ele><time>2026-02-14T14:30:08.000Z</time></trkpt>
        <trkpt lat="29.5248326" lon="103.3347855"><ele>2977.79</ele><time>2026-02-14T14:31:25.000Z</time></trkpt>
        <trkpt lat="29.52474" lon="103.3347716"><ele>2978.57</ele><time>2026-02-14T14:47:02.000Z</time></trkpt>
        <trkpt lat="29.52474" lon="103.3347716"><ele>2978.57</ele><time>2026-02-14T14:47:20.000Z</time></trkpt>
        <trkpt lat="29.5246446" lon="103.3347605"><ele>2979.88</ele><time>2026-02-14T14:47:44.000Z</time></trkpt>
        <trkpt lat="29.5245452" lon="103.3347915"><ele>2981.98</ele><time>2026-02-14T14:48:00.000Z</time></trkpt>
        <trkpt lat="29.5244992" lon="103.3348016"><ele>2982.94</ele><time>2026-02-14T14:48:06.000Z</time></trkpt>
        <trkpt lat="29.5244992" lon="103.3348016"><ele>2982.94</ele><time>2026-02-14T14:48:20.000Z</time></trkpt>
        <trkpt lat="29.5244992" lon="103.3348016"><ele>2982.94</ele><time>2026-02-14T14:48:22.000Z</time></trkpt>
        <trkpt lat="29.5244992" lon="103.3348016"><ele>2982.94</ele><time>2026-02-14T14:48:52.000Z</time></trkpt>
        <trkpt lat="29.5244476" lon="103.3348983"><ele>2983.9</ele><time>2026-02-14T14:49:08.000Z</time></trkpt>
        <trkpt lat="29.5244476" lon="103.3348983"><ele>2983.9</ele><time>2026-02-14T14:49:24.000Z</time></trkpt>
        <trkpt lat="29.5243645" lon="103.3349391"><ele>2984.16</ele><time>2026-02-14T14:49:34.000Z</time></trkpt>
        <trkpt lat="29.5242757" lon="103.3349489"><ele>2984.72</ele><time>2026-02-14T14:49:44.000Z</time></trkpt>
        <trkpt lat="29.5241853" lon="103.3349693"><ele>2985.07</ele><time>2026-02-14T14:49:54.000Z</time></trkpt>
        <trkpt lat="29.5240885" lon="103.3349615"><ele>2985.73</ele><time>2026-02-14T14:50:14.000Z</time></trkpt>
        <trkpt lat="29.523995" lon="103.3349538"><ele>2985.9</ele><time>2026-02-14T14:50:24.000Z</time></trkpt>
        <trkpt lat="29.5239093" lon="103.3349172"><ele>2986.67</ele><time>2026-02-14T14:50:36.000Z</time></trkpt>
        <trkpt lat="29.5238207" lon="103.3349179"><ele>2987.58</ele><time>2026-02-14T14:50:54.000Z</time></trkpt>
        <trkpt lat="29.5237282" lon="103.3349074"><ele>2989.26</ele><time>2026-02-14T14:51:22.000Z</time></trkpt>
        <trkpt lat="29.5236316" lon="103.3348927"><ele>2990.95</ele><time>2026-02-14T14:51:36.000Z</time></trkpt>
        <trkpt lat="29.5235308" lon="103.334895"><ele>2990.94</ele><time>2026-02-14T14:51:52.000Z</time></trkpt>
        <trkpt lat="29.5234363" lon="103.334875"><ele>2991.58</ele><time>2026-02-14T14:52:10.000Z</time></trkpt>
        <trkpt lat="29.5233424" lon="103.3348461"><ele>2992.39</ele><time>2026-02-14T14:52:24.000Z</time></trkpt>
        <trkpt lat="29.523247" lon="103.3348175"><ele>2992.45</ele><time>2026-02-14T14:52:38.000Z</time></trkpt>
        <trkpt lat="29.5231532" lon="103.3347904"><ele>2992.91</ele><time>2026-02-14T14:52:50.000Z</time></trkpt>
        <trkpt lat="29.5230546" lon="103.3347636"><ele>2993.43</ele><time>2026-02-14T14:53:04.000Z</time></trkpt>
        <trkpt lat="29.5229603" lon="103.3347596"><ele>2994.36</ele><time>2026-02-14T14:53:18.000Z</time></trkpt>
        <trkpt lat="29.5228656" lon="103.3347697"><ele>2995.3</ele><time>2026-02-14T14:53:32.000Z</time></trkpt>
        <trkpt lat="29.5227732" lon="103.3348"><ele>2997.84</ele><time>2026-02-14T14:53:52.000Z</time></trkpt>
        <trkpt lat="29.5226918" lon="103.3348526"><ele>2999.96</ele><time>2026-02-14T14:54:08.000Z</time></trkpt>
        <trkpt lat="29.5226499" lon="103.3349545"><ele>3001.17</ele><time>2026-02-14T14:54:56.000Z</time></trkpt>
        <trkpt lat="29.5226437" lon="103.3350665"><ele>3001.83</ele><time>2026-02-14T14:55:28.000Z</time></trkpt>
        <trkpt lat="29.5226567" lon="103.3351828"><ele>3002.15</ele><time>2026-02-14T14:56:16.000Z</time></trkpt>
        <trkpt lat="29.5226915" lon="103.3352893"><ele>3003.62</ele><time>2026-02-14T14:56:30.000Z</time></trkpt>
        <trkpt lat="29.5227221" lon="103.3353932"><ele>3004.93</ele><time>2026-02-14T14:56:46.000Z</time></trkpt>
        <trkpt lat="29.522744" lon="103.3354989"><ele>3006.55</ele><time>2026-02-14T14:57:08.000Z</time></trkpt>
        <trkpt lat="29.522759" lon="103.3356029"><ele>3008.85</ele><time>2026-02-14T14:57:24.000Z</time></trkpt>
        <trkpt lat="29.5227606" lon="103.3357064"><ele>3011</ele><time>2026-02-14T14:57:52.000Z</time></trkpt>
        <trkpt lat="29.5227606" lon="103.3357064"><ele>3011</ele><time>2026-02-14T14:58:20.000Z</time></trkpt>
        <trkpt lat="29.5227633" lon="103.3358113"><ele>3013.15</ele><time>2026-02-14T14:58:24.000Z</time></trkpt>
        <trkpt lat="29.5227633" lon="103.3358113"><ele>3013.15</ele><time>2026-02-14T14:58:34.000Z</time></trkpt>
        <trkpt lat="29.5227318" lon="103.3359136"><ele>3015.79</ele><time>2026-02-14T14:58:50.000Z</time></trkpt>
        <trkpt lat="29.5226465" lon="103.3359519"><ele>3018.35</ele><time>2026-02-14T14:59:04.000Z</time></trkpt>
        <trkpt lat="29.5225499" lon="103.336001"><ele>3020.97</ele><time>2026-02-14T14:59:27.000Z</time></trkpt>
        <trkpt lat="29.5224963" lon="103.3360101"><ele>3022.29</ele><time>2026-02-14T14:59:35.000Z</time></trkpt>
        <trkpt lat="29.5224963" lon="103.3360101"><ele>3022.29</ele><time>2026-02-14T15:00:10.000Z</time></trkpt>
        <trkpt lat="29.5224965" lon="103.3360891"><ele>3023.76</ele><time>2026-02-14T15:00:14.000Z</time></trkpt>
        <trkpt lat="29.5224965" lon="103.3360891"><ele>3023.76</ele><time>2026-02-14T15:00:21.000Z</time></trkpt>
        <trkpt lat="29.5225071" lon="103.3361114"><ele>3023.14</ele><time>2026-02-14T15:00:23.000Z</time></trkpt>
        <trkpt lat="29.5225071" lon="103.3361114"><ele>3023.14</ele><time>2026-02-14T15:00:38.000Z</time></trkpt>
        <trkpt lat="29.5225263" lon="103.336197"><ele>3022.86</ele><time>2026-02-14T15:00:40.000Z</time></trkpt>
        <trkpt lat="29.5225263" lon="103.336197"><ele>3022.86</ele><time>2026-02-14T15:00:59.000Z</time></trkpt>
        <trkpt lat="29.5225407" lon="103.3363035"><ele>3022.56</ele><time>2026-02-14T15:01:09.000Z</time></trkpt>
        <trkpt lat="29.5225407" lon="103.3363035"><ele>3022.56</ele><time>2026-02-14T15:01:26.000Z</time></trkpt>
        <trkpt lat="29.5225407" lon="103.3363035"><ele>3022.56</ele><time>2026-02-14T15:01:34.000Z</time></trkpt>
        <trkpt lat="29.5225407" lon="103.3363035"><ele>3022.56</ele><time>2026-02-14T15:01:54.000Z</time></trkpt>
        <trkpt lat="29.5225407" lon="103.3363035"><ele>3022.56</ele><time>2026-02-14T15:02:00.000Z</time></trkpt>
        <trkpt lat="29.5225407" lon="103.3363035"><ele>3022.56</ele><time>2026-02-14T15:02:22.000Z</time></trkpt>
        <trkpt lat="29.5225138" lon="103.3364183"><ele>3022.03</ele><time>2026-02-14T15:02:30.000Z</time></trkpt>
        <trkpt lat="29.5225138" lon="103.3364183"><ele>3022.03</ele><time>2026-02-14T15:02:30.000Z</time></trkpt>
        <trkpt lat="29.5224328" lon="103.3364732"><ele>3021.82</ele><time>2026-02-14T15:02:59.000Z</time></trkpt>
        <trkpt lat="29.5224133" lon="103.3365742"><ele>3022.56</ele><time>2026-02-14T15:03:31.000Z</time></trkpt>
        <trkpt lat="29.522438" lon="103.3366809"><ele>3024.24</ele><time>2026-02-14T15:03:41.000Z</time></trkpt>
        <trkpt lat="29.5224707" lon="103.336801"><ele>3025.5</ele><time>2026-02-14T15:04:05.000Z</time></trkpt>
        <trkpt lat="29.5224778" lon="103.3369144"><ele>3023.93</ele><time>2026-02-14T15:04:15.000Z</time></trkpt>
        <trkpt lat="29.5224505" lon="103.3370166"><ele>3024.35</ele><time>2026-02-14T15:04:29.000Z</time></trkpt>
        <trkpt lat="29.5224505" lon="103.3370166"><ele>3024.35</ele><time>2026-02-14T15:05:14.000Z</time></trkpt>
        <trkpt lat="29.5224505" lon="103.3370166"><ele>3024.35</ele><time>2026-02-14T15:05:18.000Z</time></trkpt>
        <trkpt lat="29.5224505" lon="103.3370166"><ele>3024.35</ele><time>2026-02-14T15:05:34.000Z</time></trkpt>
        <trkpt lat="29.5223608" lon="103.3370851"><ele>3025.2</ele><time>2026-02-14T15:05:48.000Z</time></trkpt>
        <trkpt lat="29.5223608" lon="103.3370851"><ele>3025.2</ele><time>2026-02-14T15:06:17.000Z</time></trkpt>
        <trkpt lat="29.5224134" lon="103.3369911"><ele>3025.65</ele><time>2026-02-14T15:06:48.000Z</time></trkpt>
        <trkpt lat="29.522422" lon="103.3369873"><ele>3026.08</ele><time>2026-02-14T15:06:50.000Z</time></trkpt>
        <trkpt lat="29.522422" lon="103.3369873"><ele>3026.08</ele><time>2026-02-14T15:07:56.000Z</time></trkpt>
        <trkpt lat="29.5223543" lon="103.3370909"><ele>3026.44</ele><time>2026-02-14T15:08:22.000Z</time></trkpt>
        <trkpt lat="29.5223543" lon="103.3370909"><ele>3026.44</ele><time>2026-02-14T15:08:40.000Z</time></trkpt>
        <trkpt lat="29.5223543" lon="103.3370909"><ele>3026.44</ele><time>2026-02-14T15:09:24.000Z</time></trkpt>
        <trkpt lat="29.5223543" lon="103.3370909"><ele>3026.44</ele><time>2026-02-14T15:09:28.000Z</time></trkpt>
        <trkpt lat="29.5223543" lon="103.3370909"><ele>3026.44</ele><time>2026-02-14T15:09:50.000Z</time></trkpt>
        <trkpt lat="29.5223543" lon="103.3370909"><ele>3026.44</ele><time>2026-02-14T15:09:58.000Z</time></trkpt>
        <trkpt lat="29.5223543" lon="103.3370909"><ele>3026.44</ele><time>2026-02-14T15:11:22.000Z</time></trkpt>
        <trkpt lat="29.5223543" lon="103.3370909"><ele>3026.44</ele><time>2026-02-14T15:11:38.000Z</time></trkpt>
        <trkpt lat="29.5223543" lon="103.3370909"><ele>3026.44</ele><time>2026-02-14T15:12:18.000Z</time></trkpt>
      </trkseg>
  </trk>
</gpx>